<?xml version="1.0" encoding="UTF-8" standalone="no" ?>
<gpx xmlns="http://www.topografix.com/GPX/1/1" xmlns:xsi="http://www.w3.org/2001/XMLSchema-instance" xsi:schemaLocation="http://www.topografix.com/GPX/1/1 http://www.topografix.com/GPX/1/1/gpx.xsd" version="1.1" creator="VisuGPX - https://www.visugpx.com">
  <metadata>
    <name>Chalons-Decize-1</name>
    <desc><![CDATA[Tour de la Bourgogne à vélo]]></desc>
  </metadata>
  <trk>
    <name><![CDATA[Chelon - Decize]]></name>
    <trkseg>
      <trkpt lat="46.78416" lon="4.85284">
        <ele>200</ele>
        <time>2010-08-25T05:26:16Z</time>
      </trkpt>
      <trkpt lat="46.78461" lon="4.8528">
        <ele>187</ele>
        <time>2010-08-25T05:27:08Z</time>
      </trkpt>
      <trkpt lat="46.78504" lon="4.85244">
        <ele>190</ele>
        <time>2010-08-25T05:27:25Z</time>
      </trkpt>
      <trkpt lat="46.78549" lon="4.85215">
        <ele>204</ele>
        <time>2010-08-25T05:27:43Z</time>
      </trkpt>
      <trkpt lat="46.78594" lon="4.85187">
        <ele>221</ele>
        <time>2010-08-25T05:28:00Z</time>
      </trkpt>
      <trkpt lat="46.7864" lon="4.85163">
        <ele>220</ele>
        <time>2010-08-25T05:28:16Z</time>
      </trkpt>
      <trkpt lat="46.78688" lon="4.85132">
        <ele>218</ele>
        <time>2010-08-25T05:29:09Z</time>
      </trkpt>
      <trkpt lat="46.78737" lon="4.85117">
        <ele>217</ele>
        <time>2010-08-25T05:29:19Z</time>
      </trkpt>
      <trkpt lat="46.78791" lon="4.85101">
        <ele>219</ele>
        <time>2010-08-25T05:29:29Z</time>
      </trkpt>
      <trkpt lat="46.78842" lon="4.85085">
        <ele>214</ele>
        <time>2010-08-25T05:29:39Z</time>
      </trkpt>
      <trkpt lat="46.78893" lon="4.85069">
        <ele>211</ele>
        <time>2010-08-25T05:29:48Z</time>
      </trkpt>
      <trkpt lat="46.78942" lon="4.85051">
        <ele>209</ele>
        <time>2010-08-25T05:29:57Z</time>
      </trkpt>
      <trkpt lat="46.78994" lon="4.85032">
        <ele>209</ele>
        <time>2010-08-25T05:30:07Z</time>
      </trkpt>
      <trkpt lat="46.79047" lon="4.85014">
        <ele>206</ele>
        <time>2010-08-25T05:30:17Z</time>
      </trkpt>
      <trkpt lat="46.79097" lon="4.84997">
        <ele>204</ele>
        <time>2010-08-25T05:30:27Z</time>
      </trkpt>
      <trkpt lat="46.79147" lon="4.84976">
        <ele>202</ele>
        <time>2010-08-25T05:30:39Z</time>
      </trkpt>
      <trkpt lat="46.79195" lon="4.84967">
        <ele>199</ele>
        <time>2010-08-25T05:30:58Z</time>
      </trkpt>
      <trkpt lat="46.79247" lon="4.84946">
        <ele>197</ele>
        <time>2010-08-25T05:31:09Z</time>
      </trkpt>
      <trkpt lat="46.793" lon="4.84927">
        <ele>197</ele>
        <time>2010-08-25T05:31:20Z</time>
      </trkpt>
      <trkpt lat="46.79349" lon="4.84909">
        <ele>197</ele>
        <time>2010-08-25T05:31:30Z</time>
      </trkpt>
      <trkpt lat="46.79398" lon="4.84894">
        <ele>197</ele>
        <time>2010-08-25T05:31:40Z</time>
      </trkpt>
      <trkpt lat="46.79443" lon="4.84853">
        <ele>197</ele>
        <time>2010-08-25T05:31:52Z</time>
      </trkpt>
      <trkpt lat="46.79466" lon="4.84784">
        <ele>195</ele>
        <time>2010-08-25T05:32:02Z</time>
      </trkpt>
      <trkpt lat="46.79486" lon="4.84715">
        <ele>194</ele>
        <time>2010-08-25T05:32:12Z</time>
      </trkpt>
      <trkpt lat="46.79499" lon="4.84638">
        <ele>193</ele>
        <time>2010-08-25T05:32:23Z</time>
      </trkpt>
      <trkpt lat="46.79519" lon="4.84564">
        <ele>193</ele>
        <time>2010-08-25T05:32:35Z</time>
      </trkpt>
      <trkpt lat="46.79541" lon="4.84498">
        <ele>193</ele>
        <time>2010-08-25T05:32:45Z</time>
      </trkpt>
      <trkpt lat="46.79564" lon="4.84431">
        <ele>193</ele>
        <time>2010-08-25T05:32:55Z</time>
      </trkpt>
      <trkpt lat="46.79586" lon="4.84361">
        <ele>191</ele>
        <time>2010-08-25T05:33:05Z</time>
      </trkpt>
      <trkpt lat="46.79619" lon="4.84304">
        <ele>190</ele>
        <time>2010-08-25T05:33:15Z</time>
      </trkpt>
      <trkpt lat="46.79662" lon="4.84258">
        <ele>190</ele>
        <time>2010-08-25T05:33:25Z</time>
      </trkpt>
      <trkpt lat="46.79705" lon="4.84213">
        <ele>189</ele>
        <time>2010-08-25T05:33:35Z</time>
      </trkpt>
      <trkpt lat="46.79742" lon="4.84161">
        <ele>189</ele>
        <time>2010-08-25T05:33:45Z</time>
      </trkpt>
      <trkpt lat="46.79773" lon="4.84093">
        <ele>189</ele>
        <time>2010-08-25T05:33:55Z</time>
      </trkpt>
      <trkpt lat="46.79802" lon="4.84024">
        <ele>188</ele>
        <time>2010-08-25T05:34:05Z</time>
      </trkpt>
      <trkpt lat="46.79822" lon="4.83953">
        <ele>189</ele>
        <time>2010-08-25T05:34:15Z</time>
      </trkpt>
      <trkpt lat="46.79843" lon="4.83881">
        <ele>189</ele>
        <time>2010-08-25T05:34:26Z</time>
      </trkpt>
      <trkpt lat="46.79892" lon="4.83861">
        <ele>190</ele>
        <time>2010-08-25T05:34:36Z</time>
      </trkpt>
      <trkpt lat="46.79929" lon="4.8381">
        <ele>191</ele>
        <time>2010-08-25T05:34:48Z</time>
      </trkpt>
      <trkpt lat="46.79919" lon="4.83731">
        <ele>192</ele>
        <time>2010-08-25T05:34:58Z</time>
      </trkpt>
      <trkpt lat="46.79908" lon="4.8365">
        <ele>191</ele>
        <time>2010-08-25T05:35:08Z</time>
      </trkpt>
      <trkpt lat="46.79903" lon="4.83568">
        <ele>185</ele>
        <time>2010-08-25T05:35:17Z</time>
      </trkpt>
      <trkpt lat="46.79947" lon="4.83527">
        <ele>183</ele>
        <time>2010-08-25T05:35:26Z</time>
      </trkpt>
      <trkpt lat="46.79996" lon="4.83491">
        <ele>182</ele>
        <time>2010-08-25T05:35:36Z</time>
      </trkpt>
      <trkpt lat="46.80046" lon="4.83472">
        <ele>183</ele>
        <time>2010-08-25T05:35:46Z</time>
      </trkpt>
      <trkpt lat="46.80101" lon="4.83482">
        <ele>183</ele>
        <time>2010-08-25T05:35:56Z</time>
      </trkpt>
      <trkpt lat="46.80148" lon="4.83518">
        <ele>182</ele>
        <time>2010-08-25T05:36:06Z</time>
      </trkpt>
      <trkpt lat="46.80195" lon="4.8355">
        <ele>182</ele>
        <time>2010-08-25T05:36:16Z</time>
      </trkpt>
      <trkpt lat="46.80241" lon="4.83579">
        <ele>182</ele>
        <time>2010-08-25T05:36:26Z</time>
      </trkpt>
      <trkpt lat="46.8029" lon="4.83603">
        <ele>182</ele>
        <time>2010-08-25T05:36:36Z</time>
      </trkpt>
      <trkpt lat="46.80341" lon="4.83624">
        <ele>182</ele>
        <time>2010-08-25T05:36:46Z</time>
      </trkpt>
      <trkpt lat="46.80394" lon="4.83642">
        <ele>183</ele>
        <time>2010-08-25T05:36:58Z</time>
      </trkpt>
      <trkpt lat="46.80444" lon="4.83662">
        <ele>186</ele>
        <time>2010-08-25T05:37:13Z</time>
      </trkpt>
      <trkpt lat="46.80482" lon="4.83707">
        <ele>185</ele>
        <time>2010-08-25T05:42:40Z</time>
      </trkpt>
      <trkpt lat="46.8049" lon="4.83784">
        <ele>184</ele>
        <time>2010-08-25T05:42:52Z</time>
      </trkpt>
      <trkpt lat="46.80494" lon="4.83861">
        <ele>184</ele>
        <time>2010-08-25T05:43:03Z</time>
      </trkpt>
      <trkpt lat="46.80529" lon="4.83922">
        <ele>183</ele>
        <time>2010-08-25T05:43:14Z</time>
      </trkpt>
      <trkpt lat="46.80572" lon="4.83961">
        <ele>183</ele>
        <time>2010-08-25T05:43:24Z</time>
      </trkpt>
      <trkpt lat="46.80637" lon="4.83975">
        <ele>184</ele>
        <time>2010-08-25T05:43:37Z</time>
      </trkpt>
      <trkpt lat="46.80688" lon="4.83969">
        <ele>185</ele>
        <time>2010-08-25T05:43:47Z</time>
      </trkpt>
      <trkpt lat="46.8074" lon="4.83944">
        <ele>186</ele>
        <time>2010-08-25T05:43:58Z</time>
      </trkpt>
      <trkpt lat="46.80792" lon="4.83941">
        <ele>186</ele>
        <time>2010-08-25T05:44:08Z</time>
      </trkpt>
      <trkpt lat="46.80846" lon="4.83956">
        <ele>186</ele>
        <time>2010-08-25T05:44:18Z</time>
      </trkpt>
      <trkpt lat="46.80899" lon="4.83946">
        <ele>187</ele>
        <time>2010-08-25T05:44:28Z</time>
      </trkpt>
      <trkpt lat="46.80949" lon="4.83917">
        <ele>187</ele>
        <time>2010-08-25T05:44:38Z</time>
      </trkpt>
      <trkpt lat="46.80996" lon="4.83878">
        <ele>186</ele>
        <time>2010-08-25T05:44:48Z</time>
      </trkpt>
      <trkpt lat="46.81043" lon="4.83834">
        <ele>186</ele>
        <time>2010-08-25T05:44:58Z</time>
      </trkpt>
      <trkpt lat="46.81089" lon="4.83787">
        <ele>186</ele>
        <time>2010-08-25T05:45:08Z</time>
      </trkpt>
      <trkpt lat="46.81139" lon="4.83759">
        <ele>187</ele>
        <time>2010-08-25T05:45:18Z</time>
      </trkpt>
      <trkpt lat="46.81192" lon="4.83778">
        <ele>187</ele>
        <time>2010-08-25T05:45:28Z</time>
      </trkpt>
      <trkpt lat="46.81231" lon="4.83835">
        <ele>187</ele>
        <time>2010-08-25T05:45:38Z</time>
      </trkpt>
      <trkpt lat="46.81262" lon="4.839">
        <ele>186</ele>
        <time>2010-08-25T05:45:48Z</time>
      </trkpt>
      <trkpt lat="46.81296" lon="4.83964">
        <ele>184</ele>
        <time>2010-08-25T05:45:58Z</time>
      </trkpt>
      <trkpt lat="46.81344" lon="4.84002">
        <ele>183</ele>
        <time>2010-08-25T05:46:08Z</time>
      </trkpt>
      <trkpt lat="46.81394" lon="4.83991">
        <ele>183</ele>
        <time>2010-08-25T05:46:17Z</time>
      </trkpt>
      <trkpt lat="46.81449" lon="4.83976">
        <ele>183</ele>
        <time>2010-08-25T05:46:27Z</time>
      </trkpt>
      <trkpt lat="46.81499" lon="4.83961">
        <ele>183</ele>
        <time>2010-08-25T05:46:36Z</time>
      </trkpt>
      <trkpt lat="46.81554" lon="4.83945">
        <ele>183</ele>
        <time>2010-08-25T05:46:46Z</time>
      </trkpt>
      <trkpt lat="46.81606" lon="4.83949">
        <ele>184</ele>
        <time>2010-08-25T05:46:56Z</time>
      </trkpt>
      <trkpt lat="46.81651" lon="4.83982">
        <ele>184</ele>
        <time>2010-08-25T05:47:06Z</time>
      </trkpt>
      <trkpt lat="46.81701" lon="4.84002">
        <ele>186</ele>
        <time>2010-08-25T05:47:17Z</time>
      </trkpt>
      <trkpt lat="46.81749" lon="4.84037">
        <ele>187</ele>
        <time>2010-08-25T05:47:27Z</time>
      </trkpt>
      <trkpt lat="46.81783" lon="4.84095">
        <ele>185</ele>
        <time>2010-08-25T05:47:37Z</time>
      </trkpt>
      <trkpt lat="46.81813" lon="4.84156">
        <ele>184</ele>
        <time>2010-08-25T05:47:47Z</time>
      </trkpt>
      <trkpt lat="46.8185" lon="4.84214">
        <ele>182</ele>
        <time>2010-08-25T05:47:58Z</time>
      </trkpt>
      <trkpt lat="46.81894" lon="4.84252">
        <ele>181</ele>
        <time>2010-08-25T05:48:08Z</time>
      </trkpt>
      <trkpt lat="46.81945" lon="4.84278">
        <ele>182</ele>
        <time>2010-08-25T05:48:18Z</time>
      </trkpt>
      <trkpt lat="46.81999" lon="4.84296">
        <ele>183</ele>
        <time>2010-08-25T05:48:28Z</time>
      </trkpt>
      <trkpt lat="46.82053" lon="4.84312">
        <ele>183</ele>
        <time>2010-08-25T05:48:38Z</time>
      </trkpt>
      <trkpt lat="46.82103" lon="4.84341">
        <ele>184</ele>
        <time>2010-08-25T05:48:48Z</time>
      </trkpt>
      <trkpt lat="46.82132" lon="4.84406">
        <ele>184</ele>
        <time>2010-08-25T05:48:58Z</time>
      </trkpt>
      <trkpt lat="46.82144" lon="4.8448">
        <ele>184</ele>
        <time>2010-08-25T05:49:08Z</time>
      </trkpt>
      <trkpt lat="46.82132" lon="4.84557">
        <ele>186</ele>
        <time>2010-08-25T05:49:19Z</time>
      </trkpt>
      <trkpt lat="46.82154" lon="4.84627">
        <ele>187</ele>
        <time>2010-08-25T05:49:30Z</time>
      </trkpt>
      <trkpt lat="46.82206" lon="4.84641">
        <ele>188</ele>
        <time>2010-08-25T05:49:40Z</time>
      </trkpt>
      <trkpt lat="46.82262" lon="4.84649">
        <ele>189</ele>
        <time>2010-08-25T05:49:50Z</time>
      </trkpt>
      <trkpt lat="46.82312" lon="4.84649">
        <ele>190</ele>
        <time>2010-08-25T05:49:59Z</time>
      </trkpt>
      <trkpt lat="46.82364" lon="4.84646">
        <ele>190</ele>
        <time>2010-08-25T05:50:08Z</time>
      </trkpt>
      <trkpt lat="46.82416" lon="4.84643">
        <ele>190</ele>
        <time>2010-08-25T05:50:17Z</time>
      </trkpt>
      <trkpt lat="46.82467" lon="4.84668">
        <ele>189</ele>
        <time>2010-08-25T05:50:27Z</time>
      </trkpt>
      <trkpt lat="46.82486" lon="4.84738">
        <ele>188</ele>
        <time>2010-08-25T05:50:37Z</time>
      </trkpt>
      <trkpt lat="46.825" lon="4.84814">
        <ele>186</ele>
        <time>2010-08-25T05:50:47Z</time>
      </trkpt>
      <trkpt lat="46.82512" lon="4.84893">
        <ele>185</ele>
        <time>2010-08-25T05:50:57Z</time>
      </trkpt>
      <trkpt lat="46.82529" lon="4.84965">
        <ele>184</ele>
        <time>2010-08-25T05:51:07Z</time>
      </trkpt>
      <trkpt lat="46.82579" lon="4.85">
        <ele>184</ele>
        <time>2010-08-25T05:51:17Z</time>
      </trkpt>
      <trkpt lat="46.82627" lon="4.85038">
        <ele>184</ele>
        <time>2010-08-25T05:51:27Z</time>
      </trkpt>
      <trkpt lat="46.82677" lon="4.85054">
        <ele>185</ele>
        <time>2010-08-25T05:51:36Z</time>
      </trkpt>
      <trkpt lat="46.82728" lon="4.85043">
        <ele>185</ele>
        <time>2010-08-25T05:51:45Z</time>
      </trkpt>
      <trkpt lat="46.82778" lon="4.85031">
        <ele>186</ele>
        <time>2010-08-25T05:51:54Z</time>
      </trkpt>
      <trkpt lat="46.82829" lon="4.85018">
        <ele>186</ele>
        <time>2010-08-25T05:52:03Z</time>
      </trkpt>
      <trkpt lat="46.82878" lon="4.85004">
        <ele>187</ele>
        <time>2010-08-25T05:52:12Z</time>
      </trkpt>
      <trkpt lat="46.82932" lon="4.84976">
        <ele>188</ele>
        <time>2010-08-25T05:52:22Z</time>
      </trkpt>
      <trkpt lat="46.82977" lon="4.84943">
        <ele>188</ele>
        <time>2010-08-25T05:52:31Z</time>
      </trkpt>
      <trkpt lat="46.83027" lon="4.84905">
        <ele>186</ele>
        <time>2010-08-25T05:52:41Z</time>
      </trkpt>
      <trkpt lat="46.83072" lon="4.84871">
        <ele>185</ele>
        <time>2010-08-25T05:52:50Z</time>
      </trkpt>
      <trkpt lat="46.83119" lon="4.84836">
        <ele>185</ele>
        <time>2010-08-25T05:52:59Z</time>
      </trkpt>
      <trkpt lat="46.83165" lon="4.84801">
        <ele>185</ele>
        <time>2010-08-25T05:53:08Z</time>
      </trkpt>
      <trkpt lat="46.83214" lon="4.84762">
        <ele>184</ele>
        <time>2010-08-25T05:53:18Z</time>
      </trkpt>
      <trkpt lat="46.83255" lon="4.84707">
        <ele>183</ele>
        <time>2010-08-25T05:53:28Z</time>
      </trkpt>
      <trkpt lat="46.83282" lon="4.84642">
        <ele>184</ele>
        <time>2010-08-25T05:53:37Z</time>
      </trkpt>
      <trkpt lat="46.83296" lon="4.8457">
        <ele>185</ele>
        <time>2010-08-25T05:53:46Z</time>
      </trkpt>
      <trkpt lat="46.83303" lon="4.84494">
        <ele>185</ele>
        <time>2010-08-25T05:53:55Z</time>
      </trkpt>
      <trkpt lat="46.83313" lon="4.84421">
        <ele>186</ele>
        <time>2010-08-25T05:54:04Z</time>
      </trkpt>
      <trkpt lat="46.83326" lon="4.84341">
        <ele>186</ele>
        <time>2010-08-25T05:54:14Z</time>
      </trkpt>
      <trkpt lat="46.83343" lon="4.84264">
        <ele>187</ele>
        <time>2010-08-25T05:54:24Z</time>
      </trkpt>
      <trkpt lat="46.8335" lon="4.8419">
        <ele>187</ele>
        <time>2010-08-25T05:54:33Z</time>
      </trkpt>
      <trkpt lat="46.83344" lon="4.84114">
        <ele>187</ele>
        <time>2010-08-25T05:54:42Z</time>
      </trkpt>
      <trkpt lat="46.83341" lon="4.84038">
        <ele>186</ele>
        <time>2010-08-25T05:54:51Z</time>
      </trkpt>
      <trkpt lat="46.83346" lon="4.83964">
        <ele>187</ele>
        <time>2010-08-25T05:55:00Z</time>
      </trkpt>
      <trkpt lat="46.83357" lon="4.83888">
        <ele>187</ele>
        <time>2010-08-25T05:55:10Z</time>
      </trkpt>
      <trkpt lat="46.83371" lon="4.83814">
        <ele>189</ele>
        <time>2010-08-25T05:55:26Z</time>
      </trkpt>
      <trkpt lat="46.83384" lon="4.83741">
        <ele>188</ele>
        <time>2010-08-25T05:55:40Z</time>
      </trkpt>
      <trkpt lat="46.83389" lon="4.8367">
        <ele>188</ele>
        <time>2010-08-25T05:57:38Z</time>
      </trkpt>
      <trkpt lat="46.83391" lon="4.8359">
        <ele>188</ele>
        <time>2010-08-25T05:57:49Z</time>
      </trkpt>
      <trkpt lat="46.83412" lon="4.83517">
        <ele>188</ele>
        <time>2010-08-25T05:57:59Z</time>
      </trkpt>
      <trkpt lat="46.83437" lon="4.83452">
        <ele>188</ele>
        <time>2010-08-25T05:58:08Z</time>
      </trkpt>
      <trkpt lat="46.83458" lon="4.83377">
        <ele>188</ele>
        <time>2010-08-25T05:58:18Z</time>
      </trkpt>
      <trkpt lat="46.8348" lon="4.83303">
        <ele>189</ele>
        <time>2010-08-25T05:58:28Z</time>
      </trkpt>
      <trkpt lat="46.83541" lon="4.83147">
        <ele>189</ele>
        <time>2010-08-25T05:58:50Z</time>
      </trkpt>
      <trkpt lat="46.83565" lon="4.83078">
        <ele>189</ele>
        <time>2010-08-25T05:58:59Z</time>
      </trkpt>
      <trkpt lat="46.83599" lon="4.83024">
        <ele>189</ele>
        <time>2010-08-25T05:59:08Z</time>
      </trkpt>
      <trkpt lat="46.83649" lon="4.83004">
        <ele>189</ele>
        <time>2010-08-25T05:59:17Z</time>
      </trkpt>
      <trkpt lat="46.83701" lon="4.82996">
        <ele>189</ele>
        <time>2010-08-25T05:59:26Z</time>
      </trkpt>
      <trkpt lat="46.8375" lon="4.82976">
        <ele>189</ele>
        <time>2010-08-25T05:59:35Z</time>
      </trkpt>
      <trkpt lat="46.83796" lon="4.82944">
        <ele>188</ele>
        <time>2010-08-25T05:59:44Z</time>
      </trkpt>
      <trkpt lat="46.83836" lon="4.82894">
        <ele>188</ele>
        <time>2010-08-25T05:59:53Z</time>
      </trkpt>
      <trkpt lat="46.83871" lon="4.82834">
        <ele>189</ele>
        <time>2010-08-25T06:00:02Z</time>
      </trkpt>
      <trkpt lat="46.83915" lon="4.82797">
        <ele>189</ele>
        <time>2010-08-25T06:00:11Z</time>
      </trkpt>
      <trkpt lat="46.83968" lon="4.8278">
        <ele>189</ele>
        <time>2010-08-25T06:00:21Z</time>
      </trkpt>
      <trkpt lat="46.84015" lon="4.82748">
        <ele>189</ele>
        <time>2010-08-25T06:00:30Z</time>
      </trkpt>
      <trkpt lat="46.84052" lon="4.82694">
        <ele>189</ele>
        <time>2010-08-25T06:00:39Z</time>
      </trkpt>
      <trkpt lat="46.84077" lon="4.82627">
        <ele>189</ele>
        <time>2010-08-25T06:00:48Z</time>
      </trkpt>
      <trkpt lat="46.84118" lon="4.82579">
        <ele>190</ele>
        <time>2010-08-25T06:00:58Z</time>
      </trkpt>
      <trkpt lat="46.84166" lon="4.82553">
        <ele>192</ele>
        <time>2010-08-25T06:01:10Z</time>
      </trkpt>
      <trkpt lat="46.84215" lon="4.82519">
        <ele>192</ele>
        <time>2010-08-25T06:01:20Z</time>
      </trkpt>
      <trkpt lat="46.84258" lon="4.82465">
        <ele>192</ele>
        <time>2010-08-25T06:01:30Z</time>
      </trkpt>
      <trkpt lat="46.84291" lon="4.82407">
        <ele>192</ele>
        <time>2010-08-25T06:01:39Z</time>
      </trkpt>
      <trkpt lat="46.84335" lon="4.82362">
        <ele>191</ele>
        <time>2010-08-25T06:01:48Z</time>
      </trkpt>
      <trkpt lat="46.8438" lon="4.8232">
        <ele>191</ele>
        <time>2010-08-25T06:01:57Z</time>
      </trkpt>
      <trkpt lat="46.84429" lon="4.82296">
        <ele>191</ele>
        <time>2010-08-25T06:02:06Z</time>
      </trkpt>
      <trkpt lat="46.84481" lon="4.82308">
        <ele>192</ele>
        <time>2010-08-25T06:02:15Z</time>
      </trkpt>
      <trkpt lat="46.84532" lon="4.82313">
        <ele>192</ele>
        <time>2010-08-25T06:02:24Z</time>
      </trkpt>
      <trkpt lat="46.84578" lon="4.8228">
        <ele>192</ele>
        <time>2010-08-25T06:02:33Z</time>
      </trkpt>
      <trkpt lat="46.84606" lon="4.82218">
        <ele>192</ele>
        <time>2010-08-25T06:02:42Z</time>
      </trkpt>
      <trkpt lat="46.84626" lon="4.82148">
        <ele>193</ele>
        <time>2010-08-25T06:02:51Z</time>
      </trkpt>
      <trkpt lat="46.84659" lon="4.8209">
        <ele>193</ele>
        <time>2010-08-25T06:03:01Z</time>
      </trkpt>
      <trkpt lat="46.84689" lon="4.8203">
        <ele>193</ele>
        <time>2010-08-25T06:03:11Z</time>
      </trkpt>
      <trkpt lat="46.84712" lon="4.81955">
        <ele>194</ele>
        <time>2010-08-25T06:03:21Z</time>
      </trkpt>
      <trkpt lat="46.84721" lon="4.81879">
        <ele>193</ele>
        <time>2010-08-25T06:03:30Z</time>
      </trkpt>
      <trkpt lat="46.84715" lon="4.81802">
        <ele>193</ele>
        <time>2010-08-25T06:03:39Z</time>
      </trkpt>
      <trkpt lat="46.84713" lon="4.81724">
        <ele>193</ele>
        <time>2010-08-25T06:03:48Z</time>
      </trkpt>
      <trkpt lat="46.84727" lon="4.81648">
        <ele>193</ele>
        <time>2010-08-25T06:03:57Z</time>
      </trkpt>
      <trkpt lat="46.84742" lon="4.81574">
        <ele>194</ele>
        <time>2010-08-25T06:04:06Z</time>
      </trkpt>
      <trkpt lat="46.84755" lon="4.815">
        <ele>195</ele>
        <time>2010-08-25T06:04:15Z</time>
      </trkpt>
      <trkpt lat="46.84763" lon="4.81422">
        <ele>195</ele>
        <time>2010-08-25T06:04:24Z</time>
      </trkpt>
      <trkpt lat="46.84752" lon="4.81346">
        <ele>194</ele>
        <time>2010-08-25T06:04:33Z</time>
      </trkpt>
      <trkpt lat="46.84739" lon="4.81271">
        <ele>193</ele>
        <time>2010-08-25T06:04:42Z</time>
      </trkpt>
      <trkpt lat="46.84725" lon="4.81195">
        <ele>192</ele>
        <time>2010-08-25T06:04:51Z</time>
      </trkpt>
      <trkpt lat="46.84713" lon="4.81119">
        <ele>192</ele>
        <time>2010-08-25T06:05:00Z</time>
      </trkpt>
      <trkpt lat="46.84724" lon="4.81046">
        <ele>193</ele>
        <time>2010-08-25T06:05:09Z</time>
      </trkpt>
      <trkpt lat="46.84736" lon="4.80973">
        <ele>193</ele>
        <time>2010-08-25T06:05:18Z</time>
      </trkpt>
      <trkpt lat="46.8474" lon="4.80892">
        <ele>193</ele>
        <time>2010-08-25T06:05:28Z</time>
      </trkpt>
      <trkpt lat="46.84742" lon="4.80813">
        <ele>194</ele>
        <time>2010-08-25T06:05:37Z</time>
      </trkpt>
      <trkpt lat="46.84758" lon="4.8074">
        <ele>197</ele>
        <time>2010-08-25T06:05:49Z</time>
      </trkpt>
      <trkpt lat="46.84776" lon="4.80674">
        <ele>197</ele>
        <time>2010-08-25T06:06:07Z</time>
      </trkpt>
      <trkpt lat="46.84796" lon="4.80603">
        <ele>197</ele>
        <time>2010-08-25T06:06:19Z</time>
      </trkpt>
      <trkpt lat="46.84816" lon="4.80536">
        <ele>197</ele>
        <time>2010-08-25T06:06:29Z</time>
      </trkpt>
      <trkpt lat="46.84837" lon="4.80463">
        <ele>198</ele>
        <time>2010-08-25T06:06:39Z</time>
      </trkpt>
      <trkpt lat="46.84859" lon="4.80388">
        <ele>198</ele>
        <time>2010-08-25T06:06:49Z</time>
      </trkpt>
      <trkpt lat="46.84879" lon="4.80319">
        <ele>198</ele>
        <time>2010-08-25T06:06:58Z</time>
      </trkpt>
      <trkpt lat="46.84909" lon="4.80259">
        <ele>198</ele>
        <time>2010-08-25T06:07:07Z</time>
      </trkpt>
      <trkpt lat="46.84953" lon="4.80218">
        <ele>199</ele>
        <time>2010-08-25T06:07:16Z</time>
      </trkpt>
      <trkpt lat="46.84998" lon="4.8018">
        <ele>199</ele>
        <time>2010-08-25T06:07:25Z</time>
      </trkpt>
      <trkpt lat="46.85044" lon="4.80141">
        <ele>198</ele>
        <time>2010-08-25T06:07:34Z</time>
      </trkpt>
      <trkpt lat="46.85091" lon="4.80103">
        <ele>197</ele>
        <time>2010-08-25T06:07:43Z</time>
      </trkpt>
      <trkpt lat="46.85141" lon="4.80073">
        <ele>197</ele>
        <time>2010-08-25T06:07:52Z</time>
      </trkpt>
      <trkpt lat="46.85194" lon="4.80057">
        <ele>197</ele>
        <time>2010-08-25T06:08:01Z</time>
      </trkpt>
      <trkpt lat="46.85249" lon="4.80052">
        <ele>197</ele>
        <time>2010-08-25T06:08:10Z</time>
      </trkpt>
      <trkpt lat="46.853" lon="4.80065">
        <ele>197</ele>
        <time>2010-08-25T06:08:19Z</time>
      </trkpt>
      <trkpt lat="46.85355" lon="4.80067">
        <ele>197</ele>
        <time>2010-08-25T06:08:28Z</time>
      </trkpt>
      <trkpt lat="46.854" lon="4.80032">
        <ele>197</ele>
        <time>2010-08-25T06:08:37Z</time>
      </trkpt>
      <trkpt lat="46.85442" lon="4.79984">
        <ele>197</ele>
        <time>2010-08-25T06:08:46Z</time>
      </trkpt>
      <trkpt lat="46.85491" lon="4.79955">
        <ele>198</ele>
        <time>2010-08-25T06:08:55Z</time>
      </trkpt>
      <trkpt lat="46.85543" lon="4.79928">
        <ele>199</ele>
        <time>2010-08-25T06:09:04Z</time>
      </trkpt>
      <trkpt lat="46.85592" lon="4.79902">
        <ele>199</ele>
        <time>2010-08-25T06:09:13Z</time>
      </trkpt>
      <trkpt lat="46.85642" lon="4.79874">
        <ele>199</ele>
        <time>2010-08-25T06:09:22Z</time>
      </trkpt>
      <trkpt lat="46.85691" lon="4.79846">
        <ele>198</ele>
        <time>2010-08-25T06:09:31Z</time>
      </trkpt>
      <trkpt lat="46.85739" lon="4.79813">
        <ele>197</ele>
        <time>2010-08-25T06:09:40Z</time>
      </trkpt>
      <trkpt lat="46.85785" lon="4.79779">
        <ele>196</ele>
        <time>2010-08-25T06:09:49Z</time>
      </trkpt>
      <trkpt lat="46.85833" lon="4.7974">
        <ele>197</ele>
        <time>2010-08-25T06:10:00Z</time>
      </trkpt>
      <trkpt lat="46.85878" lon="4.79705">
        <ele>197</ele>
        <time>2010-08-25T06:10:15Z</time>
      </trkpt>
      <trkpt lat="46.85927" lon="4.79685">
        <ele>197</ele>
        <time>2010-08-25T06:11:10Z</time>
      </trkpt>
      <trkpt lat="46.85975" lon="4.79653">
        <ele>197</ele>
        <time>2010-08-25T06:11:20Z</time>
      </trkpt>
      <trkpt lat="46.86021" lon="4.79624">
        <ele>198</ele>
        <time>2010-08-25T06:11:29Z</time>
      </trkpt>
      <trkpt lat="46.86069" lon="4.79594">
        <ele>199</ele>
        <time>2010-08-25T06:11:38Z</time>
      </trkpt>
      <trkpt lat="46.86116" lon="4.7956">
        <ele>199</ele>
        <time>2010-08-25T06:11:47Z</time>
      </trkpt>
      <trkpt lat="46.8616" lon="4.79519">
        <ele>199</ele>
        <time>2010-08-25T06:11:56Z</time>
      </trkpt>
      <trkpt lat="46.86205" lon="4.79474">
        <ele>199</ele>
        <time>2010-08-25T06:12:05Z</time>
      </trkpt>
      <trkpt lat="46.86249" lon="4.79431">
        <ele>199</ele>
        <time>2010-08-25T06:12:14Z</time>
      </trkpt>
      <trkpt lat="46.86294" lon="4.79386">
        <ele>201</ele>
        <time>2010-08-25T06:12:24Z</time>
      </trkpt>
      <trkpt lat="46.8634" lon="4.7934">
        <ele>200</ele>
        <time>2010-08-25T06:12:34Z</time>
      </trkpt>
      <trkpt lat="46.86382" lon="4.79297">
        <ele>199</ele>
        <time>2010-08-25T06:12:43Z</time>
      </trkpt>
      <trkpt lat="46.86428" lon="4.79253">
        <ele>199</ele>
        <time>2010-08-25T06:12:52Z</time>
      </trkpt>
      <trkpt lat="46.86477" lon="4.79225">
        <ele>198</ele>
        <time>2010-08-25T06:13:01Z</time>
      </trkpt>
      <trkpt lat="46.8653" lon="4.79207">
        <ele>198</ele>
        <time>2010-08-25T06:13:11Z</time>
      </trkpt>
      <trkpt lat="46.86579" lon="4.79192">
        <ele>200</ele>
        <time>2010-08-25T06:13:25Z</time>
      </trkpt>
      <trkpt lat="46.86628" lon="4.79172">
        <ele>200</ele>
        <time>2010-08-25T06:13:35Z</time>
      </trkpt>
      <trkpt lat="46.86674" lon="4.79127">
        <ele>200</ele>
        <time>2010-08-25T06:13:45Z</time>
      </trkpt>
      <trkpt lat="46.86713" lon="4.79076">
        <ele>199</ele>
        <time>2010-08-25T06:13:54Z</time>
      </trkpt>
      <trkpt lat="46.86748" lon="4.79021">
        <ele>198</ele>
        <time>2010-08-25T06:14:03Z</time>
      </trkpt>
      <trkpt lat="46.86764" lon="4.78947">
        <ele>198</ele>
        <time>2010-08-25T06:14:12Z</time>
      </trkpt>
      <trkpt lat="46.86785" lon="4.78878">
        <ele>197</ele>
        <time>2010-08-25T06:14:21Z</time>
      </trkpt>
      <trkpt lat="46.8682" lon="4.78819">
        <ele>197</ele>
        <time>2010-08-25T06:14:30Z</time>
      </trkpt>
      <trkpt lat="46.86857" lon="4.7876">
        <ele>197</ele>
        <time>2010-08-25T06:14:39Z</time>
      </trkpt>
      <trkpt lat="46.86894" lon="4.78702">
        <ele>198</ele>
        <time>2010-08-25T06:14:48Z</time>
      </trkpt>
      <trkpt lat="46.86937" lon="4.78662">
        <ele>199</ele>
        <time>2010-08-25T06:14:57Z</time>
      </trkpt>
      <trkpt lat="46.86987" lon="4.78641">
        <ele>201</ele>
        <time>2010-08-25T06:15:07Z</time>
      </trkpt>
      <trkpt lat="46.87033" lon="4.78608">
        <ele>202</ele>
        <time>2010-08-25T06:15:20Z</time>
      </trkpt>
      <trkpt lat="46.87055" lon="4.78545">
        <ele>203</ele>
        <time>2010-08-25T06:15:35Z</time>
      </trkpt>
      <trkpt lat="46.87072" lon="4.78477">
        <ele>204</ele>
        <time>2010-08-25T06:17:16Z</time>
      </trkpt>
      <trkpt lat="46.87088" lon="4.78404">
        <ele>203</ele>
        <time>2010-08-25T06:17:26Z</time>
      </trkpt>
      <trkpt lat="46.87114" lon="4.78334">
        <ele>205</ele>
        <time>2010-08-25T06:17:36Z</time>
      </trkpt>
      <trkpt lat="46.87138" lon="4.78266">
        <ele>205</ele>
        <time>2010-08-25T06:17:45Z</time>
      </trkpt>
      <trkpt lat="46.87155" lon="4.78194">
        <ele>205</ele>
        <time>2010-08-25T06:17:54Z</time>
      </trkpt>
      <trkpt lat="46.87169" lon="4.78116">
        <ele>204</ele>
        <time>2010-08-25T06:18:03Z</time>
      </trkpt>
      <trkpt lat="46.87185" lon="4.78041">
        <ele>203</ele>
        <time>2010-08-25T06:18:12Z</time>
      </trkpt>
      <trkpt lat="46.87216" lon="4.77982">
        <ele>202</ele>
        <time>2010-08-25T06:18:21Z</time>
      </trkpt>
      <trkpt lat="46.87264" lon="4.77951">
        <ele>202</ele>
        <time>2010-08-25T06:18:30Z</time>
      </trkpt>
      <trkpt lat="46.87315" lon="4.77922">
        <ele>203</ele>
        <time>2010-08-25T06:18:40Z</time>
      </trkpt>
      <trkpt lat="46.8736" lon="4.77887">
        <ele>204</ele>
        <time>2010-08-25T06:18:49Z</time>
      </trkpt>
      <trkpt lat="46.87405" lon="4.77847">
        <ele>204</ele>
        <time>2010-08-25T06:18:58Z</time>
      </trkpt>
      <trkpt lat="46.87449" lon="4.77806">
        <ele>204</ele>
        <time>2010-08-25T06:19:07Z</time>
      </trkpt>
      <trkpt lat="46.87492" lon="4.77766">
        <ele>204</ele>
        <time>2010-08-25T06:19:16Z</time>
      </trkpt>
      <trkpt lat="46.87535" lon="4.77722">
        <ele>204</ele>
        <time>2010-08-25T06:19:25Z</time>
      </trkpt>
      <trkpt lat="46.87571" lon="4.77668">
        <ele>204</ele>
        <time>2010-08-25T06:19:34Z</time>
      </trkpt>
      <trkpt lat="46.87587" lon="4.77595">
        <ele>205</ele>
        <time>2010-08-25T06:19:43Z</time>
      </trkpt>
      <trkpt lat="46.876" lon="4.7752">
        <ele>208</ele>
        <time>2010-08-25T06:19:54Z</time>
      </trkpt>
      <trkpt lat="46.8761" lon="4.77443">
        <ele>209</ele>
        <time>2010-08-25T06:20:06Z</time>
      </trkpt>
      <trkpt lat="46.87623" lon="4.77368">
        <ele>209</ele>
        <time>2010-08-25T06:20:16Z</time>
      </trkpt>
      <trkpt lat="46.87663" lon="4.77316">
        <ele>209</ele>
        <time>2010-08-25T06:20:26Z</time>
      </trkpt>
      <trkpt lat="46.87712" lon="4.77277">
        <ele>208</ele>
        <time>2010-08-25T06:20:36Z</time>
      </trkpt>
      <trkpt lat="46.87761" lon="4.77235">
        <ele>209</ele>
        <time>2010-08-25T06:20:46Z</time>
      </trkpt>
      <trkpt lat="46.87804" lon="4.77185">
        <ele>209</ele>
        <time>2010-08-25T06:20:56Z</time>
      </trkpt>
      <trkpt lat="46.87837" lon="4.77122">
        <ele>210</ele>
        <time>2010-08-25T06:21:06Z</time>
      </trkpt>
      <trkpt lat="46.87868" lon="4.77062">
        <ele>212</ele>
        <time>2010-08-25T06:21:17Z</time>
      </trkpt>
      <trkpt lat="46.87899" lon="4.77001">
        <ele>214</ele>
        <time>2010-08-25T06:21:30Z</time>
      </trkpt>
      <trkpt lat="46.87928" lon="4.7694">
        <ele>215</ele>
        <time>2010-08-25T06:21:40Z</time>
      </trkpt>
      <trkpt lat="46.87971" lon="4.76892">
        <ele>215</ele>
        <time>2010-08-25T06:21:50Z</time>
      </trkpt>
      <trkpt lat="46.88019" lon="4.76855">
        <ele>215</ele>
        <time>2010-08-25T06:22:00Z</time>
      </trkpt>
      <trkpt lat="46.88064" lon="4.76819">
        <ele>215</ele>
        <time>2010-08-25T06:22:09Z</time>
      </trkpt>
      <trkpt lat="46.88102" lon="4.76768">
        <ele>215</ele>
        <time>2010-08-25T06:22:18Z</time>
      </trkpt>
      <trkpt lat="46.88131" lon="4.76707">
        <ele>216</ele>
        <time>2010-08-25T06:22:28Z</time>
      </trkpt>
      <trkpt lat="46.88159" lon="4.76646">
        <ele>216</ele>
        <time>2010-08-25T06:22:42Z</time>
      </trkpt>
      <trkpt lat="46.88188" lon="4.76587">
        <ele>220</ele>
        <time>2010-08-25T06:23:38Z</time>
      </trkpt>
      <trkpt lat="46.88214" lon="4.76524">
        <ele>220</ele>
        <time>2010-08-25T06:23:53Z</time>
      </trkpt>
      <trkpt lat="46.88251" lon="4.76475">
        <ele>220</ele>
        <time>2010-08-25T06:24:04Z</time>
      </trkpt>
      <trkpt lat="46.883" lon="4.76454">
        <ele>219</ele>
        <time>2010-08-25T06:24:14Z</time>
      </trkpt>
      <trkpt lat="46.88353" lon="4.76459">
        <ele>219</ele>
        <time>2010-08-25T06:24:24Z</time>
      </trkpt>
      <trkpt lat="46.88403" lon="4.76472">
        <ele>219</ele>
        <time>2010-08-25T06:24:34Z</time>
      </trkpt>
      <trkpt lat="46.88457" lon="4.76486">
        <ele>219</ele>
        <time>2010-08-25T06:24:45Z</time>
      </trkpt>
      <trkpt lat="46.88509" lon="4.76496">
        <ele>218</ele>
        <time>2010-08-25T06:24:55Z</time>
      </trkpt>
      <trkpt lat="46.88559" lon="4.76502">
        <ele>221</ele>
        <time>2010-08-25T06:25:07Z</time>
      </trkpt>
      <trkpt lat="46.88614" lon="4.76496">
        <ele>222</ele>
        <time>2010-08-25T06:25:19Z</time>
      </trkpt>
      <trkpt lat="46.88663" lon="4.76483">
        <ele>222</ele>
        <time>2010-08-25T06:25:29Z</time>
      </trkpt>
      <trkpt lat="46.88715" lon="4.76462">
        <ele>222</ele>
        <time>2010-08-25T06:25:39Z</time>
      </trkpt>
      <trkpt lat="46.88765" lon="4.76439">
        <ele>222</ele>
        <time>2010-08-25T06:25:49Z</time>
      </trkpt>
      <trkpt lat="46.8881" lon="4.76409">
        <ele>223</ele>
        <time>2010-08-25T06:25:59Z</time>
      </trkpt>
      <trkpt lat="46.88844" lon="4.76352">
        <ele>223</ele>
        <time>2010-08-25T06:26:09Z</time>
      </trkpt>
      <trkpt lat="46.88871" lon="4.76287">
        <ele>224</ele>
        <time>2010-08-25T06:26:19Z</time>
      </trkpt>
      <trkpt lat="46.88898" lon="4.76221">
        <ele>224</ele>
        <time>2010-08-25T06:26:29Z</time>
      </trkpt>
      <trkpt lat="46.88926" lon="4.76154">
        <ele>225</ele>
        <time>2010-08-25T06:26:39Z</time>
      </trkpt>
      <trkpt lat="46.88953" lon="4.7609">
        <ele>227</ele>
        <time>2010-08-25T06:26:50Z</time>
      </trkpt>
      <trkpt lat="46.88979" lon="4.76028">
        <ele>229</ele>
        <time>2010-08-25T06:27:02Z</time>
      </trkpt>
      <trkpt lat="46.89006" lon="4.75964">
        <ele>229</ele>
        <time>2010-08-25T06:27:13Z</time>
      </trkpt>
      <trkpt lat="46.89031" lon="4.75901">
        <ele>230</ele>
        <time>2010-08-25T06:27:23Z</time>
      </trkpt>
      <trkpt lat="46.89059" lon="4.75834">
        <ele>231</ele>
        <time>2010-08-25T06:27:33Z</time>
      </trkpt>
      <trkpt lat="46.89084" lon="4.7577">
        <ele>233</ele>
        <time>2010-08-25T06:27:43Z</time>
      </trkpt>
      <trkpt lat="46.89119" lon="4.75707">
        <ele>233</ele>
        <time>2010-08-25T06:27:53Z</time>
      </trkpt>
      <trkpt lat="46.89172" lon="4.75679">
        <ele>232</ele>
        <time>2010-08-25T06:28:03Z</time>
      </trkpt>
      <trkpt lat="46.89222" lon="4.75663">
        <ele>233</ele>
        <time>2010-08-25T06:28:12Z</time>
      </trkpt>
      <trkpt lat="46.89272" lon="4.75647">
        <ele>232</ele>
        <time>2010-08-25T06:28:21Z</time>
      </trkpt>
      <trkpt lat="46.89326" lon="4.75629">
        <ele>231</ele>
        <time>2010-08-25T06:28:31Z</time>
      </trkpt>
      <trkpt lat="46.89377" lon="4.75612">
        <ele>230</ele>
        <time>2010-08-25T06:28:41Z</time>
      </trkpt>
      <trkpt lat="46.89427" lon="4.75595">
        <ele>228</ele>
        <time>2010-08-25T06:28:50Z</time>
      </trkpt>
      <trkpt lat="46.89478" lon="4.75579">
        <ele>229</ele>
        <time>2010-08-25T06:28:59Z</time>
      </trkpt>
      <trkpt lat="46.89529" lon="4.75563">
        <ele>230</ele>
        <time>2010-08-25T06:29:08Z</time>
      </trkpt>
      <trkpt lat="46.8958" lon="4.75547">
        <ele>233</ele>
        <time>2010-08-25T06:29:17Z</time>
      </trkpt>
      <trkpt lat="46.89631" lon="4.7553">
        <ele>234</ele>
        <time>2010-08-25T06:29:26Z</time>
      </trkpt>
      <trkpt lat="46.89681" lon="4.75513">
        <ele>231</ele>
        <time>2010-08-25T06:29:35Z</time>
      </trkpt>
      <trkpt lat="46.89731" lon="4.75497">
        <ele>232</ele>
        <time>2010-08-25T06:29:44Z</time>
      </trkpt>
      <trkpt lat="46.89781" lon="4.7548">
        <ele>233</ele>
        <time>2010-08-25T06:29:53Z</time>
      </trkpt>
      <trkpt lat="46.89832" lon="4.75463">
        <ele>236</ele>
        <time>2010-08-25T06:30:02Z</time>
      </trkpt>
      <trkpt lat="46.89883" lon="4.75448">
        <ele>239</ele>
        <time>2010-08-25T06:30:11Z</time>
      </trkpt>
      <trkpt lat="46.89934" lon="4.75433">
        <ele>242</ele>
        <time>2010-08-25T06:30:20Z</time>
      </trkpt>
      <trkpt lat="46.89985" lon="4.75417">
        <ele>240</ele>
        <time>2010-08-25T06:30:29Z</time>
      </trkpt>
      <trkpt lat="46.90038" lon="4.75397">
        <ele>234</ele>
        <time>2010-08-25T06:30:39Z</time>
      </trkpt>
      <trkpt lat="46.90092" lon="4.75377">
        <ele>232</ele>
        <time>2010-08-25T06:30:49Z</time>
      </trkpt>
      <trkpt lat="46.90147" lon="4.75357">
        <ele>230</ele>
        <time>2010-08-25T06:30:59Z</time>
      </trkpt>
      <trkpt lat="46.90197" lon="4.7534">
        <ele>229</ele>
        <time>2010-08-25T06:31:09Z</time>
      </trkpt>
      <trkpt lat="46.90234" lon="4.75287">
        <ele>228</ele>
        <time>2010-08-25T06:31:25Z</time>
      </trkpt>
      <trkpt lat="46.90267" lon="4.75236">
        <ele>229</ele>
        <time>2010-08-25T06:39:15Z</time>
      </trkpt>
      <trkpt lat="46.9029" lon="4.75171">
        <ele>228</ele>
        <time>2010-08-25T06:39:29Z</time>
      </trkpt>
      <trkpt lat="46.903" lon="4.75098">
        <ele>227</ele>
        <time>2010-08-25T06:39:42Z</time>
      </trkpt>
      <trkpt lat="46.90312" lon="4.75026">
        <ele>226</ele>
        <time>2010-08-25T06:39:53Z</time>
      </trkpt>
      <trkpt lat="46.90349" lon="4.7497">
        <ele>227</ele>
        <time>2010-08-25T06:40:04Z</time>
      </trkpt>
      <trkpt lat="46.90397" lon="4.74946">
        <ele>227</ele>
        <time>2010-08-25T06:40:14Z</time>
      </trkpt>
      <trkpt lat="46.90446" lon="4.74917">
        <ele>227</ele>
        <time>2010-08-25T06:40:26Z</time>
      </trkpt>
      <trkpt lat="46.90485" lon="4.74867">
        <ele>227</ele>
        <time>2010-08-25T06:40:36Z</time>
      </trkpt>
      <trkpt lat="46.90524" lon="4.74812">
        <ele>227</ele>
        <time>2010-08-25T06:40:46Z</time>
      </trkpt>
      <trkpt lat="46.90564" lon="4.74756">
        <ele>226</ele>
        <time>2010-08-25T06:40:56Z</time>
      </trkpt>
      <trkpt lat="46.90602" lon="4.74702">
        <ele>225</ele>
        <time>2010-08-25T06:41:06Z</time>
      </trkpt>
      <trkpt lat="46.90641" lon="4.74646">
        <ele>223</ele>
        <time>2010-08-25T06:41:17Z</time>
      </trkpt>
      <trkpt lat="46.90616" lon="4.74587">
        <ele>223</ele>
        <time>2010-08-25T06:41:30Z</time>
      </trkpt>
      <trkpt lat="46.90657" lon="4.74612">
        <ele>229</ele>
        <time>2010-08-25T06:42:10Z</time>
      </trkpt>
      <trkpt lat="46.90706" lon="4.74615">
        <ele>227</ele>
        <time>2010-08-25T06:42:26Z</time>
      </trkpt>
      <trkpt lat="46.90749" lon="4.74571">
        <ele>225</ele>
        <time>2010-08-25T06:42:35Z</time>
      </trkpt>
      <trkpt lat="46.90792" lon="4.74526">
        <ele>225</ele>
        <time>2010-08-25T06:42:45Z</time>
      </trkpt>
      <trkpt lat="46.90827" lon="4.74467">
        <ele>224</ele>
        <time>2010-08-25T06:42:54Z</time>
      </trkpt>
      <trkpt lat="46.9086" lon="4.74408">
        <ele>225</ele>
        <time>2010-08-25T06:43:03Z</time>
      </trkpt>
      <trkpt lat="46.90906" lon="4.74373">
        <ele>225</ele>
        <time>2010-08-25T06:43:12Z</time>
      </trkpt>
      <trkpt lat="46.90955" lon="4.74353">
        <ele>226</ele>
        <time>2010-08-25T06:43:21Z</time>
      </trkpt>
      <trkpt lat="46.91003" lon="4.74328">
        <ele>226</ele>
        <time>2010-08-25T06:43:30Z</time>
      </trkpt>
      <trkpt lat="46.91049" lon="4.7428">
        <ele>225</ele>
        <time>2010-08-25T06:43:40Z</time>
      </trkpt>
      <trkpt lat="46.91084" lon="4.7422">
        <ele>225</ele>
        <time>2010-08-25T06:43:50Z</time>
      </trkpt>
      <trkpt lat="46.91105" lon="4.74146">
        <ele>225</ele>
        <time>2010-08-25T06:44:00Z</time>
      </trkpt>
      <trkpt lat="46.91098" lon="4.74069">
        <ele>227</ele>
        <time>2010-08-25T06:44:10Z</time>
      </trkpt>
      <trkpt lat="46.91079" lon="4.73998">
        <ele>229</ele>
        <time>2010-08-25T06:44:19Z</time>
      </trkpt>
      <trkpt lat="46.91057" lon="4.73926">
        <ele>231</ele>
        <time>2010-08-25T06:44:28Z</time>
      </trkpt>
      <trkpt lat="46.91037" lon="4.73856">
        <ele>232</ele>
        <time>2010-08-25T06:44:37Z</time>
      </trkpt>
      <trkpt lat="46.91024" lon="4.73783">
        <ele>233</ele>
        <time>2010-08-25T06:44:46Z</time>
      </trkpt>
      <trkpt lat="46.91023" lon="4.73709">
        <ele>232</ele>
        <time>2010-08-25T06:44:55Z</time>
      </trkpt>
      <trkpt lat="46.91016" lon="4.73634">
        <ele>231</ele>
        <time>2010-08-25T06:45:04Z</time>
      </trkpt>
      <trkpt lat="46.91001" lon="4.73561">
        <ele>230</ele>
        <time>2010-08-25T06:45:13Z</time>
      </trkpt>
      <trkpt lat="46.90984" lon="4.73482">
        <ele>231</ele>
        <time>2010-08-25T06:45:23Z</time>
      </trkpt>
      <trkpt lat="46.9097" lon="4.73411">
        <ele>230</ele>
        <time>2010-08-25T06:45:32Z</time>
      </trkpt>
      <trkpt lat="46.90941" lon="4.73344">
        <ele>231</ele>
        <time>2010-08-25T06:45:42Z</time>
      </trkpt>
      <trkpt lat="46.90892" lon="4.73306">
        <ele>230</ele>
        <time>2010-08-25T06:45:52Z</time>
      </trkpt>
      <trkpt lat="46.90864" lon="4.73237">
        <ele>230</ele>
        <time>2010-08-25T06:46:02Z</time>
      </trkpt>
      <trkpt lat="46.90866" lon="4.73154">
        <ele>230</ele>
        <time>2010-08-25T06:46:12Z</time>
      </trkpt>
      <trkpt lat="46.9085" lon="4.73083">
        <ele>230</ele>
        <time>2010-08-25T06:46:21Z</time>
      </trkpt>
      <trkpt lat="46.90818" lon="4.73024">
        <ele>229</ele>
        <time>2010-08-25T06:46:30Z</time>
      </trkpt>
      <trkpt lat="46.90784" lon="4.72968">
        <ele>230</ele>
        <time>2010-08-25T06:46:39Z</time>
      </trkpt>
      <trkpt lat="46.9075" lon="4.72912">
        <ele>232</ele>
        <time>2010-08-25T06:46:48Z</time>
      </trkpt>
      <trkpt lat="46.90727" lon="4.72843">
        <ele>233</ele>
        <time>2010-08-25T06:46:57Z</time>
      </trkpt>
      <trkpt lat="46.90727" lon="4.72763">
        <ele>233</ele>
        <time>2010-08-25T06:47:07Z</time>
      </trkpt>
      <trkpt lat="46.90713" lon="4.72691">
        <ele>232</ele>
        <time>2010-08-25T06:47:16Z</time>
      </trkpt>
      <trkpt lat="46.90689" lon="4.72623">
        <ele>231</ele>
        <time>2010-08-25T06:47:25Z</time>
      </trkpt>
      <trkpt lat="46.90675" lon="4.72551">
        <ele>230</ele>
        <time>2010-08-25T06:47:34Z</time>
      </trkpt>
      <trkpt lat="46.90672" lon="4.72474">
        <ele>229</ele>
        <time>2010-08-25T06:47:43Z</time>
      </trkpt>
      <trkpt lat="46.9066" lon="4.72401">
        <ele>229</ele>
        <time>2010-08-25T06:47:52Z</time>
      </trkpt>
      <trkpt lat="46.90636" lon="4.72333">
        <ele>228</ele>
        <time>2010-08-25T06:48:01Z</time>
      </trkpt>
      <trkpt lat="46.90623" lon="4.7226">
        <ele>229</ele>
        <time>2010-08-25T06:48:10Z</time>
      </trkpt>
      <trkpt lat="46.90629" lon="4.7218">
        <ele>229</ele>
        <time>2010-08-25T06:48:20Z</time>
      </trkpt>
      <trkpt lat="46.90631" lon="4.72104">
        <ele>229</ele>
        <time>2010-08-25T06:48:30Z</time>
      </trkpt>
      <trkpt lat="46.90648" lon="4.72035">
        <ele>228</ele>
        <time>2010-08-25T06:48:40Z</time>
      </trkpt>
      <trkpt lat="46.90688" lon="4.71987">
        <ele>227</ele>
        <time>2010-08-25T06:48:49Z</time>
      </trkpt>
      <trkpt lat="46.90731" lon="4.71943">
        <ele>226</ele>
        <time>2010-08-25T06:48:58Z</time>
      </trkpt>
      <trkpt lat="46.90736" lon="4.71862">
        <ele>226</ele>
        <time>2010-08-25T06:49:08Z</time>
      </trkpt>
      <trkpt lat="46.90724" lon="4.71788">
        <ele>227</ele>
        <time>2010-08-25T06:49:17Z</time>
      </trkpt>
      <trkpt lat="46.9071" lon="4.71715">
        <ele>227</ele>
        <time>2010-08-25T06:49:26Z</time>
      </trkpt>
      <trkpt lat="46.90683" lon="4.71652">
        <ele>228</ele>
        <time>2010-08-25T06:49:35Z</time>
      </trkpt>
      <trkpt lat="46.90655" lon="4.71588">
        <ele>228</ele>
        <time>2010-08-25T06:49:44Z</time>
      </trkpt>
      <trkpt lat="46.90626" lon="4.71524">
        <ele>228</ele>
        <time>2010-08-25T06:49:53Z</time>
      </trkpt>
      <trkpt lat="46.90601" lon="4.71458">
        <ele>229</ele>
        <time>2010-08-25T06:50:02Z</time>
      </trkpt>
      <trkpt lat="46.90577" lon="4.71384">
        <ele>229</ele>
        <time>2010-08-25T06:50:12Z</time>
      </trkpt>
      <trkpt lat="46.90553" lon="4.71318">
        <ele>229</ele>
        <time>2010-08-25T06:50:21Z</time>
      </trkpt>
      <trkpt lat="46.90528" lon="4.71252">
        <ele>230</ele>
        <time>2010-08-25T06:50:30Z</time>
      </trkpt>
      <trkpt lat="46.90504" lon="4.71184">
        <ele>230</ele>
        <time>2010-08-25T06:50:39Z</time>
      </trkpt>
      <trkpt lat="46.90477" lon="4.71113">
        <ele>231</ele>
        <time>2010-08-25T06:50:49Z</time>
      </trkpt>
      <trkpt lat="46.90472" lon="4.71035">
        <ele>231</ele>
        <time>2010-08-25T06:50:58Z</time>
      </trkpt>
      <trkpt lat="46.9049" lon="4.70959">
        <ele>230</ele>
        <time>2010-08-25T06:51:08Z</time>
      </trkpt>
      <trkpt lat="46.90501" lon="4.70884">
        <ele>230</ele>
        <time>2010-08-25T06:51:22Z</time>
      </trkpt>
      <trkpt lat="46.90497" lon="4.70812">
        <ele>229</ele>
        <time>2010-08-25T06:52:06Z</time>
      </trkpt>
      <trkpt lat="46.90493" lon="4.70735">
        <ele>227</ele>
        <time>2010-08-25T06:52:14Z</time>
      </trkpt>
      <trkpt lat="46.9046" lon="4.70665">
        <ele>229</ele>
        <time>2010-08-25T06:52:23Z</time>
      </trkpt>
      <trkpt lat="46.90449" lon="4.70584">
        <ele>230</ele>
        <time>2010-08-25T06:52:32Z</time>
      </trkpt>
      <trkpt lat="46.9046" lon="4.70511">
        <ele>230</ele>
        <time>2010-08-25T06:52:41Z</time>
      </trkpt>
      <trkpt lat="46.90475" lon="4.70436">
        <ele>230</ele>
        <time>2010-08-25T06:52:50Z</time>
      </trkpt>
      <trkpt lat="46.90487" lon="4.70362">
        <ele>229</ele>
        <time>2010-08-25T06:52:59Z</time>
      </trkpt>
      <trkpt lat="46.90497" lon="4.70287">
        <ele>229</ele>
        <time>2010-08-25T06:53:08Z</time>
      </trkpt>
      <trkpt lat="46.90507" lon="4.70211">
        <ele>229</ele>
        <time>2010-08-25T06:53:17Z</time>
      </trkpt>
      <trkpt lat="46.90516" lon="4.70133">
        <ele>228</ele>
        <time>2010-08-25T06:53:26Z</time>
      </trkpt>
      <trkpt lat="46.90519" lon="4.70056">
        <ele>228</ele>
        <time>2010-08-25T06:53:35Z</time>
      </trkpt>
      <trkpt lat="46.90516" lon="4.69977">
        <ele>228</ele>
        <time>2010-08-25T06:53:44Z</time>
      </trkpt>
      <trkpt lat="46.90509" lon="4.699">
        <ele>229</ele>
        <time>2010-08-25T06:53:53Z</time>
      </trkpt>
      <trkpt lat="46.905" lon="4.69822">
        <ele>229</ele>
        <time>2010-08-25T06:54:02Z</time>
      </trkpt>
      <trkpt lat="46.90481" lon="4.69749">
        <ele>230</ele>
        <time>2010-08-25T06:54:11Z</time>
      </trkpt>
      <trkpt lat="46.90458" lon="4.69681">
        <ele>231</ele>
        <time>2010-08-25T06:54:20Z</time>
      </trkpt>
      <trkpt lat="46.90431" lon="4.69611">
        <ele>233</ele>
        <time>2010-08-25T06:54:30Z</time>
      </trkpt>
      <trkpt lat="46.90402" lon="4.69549">
        <ele>235</ele>
        <time>2010-08-25T06:54:39Z</time>
      </trkpt>
      <trkpt lat="46.90362" lon="4.69503">
        <ele>236</ele>
        <time>2010-08-25T06:54:48Z</time>
      </trkpt>
      <trkpt lat="46.90322" lon="4.69454">
        <ele>227</ele>
        <time>2010-08-25T06:56:30Z</time>
      </trkpt>
      <trkpt lat="46.90278" lon="4.69412">
        <ele>228</ele>
        <time>2010-08-25T06:56:41Z</time>
      </trkpt>
      <trkpt lat="46.90243" lon="4.69358">
        <ele>228</ele>
        <time>2010-08-25T06:56:50Z</time>
      </trkpt>
      <trkpt lat="46.90208" lon="4.693">
        <ele>229</ele>
        <time>2010-08-25T06:57:01Z</time>
      </trkpt>
      <trkpt lat="46.90173" lon="4.6924">
        <ele>228</ele>
        <time>2010-08-25T06:57:12Z</time>
      </trkpt>
      <trkpt lat="46.90136" lon="4.69184">
        <ele>230</ele>
        <time>2010-08-25T06:57:25Z</time>
      </trkpt>
      <trkpt lat="46.90096" lon="4.69135">
        <ele>233</ele>
        <time>2010-08-25T06:57:35Z</time>
      </trkpt>
      <trkpt lat="46.90052" lon="4.69089">
        <ele>234</ele>
        <time>2010-08-25T06:57:44Z</time>
      </trkpt>
      <trkpt lat="46.9001" lon="4.69039">
        <ele>236</ele>
        <time>2010-08-25T06:57:53Z</time>
      </trkpt>
      <trkpt lat="46.89972" lon="4.68984">
        <ele>237</ele>
        <time>2010-08-25T06:58:02Z</time>
      </trkpt>
      <trkpt lat="46.89929" lon="4.68935">
        <ele>237</ele>
        <time>2010-08-25T06:58:11Z</time>
      </trkpt>
      <trkpt lat="46.89878" lon="4.68919">
        <ele>236</ele>
        <time>2010-08-25T06:58:20Z</time>
      </trkpt>
      <trkpt lat="46.89826" lon="4.689">
        <ele>236</ele>
        <time>2010-08-25T06:58:29Z</time>
      </trkpt>
      <trkpt lat="46.89776" lon="4.68872">
        <ele>234</ele>
        <time>2010-08-25T06:58:38Z</time>
      </trkpt>
      <trkpt lat="46.89727" lon="4.68844">
        <ele>233</ele>
        <time>2010-08-25T06:58:47Z</time>
      </trkpt>
      <trkpt lat="46.89677" lon="4.68815">
        <ele>233</ele>
        <time>2010-08-25T06:58:56Z</time>
      </trkpt>
      <trkpt lat="46.89629" lon="4.68779">
        <ele>233</ele>
        <time>2010-08-25T06:59:05Z</time>
      </trkpt>
      <trkpt lat="46.89582" lon="4.68738">
        <ele>234</ele>
        <time>2010-08-25T06:59:14Z</time>
      </trkpt>
      <trkpt lat="46.89534" lon="4.68703">
        <ele>235</ele>
        <time>2010-08-25T06:59:23Z</time>
      </trkpt>
      <trkpt lat="46.89488" lon="4.68659">
        <ele>236</ele>
        <time>2010-08-25T06:59:32Z</time>
      </trkpt>
      <trkpt lat="46.89456" lon="4.68595">
        <ele>239</ele>
        <time>2010-08-25T06:59:41Z</time>
      </trkpt>
      <trkpt lat="46.89426" lon="4.68529">
        <ele>241</ele>
        <time>2010-08-25T06:59:50Z</time>
      </trkpt>
      <trkpt lat="46.89385" lon="4.68481">
        <ele>242</ele>
        <time>2010-08-25T06:59:59Z</time>
      </trkpt>
      <trkpt lat="46.8934" lon="4.68439">
        <ele>242</ele>
        <time>2010-08-25T07:00:08Z</time>
      </trkpt>
      <trkpt lat="46.89295" lon="4.68399">
        <ele>240</ele>
        <time>2010-08-25T07:00:17Z</time>
      </trkpt>
      <trkpt lat="46.89254" lon="4.6835">
        <ele>238</ele>
        <time>2010-08-25T07:00:27Z</time>
      </trkpt>
      <trkpt lat="46.89219" lon="4.68288">
        <ele>236</ele>
        <time>2010-08-25T07:00:38Z</time>
      </trkpt>
      <trkpt lat="46.8919" lon="4.68227">
        <ele>237</ele>
        <time>2010-08-25T07:00:47Z</time>
      </trkpt>
      <trkpt lat="46.89158" lon="4.68168">
        <ele>236</ele>
        <time>2010-08-25T07:00:56Z</time>
      </trkpt>
      <trkpt lat="46.89123" lon="4.68113">
        <ele>236</ele>
        <time>2010-08-25T07:01:07Z</time>
      </trkpt>
      <trkpt lat="46.8909" lon="4.68053">
        <ele>235</ele>
        <time>2010-08-25T07:01:17Z</time>
      </trkpt>
      <trkpt lat="46.89054" lon="4.67996">
        <ele>234</ele>
        <time>2010-08-25T07:01:27Z</time>
      </trkpt>
      <trkpt lat="46.89018" lon="4.67934">
        <ele>235</ele>
        <time>2010-08-25T07:01:37Z</time>
      </trkpt>
      <trkpt lat="46.88983" lon="4.6787">
        <ele>238</ele>
        <time>2010-08-25T07:01:47Z</time>
      </trkpt>
      <trkpt lat="46.88966" lon="4.678">
        <ele>240</ele>
        <time>2010-08-25T07:01:56Z</time>
      </trkpt>
      <trkpt lat="46.88963" lon="4.67721">
        <ele>236</ele>
        <time>2010-08-25T07:02:05Z</time>
      </trkpt>
      <trkpt lat="46.88948" lon="4.67647">
        <ele>235</ele>
        <time>2010-08-25T07:02:14Z</time>
      </trkpt>
      <trkpt lat="46.88927" lon="4.67578">
        <ele>237</ele>
        <time>2010-08-25T07:02:23Z</time>
      </trkpt>
      <trkpt lat="46.88905" lon="4.67508">
        <ele>240</ele>
        <time>2010-08-25T07:02:32Z</time>
      </trkpt>
      <trkpt lat="46.88875" lon="4.67441">
        <ele>242</ele>
        <time>2010-08-25T07:02:41Z</time>
      </trkpt>
      <trkpt lat="46.88838" lon="4.67385">
        <ele>243</ele>
        <time>2010-08-25T07:02:50Z</time>
      </trkpt>
      <trkpt lat="46.88802" lon="4.67327">
        <ele>242</ele>
        <time>2010-08-25T07:02:59Z</time>
      </trkpt>
      <trkpt lat="46.88765" lon="4.67271">
        <ele>243</ele>
        <time>2010-08-25T07:03:08Z</time>
      </trkpt>
      <trkpt lat="46.88727" lon="4.67213">
        <ele>242</ele>
        <time>2010-08-25T07:03:17Z</time>
      </trkpt>
      <trkpt lat="46.88698" lon="4.67144">
        <ele>239</ele>
        <time>2010-08-25T07:03:26Z</time>
      </trkpt>
      <trkpt lat="46.88674" lon="4.6707">
        <ele>237</ele>
        <time>2010-08-25T07:03:35Z</time>
      </trkpt>
      <trkpt lat="46.88644" lon="4.67004">
        <ele>238</ele>
        <time>2010-08-25T07:03:44Z</time>
      </trkpt>
      <trkpt lat="46.88613" lon="4.66939">
        <ele>239</ele>
        <time>2010-08-25T07:03:53Z</time>
      </trkpt>
      <trkpt lat="46.88582" lon="4.66874">
        <ele>238</ele>
        <time>2010-08-25T07:04:02Z</time>
      </trkpt>
      <trkpt lat="46.88549" lon="4.66812">
        <ele>238</ele>
        <time>2010-08-25T07:04:11Z</time>
      </trkpt>
      <trkpt lat="46.88504" lon="4.66775">
        <ele>238</ele>
        <time>2010-08-25T07:04:20Z</time>
      </trkpt>
      <trkpt lat="46.88453" lon="4.66756">
        <ele>236</ele>
        <time>2010-08-25T07:04:29Z</time>
      </trkpt>
      <trkpt lat="46.88403" lon="4.66728">
        <ele>235</ele>
        <time>2010-08-25T07:04:38Z</time>
      </trkpt>
      <trkpt lat="46.88357" lon="4.66695">
        <ele>233</ele>
        <time>2010-08-25T07:04:47Z</time>
      </trkpt>
      <trkpt lat="46.88308" lon="4.66662">
        <ele>233</ele>
        <time>2010-08-25T07:04:56Z</time>
      </trkpt>
      <trkpt lat="46.88259" lon="4.66627">
        <ele>232</ele>
        <time>2010-08-25T07:05:05Z</time>
      </trkpt>
      <trkpt lat="46.8821" lon="4.66593">
        <ele>232</ele>
        <time>2010-08-25T07:05:14Z</time>
      </trkpt>
      <trkpt lat="46.88162" lon="4.66559">
        <ele>232</ele>
        <time>2010-08-25T07:05:23Z</time>
      </trkpt>
      <trkpt lat="46.88113" lon="4.66524">
        <ele>232</ele>
        <time>2010-08-25T07:05:32Z</time>
      </trkpt>
      <trkpt lat="46.88066" lon="4.6649">
        <ele>232</ele>
        <time>2010-08-25T07:05:41Z</time>
      </trkpt>
      <trkpt lat="46.88025" lon="4.66443">
        <ele>231</ele>
        <time>2010-08-25T07:05:50Z</time>
      </trkpt>
      <trkpt lat="46.87992" lon="4.66377">
        <ele>232</ele>
        <time>2010-08-25T07:06:00Z</time>
      </trkpt>
      <trkpt lat="46.87962" lon="4.66314">
        <ele>232</ele>
        <time>2010-08-25T07:06:10Z</time>
      </trkpt>
      <trkpt lat="46.87926" lon="4.66256">
        <ele>231</ele>
        <time>2010-08-25T07:06:20Z</time>
      </trkpt>
      <trkpt lat="46.87902" lon="4.66185">
        <ele>229</ele>
        <time>2010-08-25T07:06:50Z</time>
      </trkpt>
      <trkpt lat="46.87863" lon="4.66131">
        <ele>230</ele>
        <time>2010-08-25T07:07:01Z</time>
      </trkpt>
      <trkpt lat="46.8782" lon="4.66085">
        <ele>230</ele>
        <time>2010-08-25T07:07:11Z</time>
      </trkpt>
      <trkpt lat="46.87774" lon="4.66055">
        <ele>231</ele>
        <time>2010-08-25T07:07:20Z</time>
      </trkpt>
      <trkpt lat="46.87725" lon="4.66026">
        <ele>231</ele>
        <time>2010-08-25T07:07:29Z</time>
      </trkpt>
      <trkpt lat="46.87677" lon="4.65997">
        <ele>232</ele>
        <time>2010-08-25T07:07:38Z</time>
      </trkpt>
      <trkpt lat="46.87629" lon="4.65966">
        <ele>232</ele>
        <time>2010-08-25T07:07:47Z</time>
      </trkpt>
      <trkpt lat="46.87582" lon="4.65935">
        <ele>232</ele>
        <time>2010-08-25T07:07:56Z</time>
      </trkpt>
      <trkpt lat="46.87535" lon="4.65897">
        <ele>232</ele>
        <time>2010-08-25T07:08:06Z</time>
      </trkpt>
      <trkpt lat="46.8749" lon="4.65855">
        <ele>233</ele>
        <time>2010-08-25T07:08:16Z</time>
      </trkpt>
      <trkpt lat="46.87445" lon="4.65808">
        <ele>234</ele>
        <time>2010-08-25T07:08:26Z</time>
      </trkpt>
      <trkpt lat="46.87402" lon="4.65765">
        <ele>235</ele>
        <time>2010-08-25T07:08:35Z</time>
      </trkpt>
      <trkpt lat="46.87359" lon="4.65723">
        <ele>235</ele>
        <time>2010-08-25T07:08:44Z</time>
      </trkpt>
      <trkpt lat="46.87317" lon="4.65678">
        <ele>237</ele>
        <time>2010-08-25T07:08:53Z</time>
      </trkpt>
      <trkpt lat="46.87282" lon="4.65619">
        <ele>239</ele>
        <time>2010-08-25T07:09:02Z</time>
      </trkpt>
      <trkpt lat="46.8725" lon="4.65557">
        <ele>242</ele>
        <time>2010-08-25T07:09:11Z</time>
      </trkpt>
      <trkpt lat="46.87212" lon="4.65507">
        <ele>243</ele>
        <time>2010-08-25T07:09:20Z</time>
      </trkpt>
      <trkpt lat="46.87173" lon="4.65458">
        <ele>243</ele>
        <time>2010-08-25T07:09:30Z</time>
      </trkpt>
      <trkpt lat="46.87134" lon="4.65405">
        <ele>244</ele>
        <time>2010-08-25T07:09:40Z</time>
      </trkpt>
      <trkpt lat="46.87092" lon="4.65351">
        <ele>246</ele>
        <time>2010-08-25T07:09:50Z</time>
      </trkpt>
      <trkpt lat="46.87052" lon="4.65299">
        <ele>246</ele>
        <time>2010-08-25T07:09:59Z</time>
      </trkpt>
      <trkpt lat="46.87017" lon="4.65238">
        <ele>245</ele>
        <time>2010-08-25T07:10:08Z</time>
      </trkpt>
      <trkpt lat="46.86987" lon="4.65174">
        <ele>246</ele>
        <time>2010-08-25T07:10:17Z</time>
      </trkpt>
      <trkpt lat="46.86953" lon="4.65112">
        <ele>245</ele>
        <time>2010-08-25T07:10:26Z</time>
      </trkpt>
      <trkpt lat="46.8692" lon="4.65053">
        <ele>244</ele>
        <time>2010-08-25T07:10:35Z</time>
      </trkpt>
      <trkpt lat="46.86895" lon="4.64986">
        <ele>243</ele>
        <time>2010-08-25T07:10:44Z</time>
      </trkpt>
      <trkpt lat="46.86876" lon="4.64916">
        <ele>244</ele>
        <time>2010-08-25T07:10:53Z</time>
      </trkpt>
      <trkpt lat="46.86857" lon="4.64845">
        <ele>244</ele>
        <time>2010-08-25T07:11:02Z</time>
      </trkpt>
      <trkpt lat="46.86837" lon="4.64776">
        <ele>243</ele>
        <time>2010-08-25T07:11:11Z</time>
      </trkpt>
      <trkpt lat="46.86803" lon="4.64716">
        <ele>242</ele>
        <time>2010-08-25T07:11:20Z</time>
      </trkpt>
      <trkpt lat="46.86763" lon="4.64667">
        <ele>241</ele>
        <time>2010-08-25T07:11:29Z</time>
      </trkpt>
      <trkpt lat="46.86723" lon="4.6462">
        <ele>241</ele>
        <time>2010-08-25T07:11:38Z</time>
      </trkpt>
      <trkpt lat="46.86675" lon="4.64593">
        <ele>239</ele>
        <time>2010-08-25T07:11:48Z</time>
      </trkpt>
      <trkpt lat="46.86624" lon="4.64606">
        <ele>238</ele>
        <time>2010-08-25T07:11:59Z</time>
      </trkpt>
      <trkpt lat="46.8657" lon="4.64607">
        <ele>238</ele>
        <time>2010-08-25T07:12:12Z</time>
      </trkpt>
      <trkpt lat="46.86517" lon="4.64614">
        <ele>236</ele>
        <time>2010-08-25T07:12:21Z</time>
      </trkpt>
      <trkpt lat="46.86463" lon="4.64621">
        <ele>235</ele>
        <time>2010-08-25T07:12:30Z</time>
      </trkpt>
      <trkpt lat="46.86409" lon="4.64622">
        <ele>235</ele>
        <time>2010-08-25T07:12:39Z</time>
      </trkpt>
      <trkpt lat="46.86355" lon="4.64608">
        <ele>235</ele>
        <time>2010-08-25T07:12:49Z</time>
      </trkpt>
      <trkpt lat="46.86304" lon="4.64594">
        <ele>236</ele>
        <time>2010-08-25T07:12:59Z</time>
      </trkpt>
      <trkpt lat="46.86253" lon="4.64572">
        <ele>235</ele>
        <time>2010-08-25T07:13:09Z</time>
      </trkpt>
      <trkpt lat="46.86203" lon="4.64552">
        <ele>235</ele>
        <time>2010-08-25T07:13:18Z</time>
      </trkpt>
      <trkpt lat="46.86153" lon="4.64524">
        <ele>235</ele>
        <time>2010-08-25T07:13:27Z</time>
      </trkpt>
      <trkpt lat="46.86103" lon="4.64495">
        <ele>235</ele>
        <time>2010-08-25T07:13:36Z</time>
      </trkpt>
      <trkpt lat="46.86054" lon="4.64465">
        <ele>235</ele>
        <time>2010-08-25T07:13:45Z</time>
      </trkpt>
      <trkpt lat="46.86005" lon="4.64435">
        <ele>235</ele>
        <time>2010-08-25T07:13:54Z</time>
      </trkpt>
      <trkpt lat="46.85955" lon="4.64406">
        <ele>235</ele>
        <time>2010-08-25T07:14:03Z</time>
      </trkpt>
      <trkpt lat="46.85906" lon="4.64376">
        <ele>235</ele>
        <time>2010-08-25T07:14:12Z</time>
      </trkpt>
      <trkpt lat="46.85858" lon="4.64346">
        <ele>236</ele>
        <time>2010-08-25T07:14:21Z</time>
      </trkpt>
      <trkpt lat="46.8581" lon="4.64313">
        <ele>236</ele>
        <time>2010-08-25T07:14:30Z</time>
      </trkpt>
      <trkpt lat="46.85764" lon="4.64265">
        <ele>236</ele>
        <time>2010-08-25T07:14:39Z</time>
      </trkpt>
      <trkpt lat="46.85725" lon="4.64214">
        <ele>236</ele>
        <time>2010-08-25T07:14:48Z</time>
      </trkpt>
      <trkpt lat="46.85687" lon="4.64164">
        <ele>236</ele>
        <time>2010-08-25T07:14:57Z</time>
      </trkpt>
      <trkpt lat="46.85647" lon="4.6411">
        <ele>235</ele>
        <time>2010-08-25T07:15:07Z</time>
      </trkpt>
      <trkpt lat="46.85602" lon="4.64065">
        <ele>235</ele>
        <time>2010-08-25T07:15:18Z</time>
      </trkpt>
      <trkpt lat="46.85561" lon="4.6402">
        <ele>235</ele>
        <time>2010-08-25T07:15:27Z</time>
      </trkpt>
      <trkpt lat="46.85516" lon="4.63983">
        <ele>235</ele>
        <time>2010-08-25T07:15:36Z</time>
      </trkpt>
      <trkpt lat="46.85467" lon="4.63957">
        <ele>235</ele>
        <time>2010-08-25T07:15:45Z</time>
      </trkpt>
      <trkpt lat="46.85413" lon="4.63942">
        <ele>235</ele>
        <time>2010-08-25T07:15:55Z</time>
      </trkpt>
      <trkpt lat="46.85359" lon="4.6393">
        <ele>236</ele>
        <time>2010-08-25T07:16:05Z</time>
      </trkpt>
      <trkpt lat="46.85306" lon="4.63917">
        <ele>237</ele>
        <time>2010-08-25T07:16:15Z</time>
      </trkpt>
      <trkpt lat="46.85256" lon="4.639">
        <ele>238</ele>
        <time>2010-08-25T07:16:25Z</time>
      </trkpt>
      <trkpt lat="46.85204" lon="4.6387">
        <ele>239</ele>
        <time>2010-08-25T07:16:35Z</time>
      </trkpt>
      <trkpt lat="46.85157" lon="4.63839">
        <ele>239</ele>
        <time>2010-08-25T07:16:44Z</time>
      </trkpt>
      <trkpt lat="46.8511" lon="4.63808">
        <ele>238</ele>
        <time>2010-08-25T07:16:53Z</time>
      </trkpt>
      <trkpt lat="46.85062" lon="4.63775">
        <ele>238</ele>
        <time>2010-08-25T07:17:02Z</time>
      </trkpt>
      <trkpt lat="46.85013" lon="4.63744">
        <ele>237</ele>
        <time>2010-08-25T07:17:11Z</time>
      </trkpt>
      <trkpt lat="46.84963" lon="4.63715">
        <ele>237</ele>
        <time>2010-08-25T07:17:20Z</time>
      </trkpt>
      <trkpt lat="46.84913" lon="4.63686">
        <ele>237</ele>
        <time>2010-08-25T07:17:29Z</time>
      </trkpt>
      <trkpt lat="46.84876" lon="4.63634">
        <ele>237</ele>
        <time>2010-08-25T07:17:38Z</time>
      </trkpt>
      <trkpt lat="46.84838" lon="4.63582">
        <ele>239</ele>
        <time>2010-08-25T07:17:47Z</time>
      </trkpt>
      <trkpt lat="46.84796" lon="4.6354">
        <ele>240</ele>
        <time>2010-08-25T07:17:56Z</time>
      </trkpt>
      <trkpt lat="46.84754" lon="4.63496">
        <ele>239</ele>
        <time>2010-08-25T07:18:05Z</time>
      </trkpt>
      <trkpt lat="46.8471" lon="4.63448">
        <ele>239</ele>
        <time>2010-08-25T07:18:15Z</time>
      </trkpt>
      <trkpt lat="46.84667" lon="4.63403">
        <ele>238</ele>
        <time>2010-08-25T07:18:27Z</time>
      </trkpt>
      <trkpt lat="46.84627" lon="4.63438">
        <ele>242</ele>
        <time>2010-08-25T07:21:02Z</time>
      </trkpt>
      <trkpt lat="46.84588" lon="4.63482">
        <ele>241</ele>
        <time>2010-08-25T07:21:16Z</time>
      </trkpt>
      <trkpt lat="46.84539" lon="4.63476">
        <ele>240</ele>
        <time>2010-08-25T07:21:27Z</time>
      </trkpt>
      <trkpt lat="46.84484" lon="4.63472">
        <ele>240</ele>
        <time>2010-08-25T07:21:39Z</time>
      </trkpt>
      <trkpt lat="46.84432" lon="4.63475">
        <ele>242</ele>
        <time>2010-08-25T07:21:51Z</time>
      </trkpt>
      <trkpt lat="46.84381" lon="4.6348">
        <ele>244</ele>
        <time>2010-08-25T07:22:06Z</time>
      </trkpt>
      <trkpt lat="46.84333" lon="4.63489">
        <ele>247</ele>
        <time>2010-08-25T07:22:24Z</time>
      </trkpt>
      <trkpt lat="46.84285" lon="4.63499">
        <ele>251</ele>
        <time>2010-08-25T07:22:43Z</time>
      </trkpt>
      <trkpt lat="46.84236" lon="4.63507">
        <ele>256</ele>
        <time>2010-08-25T07:23:04Z</time>
      </trkpt>
      <trkpt lat="46.84188" lon="4.63515">
        <ele>260</ele>
        <time>2010-08-25T07:23:25Z</time>
      </trkpt>
      <trkpt lat="46.84141" lon="4.63525">
        <ele>264</ele>
        <time>2010-08-25T07:23:47Z</time>
      </trkpt>
      <trkpt lat="46.84094" lon="4.63532">
        <ele>268</ele>
        <time>2010-08-25T07:24:10Z</time>
      </trkpt>
      <trkpt lat="46.84048" lon="4.63504">
        <ele>273</ele>
        <time>2010-08-25T07:24:33Z</time>
      </trkpt>
      <trkpt lat="46.84009" lon="4.63466">
        <ele>273</ele>
        <time>2010-08-25T07:24:50Z</time>
      </trkpt>
      <trkpt lat="46.83964" lon="4.63437">
        <ele>274</ele>
        <time>2010-08-25T07:25:04Z</time>
      </trkpt>
      <trkpt lat="46.83917" lon="4.63407">
        <ele>274</ele>
        <time>2010-08-25T07:25:18Z</time>
      </trkpt>
      <trkpt lat="46.83876" lon="4.63361">
        <ele>272</ele>
        <time>2010-08-25T07:25:30Z</time>
      </trkpt>
      <trkpt lat="46.83832" lon="4.63324">
        <ele>270</ele>
        <time>2010-08-25T07:25:40Z</time>
      </trkpt>
      <trkpt lat="46.83786" lon="4.63292">
        <ele>269</ele>
        <time>2010-08-25T07:25:49Z</time>
      </trkpt>
      <trkpt lat="46.83735" lon="4.63267">
        <ele>269</ele>
        <time>2010-08-25T07:25:59Z</time>
      </trkpt>
      <trkpt lat="46.83688" lon="4.6323">
        <ele>270</ele>
        <time>2010-08-25T07:26:10Z</time>
      </trkpt>
      <trkpt lat="46.83671" lon="4.63158">
        <ele>266</ele>
        <time>2010-08-25T07:26:19Z</time>
      </trkpt>
      <trkpt lat="46.83658" lon="4.63082">
        <ele>263</ele>
        <time>2010-08-25T07:26:28Z</time>
      </trkpt>
      <trkpt lat="46.83651" lon="4.63007">
        <ele>262</ele>
        <time>2010-08-25T07:26:37Z</time>
      </trkpt>
      <trkpt lat="46.83615" lon="4.6296">
        <ele>261</ele>
        <time>2010-08-25T07:26:47Z</time>
      </trkpt>
      <trkpt lat="46.83564" lon="4.6292">
        <ele>256</ele>
        <time>2010-08-25T07:26:54Z</time>
      </trkpt>
      <trkpt lat="46.8351" lon="4.6288">
        <ele>254</ele>
        <time>2010-08-25T07:27:01Z</time>
      </trkpt>
      <trkpt lat="46.83484" lon="4.62807">
        <ele>252</ele>
        <time>2010-08-25T07:27:09Z</time>
      </trkpt>
      <trkpt lat="46.83474" lon="4.62727">
        <ele>251</ele>
        <time>2010-08-25T07:27:18Z</time>
      </trkpt>
      <trkpt lat="46.8347" lon="4.62647">
        <ele>251</ele>
        <time>2010-08-25T07:27:26Z</time>
      </trkpt>
      <trkpt lat="46.83477" lon="4.62571">
        <ele>252</ele>
        <time>2010-08-25T07:27:34Z</time>
      </trkpt>
      <trkpt lat="46.83475" lon="4.62488">
        <ele>252</ele>
        <time>2010-08-25T07:27:43Z</time>
      </trkpt>
      <trkpt lat="46.83485" lon="4.62408">
        <ele>252</ele>
        <time>2010-08-25T07:27:52Z</time>
      </trkpt>
      <trkpt lat="46.83495" lon="4.62332">
        <ele>251</ele>
        <time>2010-08-25T07:28:01Z</time>
      </trkpt>
      <trkpt lat="46.83527" lon="4.62275">
        <ele>250</ele>
        <time>2010-08-25T07:28:10Z</time>
      </trkpt>
      <trkpt lat="46.83577" lon="4.62235">
        <ele>251</ele>
        <time>2010-08-25T07:28:18Z</time>
      </trkpt>
      <trkpt lat="46.83607" lon="4.62163">
        <ele>250</ele>
        <time>2010-08-25T07:28:26Z</time>
      </trkpt>
      <trkpt lat="46.83645" lon="4.62106">
        <ele>247</ele>
        <time>2010-08-25T07:28:33Z</time>
      </trkpt>
      <trkpt lat="46.83683" lon="4.62047">
        <ele>242</ele>
        <time>2010-08-25T07:28:40Z</time>
      </trkpt>
      <trkpt lat="46.83705" lon="4.61978">
        <ele>243</ele>
        <time>2010-08-25T07:28:51Z</time>
      </trkpt>
      <trkpt lat="46.83738" lon="4.61923">
        <ele>245</ele>
        <time>2010-08-25T07:30:31Z</time>
      </trkpt>
      <trkpt lat="46.83785" lon="4.61895">
        <ele>244</ele>
        <time>2010-08-25T07:30:39Z</time>
      </trkpt>
      <trkpt lat="46.83836" lon="4.61882">
        <ele>243</ele>
        <time>2010-08-25T07:30:52Z</time>
      </trkpt>
      <trkpt lat="46.83835" lon="4.61806">
        <ele>239</ele>
        <time>2010-08-25T07:31:02Z</time>
      </trkpt>
      <trkpt lat="46.83827" lon="4.6173">
        <ele>239</ele>
        <time>2010-08-25T07:31:10Z</time>
      </trkpt>
      <trkpt lat="46.83845" lon="4.61658">
        <ele>238</ele>
        <time>2010-08-25T07:31:18Z</time>
      </trkpt>
      <trkpt lat="46.83872" lon="4.61592">
        <ele>238</ele>
        <time>2010-08-25T07:31:26Z</time>
      </trkpt>
      <trkpt lat="46.83893" lon="4.61516">
        <ele>239</ele>
        <time>2010-08-25T07:31:35Z</time>
      </trkpt>
      <trkpt lat="46.83904" lon="4.61441">
        <ele>240</ele>
        <time>2010-08-25T07:31:45Z</time>
      </trkpt>
      <trkpt lat="46.83915" lon="4.61368">
        <ele>240</ele>
        <time>2010-08-25T07:31:57Z</time>
      </trkpt>
      <trkpt lat="46.83944" lon="4.61307">
        <ele>241</ele>
        <time>2010-08-25T07:32:10Z</time>
      </trkpt>
      <trkpt lat="46.83983" lon="4.61261">
        <ele>245</ele>
        <time>2010-08-25T07:32:27Z</time>
      </trkpt>
      <trkpt lat="46.84018" lon="4.6121">
        <ele>248</ele>
        <time>2010-08-25T07:32:44Z</time>
      </trkpt>
      <trkpt lat="46.84044" lon="4.61148">
        <ele>251</ele>
        <time>2010-08-25T07:33:00Z</time>
      </trkpt>
      <trkpt lat="46.84082" lon="4.611">
        <ele>254</ele>
        <time>2010-08-25T07:33:16Z</time>
      </trkpt>
      <trkpt lat="46.84122" lon="4.61055">
        <ele>258</ele>
        <time>2010-08-25T07:33:32Z</time>
      </trkpt>
      <trkpt lat="46.84146" lon="4.60993">
        <ele>259</ele>
        <time>2010-08-25T07:33:44Z</time>
      </trkpt>
      <trkpt lat="46.84175" lon="4.60931">
        <ele>259</ele>
        <time>2010-08-25T07:33:55Z</time>
      </trkpt>
      <trkpt lat="46.84186" lon="4.60854">
        <ele>261</ele>
        <time>2010-08-25T07:34:07Z</time>
      </trkpt>
      <trkpt lat="46.84214" lon="4.60793">
        <ele>261</ele>
        <time>2010-08-25T07:34:19Z</time>
      </trkpt>
      <trkpt lat="46.84265" lon="4.60798">
        <ele>262</ele>
        <time>2010-08-25T07:34:30Z</time>
      </trkpt>
      <trkpt lat="46.84284" lon="4.60726">
        <ele>263</ele>
        <time>2010-08-25T07:34:42Z</time>
      </trkpt>
      <trkpt lat="46.84297" lon="4.60654">
        <ele>265</ele>
        <time>2010-08-25T07:34:54Z</time>
      </trkpt>
      <trkpt lat="46.84314" lon="4.60579">
        <ele>266</ele>
        <time>2010-08-25T07:35:05Z</time>
      </trkpt>
      <trkpt lat="46.84327" lon="4.60506">
        <ele>266</ele>
        <time>2010-08-25T07:35:18Z</time>
      </trkpt>
      <trkpt lat="46.84341" lon="4.60433">
        <ele>268</ele>
        <time>2010-08-25T07:35:31Z</time>
      </trkpt>
      <trkpt lat="46.84353" lon="4.60361">
        <ele>270</ele>
        <time>2010-08-25T07:35:44Z</time>
      </trkpt>
      <trkpt lat="46.84369" lon="4.6029">
        <ele>271</ele>
        <time>2010-08-25T07:35:57Z</time>
      </trkpt>
      <trkpt lat="46.84396" lon="4.60224">
        <ele>273</ele>
        <time>2010-08-25T07:36:10Z</time>
      </trkpt>
      <trkpt lat="46.84416" lon="4.60155">
        <ele>274</ele>
        <time>2010-08-25T07:36:22Z</time>
      </trkpt>
      <trkpt lat="46.84426" lon="4.60083">
        <ele>277</ele>
        <time>2010-08-25T07:36:34Z</time>
      </trkpt>
      <trkpt lat="46.8441" lon="4.60013">
        <ele>279</ele>
        <time>2010-08-25T07:36:47Z</time>
      </trkpt>
      <trkpt lat="46.84373" lon="4.59958">
        <ele>280</ele>
        <time>2010-08-25T07:36:59Z</time>
      </trkpt>
      <trkpt lat="46.84336" lon="4.59905">
        <ele>282</ele>
        <time>2010-08-25T07:37:11Z</time>
      </trkpt>
      <trkpt lat="46.84298" lon="4.59854">
        <ele>285</ele>
        <time>2010-08-25T07:37:23Z</time>
      </trkpt>
      <trkpt lat="46.84257" lon="4.59812">
        <ele>286</ele>
        <time>2010-08-25T07:37:35Z</time>
      </trkpt>
      <trkpt lat="46.84217" lon="4.59763">
        <ele>287</ele>
        <time>2010-08-25T07:37:47Z</time>
      </trkpt>
      <trkpt lat="46.84186" lon="4.59698">
        <ele>288</ele>
        <time>2010-08-25T07:37:59Z</time>
      </trkpt>
      <trkpt lat="46.84145" lon="4.59653">
        <ele>289</ele>
        <time>2010-08-25T07:38:10Z</time>
      </trkpt>
      <trkpt lat="46.84113" lon="4.59595">
        <ele>289</ele>
        <time>2010-08-25T07:38:21Z</time>
      </trkpt>
      <trkpt lat="46.84102" lon="4.59519">
        <ele>292</ele>
        <time>2010-08-25T07:38:34Z</time>
      </trkpt>
      <trkpt lat="46.84089" lon="4.59444">
        <ele>294</ele>
        <time>2010-08-25T07:38:47Z</time>
      </trkpt>
      <trkpt lat="46.84063" lon="4.59382">
        <ele>294</ele>
        <time>2010-08-25T07:38:58Z</time>
      </trkpt>
      <trkpt lat="46.84034" lon="4.59322">
        <ele>293</ele>
        <time>2010-08-25T07:39:09Z</time>
      </trkpt>
      <trkpt lat="46.84009" lon="4.59258">
        <ele>293</ele>
        <time>2010-08-25T07:39:19Z</time>
      </trkpt>
      <trkpt lat="46.8399" lon="4.59186">
        <ele>292</ele>
        <time>2010-08-25T07:39:29Z</time>
      </trkpt>
      <trkpt lat="46.83965" lon="4.59122">
        <ele>291</ele>
        <time>2010-08-25T07:39:38Z</time>
      </trkpt>
      <trkpt lat="46.83931" lon="4.59062">
        <ele>291</ele>
        <time>2010-08-25T07:39:47Z</time>
      </trkpt>
      <trkpt lat="46.83896" lon="4.59004">
        <ele>291</ele>
        <time>2010-08-25T07:39:56Z</time>
      </trkpt>
      <trkpt lat="46.83862" lon="4.58947">
        <ele>291</ele>
        <time>2010-08-25T07:40:05Z</time>
      </trkpt>
      <trkpt lat="46.83826" lon="4.5889">
        <ele>291</ele>
        <time>2010-08-25T07:40:14Z</time>
      </trkpt>
      <trkpt lat="46.83788" lon="4.58832">
        <ele>289</ele>
        <time>2010-08-25T07:40:23Z</time>
      </trkpt>
      <trkpt lat="46.83746" lon="4.58788">
        <ele>289</ele>
        <time>2010-08-25T07:40:32Z</time>
      </trkpt>
      <trkpt lat="46.83696" lon="4.58802">
        <ele>288</ele>
        <time>2010-08-25T07:40:41Z</time>
      </trkpt>
      <trkpt lat="46.83648" lon="4.58764">
        <ele>287</ele>
        <time>2010-08-25T07:40:50Z</time>
      </trkpt>
      <trkpt lat="46.83594" lon="4.58762">
        <ele>284</ele>
        <time>2010-08-25T07:40:59Z</time>
      </trkpt>
      <trkpt lat="46.83546" lon="4.58797">
        <ele>282</ele>
        <time>2010-08-25T07:41:07Z</time>
      </trkpt>
      <trkpt lat="46.83506" lon="4.58852">
        <ele>280</ele>
        <time>2010-08-25T07:41:22Z</time>
      </trkpt>
      <trkpt lat="46.83478" lon="4.58926">
        <ele>276</ele>
        <time>2010-08-25T07:41:30Z</time>
      </trkpt>
      <trkpt lat="46.83452" lon="4.59008">
        <ele>271</ele>
        <time>2010-08-25T07:41:37Z</time>
      </trkpt>
      <trkpt lat="46.83425" lon="4.59089">
        <ele>269</ele>
        <time>2010-08-25T07:41:44Z</time>
      </trkpt>
      <trkpt lat="46.83391" lon="4.59155">
        <ele>271</ele>
        <time>2010-08-25T07:41:52Z</time>
      </trkpt>
      <trkpt lat="46.83355" lon="4.59209">
        <ele>273</ele>
        <time>2010-08-25T07:42:01Z</time>
      </trkpt>
      <trkpt lat="46.83311" lon="4.59259">
        <ele>272</ele>
        <time>2010-08-25T07:42:11Z</time>
      </trkpt>
      <trkpt lat="46.8326" lon="4.59282">
        <ele>268</ele>
        <time>2010-08-25T07:42:18Z</time>
      </trkpt>
      <trkpt lat="46.83206" lon="4.59294">
        <ele>263</ele>
        <time>2010-08-25T07:42:24Z</time>
      </trkpt>
      <trkpt lat="46.8315" lon="4.59308">
        <ele>260</ele>
        <time>2010-08-25T07:42:30Z</time>
      </trkpt>
      <trkpt lat="46.83092" lon="4.59325">
        <ele>259</ele>
        <time>2010-08-25T07:42:37Z</time>
      </trkpt>
      <trkpt lat="46.8304" lon="4.5935">
        <ele>259</ele>
        <time>2010-08-25T07:42:44Z</time>
      </trkpt>
      <trkpt lat="46.82983" lon="4.59372">
        <ele>259</ele>
        <time>2010-08-25T07:42:52Z</time>
      </trkpt>
      <trkpt lat="46.8293" lon="4.59383">
        <ele>261</ele>
        <time>2010-08-25T07:43:01Z</time>
      </trkpt>
      <trkpt lat="46.82877" lon="4.59401">
        <ele>265</ele>
        <time>2010-08-25T07:43:14Z</time>
      </trkpt>
      <trkpt lat="46.82828" lon="4.59425">
        <ele>266</ele>
        <time>2010-08-25T07:43:27Z</time>
      </trkpt>
      <trkpt lat="46.82778" lon="4.59435">
        <ele>263</ele>
        <time>2010-08-25T07:43:36Z</time>
      </trkpt>
      <trkpt lat="46.82728" lon="4.59461">
        <ele>260</ele>
        <time>2010-08-25T07:43:43Z</time>
      </trkpt>
      <trkpt lat="46.82674" lon="4.59493">
        <ele>254</ele>
        <time>2010-08-25T07:43:49Z</time>
      </trkpt>
      <trkpt lat="46.82626" lon="4.59548">
        <ele>248</ele>
        <time>2010-08-25T07:43:55Z</time>
      </trkpt>
      <trkpt lat="46.82573" lon="4.59532">
        <ele>244</ele>
        <time>2010-08-25T07:44:03Z</time>
      </trkpt>
      <trkpt lat="46.82544" lon="4.59591">
        <ele>245</ele>
        <time>2010-08-25T07:44:28Z</time>
      </trkpt>
      <trkpt lat="46.82533" lon="4.59667">
        <ele>245</ele>
        <time>2010-08-25T07:44:39Z</time>
      </trkpt>
      <trkpt lat="46.8255" lon="4.59742">
        <ele>244</ele>
        <time>2010-08-25T07:44:50Z</time>
      </trkpt>
      <trkpt lat="46.82547" lon="4.5982">
        <ele>244</ele>
        <time>2010-08-25T07:45:02Z</time>
      </trkpt>
      <trkpt lat="46.82535" lon="4.59891">
        <ele>243</ele>
        <time>2010-08-25T07:49:22Z</time>
      </trkpt>
      <trkpt lat="46.82498" lon="4.59936">
        <ele>244</ele>
        <time>2010-08-25T07:49:42Z</time>
      </trkpt>
      <trkpt lat="46.82467" lon="4.59993">
        <ele>245</ele>
        <time>2010-08-25T07:49:58Z</time>
      </trkpt>
      <trkpt lat="46.82434" lon="4.6005">
        <ele>246</ele>
        <time>2010-08-25T07:50:10Z</time>
      </trkpt>
      <trkpt lat="46.82396" lon="4.60097">
        <ele>249</ele>
        <time>2010-08-25T07:50:23Z</time>
      </trkpt>
      <trkpt lat="46.82346" lon="4.60104">
        <ele>250</ele>
        <time>2010-08-25T07:50:35Z</time>
      </trkpt>
      <trkpt lat="46.82297" lon="4.6009">
        <ele>248</ele>
        <time>2010-08-25T07:50:46Z</time>
      </trkpt>
      <trkpt lat="46.82245" lon="4.60083">
        <ele>247</ele>
        <time>2010-08-25T07:50:57Z</time>
      </trkpt>
      <trkpt lat="46.82196" lon="4.60109">
        <ele>251</ele>
        <time>2010-08-25T07:51:09Z</time>
      </trkpt>
      <trkpt lat="46.82154" lon="4.60153">
        <ele>253</ele>
        <time>2010-08-25T07:51:21Z</time>
      </trkpt>
      <trkpt lat="46.82109" lon="4.60192">
        <ele>255</ele>
        <time>2010-08-25T07:51:33Z</time>
      </trkpt>
      <trkpt lat="46.82064" lon="4.60226">
        <ele>253</ele>
        <time>2010-08-25T07:51:45Z</time>
      </trkpt>
      <trkpt lat="46.82019" lon="4.6026">
        <ele>255</ele>
        <time>2010-08-25T07:51:57Z</time>
      </trkpt>
      <trkpt lat="46.81969" lon="4.60273">
        <ele>258</ele>
        <time>2010-08-25T07:52:11Z</time>
      </trkpt>
      <trkpt lat="46.8192" lon="4.60273">
        <ele>261</ele>
        <time>2010-08-25T07:52:25Z</time>
      </trkpt>
      <trkpt lat="46.81868" lon="4.60271">
        <ele>263</ele>
        <time>2010-08-25T07:52:40Z</time>
      </trkpt>
      <trkpt lat="46.81816" lon="4.60271">
        <ele>265</ele>
        <time>2010-08-25T07:52:54Z</time>
      </trkpt>
      <trkpt lat="46.81765" lon="4.60269">
        <ele>267</ele>
        <time>2010-08-25T07:53:10Z</time>
      </trkpt>
      <trkpt lat="46.81716" lon="4.60259">
        <ele>270</ele>
        <time>2010-08-25T07:53:27Z</time>
      </trkpt>
      <trkpt lat="46.81666" lon="4.60242">
        <ele>273</ele>
        <time>2010-08-25T07:53:44Z</time>
      </trkpt>
      <trkpt lat="46.81617" lon="4.60253">
        <ele>275</ele>
        <time>2010-08-25T07:54:00Z</time>
      </trkpt>
      <trkpt lat="46.81569" lon="4.60278">
        <ele>279</ele>
        <time>2010-08-25T07:54:17Z</time>
      </trkpt>
      <trkpt lat="46.81519" lon="4.60288">
        <ele>281</ele>
        <time>2010-08-25T07:54:33Z</time>
      </trkpt>
      <trkpt lat="46.81472" lon="4.60302">
        <ele>284</ele>
        <time>2010-08-25T07:54:48Z</time>
      </trkpt>
      <trkpt lat="46.81427" lon="4.60328">
        <ele>286</ele>
        <time>2010-08-25T07:55:02Z</time>
      </trkpt>
      <trkpt lat="46.81385" lon="4.60365">
        <ele>287</ele>
        <time>2010-08-25T07:55:14Z</time>
      </trkpt>
      <trkpt lat="46.81368" lon="4.60442">
        <ele>284</ele>
        <time>2010-08-25T07:55:23Z</time>
      </trkpt>
      <trkpt lat="46.81356" lon="4.60519">
        <ele>284</ele>
        <time>2010-08-25T07:55:32Z</time>
      </trkpt>
      <trkpt lat="46.81327" lon="4.60582">
        <ele>288</ele>
        <time>2010-08-25T07:55:46Z</time>
      </trkpt>
      <trkpt lat="46.81287" lon="4.60624">
        <ele>294</ele>
        <time>2010-08-25T07:56:05Z</time>
      </trkpt>
      <trkpt lat="46.81244" lon="4.60654">
        <ele>298</ele>
        <time>2010-08-25T07:56:23Z</time>
      </trkpt>
      <trkpt lat="46.81197" lon="4.60677">
        <ele>304</ele>
        <time>2010-08-25T07:56:42Z</time>
      </trkpt>
      <trkpt lat="46.81147" lon="4.60665">
        <ele>306</ele>
        <time>2010-08-25T07:57:00Z</time>
      </trkpt>
      <trkpt lat="46.811" lon="4.60645">
        <ele>308</ele>
        <time>2010-08-25T07:57:18Z</time>
      </trkpt>
      <trkpt lat="46.81063" lon="4.60598">
        <ele>312</ele>
        <time>2010-08-25T07:57:40Z</time>
      </trkpt>
      <trkpt lat="46.81046" lon="4.6053">
        <ele>316</ele>
        <time>2010-08-25T07:58:00Z</time>
      </trkpt>
      <trkpt lat="46.8103" lon="4.60464">
        <ele>318</ele>
        <time>2010-08-25T07:58:19Z</time>
      </trkpt>
      <trkpt lat="46.81004" lon="4.60402">
        <ele>322</ele>
        <time>2010-08-25T07:58:39Z</time>
      </trkpt>
      <trkpt lat="46.80972" lon="4.60348">
        <ele>326</ele>
        <time>2010-08-25T07:58:59Z</time>
      </trkpt>
      <trkpt lat="46.80939" lon="4.60297">
        <ele>330</ele>
        <time>2010-08-25T07:59:18Z</time>
      </trkpt>
      <trkpt lat="46.80897" lon="4.60261">
        <ele>333</ele>
        <time>2010-08-25T07:59:37Z</time>
      </trkpt>
      <trkpt lat="46.80853" lon="4.6023">
        <ele>336</ele>
        <time>2010-08-25T07:59:54Z</time>
      </trkpt>
      <trkpt lat="46.80809" lon="4.60197">
        <ele>339</ele>
        <time>2010-08-25T08:00:11Z</time>
      </trkpt>
      <trkpt lat="46.80767" lon="4.6016">
        <ele>343</ele>
        <time>2010-08-25T08:00:29Z</time>
      </trkpt>
      <trkpt lat="46.80724" lon="4.60126">
        <ele>347</ele>
        <time>2010-08-25T08:00:46Z</time>
      </trkpt>
      <trkpt lat="46.80678" lon="4.60103">
        <ele>351</ele>
        <time>2010-08-25T08:01:02Z</time>
      </trkpt>
      <trkpt lat="46.80632" lon="4.60122">
        <ele>353</ele>
        <time>2010-08-25T08:01:18Z</time>
      </trkpt>
      <trkpt lat="46.80588" lon="4.6015">
        <ele>357</ele>
        <time>2010-08-25T08:01:35Z</time>
      </trkpt>
      <trkpt lat="46.80545" lon="4.60182">
        <ele>361</ele>
        <time>2010-08-25T08:01:51Z</time>
      </trkpt>
      <trkpt lat="46.80513" lon="4.60238">
        <ele>363</ele>
        <time>2010-08-25T08:02:07Z</time>
      </trkpt>
      <trkpt lat="46.80502" lon="4.60306">
        <ele>367</ele>
        <time>2010-08-25T08:02:25Z</time>
      </trkpt>
      <trkpt lat="46.80489" lon="4.60374">
        <ele>371</ele>
        <time>2010-08-25T08:02:43Z</time>
      </trkpt>
      <trkpt lat="46.80448" lon="4.60415">
        <ele>373</ele>
        <time>2010-08-25T08:03:02Z</time>
      </trkpt>
      <trkpt lat="46.80405" lon="4.60378">
        <ele>375</ele>
        <time>2010-08-25T08:03:19Z</time>
      </trkpt>
      <trkpt lat="46.80367" lon="4.60334">
        <ele>377</ele>
        <time>2010-08-25T08:03:34Z</time>
      </trkpt>
      <trkpt lat="46.80322" lon="4.60299">
        <ele>379</ele>
        <time>2010-08-25T08:03:49Z</time>
      </trkpt>
      <trkpt lat="46.80272" lon="4.60284">
        <ele>380</ele>
        <time>2010-08-25T08:04:02Z</time>
      </trkpt>
      <trkpt lat="46.80237" lon="4.60228">
        <ele>379</ele>
        <time>2010-08-25T08:04:13Z</time>
      </trkpt>
      <trkpt lat="46.80206" lon="4.6016">
        <ele>377</ele>
        <time>2010-08-25T08:04:23Z</time>
      </trkpt>
      <trkpt lat="46.80158" lon="4.60124">
        <ele>377</ele>
        <time>2010-08-25T08:04:32Z</time>
      </trkpt>
      <trkpt lat="46.80106" lon="4.60096">
        <ele>377</ele>
        <time>2010-08-25T08:04:42Z</time>
      </trkpt>
      <trkpt lat="46.80056" lon="4.60067">
        <ele>377</ele>
        <time>2010-08-25T08:04:53Z</time>
      </trkpt>
      <trkpt lat="46.80028" lon="4.60007">
        <ele>378</ele>
        <time>2010-08-25T08:05:07Z</time>
      </trkpt>
      <trkpt lat="46.80052" lon="4.59944">
        <ele>375</ele>
        <time>2010-08-25T08:05:23Z</time>
      </trkpt>
      <trkpt lat="46.80054" lon="4.59865">
        <ele>368</ele>
        <time>2010-08-25T08:05:31Z</time>
      </trkpt>
      <trkpt lat="46.80081" lon="4.59795">
        <ele>364</ele>
        <time>2010-08-25T08:05:37Z</time>
      </trkpt>
      <trkpt lat="46.80076" lon="4.59713">
        <ele>361</ele>
        <time>2010-08-25T08:05:43Z</time>
      </trkpt>
      <trkpt lat="46.80075" lon="4.59629">
        <ele>358</ele>
        <time>2010-08-25T08:05:49Z</time>
      </trkpt>
      <trkpt lat="46.80063" lon="4.59534">
        <ele>351</ele>
        <time>2010-08-25T08:05:55Z</time>
      </trkpt>
      <trkpt lat="46.80037" lon="4.5945">
        <ele>345</ele>
        <time>2010-08-25T08:06:00Z</time>
      </trkpt>
      <trkpt lat="46.80017" lon="4.59367">
        <ele>342</ele>
        <time>2010-08-25T08:06:05Z</time>
      </trkpt>
      <trkpt lat="46.79998" lon="4.59286">
        <ele>338</ele>
        <time>2010-08-25T08:06:10Z</time>
      </trkpt>
      <trkpt lat="46.7998" lon="4.59205">
        <ele>335</ele>
        <time>2010-08-25T08:06:15Z</time>
      </trkpt>
      <trkpt lat="46.79945" lon="4.5913">
        <ele>333</ele>
        <time>2010-08-25T08:06:21Z</time>
      </trkpt>
      <trkpt lat="46.7991" lon="4.59062">
        <ele>331</ele>
        <time>2010-08-25T08:06:27Z</time>
      </trkpt>
      <trkpt lat="46.79881" lon="4.58987">
        <ele>328</ele>
        <time>2010-08-25T08:06:33Z</time>
      </trkpt>
      <trkpt lat="46.79843" lon="4.5892">
        <ele>325</ele>
        <time>2010-08-25T08:06:39Z</time>
      </trkpt>
      <trkpt lat="46.79803" lon="4.58864">
        <ele>324</ele>
        <time>2010-08-25T08:06:45Z</time>
      </trkpt>
      <trkpt lat="46.79771" lon="4.58801">
        <ele>321</ele>
        <time>2010-08-25T08:06:51Z</time>
      </trkpt>
      <trkpt lat="46.79744" lon="4.5872">
        <ele>316</ele>
        <time>2010-08-25T08:06:57Z</time>
      </trkpt>
      <trkpt lat="46.79696" lon="4.58654">
        <ele>311</ele>
        <time>2010-08-25T08:07:03Z</time>
      </trkpt>
      <trkpt lat="46.79638" lon="4.58633">
        <ele>312</ele>
        <time>2010-08-25T08:07:10Z</time>
      </trkpt>
      <trkpt lat="46.79607" lon="4.58572">
        <ele>317</ele>
        <time>2010-08-25T08:07:25Z</time>
      </trkpt>
      <trkpt lat="46.79578" lon="4.58511">
        <ele>319</ele>
        <time>2010-08-25T08:07:39Z</time>
      </trkpt>
      <trkpt lat="46.79544" lon="4.58457">
        <ele>320</ele>
        <time>2010-08-25T08:07:53Z</time>
      </trkpt>
      <trkpt lat="46.79513" lon="4.58396">
        <ele>321</ele>
        <time>2010-08-25T08:08:08Z</time>
      </trkpt>
      <trkpt lat="46.79485" lon="4.58333">
        <ele>323</ele>
        <time>2010-08-25T08:08:24Z</time>
      </trkpt>
      <trkpt lat="46.79458" lon="4.58272">
        <ele>327</ele>
        <time>2010-08-25T08:08:40Z</time>
      </trkpt>
      <trkpt lat="46.79427" lon="4.58218">
        <ele>330</ele>
        <time>2010-08-25T08:08:56Z</time>
      </trkpt>
      <trkpt lat="46.79378" lon="4.58195">
        <ele>329</ele>
        <time>2010-08-25T08:09:10Z</time>
      </trkpt>
      <trkpt lat="46.79332" lon="4.58221">
        <ele>329</ele>
        <time>2010-08-25T08:09:21Z</time>
      </trkpt>
      <trkpt lat="46.7928" lon="4.58239">
        <ele>330</ele>
        <time>2010-08-25T08:09:32Z</time>
      </trkpt>
      <trkpt lat="46.79232" lon="4.58261">
        <ele>332</ele>
        <time>2010-08-25T08:09:45Z</time>
      </trkpt>
      <trkpt lat="46.79184" lon="4.58249">
        <ele>333</ele>
        <time>2010-08-25T08:09:58Z</time>
      </trkpt>
      <trkpt lat="46.79137" lon="4.58223">
        <ele>335</ele>
        <time>2010-08-25T08:10:11Z</time>
      </trkpt>
      <trkpt lat="46.79089" lon="4.58206">
        <ele>336</ele>
        <time>2010-08-25T08:10:22Z</time>
      </trkpt>
      <trkpt lat="46.7904" lon="4.58183">
        <ele>337</ele>
        <time>2010-08-25T08:10:34Z</time>
      </trkpt>
      <trkpt lat="46.78992" lon="4.58161">
        <ele>338</ele>
        <time>2010-08-25T08:10:45Z</time>
      </trkpt>
      <trkpt lat="46.78941" lon="4.58178">
        <ele>339</ele>
        <time>2010-08-25T08:10:58Z</time>
      </trkpt>
      <trkpt lat="46.78895" lon="4.58207">
        <ele>342</ele>
        <time>2010-08-25T08:11:11Z</time>
      </trkpt>
      <trkpt lat="46.78848" lon="4.5823">
        <ele>345</ele>
        <time>2010-08-25T08:11:26Z</time>
      </trkpt>
      <trkpt lat="46.78799" lon="4.58243">
        <ele>348</ele>
        <time>2010-08-25T08:11:41Z</time>
      </trkpt>
      <trkpt lat="46.78748" lon="4.58241">
        <ele>351</ele>
        <time>2010-08-25T08:11:57Z</time>
      </trkpt>
      <trkpt lat="46.78699" lon="4.58229">
        <ele>354</ele>
        <time>2010-08-25T08:12:12Z</time>
      </trkpt>
      <trkpt lat="46.78651" lon="4.58224">
        <ele>354</ele>
        <time>2010-08-25T08:12:25Z</time>
      </trkpt>
      <trkpt lat="46.78599" lon="4.58232">
        <ele>352</ele>
        <time>2010-08-25T08:12:35Z</time>
      </trkpt>
      <trkpt lat="46.78545" lon="4.58236">
        <ele>349</ele>
        <time>2010-08-25T08:12:43Z</time>
      </trkpt>
      <trkpt lat="46.78492" lon="4.58232">
        <ele>349</ele>
        <time>2010-08-25T08:12:51Z</time>
      </trkpt>
      <trkpt lat="46.78439" lon="4.58229">
        <ele>350</ele>
        <time>2010-08-25T08:13:02Z</time>
      </trkpt>
      <trkpt lat="46.7839" lon="4.58204">
        <ele>349</ele>
        <time>2010-08-25T08:22:58Z</time>
      </trkpt>
      <trkpt lat="46.78346" lon="4.58165">
        <ele>348</ele>
        <time>2010-08-25T08:23:10Z</time>
      </trkpt>
      <trkpt lat="46.78294" lon="4.58141">
        <ele>345</ele>
        <time>2010-08-25T08:23:19Z</time>
      </trkpt>
      <trkpt lat="46.78246" lon="4.58097">
        <ele>344</ele>
        <time>2010-08-25T08:23:28Z</time>
      </trkpt>
      <trkpt lat="46.78202" lon="4.58057">
        <ele>343</ele>
        <time>2010-08-25T08:23:36Z</time>
      </trkpt>
      <trkpt lat="46.78162" lon="4.57998">
        <ele>342</ele>
        <time>2010-08-25T08:23:45Z</time>
      </trkpt>
      <trkpt lat="46.78125" lon="4.57946">
        <ele>339</ele>
        <time>2010-08-25T08:23:53Z</time>
      </trkpt>
      <trkpt lat="46.78075" lon="4.579">
        <ele>336</ele>
        <time>2010-08-25T08:24:00Z</time>
      </trkpt>
      <trkpt lat="46.78018" lon="4.57872">
        <ele>333</ele>
        <time>2010-08-25T08:24:07Z</time>
      </trkpt>
      <trkpt lat="46.77968" lon="4.57841">
        <ele>330</ele>
        <time>2010-08-25T08:24:13Z</time>
      </trkpt>
      <trkpt lat="46.77913" lon="4.57796">
        <ele>324</ele>
        <time>2010-08-25T08:24:19Z</time>
      </trkpt>
      <trkpt lat="46.77855" lon="4.57756">
        <ele>317</ele>
        <time>2010-08-25T08:24:25Z</time>
      </trkpt>
      <trkpt lat="46.77806" lon="4.57696">
        <ele>311</ele>
        <time>2010-08-25T08:24:32Z</time>
      </trkpt>
      <trkpt lat="46.77773" lon="4.57626">
        <ele>307</ele>
        <time>2010-08-25T08:24:38Z</time>
      </trkpt>
      <trkpt lat="46.77739" lon="4.57557">
        <ele>303</ele>
        <time>2010-08-25T08:24:44Z</time>
      </trkpt>
      <trkpt lat="46.77708" lon="4.57488">
        <ele>299</ele>
        <time>2010-08-25T08:26:11Z</time>
      </trkpt>
      <trkpt lat="46.77682" lon="4.57417">
        <ele>295</ele>
        <time>2010-08-25T08:26:19Z</time>
      </trkpt>
      <trkpt lat="46.77663" lon="4.57339">
        <ele>290</ele>
        <time>2010-08-25T08:26:25Z</time>
      </trkpt>
      <trkpt lat="46.77629" lon="4.57272">
        <ele>285</ele>
        <time>2010-08-25T08:26:33Z</time>
      </trkpt>
      <trkpt lat="46.77574" lon="4.57254">
        <ele>284</ele>
        <time>2010-08-25T08:26:41Z</time>
      </trkpt>
      <trkpt lat="46.77532" lon="4.5721">
        <ele>286</ele>
        <time>2010-08-25T08:26:54Z</time>
      </trkpt>
      <trkpt lat="46.77488" lon="4.57181">
        <ele>292</ele>
        <time>2010-08-25T08:27:14Z</time>
      </trkpt>
      <trkpt lat="46.7745" lon="4.57136">
        <ele>296</ele>
        <time>2010-08-25T08:27:35Z</time>
      </trkpt>
      <trkpt lat="46.77432" lon="4.57072">
        <ele>301</ele>
        <time>2010-08-25T08:27:59Z</time>
      </trkpt>
      <trkpt lat="46.77429" lon="4.57003">
        <ele>306</ele>
        <time>2010-08-25T08:28:23Z</time>
      </trkpt>
      <trkpt lat="46.77434" lon="4.56933">
        <ele>312</ele>
        <time>2010-08-25T08:28:48Z</time>
      </trkpt>
      <trkpt lat="46.7741" lon="4.56873">
        <ele>317</ele>
        <time>2010-08-25T08:29:18Z</time>
      </trkpt>
      <trkpt lat="46.77375" lon="4.56826">
        <ele>325</ele>
        <time>2010-08-25T08:29:50Z</time>
      </trkpt>
      <trkpt lat="46.77338" lon="4.56782">
        <ele>334</ele>
        <time>2010-08-25T08:30:23Z</time>
      </trkpt>
      <trkpt lat="46.77314" lon="4.56724">
        <ele>335</ele>
        <time>2010-08-25T08:30:44Z</time>
      </trkpt>
      <trkpt lat="46.7729" lon="4.56661">
        <ele>335</ele>
        <time>2010-08-25T08:31:01Z</time>
      </trkpt>
      <trkpt lat="46.77267" lon="4.56596">
        <ele>335</ele>
        <time>2010-08-25T08:31:17Z</time>
      </trkpt>
      <trkpt lat="46.77238" lon="4.56537">
        <ele>335</ele>
        <time>2010-08-25T08:31:31Z</time>
      </trkpt>
      <trkpt lat="46.772" lon="4.56484">
        <ele>335</ele>
        <time>2010-08-25T08:31:43Z</time>
      </trkpt>
      <trkpt lat="46.77165" lon="4.56425">
        <ele>336</ele>
        <time>2010-08-25T08:31:55Z</time>
      </trkpt>
      <trkpt lat="46.77169" lon="4.56355">
        <ele>333</ele>
        <time>2010-08-25T08:32:12Z</time>
      </trkpt>
      <trkpt lat="46.77208" lon="4.56306">
        <ele>329</ele>
        <time>2010-08-25T08:32:20Z</time>
      </trkpt>
      <trkpt lat="46.77249" lon="4.56254">
        <ele>326</ele>
        <time>2010-08-25T08:32:27Z</time>
      </trkpt>
      <trkpt lat="46.77295" lon="4.56204">
        <ele>324</ele>
        <time>2010-08-25T08:32:34Z</time>
      </trkpt>
      <trkpt lat="46.77341" lon="4.5616">
        <ele>323</ele>
        <time>2010-08-25T08:32:41Z</time>
      </trkpt>
      <trkpt lat="46.77391" lon="4.56114">
        <ele>323</ele>
        <time>2010-08-25T08:32:49Z</time>
      </trkpt>
      <trkpt lat="46.77389" lon="4.56042">
        <ele>323</ele>
        <time>2010-08-25T08:32:59Z</time>
      </trkpt>
      <trkpt lat="46.77351" lon="4.55986">
        <ele>323</ele>
        <time>2010-08-25T08:33:08Z</time>
      </trkpt>
      <trkpt lat="46.77351" lon="4.55904">
        <ele>323</ele>
        <time>2010-08-25T08:33:17Z</time>
      </trkpt>
      <trkpt lat="46.77378" lon="4.5584">
        <ele>322</ele>
        <time>2010-08-25T08:33:25Z</time>
      </trkpt>
      <trkpt lat="46.77389" lon="4.55756">
        <ele>319</ele>
        <time>2010-08-25T08:33:33Z</time>
      </trkpt>
      <trkpt lat="46.77386" lon="4.55665">
        <ele>316</ele>
        <time>2010-08-25T08:33:40Z</time>
      </trkpt>
      <trkpt lat="46.77377" lon="4.55584">
        <ele>314</ele>
        <time>2010-08-25T08:33:46Z</time>
      </trkpt>
      <trkpt lat="46.77355" lon="4.555">
        <ele>312</ele>
        <time>2010-08-25T08:33:53Z</time>
      </trkpt>
      <trkpt lat="46.77324" lon="4.55421">
        <ele>310</ele>
        <time>2010-08-25T08:34:00Z</time>
      </trkpt>
      <trkpt lat="46.77293" lon="4.55346">
        <ele>308</ele>
        <time>2010-08-25T08:34:07Z</time>
      </trkpt>
      <trkpt lat="46.7729" lon="4.55267">
        <ele>303</ele>
        <time>2010-08-25T08:34:13Z</time>
      </trkpt>
      <trkpt lat="46.7729" lon="4.55175">
        <ele>298</ele>
        <time>2010-08-25T08:34:19Z</time>
      </trkpt>
      <trkpt lat="46.77291" lon="4.55087">
        <ele>292</ele>
        <time>2010-08-25T08:34:25Z</time>
      </trkpt>
      <trkpt lat="46.77326" lon="4.55018">
        <ele>286</ele>
        <time>2010-08-25T08:34:32Z</time>
      </trkpt>
      <trkpt lat="46.77328" lon="4.54936">
        <ele>281</ele>
        <time>2010-08-25T08:34:39Z</time>
      </trkpt>
      <trkpt lat="46.77317" lon="4.54855">
        <ele>277</ele>
        <time>2010-08-25T08:34:45Z</time>
      </trkpt>
      <trkpt lat="46.7734" lon="4.5477">
        <ele>273</ele>
        <time>2010-08-25T08:34:52Z</time>
      </trkpt>
      <trkpt lat="46.77377" lon="4.54703">
        <ele>272</ele>
        <time>2010-08-25T08:34:59Z</time>
      </trkpt>
      <trkpt lat="46.77415" lon="4.54635">
        <ele>271</ele>
        <time>2010-08-25T08:35:07Z</time>
      </trkpt>
      <trkpt lat="46.77424" lon="4.54554">
        <ele>269</ele>
        <time>2010-08-25T08:35:15Z</time>
      </trkpt>
      <trkpt lat="46.77386" lon="4.54494">
        <ele>267</ele>
        <time>2010-08-25T08:35:23Z</time>
      </trkpt>
      <trkpt lat="46.77331" lon="4.54484">
        <ele>269</ele>
        <time>2010-08-25T08:35:32Z</time>
      </trkpt>
      <trkpt lat="46.77301" lon="4.5445">
        <ele>264</ele>
        <time>2010-08-25T08:35:46Z</time>
      </trkpt>
      <trkpt lat="46.77307" lon="4.54386">
        <ele>274</ele>
        <time>2010-08-25T08:40:28Z</time>
      </trkpt>
      <trkpt lat="46.77262" lon="4.5437">
        <ele>271</ele>
        <time>2010-08-25T08:40:40Z</time>
      </trkpt>
      <trkpt lat="46.77219" lon="4.54329">
        <ele>270</ele>
        <time>2010-08-25T08:40:48Z</time>
      </trkpt>
      <trkpt lat="46.77185" lon="4.54268">
        <ele>271</ele>
        <time>2010-08-25T08:40:57Z</time>
      </trkpt>
      <trkpt lat="46.77154" lon="4.54205">
        <ele>273</ele>
        <time>2010-08-25T08:41:08Z</time>
      </trkpt>
      <trkpt lat="46.77123" lon="4.54143">
        <ele>273</ele>
        <time>2010-08-25T08:41:19Z</time>
      </trkpt>
      <trkpt lat="46.77098" lon="4.54078">
        <ele>273</ele>
        <time>2010-08-25T08:41:29Z</time>
      </trkpt>
      <trkpt lat="46.7708" lon="4.54002">
        <ele>273</ele>
        <time>2010-08-25T08:41:39Z</time>
      </trkpt>
      <trkpt lat="46.77051" lon="4.53936">
        <ele>272</ele>
        <time>2010-08-25T08:41:49Z</time>
      </trkpt>
      <trkpt lat="46.77025" lon="4.53867">
        <ele>271</ele>
        <time>2010-08-25T08:41:59Z</time>
      </trkpt>
      <trkpt lat="46.77" lon="4.53797">
        <ele>271</ele>
        <time>2010-08-25T08:42:08Z</time>
      </trkpt>
      <trkpt lat="46.76976" lon="4.53724">
        <ele>273</ele>
        <time>2010-08-25T08:42:19Z</time>
      </trkpt>
      <trkpt lat="46.76955" lon="4.53657">
        <ele>274</ele>
        <time>2010-08-25T08:42:29Z</time>
      </trkpt>
      <trkpt lat="46.7693" lon="4.53587">
        <ele>275</ele>
        <time>2010-08-25T08:42:39Z</time>
      </trkpt>
      <trkpt lat="46.7691" lon="4.53513">
        <ele>275</ele>
        <time>2010-08-25T08:42:49Z</time>
      </trkpt>
      <trkpt lat="46.76893" lon="4.53442">
        <ele>275</ele>
        <time>2010-08-25T08:42:58Z</time>
      </trkpt>
      <trkpt lat="46.76878" lon="4.53369">
        <ele>276</ele>
        <time>2010-08-25T08:43:07Z</time>
      </trkpt>
      <trkpt lat="46.76873" lon="4.53292">
        <ele>277</ele>
        <time>2010-08-25T08:43:16Z</time>
      </trkpt>
      <trkpt lat="46.76856" lon="4.53218">
        <ele>277</ele>
        <time>2010-08-25T08:43:25Z</time>
      </trkpt>
      <trkpt lat="46.76822" lon="4.53162">
        <ele>276</ele>
        <time>2010-08-25T08:43:34Z</time>
      </trkpt>
      <trkpt lat="46.76785" lon="4.53106">
        <ele>275</ele>
        <time>2010-08-25T08:43:43Z</time>
      </trkpt>
      <trkpt lat="46.7676" lon="4.53039">
        <ele>275</ele>
        <time>2010-08-25T08:43:52Z</time>
      </trkpt>
      <trkpt lat="46.76743" lon="4.52963">
        <ele>274</ele>
        <time>2010-08-25T08:44:01Z</time>
      </trkpt>
      <trkpt lat="46.76728" lon="4.52888">
        <ele>276</ele>
        <time>2010-08-25T08:44:11Z</time>
      </trkpt>
      <trkpt lat="46.76714" lon="4.52816">
        <ele>278</ele>
        <time>2010-08-25T08:44:22Z</time>
      </trkpt>
      <trkpt lat="46.76696" lon="4.52743">
        <ele>278</ele>
        <time>2010-08-25T08:44:33Z</time>
      </trkpt>
      <trkpt lat="46.76669" lon="4.5268">
        <ele>278</ele>
        <time>2010-08-25T08:44:43Z</time>
      </trkpt>
      <trkpt lat="46.76649" lon="4.5261">
        <ele>278</ele>
        <time>2010-08-25T08:44:53Z</time>
      </trkpt>
      <trkpt lat="46.76628" lon="4.52539">
        <ele>278</ele>
        <time>2010-08-25T08:45:03Z</time>
      </trkpt>
      <trkpt lat="46.766" lon="4.52478">
        <ele>278</ele>
        <time>2010-08-25T08:45:12Z</time>
      </trkpt>
      <trkpt lat="46.76553" lon="4.52434">
        <ele>278</ele>
        <time>2010-08-25T08:45:22Z</time>
      </trkpt>
      <trkpt lat="46.76499" lon="4.52421">
        <ele>278</ele>
        <time>2010-08-25T08:45:31Z</time>
      </trkpt>
      <trkpt lat="46.76446" lon="4.52403">
        <ele>279</ele>
        <time>2010-08-25T08:45:40Z</time>
      </trkpt>
      <trkpt lat="46.76395" lon="4.5237">
        <ele>277</ele>
        <time>2010-08-25T08:45:49Z</time>
      </trkpt>
      <trkpt lat="46.7635" lon="4.52327">
        <ele>277</ele>
        <time>2010-08-25T08:45:58Z</time>
      </trkpt>
      <trkpt lat="46.76312" lon="4.5227">
        <ele>277</ele>
        <time>2010-08-25T08:46:07Z</time>
      </trkpt>
      <trkpt lat="46.76276" lon="4.52212">
        <ele>277</ele>
        <time>2010-08-25T08:46:16Z</time>
      </trkpt>
      <trkpt lat="46.76237" lon="4.52161">
        <ele>278</ele>
        <time>2010-08-25T08:46:26Z</time>
      </trkpt>
      <trkpt lat="46.76197" lon="4.52115">
        <ele>281</ele>
        <time>2010-08-25T08:46:40Z</time>
      </trkpt>
      <trkpt lat="46.76153" lon="4.52083">
        <ele>282</ele>
        <time>2010-08-25T08:46:51Z</time>
      </trkpt>
      <trkpt lat="46.76112" lon="4.52037">
        <ele>285</ele>
        <time>2010-08-25T08:47:18Z</time>
      </trkpt>
      <trkpt lat="46.76065" lon="4.52016">
        <ele>285</ele>
        <time>2010-08-25T08:47:28Z</time>
      </trkpt>
      <trkpt lat="46.7602" lon="4.51982">
        <ele>285</ele>
        <time>2010-08-25T08:47:38Z</time>
      </trkpt>
      <trkpt lat="46.75988" lon="4.51916">
        <ele>285</ele>
        <time>2010-08-25T08:47:48Z</time>
      </trkpt>
      <trkpt lat="46.75967" lon="4.5184">
        <ele>284</ele>
        <time>2010-08-25T08:47:58Z</time>
      </trkpt>
      <trkpt lat="46.75958" lon="4.5176">
        <ele>284</ele>
        <time>2010-08-25T08:48:08Z</time>
      </trkpt>
      <trkpt lat="46.75952" lon="4.51685">
        <ele>284</ele>
        <time>2010-08-25T08:48:17Z</time>
      </trkpt>
      <trkpt lat="46.75938" lon="4.51607">
        <ele>285</ele>
        <time>2010-08-25T08:48:27Z</time>
      </trkpt>
      <trkpt lat="46.75912" lon="4.51544">
        <ele>284</ele>
        <time>2010-08-25T08:48:41Z</time>
      </trkpt>
      <trkpt lat="46.75885" lon="4.51484">
        <ele>286</ele>
        <time>2010-08-25T08:48:54Z</time>
      </trkpt>
      <trkpt lat="46.75856" lon="4.5142">
        <ele>288</ele>
        <time>2010-08-25T08:49:07Z</time>
      </trkpt>
      <trkpt lat="46.7583" lon="4.51357">
        <ele>289</ele>
        <time>2010-08-25T08:49:18Z</time>
      </trkpt>
      <trkpt lat="46.75805" lon="4.51294">
        <ele>289</ele>
        <time>2010-08-25T08:49:28Z</time>
      </trkpt>
      <trkpt lat="46.75779" lon="4.51228">
        <ele>289</ele>
        <time>2010-08-25T08:49:38Z</time>
      </trkpt>
      <trkpt lat="46.75754" lon="4.51161">
        <ele>291</ele>
        <time>2010-08-25T08:49:49Z</time>
      </trkpt>
      <trkpt lat="46.75726" lon="4.51099">
        <ele>293</ele>
        <time>2010-08-25T08:50:01Z</time>
      </trkpt>
      <trkpt lat="46.75698" lon="4.51031">
        <ele>294</ele>
        <time>2010-08-25T08:50:13Z</time>
      </trkpt>
      <trkpt lat="46.75673" lon="4.50965">
        <ele>295</ele>
        <time>2010-08-25T08:50:23Z</time>
      </trkpt>
      <trkpt lat="46.75645" lon="4.50898">
        <ele>295</ele>
        <time>2010-08-25T08:50:33Z</time>
      </trkpt>
      <trkpt lat="46.75622" lon="4.50832">
        <ele>297</ele>
        <time>2010-08-25T08:50:44Z</time>
      </trkpt>
      <trkpt lat="46.75593" lon="4.50769">
        <ele>299</ele>
        <time>2010-08-25T08:50:57Z</time>
      </trkpt>
      <trkpt lat="46.75566" lon="4.50702">
        <ele>300</ele>
        <time>2010-08-25T08:51:09Z</time>
      </trkpt>
      <trkpt lat="46.75539" lon="4.5064">
        <ele>301</ele>
        <time>2010-08-25T08:51:20Z</time>
      </trkpt>
      <trkpt lat="46.75507" lon="4.50586">
        <ele>303</ele>
        <time>2010-08-25T08:51:41Z</time>
      </trkpt>
      <trkpt lat="46.7548" lon="4.50649">
        <ele>304</ele>
        <time>2010-08-25T08:51:55Z</time>
      </trkpt>
      <trkpt lat="46.75457" lon="4.50714">
        <ele>305</ele>
        <time>2010-08-25T08:52:06Z</time>
      </trkpt>
      <trkpt lat="46.75428" lon="4.50777">
        <ele>308</ele>
        <time>2010-08-25T08:52:20Z</time>
      </trkpt>
      <trkpt lat="46.75394" lon="4.5083">
        <ele>312</ele>
        <time>2010-08-25T08:52:36Z</time>
      </trkpt>
      <trkpt lat="46.75372" lon="4.50897">
        <ele>316</ele>
        <time>2010-08-25T08:52:52Z</time>
      </trkpt>
      <trkpt lat="46.75357" lon="4.50974">
        <ele>314</ele>
        <time>2010-08-25T08:53:03Z</time>
      </trkpt>
      <trkpt lat="46.7531" lon="4.51002">
        <ele>313</ele>
        <time>2010-08-25T08:53:17Z</time>
      </trkpt>
      <trkpt lat="46.75261" lon="4.50982">
        <ele>313</ele>
        <time>2010-08-25T08:53:27Z</time>
      </trkpt>
      <trkpt lat="46.75212" lon="4.50961">
        <ele>314</ele>
        <time>2010-08-25T08:53:38Z</time>
      </trkpt>
      <trkpt lat="46.75161" lon="4.5094">
        <ele>315</ele>
        <time>2010-08-25T08:53:51Z</time>
      </trkpt>
      <trkpt lat="46.75114" lon="4.50921">
        <ele>318</ele>
        <time>2010-08-25T08:54:06Z</time>
      </trkpt>
      <trkpt lat="46.75065" lon="4.509">
        <ele>321</ele>
        <time>2010-08-25T08:54:22Z</time>
      </trkpt>
      <trkpt lat="46.75018" lon="4.50881">
        <ele>322</ele>
        <time>2010-08-25T08:54:36Z</time>
      </trkpt>
      <trkpt lat="46.74971" lon="4.50861">
        <ele>323</ele>
        <time>2010-08-25T08:54:49Z</time>
      </trkpt>
      <trkpt lat="46.74923" lon="4.5084">
        <ele>323</ele>
        <time>2010-08-25T08:55:02Z</time>
      </trkpt>
      <trkpt lat="46.74875" lon="4.50819">
        <ele>322</ele>
        <time>2010-08-25T08:55:14Z</time>
      </trkpt>
      <trkpt lat="46.74831" lon="4.50782">
        <ele>324</ele>
        <time>2010-08-25T08:55:26Z</time>
      </trkpt>
      <trkpt lat="46.748" lon="4.50724">
        <ele>328</ele>
        <time>2010-08-25T08:55:43Z</time>
      </trkpt>
      <trkpt lat="46.74765" lon="4.50674">
        <ele>334</ele>
        <time>2010-08-25T08:56:05Z</time>
      </trkpt>
      <trkpt lat="46.74716" lon="4.50675">
        <ele>338</ele>
        <time>2010-08-25T08:56:27Z</time>
      </trkpt>
      <trkpt lat="46.7467" lon="4.507">
        <ele>341</ele>
        <time>2010-08-25T08:56:46Z</time>
      </trkpt>
      <trkpt lat="46.74623" lon="4.5073">
        <ele>340</ele>
        <time>2010-08-25T08:57:00Z</time>
      </trkpt>
      <trkpt lat="46.74575" lon="4.50756">
        <ele>338</ele>
        <time>2010-08-25T08:57:10Z</time>
      </trkpt>
      <trkpt lat="46.74525" lon="4.50797">
        <ele>335</ele>
        <time>2010-08-25T08:57:19Z</time>
      </trkpt>
      <trkpt lat="46.74488" lon="4.50855">
        <ele>334</ele>
        <time>2010-08-25T08:57:27Z</time>
      </trkpt>
      <trkpt lat="46.74453" lon="4.50915">
        <ele>333</ele>
        <time>2010-08-25T08:57:35Z</time>
      </trkpt>
      <trkpt lat="46.74414" lon="4.50969">
        <ele>333</ele>
        <time>2010-08-25T08:57:43Z</time>
      </trkpt>
      <trkpt lat="46.74366" lon="4.50948">
        <ele>331</ele>
        <time>2010-08-25T08:57:58Z</time>
      </trkpt>
      <trkpt lat="46.74342" lon="4.50877">
        <ele>329</ele>
        <time>2010-08-25T08:58:07Z</time>
      </trkpt>
      <trkpt lat="46.74351" lon="4.50801">
        <ele>327</ele>
        <time>2010-08-25T08:58:20Z</time>
      </trkpt>
      <trkpt lat="46.7437" lon="4.50729">
        <ele>326</ele>
        <time>2010-08-25T08:58:29Z</time>
      </trkpt>
      <trkpt lat="46.74389" lon="4.50659">
        <ele>326</ele>
        <time>2010-08-25T08:58:38Z</time>
      </trkpt>
      <trkpt lat="46.74402" lon="4.50582">
        <ele>326</ele>
        <time>2010-08-25T08:58:47Z</time>
      </trkpt>
      <trkpt lat="46.74416" lon="4.505">
        <ele>326</ele>
        <time>2010-08-25T08:58:56Z</time>
      </trkpt>
      <trkpt lat="46.74429" lon="4.50425">
        <ele>325</ele>
        <time>2010-08-25T08:59:04Z</time>
      </trkpt>
      <trkpt lat="46.74443" lon="4.50344">
        <ele>325</ele>
        <time>2010-08-25T08:59:13Z</time>
      </trkpt>
      <trkpt lat="46.74456" lon="4.50266">
        <ele>325</ele>
        <time>2010-08-25T08:59:22Z</time>
      </trkpt>
      <trkpt lat="46.74469" lon="4.5019">
        <ele>324</ele>
        <time>2010-08-25T08:59:31Z</time>
      </trkpt>
      <trkpt lat="46.74482" lon="4.50107">
        <ele>322</ele>
        <time>2010-08-25T08:59:39Z</time>
      </trkpt>
      <trkpt lat="46.74486" lon="4.50019">
        <ele>319</ele>
        <time>2010-08-25T08:59:46Z</time>
      </trkpt>
      <trkpt lat="46.74487" lon="4.49929">
        <ele>316</ele>
        <time>2010-08-25T08:59:53Z</time>
      </trkpt>
      <trkpt lat="46.74488" lon="4.49847">
        <ele>313</ele>
        <time>2010-08-25T08:59:59Z</time>
      </trkpt>
      <trkpt lat="46.74491" lon="4.49766">
        <ele>312</ele>
        <time>2010-08-25T09:00:05Z</time>
      </trkpt>
      <trkpt lat="46.74496" lon="4.49686">
        <ele>309</ele>
        <time>2010-08-25T09:00:11Z</time>
      </trkpt>
      <trkpt lat="46.74503" lon="4.49606">
        <ele>306</ele>
        <time>2010-08-25T09:00:19Z</time>
      </trkpt>
      <trkpt lat="46.74457" lon="4.49568">
        <ele>303</ele>
        <time>2010-08-25T09:00:30Z</time>
      </trkpt>
      <trkpt lat="46.7441" lon="4.49538">
        <ele>304</ele>
        <time>2010-08-25T09:00:43Z</time>
      </trkpt>
      <trkpt lat="46.74364" lon="4.49514">
        <ele>305</ele>
        <time>2010-08-25T09:00:57Z</time>
      </trkpt>
      <trkpt lat="46.74314" lon="4.49485">
        <ele>305</ele>
        <time>2010-08-25T09:01:08Z</time>
      </trkpt>
      <trkpt lat="46.74298" lon="4.49419">
        <ele>304</ele>
        <time>2010-08-25T09:01:25Z</time>
      </trkpt>
      <trkpt lat="46.74297" lon="4.49344">
        <ele>304</ele>
        <time>2010-08-25T09:01:36Z</time>
      </trkpt>
      <trkpt lat="46.74289" lon="4.49267">
        <ele>304</ele>
        <time>2010-08-25T09:01:47Z</time>
      </trkpt>
      <trkpt lat="46.74284" lon="4.49192">
        <ele>304</ele>
        <time>2010-08-25T09:01:57Z</time>
      </trkpt>
      <trkpt lat="46.74267" lon="4.49122">
        <ele>304</ele>
        <time>2010-08-25T09:02:07Z</time>
      </trkpt>
      <trkpt lat="46.7424" lon="4.49056">
        <ele>304</ele>
        <time>2010-08-25T09:02:17Z</time>
      </trkpt>
      <trkpt lat="46.74216" lon="4.48991">
        <ele>304</ele>
        <time>2010-08-25T09:02:27Z</time>
      </trkpt>
      <trkpt lat="46.74189" lon="4.48928">
        <ele>303</ele>
        <time>2010-08-25T09:02:37Z</time>
      </trkpt>
      <trkpt lat="46.74142" lon="4.48889">
        <ele>303</ele>
        <time>2010-08-25T09:02:48Z</time>
      </trkpt>
      <trkpt lat="46.74097" lon="4.48851">
        <ele>303</ele>
        <time>2010-08-25T09:02:59Z</time>
      </trkpt>
      <trkpt lat="46.74066" lon="4.48793">
        <ele>302</ele>
        <time>2010-08-25T09:03:09Z</time>
      </trkpt>
      <trkpt lat="46.74017" lon="4.48765">
        <ele>302</ele>
        <time>2010-08-25T09:03:19Z</time>
      </trkpt>
      <trkpt lat="46.73965" lon="4.48766">
        <ele>302</ele>
        <time>2010-08-25T09:03:29Z</time>
      </trkpt>
      <trkpt lat="46.73928" lon="4.48816">
        <ele>303</ele>
        <time>2010-08-25T09:03:39Z</time>
      </trkpt>
      <trkpt lat="46.73895" lon="4.48874">
        <ele>303</ele>
        <time>2010-08-25T09:03:49Z</time>
      </trkpt>
      <trkpt lat="46.73851" lon="4.48913">
        <ele>303</ele>
        <time>2010-08-25T09:03:59Z</time>
      </trkpt>
      <trkpt lat="46.73803" lon="4.48937">
        <ele>304</ele>
        <time>2010-08-25T09:04:09Z</time>
      </trkpt>
      <trkpt lat="46.73755" lon="4.48909">
        <ele>304</ele>
        <time>2010-08-25T09:04:20Z</time>
      </trkpt>
      <trkpt lat="46.7373" lon="4.48844">
        <ele>304</ele>
        <time>2010-08-25T09:04:31Z</time>
      </trkpt>
      <trkpt lat="46.73682" lon="4.48838">
        <ele>304</ele>
        <time>2010-08-25T09:04:52Z</time>
      </trkpt>
      <trkpt lat="46.73688" lon="4.4877">
        <ele>305</ele>
        <time>2010-08-25T09:05:07Z</time>
      </trkpt>
      <trkpt lat="46.73684" lon="4.48698">
        <ele>305</ele>
        <time>2010-08-25T09:05:19Z</time>
      </trkpt>
      <trkpt lat="46.73674" lon="4.48624">
        <ele>306</ele>
        <time>2010-08-25T09:05:32Z</time>
      </trkpt>
      <trkpt lat="46.73668" lon="4.48552">
        <ele>306</ele>
        <time>2010-08-25T09:05:46Z</time>
      </trkpt>
      <trkpt lat="46.73662" lon="4.48479">
        <ele>306</ele>
        <time>2010-08-25T09:13:33Z</time>
      </trkpt>
      <trkpt lat="46.73626" lon="4.48433">
        <ele>305</ele>
        <time>2010-08-25T09:13:46Z</time>
      </trkpt>
      <trkpt lat="46.73606" lon="4.48363">
        <ele>305</ele>
        <time>2010-08-25T09:13:57Z</time>
      </trkpt>
      <trkpt lat="46.73608" lon="4.48285">
        <ele>307</ele>
        <time>2010-08-25T09:14:09Z</time>
      </trkpt>
      <trkpt lat="46.73608" lon="4.48213">
        <ele>308</ele>
        <time>2010-08-25T09:14:22Z</time>
      </trkpt>
      <trkpt lat="46.73634" lon="4.48152">
        <ele>305</ele>
        <time>2010-08-25T09:14:39Z</time>
      </trkpt>
      <trkpt lat="46.73622" lon="4.48081">
        <ele>302</ele>
        <time>2010-08-25T09:14:51Z</time>
      </trkpt>
      <trkpt lat="46.73584" lon="4.48026">
        <ele>302</ele>
        <time>2010-08-25T09:15:01Z</time>
      </trkpt>
      <trkpt lat="46.73593" lon="4.47957">
        <ele>305</ele>
        <time>2010-08-25T09:15:22Z</time>
      </trkpt>
      <trkpt lat="46.73584" lon="4.47888">
        <ele>304</ele>
        <time>2010-08-25T09:15:36Z</time>
      </trkpt>
      <trkpt lat="46.73555" lon="4.47824">
        <ele>302</ele>
        <time>2010-08-25T09:15:47Z</time>
      </trkpt>
      <trkpt lat="46.73503" lon="4.47824">
        <ele>301</ele>
        <time>2010-08-25T09:15:58Z</time>
      </trkpt>
      <trkpt lat="46.73466" lon="4.47771">
        <ele>302</ele>
        <time>2010-08-25T09:16:08Z</time>
      </trkpt>
      <trkpt lat="46.73429" lon="4.47716">
        <ele>302</ele>
        <time>2010-08-25T09:16:17Z</time>
      </trkpt>
      <trkpt lat="46.73391" lon="4.47663">
        <ele>303</ele>
        <time>2010-08-25T09:16:26Z</time>
      </trkpt>
      <trkpt lat="46.73351" lon="4.47614">
        <ele>304</ele>
        <time>2010-08-25T09:16:35Z</time>
      </trkpt>
      <trkpt lat="46.73307" lon="4.47578">
        <ele>305</ele>
        <time>2010-08-25T09:16:44Z</time>
      </trkpt>
      <trkpt lat="46.73253" lon="4.47554">
        <ele>304</ele>
        <time>2010-08-25T09:16:54Z</time>
      </trkpt>
      <trkpt lat="46.73201" lon="4.4754">
        <ele>303</ele>
        <time>2010-08-25T09:17:03Z</time>
      </trkpt>
      <trkpt lat="46.73146" lon="4.47524">
        <ele>302</ele>
        <time>2010-08-25T09:17:12Z</time>
      </trkpt>
      <trkpt lat="46.73095" lon="4.47494">
        <ele>301</ele>
        <time>2010-08-25T09:17:21Z</time>
      </trkpt>
      <trkpt lat="46.73052" lon="4.4744">
        <ele>300</ele>
        <time>2010-08-25T09:17:30Z</time>
      </trkpt>
      <trkpt lat="46.73025" lon="4.47369">
        <ele>300</ele>
        <time>2010-08-25T09:17:39Z</time>
      </trkpt>
      <trkpt lat="46.73007" lon="4.47291">
        <ele>300</ele>
        <time>2010-08-25T09:17:48Z</time>
      </trkpt>
      <trkpt lat="46.7299" lon="4.47217">
        <ele>301</ele>
        <time>2010-08-25T09:17:57Z</time>
      </trkpt>
      <trkpt lat="46.72973" lon="4.47143">
        <ele>304</ele>
        <time>2010-08-25T09:18:06Z</time>
      </trkpt>
      <trkpt lat="46.72957" lon="4.47067">
        <ele>305</ele>
        <time>2010-08-25T09:18:15Z</time>
      </trkpt>
      <trkpt lat="46.72942" lon="4.46993">
        <ele>304</ele>
        <time>2010-08-25T09:18:24Z</time>
      </trkpt>
      <trkpt lat="46.72926" lon="4.46919">
        <ele>305</ele>
        <time>2010-08-25T09:18:33Z</time>
      </trkpt>
      <trkpt lat="46.72911" lon="4.46845">
        <ele>304</ele>
        <time>2010-08-25T09:18:42Z</time>
      </trkpt>
      <trkpt lat="46.72894" lon="4.46773">
        <ele>303</ele>
        <time>2010-08-25T09:18:51Z</time>
      </trkpt>
      <trkpt lat="46.72873" lon="4.467">
        <ele>302</ele>
        <time>2010-08-25T09:19:00Z</time>
      </trkpt>
      <trkpt lat="46.72852" lon="4.46627">
        <ele>302</ele>
        <time>2010-08-25T09:19:09Z</time>
      </trkpt>
      <trkpt lat="46.72832" lon="4.46552">
        <ele>302</ele>
        <time>2010-08-25T09:19:18Z</time>
      </trkpt>
      <trkpt lat="46.72815" lon="4.46475">
        <ele>301</ele>
        <time>2010-08-25T09:19:27Z</time>
      </trkpt>
      <trkpt lat="46.72799" lon="4.464">
        <ele>302</ele>
        <time>2010-08-25T09:19:36Z</time>
      </trkpt>
      <trkpt lat="46.72783" lon="4.46326">
        <ele>303</ele>
        <time>2010-08-25T09:19:45Z</time>
      </trkpt>
      <trkpt lat="46.72769" lon="4.4625">
        <ele>303</ele>
        <time>2010-08-25T09:19:57Z</time>
      </trkpt>
      <trkpt lat="46.72756" lon="4.46178">
        <ele>300</ele>
        <time>2010-08-25T09:20:08Z</time>
      </trkpt>
      <trkpt lat="46.7273" lon="4.46107">
        <ele>298</ele>
        <time>2010-08-25T09:20:18Z</time>
      </trkpt>
      <trkpt lat="46.72699" lon="4.46039">
        <ele>298</ele>
        <time>2010-08-25T09:20:28Z</time>
      </trkpt>
      <trkpt lat="46.72667" lon="4.45972">
        <ele>300</ele>
        <time>2010-08-25T09:20:38Z</time>
      </trkpt>
      <trkpt lat="46.72638" lon="4.45911">
        <ele>302</ele>
        <time>2010-08-25T09:20:47Z</time>
      </trkpt>
      <trkpt lat="46.7261" lon="4.45848">
        <ele>302</ele>
        <time>2010-08-25T09:20:56Z</time>
      </trkpt>
      <trkpt lat="46.72585" lon="4.45781">
        <ele>301</ele>
        <time>2010-08-25T09:21:05Z</time>
      </trkpt>
      <trkpt lat="46.72559" lon="4.45708">
        <ele>300</ele>
        <time>2010-08-25T09:21:14Z</time>
      </trkpt>
      <trkpt lat="46.72533" lon="4.45635">
        <ele>299</ele>
        <time>2010-08-25T09:21:23Z</time>
      </trkpt>
      <trkpt lat="46.72508" lon="4.45564">
        <ele>297</ele>
        <time>2010-08-25T09:21:32Z</time>
      </trkpt>
      <trkpt lat="46.72483" lon="4.45496">
        <ele>297</ele>
        <time>2010-08-25T09:21:41Z</time>
      </trkpt>
      <trkpt lat="46.72459" lon="4.4543">
        <ele>297</ele>
        <time>2010-08-25T09:21:50Z</time>
      </trkpt>
      <trkpt lat="46.72435" lon="4.45363">
        <ele>296</ele>
        <time>2010-08-25T09:21:59Z</time>
      </trkpt>
      <trkpt lat="46.72409" lon="4.4529">
        <ele>297</ele>
        <time>2010-08-25T09:22:09Z</time>
      </trkpt>
      <trkpt lat="46.72385" lon="4.45223">
        <ele>296</ele>
        <time>2010-08-25T09:22:18Z</time>
      </trkpt>
      <trkpt lat="46.72362" lon="4.45152">
        <ele>296</ele>
        <time>2010-08-25T09:22:27Z</time>
      </trkpt>
      <trkpt lat="46.72333" lon="4.45086">
        <ele>296</ele>
        <time>2010-08-25T09:22:36Z</time>
      </trkpt>
      <trkpt lat="46.7229" lon="4.45038">
        <ele>296</ele>
        <time>2010-08-25T09:22:45Z</time>
      </trkpt>
      <trkpt lat="46.72245" lon="4.44992">
        <ele>296</ele>
        <time>2010-08-25T09:22:54Z</time>
      </trkpt>
      <trkpt lat="46.72201" lon="4.44945">
        <ele>296</ele>
        <time>2010-08-25T09:23:03Z</time>
      </trkpt>
      <trkpt lat="46.72165" lon="4.44887">
        <ele>296</ele>
        <time>2010-08-25T09:23:12Z</time>
      </trkpt>
      <trkpt lat="46.72141" lon="4.44817">
        <ele>295</ele>
        <time>2010-08-25T09:23:21Z</time>
      </trkpt>
      <trkpt lat="46.72132" lon="4.4474">
        <ele>295</ele>
        <time>2010-08-25T09:23:30Z</time>
      </trkpt>
      <trkpt lat="46.72139" lon="4.44661">
        <ele>295</ele>
        <time>2010-08-25T09:23:39Z</time>
      </trkpt>
      <trkpt lat="46.7214" lon="4.44584">
        <ele>295</ele>
        <time>2010-08-25T09:23:48Z</time>
      </trkpt>
      <trkpt lat="46.72117" lon="4.44516">
        <ele>295</ele>
        <time>2010-08-25T09:23:57Z</time>
      </trkpt>
      <trkpt lat="46.72078" lon="4.44458">
        <ele>295</ele>
        <time>2010-08-25T09:24:06Z</time>
      </trkpt>
      <trkpt lat="46.7204" lon="4.44404">
        <ele>295</ele>
        <time>2010-08-25T09:24:15Z</time>
      </trkpt>
      <trkpt lat="46.71995" lon="4.44365">
        <ele>296</ele>
        <time>2010-08-25T09:24:25Z</time>
      </trkpt>
      <trkpt lat="46.71945" lon="4.44353">
        <ele>296</ele>
        <time>2010-08-25T09:25:16Z</time>
      </trkpt>
      <trkpt lat="46.71898" lon="4.44327">
        <ele>295</ele>
        <time>2010-08-25T09:25:25Z</time>
      </trkpt>
      <trkpt lat="46.71852" lon="4.44292">
        <ele>293</ele>
        <time>2010-08-25T09:25:33Z</time>
      </trkpt>
      <trkpt lat="46.71813" lon="4.44234">
        <ele>293</ele>
        <time>2010-08-25T09:25:42Z</time>
      </trkpt>
      <trkpt lat="46.7179" lon="4.44159">
        <ele>293</ele>
        <time>2010-08-25T09:25:51Z</time>
      </trkpt>
      <trkpt lat="46.71774" lon="4.44082">
        <ele>293</ele>
        <time>2010-08-25T09:26:00Z</time>
      </trkpt>
      <trkpt lat="46.71736" lon="4.44032">
        <ele>294</ele>
        <time>2010-08-25T09:26:09Z</time>
      </trkpt>
      <trkpt lat="46.71681" lon="4.44012">
        <ele>294</ele>
        <time>2010-08-25T09:26:18Z</time>
      </trkpt>
      <trkpt lat="46.71629" lon="4.43991">
        <ele>294</ele>
        <time>2010-08-25T09:26:27Z</time>
      </trkpt>
      <trkpt lat="46.71577" lon="4.4398">
        <ele>295</ele>
        <time>2010-08-25T09:26:36Z</time>
      </trkpt>
      <trkpt lat="46.71523" lon="4.4399">
        <ele>295</ele>
        <time>2010-08-25T09:26:45Z</time>
      </trkpt>
      <trkpt lat="46.71473" lon="4.4401">
        <ele>294</ele>
        <time>2010-08-25T09:26:54Z</time>
      </trkpt>
      <trkpt lat="46.71423" lon="4.44031">
        <ele>294</ele>
        <time>2010-08-25T09:27:03Z</time>
      </trkpt>
      <trkpt lat="46.71374" lon="4.44048">
        <ele>293</ele>
        <time>2010-08-25T09:27:12Z</time>
      </trkpt>
      <trkpt lat="46.71328" lon="4.44018">
        <ele>293</ele>
        <time>2010-08-25T09:27:21Z</time>
      </trkpt>
      <trkpt lat="46.71295" lon="4.4396">
        <ele>294</ele>
        <time>2010-08-25T09:27:30Z</time>
      </trkpt>
      <trkpt lat="46.71255" lon="4.43905">
        <ele>295</ele>
        <time>2010-08-25T09:27:39Z</time>
      </trkpt>
      <trkpt lat="46.71227" lon="4.43836">
        <ele>294</ele>
        <time>2010-08-25T09:27:48Z</time>
      </trkpt>
      <trkpt lat="46.7121" lon="4.43758">
        <ele>295</ele>
        <time>2010-08-25T09:27:57Z</time>
      </trkpt>
      <trkpt lat="46.71197" lon="4.43677">
        <ele>294</ele>
        <time>2010-08-25T09:28:06Z</time>
      </trkpt>
      <trkpt lat="46.71181" lon="4.43599">
        <ele>295</ele>
        <time>2010-08-25T09:28:15Z</time>
      </trkpt>
      <trkpt lat="46.71158" lon="4.43528">
        <ele>297</ele>
        <time>2010-08-25T09:28:24Z</time>
      </trkpt>
      <trkpt lat="46.71133" lon="4.43458">
        <ele>297</ele>
        <time>2010-08-25T09:28:33Z</time>
      </trkpt>
      <trkpt lat="46.71103" lon="4.43391">
        <ele>297</ele>
        <time>2010-08-25T09:28:42Z</time>
      </trkpt>
      <trkpt lat="46.71088" lon="4.43312">
        <ele>296</ele>
        <time>2010-08-25T09:28:51Z</time>
      </trkpt>
      <trkpt lat="46.71078" lon="4.43233">
        <ele>296</ele>
        <time>2010-08-25T09:29:00Z</time>
      </trkpt>
      <trkpt lat="46.71057" lon="4.43157">
        <ele>296</ele>
        <time>2010-08-25T09:29:09Z</time>
      </trkpt>
      <trkpt lat="46.71032" lon="4.43083">
        <ele>297</ele>
        <time>2010-08-25T09:29:18Z</time>
      </trkpt>
      <trkpt lat="46.71001" lon="4.43018">
        <ele>297</ele>
        <time>2010-08-25T09:29:27Z</time>
      </trkpt>
      <trkpt lat="46.70961" lon="4.42966">
        <ele>297</ele>
        <time>2010-08-25T09:29:36Z</time>
      </trkpt>
      <trkpt lat="46.70913" lon="4.4293">
        <ele>298</ele>
        <time>2010-08-25T09:29:45Z</time>
      </trkpt>
      <trkpt lat="46.70858" lon="4.42918">
        <ele>297</ele>
        <time>2010-08-25T09:29:54Z</time>
      </trkpt>
      <trkpt lat="46.70806" lon="4.42891">
        <ele>296</ele>
        <time>2010-08-25T09:30:03Z</time>
      </trkpt>
      <trkpt lat="46.70768" lon="4.42833">
        <ele>296</ele>
        <time>2010-08-25T09:30:12Z</time>
      </trkpt>
      <trkpt lat="46.70745" lon="4.42756">
        <ele>295</ele>
        <time>2010-08-25T09:30:21Z</time>
      </trkpt>
      <trkpt lat="46.70741" lon="4.42676">
        <ele>294</ele>
        <time>2010-08-25T09:30:30Z</time>
      </trkpt>
      <trkpt lat="46.70714" lon="4.42606">
        <ele>295</ele>
        <time>2010-08-25T09:30:39Z</time>
      </trkpt>
      <trkpt lat="46.7068" lon="4.4254">
        <ele>296</ele>
        <time>2010-08-25T09:30:48Z</time>
      </trkpt>
      <trkpt lat="46.70642" lon="4.42477">
        <ele>295</ele>
        <time>2010-08-25T09:30:57Z</time>
      </trkpt>
      <trkpt lat="46.70609" lon="4.42419">
        <ele>295</ele>
        <time>2010-08-25T09:31:06Z</time>
      </trkpt>
      <trkpt lat="46.70578" lon="4.42363">
        <ele>286</ele>
        <time>2010-08-25T09:41:54Z</time>
      </trkpt>
      <trkpt lat="46.70551" lon="4.42312">
        <ele>284</ele>
        <time>2010-08-25T09:42:12Z</time>
      </trkpt>
      <trkpt lat="46.70517" lon="4.42246">
        <ele>283</ele>
        <time>2010-08-25T09:42:21Z</time>
      </trkpt>
      <trkpt lat="46.70486" lon="4.42179">
        <ele>287</ele>
        <time>2010-08-25T09:42:30Z</time>
      </trkpt>
      <trkpt lat="46.70452" lon="4.42117">
        <ele>289</ele>
        <time>2010-08-25T09:42:39Z</time>
      </trkpt>
      <trkpt lat="46.70411" lon="4.42066">
        <ele>289</ele>
        <time>2010-08-25T09:42:48Z</time>
      </trkpt>
      <trkpt lat="46.70373" lon="4.42008">
        <ele>289</ele>
        <time>2010-08-25T09:42:57Z</time>
      </trkpt>
      <trkpt lat="46.70351" lon="4.41939">
        <ele>290</ele>
        <time>2010-08-25T09:43:05Z</time>
      </trkpt>
      <trkpt lat="46.7033" lon="4.41869">
        <ele>292</ele>
        <time>2010-08-25T09:43:13Z</time>
      </trkpt>
      <trkpt lat="46.70309" lon="4.41793">
        <ele>293</ele>
        <time>2010-08-25T09:43:21Z</time>
      </trkpt>
      <trkpt lat="46.70288" lon="4.41713">
        <ele>293</ele>
        <time>2010-08-25T09:43:29Z</time>
      </trkpt>
      <trkpt lat="46.70267" lon="4.41638">
        <ele>294</ele>
        <time>2010-08-25T09:43:37Z</time>
      </trkpt>
      <trkpt lat="46.70247" lon="4.41569">
        <ele>294</ele>
        <time>2010-08-25T09:43:45Z</time>
      </trkpt>
      <trkpt lat="46.70213" lon="4.41501">
        <ele>293</ele>
        <time>2010-08-25T09:43:54Z</time>
      </trkpt>
      <trkpt lat="46.70172" lon="4.41441">
        <ele>293</ele>
        <time>2010-08-25T09:44:03Z</time>
      </trkpt>
      <trkpt lat="46.70124" lon="4.41399">
        <ele>293</ele>
        <time>2010-08-25T09:44:12Z</time>
      </trkpt>
      <trkpt lat="46.70074" lon="4.41364">
        <ele>292</ele>
        <time>2010-08-25T09:44:21Z</time>
      </trkpt>
      <trkpt lat="46.70036" lon="4.41304">
        <ele>293</ele>
        <time>2010-08-25T09:44:30Z</time>
      </trkpt>
      <trkpt lat="46.70009" lon="4.41239">
        <ele>293</ele>
        <time>2010-08-25T09:44:38Z</time>
      </trkpt>
      <trkpt lat="46.70001" lon="4.41159">
        <ele>292</ele>
        <time>2010-08-25T09:44:47Z</time>
      </trkpt>
      <trkpt lat="46.70007" lon="4.41094">
        <ele>283</ele>
        <time>2010-08-25T09:48:02Z</time>
      </trkpt>
      <trkpt lat="46.70005" lon="4.41024">
        <ele>285</ele>
        <time>2010-08-25T09:51:57Z</time>
      </trkpt>
      <trkpt lat="46.69999" lon="4.40952">
        <ele>285</ele>
        <time>2010-08-25T09:52:07Z</time>
      </trkpt>
      <trkpt lat="46.69985" lon="4.40875">
        <ele>285</ele>
        <time>2010-08-25T09:52:16Z</time>
      </trkpt>
      <trkpt lat="46.69958" lon="4.40804">
        <ele>287</ele>
        <time>2010-08-25T09:52:25Z</time>
      </trkpt>
      <trkpt lat="46.69936" lon="4.40734">
        <ele>288</ele>
        <time>2010-08-25T09:52:35Z</time>
      </trkpt>
      <trkpt lat="46.69907" lon="4.40673">
        <ele>284</ele>
        <time>2010-08-25T09:53:34Z</time>
      </trkpt>
      <trkpt lat="46.6987" lon="4.40618">
        <ele>285</ele>
        <time>2010-08-25T09:53:43Z</time>
      </trkpt>
      <trkpt lat="46.69832" lon="4.40566">
        <ele>286</ele>
        <time>2010-08-25T09:53:51Z</time>
      </trkpt>
      <trkpt lat="46.69796" lon="4.4051">
        <ele>287</ele>
        <time>2010-08-25T09:53:59Z</time>
      </trkpt>
      <trkpt lat="46.69762" lon="4.40444">
        <ele>286</ele>
        <time>2010-08-25T09:54:08Z</time>
      </trkpt>
      <trkpt lat="46.69728" lon="4.40376">
        <ele>286</ele>
        <time>2010-08-25T09:54:17Z</time>
      </trkpt>
      <trkpt lat="46.69707" lon="4.40301">
        <ele>285</ele>
        <time>2010-08-25T09:54:26Z</time>
      </trkpt>
      <trkpt lat="46.69717" lon="4.40219">
        <ele>284</ele>
        <time>2010-08-25T09:54:35Z</time>
      </trkpt>
      <trkpt lat="46.69757" lon="4.4016">
        <ele>284</ele>
        <time>2010-08-25T09:54:44Z</time>
      </trkpt>
      <trkpt lat="46.69797" lon="4.40111">
        <ele>284</ele>
        <time>2010-08-25T09:54:52Z</time>
      </trkpt>
      <trkpt lat="46.69836" lon="4.40062">
        <ele>283</ele>
        <time>2010-08-25T09:55:00Z</time>
      </trkpt>
      <trkpt lat="46.69878" lon="4.40007">
        <ele>284</ele>
        <time>2010-08-25T09:55:09Z</time>
      </trkpt>
      <trkpt lat="46.69915" lon="4.39944">
        <ele>284</ele>
        <time>2010-08-25T09:55:18Z</time>
      </trkpt>
      <trkpt lat="46.69926" lon="4.39864">
        <ele>283</ele>
        <time>2010-08-25T09:55:27Z</time>
      </trkpt>
      <trkpt lat="46.69909" lon="4.39787">
        <ele>283</ele>
        <time>2010-08-25T09:55:36Z</time>
      </trkpt>
      <trkpt lat="46.6987" lon="4.39726">
        <ele>286</ele>
        <time>2010-08-25T09:55:45Z</time>
      </trkpt>
      <trkpt lat="46.6983" lon="4.39672">
        <ele>289</ele>
        <time>2010-08-25T09:55:54Z</time>
      </trkpt>
      <trkpt lat="46.69779" lon="4.39635">
        <ele>291</ele>
        <time>2010-08-25T09:56:03Z</time>
      </trkpt>
      <trkpt lat="46.69729" lon="4.39606">
        <ele>289</ele>
        <time>2010-08-25T09:56:12Z</time>
      </trkpt>
      <trkpt lat="46.6968" lon="4.39579">
        <ele>287</ele>
        <time>2010-08-25T09:56:21Z</time>
      </trkpt>
      <trkpt lat="46.69632" lon="4.39546">
        <ele>286</ele>
        <time>2010-08-25T09:56:30Z</time>
      </trkpt>
      <trkpt lat="46.69604" lon="4.39478">
        <ele>284</ele>
        <time>2010-08-25T09:56:39Z</time>
      </trkpt>
      <trkpt lat="46.69592" lon="4.39403">
        <ele>284</ele>
        <time>2010-08-25T09:56:50Z</time>
      </trkpt>
      <trkpt lat="46.69592" lon="4.3933">
        <ele>283</ele>
        <time>2010-08-25T09:57:05Z</time>
      </trkpt>
      <trkpt lat="46.69601" lon="4.3926">
        <ele>282</ele>
        <time>2010-08-25T09:59:36Z</time>
      </trkpt>
      <trkpt lat="46.69603" lon="4.39175">
        <ele>280</ele>
        <time>2010-08-25T09:59:49Z</time>
      </trkpt>
      <trkpt lat="46.6959" lon="4.39113">
        <ele>280</ele>
        <time>2010-08-25T10:00:38Z</time>
      </trkpt>
      <trkpt lat="46.69569" lon="4.39046">
        <ele>281</ele>
        <time>2010-08-25T11:25:59Z</time>
      </trkpt>
      <trkpt lat="46.69541" lon="4.38977">
        <ele>281</ele>
        <time>2010-08-25T11:26:07Z</time>
      </trkpt>
      <trkpt lat="46.69513" lon="4.38917">
        <ele>281</ele>
        <time>2010-08-25T11:26:14Z</time>
      </trkpt>
      <trkpt lat="46.69478" lon="4.38853">
        <ele>281</ele>
        <time>2010-08-25T11:26:22Z</time>
      </trkpt>
      <trkpt lat="46.6944" lon="4.38795">
        <ele>270</ele>
        <time>2010-08-25T11:26:31Z</time>
      </trkpt>
      <trkpt lat="46.69397" lon="4.38749">
        <ele>280</ele>
        <time>2010-08-25T11:26:40Z</time>
      </trkpt>
      <trkpt lat="46.69358" lon="4.38694">
        <ele>287</ele>
        <time>2010-08-25T11:26:50Z</time>
      </trkpt>
      <trkpt lat="46.69327" lon="4.3863">
        <ele>290</ele>
        <time>2010-08-25T11:27:00Z</time>
      </trkpt>
      <trkpt lat="46.69292" lon="4.38573">
        <ele>291</ele>
        <time>2010-08-25T11:27:10Z</time>
      </trkpt>
      <trkpt lat="46.69246" lon="4.38528">
        <ele>292</ele>
        <time>2010-08-25T11:27:20Z</time>
      </trkpt>
      <trkpt lat="46.692" lon="4.38486">
        <ele>293</ele>
        <time>2010-08-25T11:27:30Z</time>
      </trkpt>
      <trkpt lat="46.69154" lon="4.3844">
        <ele>292</ele>
        <time>2010-08-25T11:27:40Z</time>
      </trkpt>
      <trkpt lat="46.69111" lon="4.3839">
        <ele>293</ele>
        <time>2010-08-25T11:27:50Z</time>
      </trkpt>
      <trkpt lat="46.69062" lon="4.38364">
        <ele>293</ele>
        <time>2010-08-25T11:27:59Z</time>
      </trkpt>
      <trkpt lat="46.69017" lon="4.38324">
        <ele>294</ele>
        <time>2010-08-25T11:28:08Z</time>
      </trkpt>
      <trkpt lat="46.68972" lon="4.38276">
        <ele>294</ele>
        <time>2010-08-25T11:28:18Z</time>
      </trkpt>
      <trkpt lat="46.68928" lon="4.38237">
        <ele>293</ele>
        <time>2010-08-25T11:28:26Z</time>
      </trkpt>
      <trkpt lat="46.68883" lon="4.38189">
        <ele>293</ele>
        <time>2010-08-25T11:28:34Z</time>
      </trkpt>
      <trkpt lat="46.68853" lon="4.38127">
        <ele>293</ele>
        <time>2010-08-25T11:28:41Z</time>
      </trkpt>
      <trkpt lat="46.6882" lon="4.38067">
        <ele>293</ele>
        <time>2010-08-25T11:28:50Z</time>
      </trkpt>
      <trkpt lat="46.68774" lon="4.38031">
        <ele>292</ele>
        <time>2010-08-25T11:28:59Z</time>
      </trkpt>
      <trkpt lat="46.68739" lon="4.37975">
        <ele>291</ele>
        <time>2010-08-25T11:29:08Z</time>
      </trkpt>
      <trkpt lat="46.68707" lon="4.37914">
        <ele>291</ele>
        <time>2010-08-25T11:29:18Z</time>
      </trkpt>
      <trkpt lat="46.68658" lon="4.37876">
        <ele>291</ele>
        <time>2010-08-25T11:29:28Z</time>
      </trkpt>
      <trkpt lat="46.68607" lon="4.37848">
        <ele>290</ele>
        <time>2010-08-25T11:29:38Z</time>
      </trkpt>
      <trkpt lat="46.6856" lon="4.37821">
        <ele>290</ele>
        <time>2010-08-25T11:29:47Z</time>
      </trkpt>
      <trkpt lat="46.6851" lon="4.3779">
        <ele>291</ele>
        <time>2010-08-25T11:29:56Z</time>
      </trkpt>
      <trkpt lat="46.68464" lon="4.37756">
        <ele>291</ele>
        <time>2010-08-25T11:30:05Z</time>
      </trkpt>
      <trkpt lat="46.68423" lon="4.37709">
        <ele>291</ele>
        <time>2010-08-25T11:30:14Z</time>
      </trkpt>
      <trkpt lat="46.68393" lon="4.37645">
        <ele>291</ele>
        <time>2010-08-25T11:30:23Z</time>
      </trkpt>
      <trkpt lat="46.68364" lon="4.37577">
        <ele>290</ele>
        <time>2010-08-25T11:30:33Z</time>
      </trkpt>
      <trkpt lat="46.68325" lon="4.37524">
        <ele>289</ele>
        <time>2010-08-25T11:30:44Z</time>
      </trkpt>
      <trkpt lat="46.68283" lon="4.37477">
        <ele>288</ele>
        <time>2010-08-25T11:30:55Z</time>
      </trkpt>
      <trkpt lat="46.68249" lon="4.37421">
        <ele>292</ele>
        <time>2010-08-25T11:31:05Z</time>
      </trkpt>
      <trkpt lat="46.68217" lon="4.37362">
        <ele>293</ele>
        <time>2010-08-25T11:31:15Z</time>
      </trkpt>
      <trkpt lat="46.6819" lon="4.37295">
        <ele>294</ele>
        <time>2010-08-25T11:31:26Z</time>
      </trkpt>
      <trkpt lat="46.68158" lon="4.37236">
        <ele>292</ele>
        <time>2010-08-25T11:31:36Z</time>
      </trkpt>
      <trkpt lat="46.68127" lon="4.37172">
        <ele>291</ele>
        <time>2010-08-25T11:31:47Z</time>
      </trkpt>
      <trkpt lat="46.68096" lon="4.37113">
        <ele>290</ele>
        <time>2010-08-25T11:31:57Z</time>
      </trkpt>
      <trkpt lat="46.68069" lon="4.37045">
        <ele>288</ele>
        <time>2010-08-25T11:32:09Z</time>
      </trkpt>
      <trkpt lat="46.68048" lon="4.36978">
        <ele>287</ele>
        <time>2010-08-25T11:32:19Z</time>
      </trkpt>
      <trkpt lat="46.68021" lon="4.36911">
        <ele>287</ele>
        <time>2010-08-25T11:32:31Z</time>
      </trkpt>
      <trkpt lat="46.67988" lon="4.36848">
        <ele>287</ele>
        <time>2010-08-25T11:32:43Z</time>
      </trkpt>
      <trkpt lat="46.67951" lon="4.36791">
        <ele>286</ele>
        <time>2010-08-25T11:32:54Z</time>
      </trkpt>
      <trkpt lat="46.67911" lon="4.36739">
        <ele>285</ele>
        <time>2010-08-25T11:33:04Z</time>
      </trkpt>
      <trkpt lat="46.67872" lon="4.36687">
        <ele>285</ele>
        <time>2010-08-25T11:33:15Z</time>
      </trkpt>
      <trkpt lat="46.67825" lon="4.36667">
        <ele>287</ele>
        <time>2010-08-25T11:34:08Z</time>
      </trkpt>
      <trkpt lat="46.67787" lon="4.36627">
        <ele>283</ele>
        <time>2010-08-25T11:35:09Z</time>
      </trkpt>
      <trkpt lat="46.67757" lon="4.36565">
        <ele>281</ele>
        <time>2010-08-25T11:35:19Z</time>
      </trkpt>
      <trkpt lat="46.67729" lon="4.36498">
        <ele>280</ele>
        <time>2010-08-25T11:35:29Z</time>
      </trkpt>
      <trkpt lat="46.6769" lon="4.36445">
        <ele>281</ele>
        <time>2010-08-25T11:35:39Z</time>
      </trkpt>
      <trkpt lat="46.67644" lon="4.36405">
        <ele>280</ele>
        <time>2010-08-25T11:35:49Z</time>
      </trkpt>
      <trkpt lat="46.67597" lon="4.36368">
        <ele>281</ele>
        <time>2010-08-25T11:35:59Z</time>
      </trkpt>
      <trkpt lat="46.67552" lon="4.3633">
        <ele>282</ele>
        <time>2010-08-25T11:36:09Z</time>
      </trkpt>
      <trkpt lat="46.67506" lon="4.3629">
        <ele>282</ele>
        <time>2010-08-25T11:36:19Z</time>
      </trkpt>
      <trkpt lat="46.67459" lon="4.36244">
        <ele>284</ele>
        <time>2010-08-25T11:36:30Z</time>
      </trkpt>
      <trkpt lat="46.67416" lon="4.36206">
        <ele>284</ele>
        <time>2010-08-25T11:36:41Z</time>
      </trkpt>
      <trkpt lat="46.67372" lon="4.36164">
        <ele>284</ele>
        <time>2010-08-25T11:36:53Z</time>
      </trkpt>
      <trkpt lat="46.67326" lon="4.36124">
        <ele>284</ele>
        <time>2010-08-25T11:37:04Z</time>
      </trkpt>
      <trkpt lat="46.67301" lon="4.36056">
        <ele>285</ele>
        <time>2010-08-25T11:37:15Z</time>
      </trkpt>
      <trkpt lat="46.67267" lon="4.35998">
        <ele>282</ele>
        <time>2010-08-25T11:37:27Z</time>
      </trkpt>
      <trkpt lat="46.67222" lon="4.35967">
        <ele>288</ele>
        <time>2010-08-25T11:39:02Z</time>
      </trkpt>
      <trkpt lat="46.67174" lon="4.35936">
        <ele>289</ele>
        <time>2010-08-25T11:39:13Z</time>
      </trkpt>
      <trkpt lat="46.6713" lon="4.35905">
        <ele>286</ele>
        <time>2010-08-25T11:39:24Z</time>
      </trkpt>
      <trkpt lat="46.67086" lon="4.35863">
        <ele>285</ele>
        <time>2010-08-25T11:39:36Z</time>
      </trkpt>
      <trkpt lat="46.67055" lon="4.35807">
        <ele>282</ele>
        <time>2010-08-25T11:39:48Z</time>
      </trkpt>
      <trkpt lat="46.67025" lon="4.35741">
        <ele>279</ele>
        <time>2010-08-25T11:40:00Z</time>
      </trkpt>
      <trkpt lat="46.66985" lon="4.35687">
        <ele>280</ele>
        <time>2010-08-25T11:40:11Z</time>
      </trkpt>
      <trkpt lat="46.66945" lon="4.3564">
        <ele>280</ele>
        <time>2010-08-25T11:40:21Z</time>
      </trkpt>
      <trkpt lat="46.66905" lon="4.35593">
        <ele>279</ele>
        <time>2010-08-25T11:40:31Z</time>
      </trkpt>
      <trkpt lat="46.66862" lon="4.35546">
        <ele>279</ele>
        <time>2010-08-25T11:40:41Z</time>
      </trkpt>
      <trkpt lat="46.66816" lon="4.35502">
        <ele>279</ele>
        <time>2010-08-25T11:40:51Z</time>
      </trkpt>
      <trkpt lat="46.66769" lon="4.35465">
        <ele>279</ele>
        <time>2010-08-25T11:41:01Z</time>
      </trkpt>
      <trkpt lat="46.66724" lon="4.35431">
        <ele>280</ele>
        <time>2010-08-25T11:41:12Z</time>
      </trkpt>
      <trkpt lat="46.66679" lon="4.35394">
        <ele>280</ele>
        <time>2010-08-25T11:41:23Z</time>
      </trkpt>
      <trkpt lat="46.66631" lon="4.35358">
        <ele>281</ele>
        <time>2010-08-25T11:41:33Z</time>
      </trkpt>
      <trkpt lat="46.66584" lon="4.35321">
        <ele>280</ele>
        <time>2010-08-25T11:41:43Z</time>
      </trkpt>
      <trkpt lat="46.66538" lon="4.35281">
        <ele>278</ele>
        <time>2010-08-25T11:41:53Z</time>
      </trkpt>
      <trkpt lat="46.66499" lon="4.3523">
        <ele>277</ele>
        <time>2010-08-25T11:42:03Z</time>
      </trkpt>
      <trkpt lat="46.66462" lon="4.35172">
        <ele>276</ele>
        <time>2010-08-25T11:42:13Z</time>
      </trkpt>
      <trkpt lat="46.66425" lon="4.35116">
        <ele>275</ele>
        <time>2010-08-25T11:42:23Z</time>
      </trkpt>
      <trkpt lat="46.66383" lon="4.35068">
        <ele>276</ele>
        <time>2010-08-25T11:42:33Z</time>
      </trkpt>
      <trkpt lat="46.6634" lon="4.35024">
        <ele>277</ele>
        <time>2010-08-25T11:42:43Z</time>
      </trkpt>
      <trkpt lat="46.66297" lon="4.34981">
        <ele>279</ele>
        <time>2010-08-25T11:42:53Z</time>
      </trkpt>
      <trkpt lat="46.66253" lon="4.34934">
        <ele>282</ele>
        <time>2010-08-25T11:43:04Z</time>
      </trkpt>
      <trkpt lat="46.66224" lon="4.34874">
        <ele>284</ele>
        <time>2010-08-25T11:43:18Z</time>
      </trkpt>
      <trkpt lat="46.66204" lon="4.3481">
        <ele>281</ele>
        <time>2010-08-25T11:43:35Z</time>
      </trkpt>
      <trkpt lat="46.66156" lon="4.34769">
        <ele>281</ele>
        <time>2010-08-25T11:43:45Z</time>
      </trkpt>
      <trkpt lat="46.6611" lon="4.34731">
        <ele>283</ele>
        <time>2010-08-25T11:43:55Z</time>
      </trkpt>
      <trkpt lat="46.66065" lon="4.34697">
        <ele>286</ele>
        <time>2010-08-25T11:44:06Z</time>
      </trkpt>
      <trkpt lat="46.66018" lon="4.34671">
        <ele>285</ele>
        <time>2010-08-25T11:44:16Z</time>
      </trkpt>
      <trkpt lat="46.65969" lon="4.34648">
        <ele>284</ele>
        <time>2010-08-25T11:44:24Z</time>
      </trkpt>
      <trkpt lat="46.65917" lon="4.34618">
        <ele>283</ele>
        <time>2010-08-25T11:44:34Z</time>
      </trkpt>
      <trkpt lat="46.6587" lon="4.3458">
        <ele>283</ele>
        <time>2010-08-25T11:44:44Z</time>
      </trkpt>
      <trkpt lat="46.65823" lon="4.34537">
        <ele>283</ele>
        <time>2010-08-25T11:44:54Z</time>
      </trkpt>
      <trkpt lat="46.65781" lon="4.34494">
        <ele>282</ele>
        <time>2010-08-25T11:45:03Z</time>
      </trkpt>
      <trkpt lat="46.6574" lon="4.34447">
        <ele>282</ele>
        <time>2010-08-25T11:45:12Z</time>
      </trkpt>
      <trkpt lat="46.65697" lon="4.34399">
        <ele>282</ele>
        <time>2010-08-25T11:45:22Z</time>
      </trkpt>
      <trkpt lat="46.65656" lon="4.34348">
        <ele>282</ele>
        <time>2010-08-25T11:45:32Z</time>
      </trkpt>
      <trkpt lat="46.65619" lon="4.34291">
        <ele>282</ele>
        <time>2010-08-25T11:45:42Z</time>
      </trkpt>
      <trkpt lat="46.65583" lon="4.34231">
        <ele>282</ele>
        <time>2010-08-25T11:45:53Z</time>
      </trkpt>
      <trkpt lat="46.65553" lon="4.34173">
        <ele>283</ele>
        <time>2010-08-25T11:46:04Z</time>
      </trkpt>
      <trkpt lat="46.6552" lon="4.34115">
        <ele>285</ele>
        <time>2010-08-25T11:46:16Z</time>
      </trkpt>
      <trkpt lat="46.65483" lon="4.34058">
        <ele>283</ele>
        <time>2010-08-25T11:46:25Z</time>
      </trkpt>
      <trkpt lat="46.65442" lon="4.34015">
        <ele>282</ele>
        <time>2010-08-25T11:46:34Z</time>
      </trkpt>
      <trkpt lat="46.65393" lon="4.33988">
        <ele>281</ele>
        <time>2010-08-25T11:46:43Z</time>
      </trkpt>
      <trkpt lat="46.65345" lon="4.33961">
        <ele>280</ele>
        <time>2010-08-25T11:46:51Z</time>
      </trkpt>
      <trkpt lat="46.65293" lon="4.3394">
        <ele>280</ele>
        <time>2010-08-25T11:46:59Z</time>
      </trkpt>
      <trkpt lat="46.65236" lon="4.33937">
        <ele>281</ele>
        <time>2010-08-25T11:47:08Z</time>
      </trkpt>
      <trkpt lat="46.6518" lon="4.33939">
        <ele>281</ele>
        <time>2010-08-25T11:47:17Z</time>
      </trkpt>
      <trkpt lat="46.65125" lon="4.33941">
        <ele>281</ele>
        <time>2010-08-25T11:47:26Z</time>
      </trkpt>
      <trkpt lat="46.6507" lon="4.33932">
        <ele>281</ele>
        <time>2010-08-25T11:47:35Z</time>
      </trkpt>
      <trkpt lat="46.65026" lon="4.33885">
        <ele>280</ele>
        <time>2010-08-25T11:47:44Z</time>
      </trkpt>
      <trkpt lat="46.6499" lon="4.33825">
        <ele>279</ele>
        <time>2010-08-25T11:47:53Z</time>
      </trkpt>
      <trkpt lat="46.64953" lon="4.33763">
        <ele>279</ele>
        <time>2010-08-25T11:48:02Z</time>
      </trkpt>
      <trkpt lat="46.64919" lon="4.33702">
        <ele>279</ele>
        <time>2010-08-25T11:48:11Z</time>
      </trkpt>
      <trkpt lat="46.64888" lon="4.33636">
        <ele>279</ele>
        <time>2010-08-25T11:48:20Z</time>
      </trkpt>
      <trkpt lat="46.64853" lon="4.33579">
        <ele>280</ele>
        <time>2010-08-25T11:48:29Z</time>
      </trkpt>
      <trkpt lat="46.64803" lon="4.33558">
        <ele>280</ele>
        <time>2010-08-25T11:48:38Z</time>
      </trkpt>
      <trkpt lat="46.64751" lon="4.33551">
        <ele>280</ele>
        <time>2010-08-25T11:48:47Z</time>
      </trkpt>
      <trkpt lat="46.64699" lon="4.33572">
        <ele>279</ele>
        <time>2010-08-25T11:48:56Z</time>
      </trkpt>
      <trkpt lat="46.64648" lon="4.33605">
        <ele>278</ele>
        <time>2010-08-25T11:49:05Z</time>
      </trkpt>
      <trkpt lat="46.64594" lon="4.33597">
        <ele>279</ele>
        <time>2010-08-25T11:49:14Z</time>
      </trkpt>
      <trkpt lat="46.64544" lon="4.33568">
        <ele>279</ele>
        <time>2010-08-25T11:49:23Z</time>
      </trkpt>
      <trkpt lat="46.64529" lon="4.33496">
        <ele>277</ele>
        <time>2010-08-25T11:49:32Z</time>
      </trkpt>
      <trkpt lat="46.64523" lon="4.33414">
        <ele>276</ele>
        <time>2010-08-25T11:49:42Z</time>
      </trkpt>
      <trkpt lat="46.64494" lon="4.33352">
        <ele>277</ele>
        <time>2010-08-25T11:49:51Z</time>
      </trkpt>
      <trkpt lat="46.64448" lon="4.33304">
        <ele>277</ele>
        <time>2010-08-25T11:50:01Z</time>
      </trkpt>
      <trkpt lat="46.64401" lon="4.33278">
        <ele>279</ele>
        <time>2010-08-25T11:50:12Z</time>
      </trkpt>
      <trkpt lat="46.64348" lon="4.33279">
        <ele>280</ele>
        <time>2010-08-25T11:50:25Z</time>
      </trkpt>
      <trkpt lat="46.64296" lon="4.33304">
        <ele>279</ele>
        <time>2010-08-25T11:50:35Z</time>
      </trkpt>
      <trkpt lat="46.64244" lon="4.33335">
        <ele>278</ele>
        <time>2010-08-25T11:50:44Z</time>
      </trkpt>
      <trkpt lat="46.64193" lon="4.33362">
        <ele>277</ele>
        <time>2010-08-25T11:50:52Z</time>
      </trkpt>
      <trkpt lat="46.64137" lon="4.33377">
        <ele>277</ele>
        <time>2010-08-25T11:51:01Z</time>
      </trkpt>
      <trkpt lat="46.64084" lon="4.33365">
        <ele>278</ele>
        <time>2010-08-25T11:51:10Z</time>
      </trkpt>
      <trkpt lat="46.6403" lon="4.3336">
        <ele>278</ele>
        <time>2010-08-25T11:51:19Z</time>
      </trkpt>
      <trkpt lat="46.63977" lon="4.33381">
        <ele>277</ele>
        <time>2010-08-25T11:51:28Z</time>
      </trkpt>
      <trkpt lat="46.63927" lon="4.33407">
        <ele>276</ele>
        <time>2010-08-25T11:51:37Z</time>
      </trkpt>
      <trkpt lat="46.63876" lon="4.33419">
        <ele>276</ele>
        <time>2010-08-25T11:51:46Z</time>
      </trkpt>
      <trkpt lat="46.63824" lon="4.33426">
        <ele>276</ele>
        <time>2010-08-25T11:51:55Z</time>
      </trkpt>
      <trkpt lat="46.63771" lon="4.33442">
        <ele>276</ele>
        <time>2010-08-25T11:52:04Z</time>
      </trkpt>
      <trkpt lat="46.63718" lon="4.33466">
        <ele>276</ele>
        <time>2010-08-25T11:52:13Z</time>
      </trkpt>
      <trkpt lat="46.63664" lon="4.33476">
        <ele>275</ele>
        <time>2010-08-25T11:52:22Z</time>
      </trkpt>
      <trkpt lat="46.63607" lon="4.33478">
        <ele>274</ele>
        <time>2010-08-25T11:52:31Z</time>
      </trkpt>
      <trkpt lat="46.63551" lon="4.33461">
        <ele>274</ele>
        <time>2010-08-25T11:52:40Z</time>
      </trkpt>
      <trkpt lat="46.63498" lon="4.33455">
        <ele>276</ele>
        <time>2010-08-25T11:52:49Z</time>
      </trkpt>
      <trkpt lat="46.63448" lon="4.33482">
        <ele>275</ele>
        <time>2010-08-25T11:52:58Z</time>
      </trkpt>
      <trkpt lat="46.63393" lon="4.335">
        <ele>276</ele>
        <time>2010-08-25T11:53:07Z</time>
      </trkpt>
      <trkpt lat="46.63338" lon="4.33505">
        <ele>276</ele>
        <time>2010-08-25T11:53:16Z</time>
      </trkpt>
      <trkpt lat="46.63284" lon="4.33504">
        <ele>276</ele>
        <time>2010-08-25T11:53:25Z</time>
      </trkpt>
      <trkpt lat="46.63233" lon="4.33479">
        <ele>276</ele>
        <time>2010-08-25T11:53:34Z</time>
      </trkpt>
      <trkpt lat="46.63196" lon="4.33422">
        <ele>276</ele>
        <time>2010-08-25T11:53:43Z</time>
      </trkpt>
      <trkpt lat="46.63166" lon="4.3336">
        <ele>277</ele>
        <time>2010-08-25T11:53:53Z</time>
      </trkpt>
      <trkpt lat="46.6313" lon="4.33298">
        <ele>276</ele>
        <time>2010-08-25T11:54:03Z</time>
      </trkpt>
      <trkpt lat="46.63085" lon="4.33255">
        <ele>273</ele>
        <time>2010-08-25T11:54:11Z</time>
      </trkpt>
      <trkpt lat="46.63034" lon="4.33242">
        <ele>273</ele>
        <time>2010-08-25T11:54:19Z</time>
      </trkpt>
      <trkpt lat="46.62982" lon="4.33261">
        <ele>273</ele>
        <time>2010-08-25T11:54:28Z</time>
      </trkpt>
      <trkpt lat="46.62944" lon="4.33321">
        <ele>273</ele>
        <time>2010-08-25T11:54:37Z</time>
      </trkpt>
      <trkpt lat="46.62893" lon="4.33345">
        <ele>273</ele>
        <time>2010-08-25T11:54:46Z</time>
      </trkpt>
      <trkpt lat="46.6284" lon="4.33353">
        <ele>274</ele>
        <time>2010-08-25T11:54:55Z</time>
      </trkpt>
      <trkpt lat="46.62784" lon="4.33367">
        <ele>273</ele>
        <time>2010-08-25T11:55:04Z</time>
      </trkpt>
      <trkpt lat="46.6273" lon="4.33382">
        <ele>273</ele>
        <time>2010-08-25T11:55:13Z</time>
      </trkpt>
      <trkpt lat="46.62677" lon="4.33394">
        <ele>273</ele>
        <time>2010-08-25T11:55:22Z</time>
      </trkpt>
      <trkpt lat="46.62623" lon="4.33386">
        <ele>273</ele>
        <time>2010-08-25T11:55:31Z</time>
      </trkpt>
      <trkpt lat="46.62572" lon="4.33357">
        <ele>274</ele>
        <time>2010-08-25T11:55:40Z</time>
      </trkpt>
      <trkpt lat="46.62524" lon="4.33322">
        <ele>274</ele>
        <time>2010-08-25T11:55:49Z</time>
      </trkpt>
      <trkpt lat="46.62505" lon="4.33252">
        <ele>275</ele>
        <time>2010-08-25T11:55:58Z</time>
      </trkpt>
      <trkpt lat="46.62488" lon="4.33178">
        <ele>274</ele>
        <time>2010-08-25T11:56:07Z</time>
      </trkpt>
      <trkpt lat="46.62471" lon="4.33102">
        <ele>274</ele>
        <time>2010-08-25T11:56:16Z</time>
      </trkpt>
      <trkpt lat="46.6247" lon="4.3302">
        <ele>274</ele>
        <time>2010-08-25T11:56:25Z</time>
      </trkpt>
      <trkpt lat="46.62474" lon="4.32945">
        <ele>274</ele>
        <time>2010-08-25T11:56:34Z</time>
      </trkpt>
      <trkpt lat="46.62456" lon="4.32874">
        <ele>273</ele>
        <time>2010-08-25T11:56:43Z</time>
      </trkpt>
      <trkpt lat="46.62427" lon="4.3281">
        <ele>273</ele>
        <time>2010-08-25T11:56:53Z</time>
      </trkpt>
      <trkpt lat="46.62396" lon="4.32747">
        <ele>273</ele>
        <time>2010-08-25T11:57:02Z</time>
      </trkpt>
      <trkpt lat="46.62349" lon="4.32708">
        <ele>272</ele>
        <time>2010-08-25T11:57:10Z</time>
      </trkpt>
      <trkpt lat="46.62298" lon="4.32724">
        <ele>273</ele>
        <time>2010-08-25T11:57:18Z</time>
      </trkpt>
      <trkpt lat="46.62254" lon="4.32764">
        <ele>273</ele>
        <time>2010-08-25T11:57:26Z</time>
      </trkpt>
      <trkpt lat="46.62199" lon="4.32785">
        <ele>274</ele>
        <time>2010-08-25T11:57:35Z</time>
      </trkpt>
      <trkpt lat="46.62144" lon="4.32767">
        <ele>275</ele>
        <time>2010-08-25T11:57:44Z</time>
      </trkpt>
      <trkpt lat="46.62091" lon="4.3274">
        <ele>275</ele>
        <time>2010-08-25T11:57:53Z</time>
      </trkpt>
      <trkpt lat="46.6204" lon="4.32706">
        <ele>275</ele>
        <time>2010-08-25T11:58:02Z</time>
      </trkpt>
      <trkpt lat="46.61988" lon="4.32668">
        <ele>275</ele>
        <time>2010-08-25T11:58:11Z</time>
      </trkpt>
      <trkpt lat="46.61943" lon="4.32619">
        <ele>275</ele>
        <time>2010-08-25T11:58:20Z</time>
      </trkpt>
      <trkpt lat="46.61926" lon="4.32548">
        <ele>275</ele>
        <time>2010-08-25T11:58:28Z</time>
      </trkpt>
      <trkpt lat="46.61917" lon="4.32471">
        <ele>274</ele>
        <time>2010-08-25T11:58:35Z</time>
      </trkpt>
      <trkpt lat="46.61907" lon="4.32385">
        <ele>274</ele>
        <time>2010-08-25T11:58:43Z</time>
      </trkpt>
      <trkpt lat="46.61898" lon="4.32305">
        <ele>273</ele>
        <time>2010-08-25T11:58:51Z</time>
      </trkpt>
      <trkpt lat="46.61889" lon="4.3223">
        <ele>274</ele>
        <time>2010-08-25T11:58:59Z</time>
      </trkpt>
      <trkpt lat="46.61879" lon="4.32147">
        <ele>275</ele>
        <time>2010-08-25T11:59:08Z</time>
      </trkpt>
      <trkpt lat="46.6187" lon="4.32064">
        <ele>275</ele>
        <time>2010-08-25T11:59:17Z</time>
      </trkpt>
      <trkpt lat="46.6186" lon="4.31984">
        <ele>275</ele>
        <time>2010-08-25T11:59:26Z</time>
      </trkpt>
      <trkpt lat="46.61851" lon="4.31907">
        <ele>276</ele>
        <time>2010-08-25T11:59:35Z</time>
      </trkpt>
      <trkpt lat="46.61842" lon="4.31827">
        <ele>276</ele>
        <time>2010-08-25T11:59:46Z</time>
      </trkpt>
      <trkpt lat="46.61835" lon="4.31752">
        <ele>274</ele>
        <time>2010-08-25T11:59:54Z</time>
      </trkpt>
      <trkpt lat="46.61811" lon="4.31683">
        <ele>272</ele>
        <time>2010-08-25T12:00:02Z</time>
      </trkpt>
      <trkpt lat="46.61768" lon="4.31629">
        <ele>271</ele>
        <time>2010-08-25T12:00:11Z</time>
      </trkpt>
      <trkpt lat="46.61725" lon="4.31574">
        <ele>271</ele>
        <time>2010-08-25T12:00:20Z</time>
      </trkpt>
      <trkpt lat="46.61693" lon="4.31505">
        <ele>271</ele>
        <time>2010-08-25T12:00:29Z</time>
      </trkpt>
      <trkpt lat="46.61663" lon="4.31439">
        <ele>271</ele>
        <time>2010-08-25T12:00:38Z</time>
      </trkpt>
      <trkpt lat="46.61614" lon="4.31396">
        <ele>271</ele>
        <time>2010-08-25T12:00:47Z</time>
      </trkpt>
      <trkpt lat="46.61558" lon="4.31374">
        <ele>271</ele>
        <time>2010-08-25T12:00:56Z</time>
      </trkpt>
      <trkpt lat="46.61503" lon="4.31353">
        <ele>272</ele>
        <time>2010-08-25T12:01:05Z</time>
      </trkpt>
      <trkpt lat="46.61452" lon="4.31331">
        <ele>272</ele>
        <time>2010-08-25T12:01:13Z</time>
      </trkpt>
      <trkpt lat="46.614" lon="4.31295">
        <ele>272</ele>
        <time>2010-08-25T12:01:22Z</time>
      </trkpt>
      <trkpt lat="46.61354" lon="4.31247">
        <ele>273</ele>
        <time>2010-08-25T12:01:31Z</time>
      </trkpt>
      <trkpt lat="46.61301" lon="4.31218">
        <ele>272</ele>
        <time>2010-08-25T12:01:40Z</time>
      </trkpt>
      <trkpt lat="46.6125" lon="4.31231">
        <ele>272</ele>
        <time>2010-08-25T12:01:48Z</time>
      </trkpt>
      <trkpt lat="46.61198" lon="4.3125">
        <ele>272</ele>
        <time>2010-08-25T12:01:56Z</time>
      </trkpt>
      <trkpt lat="46.61146" lon="4.31257">
        <ele>272</ele>
        <time>2010-08-25T12:02:04Z</time>
      </trkpt>
      <trkpt lat="46.61089" lon="4.31247">
        <ele>272</ele>
        <time>2010-08-25T12:02:13Z</time>
      </trkpt>
      <trkpt lat="46.61038" lon="4.31238">
        <ele>273</ele>
        <time>2010-08-25T12:02:21Z</time>
      </trkpt>
      <trkpt lat="46.60987" lon="4.31223">
        <ele>273</ele>
        <time>2010-08-25T12:02:29Z</time>
      </trkpt>
      <trkpt lat="46.60938" lon="4.31179">
        <ele>273</ele>
        <time>2010-08-25T12:02:38Z</time>
      </trkpt>
      <trkpt lat="46.60896" lon="4.31123">
        <ele>273</ele>
        <time>2010-08-25T12:02:47Z</time>
      </trkpt>
      <trkpt lat="46.60854" lon="4.31066">
        <ele>273</ele>
        <time>2010-08-25T12:02:56Z</time>
      </trkpt>
      <trkpt lat="46.60816" lon="4.31014">
        <ele>273</ele>
        <time>2010-08-25T12:03:04Z</time>
      </trkpt>
      <trkpt lat="46.60773" lon="4.30957">
        <ele>272</ele>
        <time>2010-08-25T12:03:13Z</time>
      </trkpt>
      <trkpt lat="46.60727" lon="4.30908">
        <ele>271</ele>
        <time>2010-08-25T12:03:22Z</time>
      </trkpt>
      <trkpt lat="46.60677" lon="4.30865">
        <ele>270</ele>
        <time>2010-08-25T12:03:31Z</time>
      </trkpt>
      <trkpt lat="46.60635" lon="4.30821">
        <ele>269</ele>
        <time>2010-08-25T12:03:39Z</time>
      </trkpt>
      <trkpt lat="46.60601" lon="4.30757">
        <ele>270</ele>
        <time>2010-08-25T12:03:48Z</time>
      </trkpt>
      <trkpt lat="46.60579" lon="4.30683">
        <ele>270</ele>
        <time>2010-08-25T12:03:57Z</time>
      </trkpt>
      <trkpt lat="46.60558" lon="4.30606">
        <ele>269</ele>
        <time>2010-08-25T12:04:06Z</time>
      </trkpt>
      <trkpt lat="46.60535" lon="4.30537">
        <ele>269</ele>
        <time>2010-08-25T12:04:14Z</time>
      </trkpt>
      <trkpt lat="46.60501" lon="4.30476">
        <ele>269</ele>
        <time>2010-08-25T12:04:22Z</time>
      </trkpt>
      <trkpt lat="46.60484" lon="4.30404">
        <ele>269</ele>
        <time>2010-08-25T12:04:30Z</time>
      </trkpt>
      <trkpt lat="46.60476" lon="4.30329">
        <ele>268</ele>
        <time>2010-08-25T12:04:38Z</time>
      </trkpt>
      <trkpt lat="46.60471" lon="4.3025">
        <ele>268</ele>
        <time>2010-08-25T12:04:47Z</time>
      </trkpt>
      <trkpt lat="46.60453" lon="4.30174">
        <ele>269</ele>
        <time>2010-08-25T12:04:58Z</time>
      </trkpt>
      <trkpt lat="46.60426" lon="4.30104">
        <ele>268</ele>
        <time>2010-08-25T12:05:07Z</time>
      </trkpt>
      <trkpt lat="46.60381" lon="4.30053">
        <ele>268</ele>
        <time>2010-08-25T12:05:16Z</time>
      </trkpt>
      <trkpt lat="46.60331" lon="4.30016">
        <ele>268</ele>
        <time>2010-08-25T12:05:25Z</time>
      </trkpt>
      <trkpt lat="46.60283" lon="4.29972">
        <ele>269</ele>
        <time>2010-08-25T12:05:34Z</time>
      </trkpt>
      <trkpt lat="46.60242" lon="4.29914">
        <ele>269</ele>
        <time>2010-08-25T12:05:43Z</time>
      </trkpt>
      <trkpt lat="46.60204" lon="4.29853">
        <ele>269</ele>
        <time>2010-08-25T12:05:52Z</time>
      </trkpt>
      <trkpt lat="46.60165" lon="4.2979">
        <ele>269</ele>
        <time>2010-08-25T12:06:01Z</time>
      </trkpt>
      <trkpt lat="46.60127" lon="4.29729">
        <ele>269</ele>
        <time>2010-08-25T12:06:10Z</time>
      </trkpt>
      <trkpt lat="46.60088" lon="4.29667">
        <ele>269</ele>
        <time>2010-08-25T12:06:19Z</time>
      </trkpt>
      <trkpt lat="46.60052" lon="4.2961">
        <ele>268</ele>
        <time>2010-08-25T12:06:27Z</time>
      </trkpt>
      <trkpt lat="46.6002" lon="4.29551">
        <ele>268</ele>
        <time>2010-08-25T12:06:35Z</time>
      </trkpt>
      <trkpt lat="46.59997" lon="4.29483">
        <ele>269</ele>
        <time>2010-08-25T12:06:43Z</time>
      </trkpt>
      <trkpt lat="46.59981" lon="4.29411">
        <ele>269</ele>
        <time>2010-08-25T12:06:51Z</time>
      </trkpt>
      <trkpt lat="46.59969" lon="4.29338">
        <ele>269</ele>
        <time>2010-08-25T12:06:59Z</time>
      </trkpt>
      <trkpt lat="46.59953" lon="4.29258">
        <ele>267</ele>
        <time>2010-08-25T12:07:07Z</time>
      </trkpt>
      <trkpt lat="46.59937" lon="4.2918">
        <ele>265</ele>
        <time>2010-08-25T12:07:15Z</time>
      </trkpt>
      <trkpt lat="46.59921" lon="4.29104">
        <ele>264</ele>
        <time>2010-08-25T12:07:23Z</time>
      </trkpt>
      <trkpt lat="46.59906" lon="4.29032">
        <ele>263</ele>
        <time>2010-08-25T12:07:31Z</time>
      </trkpt>
      <trkpt lat="46.5989" lon="4.28959">
        <ele>262</ele>
        <time>2010-08-25T12:07:39Z</time>
      </trkpt>
      <trkpt lat="46.59874" lon="4.28886">
        <ele>262</ele>
        <time>2010-08-25T12:07:47Z</time>
      </trkpt>
      <trkpt lat="46.59859" lon="4.28812">
        <ele>261</ele>
        <time>2010-08-25T12:07:55Z</time>
      </trkpt>
      <trkpt lat="46.59844" lon="4.2874">
        <ele>261</ele>
        <time>2010-08-25T12:08:03Z</time>
      </trkpt>
      <trkpt lat="46.59827" lon="4.28661">
        <ele>260</ele>
        <time>2010-08-25T12:08:12Z</time>
      </trkpt>
      <trkpt lat="46.5981" lon="4.28581">
        <ele>259</ele>
        <time>2010-08-25T12:08:21Z</time>
      </trkpt>
      <trkpt lat="46.59801" lon="4.28507">
        <ele>259</ele>
        <time>2010-08-25T12:08:29Z</time>
      </trkpt>
      <trkpt lat="46.59798" lon="4.28431">
        <ele>258</ele>
        <time>2010-08-25T12:08:37Z</time>
      </trkpt>
      <trkpt lat="46.59794" lon="4.28355">
        <ele>259</ele>
        <time>2010-08-25T12:08:45Z</time>
      </trkpt>
      <trkpt lat="46.5979" lon="4.28271">
        <ele>259</ele>
        <time>2010-08-25T12:08:54Z</time>
      </trkpt>
      <trkpt lat="46.59786" lon="4.28195">
        <ele>259</ele>
        <time>2010-08-25T12:09:02Z</time>
      </trkpt>
      <trkpt lat="46.59783" lon="4.28112">
        <ele>259</ele>
        <time>2010-08-25T12:09:11Z</time>
      </trkpt>
      <trkpt lat="46.59779" lon="4.28028">
        <ele>260</ele>
        <time>2010-08-25T12:09:20Z</time>
      </trkpt>
      <trkpt lat="46.59767" lon="4.27948">
        <ele>260</ele>
        <time>2010-08-25T12:09:29Z</time>
      </trkpt>
      <trkpt lat="46.59753" lon="4.27868">
        <ele>259</ele>
        <time>2010-08-25T12:09:38Z</time>
      </trkpt>
      <trkpt lat="46.59738" lon="4.27787">
        <ele>258</ele>
        <time>2010-08-25T12:09:47Z</time>
      </trkpt>
      <trkpt lat="46.59724" lon="4.27708">
        <ele>261</ele>
        <time>2010-08-25T12:09:56Z</time>
      </trkpt>
      <trkpt lat="46.59713" lon="4.27631">
        <ele>261</ele>
        <time>2010-08-25T12:10:04Z</time>
      </trkpt>
      <trkpt lat="46.59718" lon="4.27556">
        <ele>261</ele>
        <time>2010-08-25T12:10:12Z</time>
      </trkpt>
      <trkpt lat="46.59731" lon="4.27481">
        <ele>262</ele>
        <time>2010-08-25T12:10:20Z</time>
      </trkpt>
      <trkpt lat="46.59743" lon="4.27404">
        <ele>262</ele>
        <time>2010-08-25T12:10:28Z</time>
      </trkpt>
      <trkpt lat="46.5976" lon="4.27332">
        <ele>263</ele>
        <time>2010-08-25T12:10:36Z</time>
      </trkpt>
      <trkpt lat="46.59785" lon="4.27264">
        <ele>264</ele>
        <time>2010-08-25T12:10:44Z</time>
      </trkpt>
      <trkpt lat="46.59823" lon="4.272">
        <ele>265</ele>
        <time>2010-08-25T12:10:53Z</time>
      </trkpt>
      <trkpt lat="46.5985" lon="4.27127">
        <ele>265</ele>
        <time>2010-08-25T12:11:02Z</time>
      </trkpt>
      <trkpt lat="46.59852" lon="4.27046">
        <ele>262</ele>
        <time>2010-08-25T12:11:11Z</time>
      </trkpt>
      <trkpt lat="46.59833" lon="4.26967">
        <ele>263</ele>
        <time>2010-08-25T12:11:20Z</time>
      </trkpt>
      <trkpt lat="46.59807" lon="4.26894">
        <ele>265</ele>
        <time>2010-08-25T12:11:29Z</time>
      </trkpt>
      <trkpt lat="46.59777" lon="4.26826">
        <ele>266</ele>
        <time>2010-08-25T12:11:38Z</time>
      </trkpt>
      <trkpt lat="46.59742" lon="4.26761">
        <ele>264</ele>
        <time>2010-08-25T12:11:47Z</time>
      </trkpt>
      <trkpt lat="46.59713" lon="4.26693">
        <ele>264</ele>
        <time>2010-08-25T12:11:56Z</time>
      </trkpt>
      <trkpt lat="46.59702" lon="4.26615">
        <ele>265</ele>
        <time>2010-08-25T12:12:05Z</time>
      </trkpt>
      <trkpt lat="46.59711" lon="4.26535">
        <ele>264</ele>
        <time>2010-08-25T12:12:14Z</time>
      </trkpt>
      <trkpt lat="46.59745" lon="4.26469">
        <ele>265</ele>
        <time>2010-08-25T12:12:23Z</time>
      </trkpt>
      <trkpt lat="46.59784" lon="4.2641">
        <ele>267</ele>
        <time>2010-08-25T12:12:32Z</time>
      </trkpt>
      <trkpt lat="46.59813" lon="4.26341">
        <ele>267</ele>
        <time>2010-08-25T12:12:41Z</time>
      </trkpt>
      <trkpt lat="46.59821" lon="4.26261">
        <ele>264</ele>
        <time>2010-08-25T12:12:50Z</time>
      </trkpt>
      <trkpt lat="46.59805" lon="4.26182">
        <ele>261</ele>
        <time>2010-08-25T12:12:59Z</time>
      </trkpt>
      <trkpt lat="46.59779" lon="4.26116">
        <ele>261</ele>
        <time>2010-08-25T12:13:07Z</time>
      </trkpt>
      <trkpt lat="46.59741" lon="4.26063">
        <ele>261</ele>
        <time>2010-08-25T12:13:15Z</time>
      </trkpt>
      <trkpt lat="46.59694" lon="4.26027">
        <ele>262</ele>
        <time>2010-08-25T12:13:23Z</time>
      </trkpt>
      <trkpt lat="46.59646" lon="4.25995">
        <ele>263</ele>
        <time>2010-08-25T12:13:31Z</time>
      </trkpt>
      <trkpt lat="46.59598" lon="4.25963">
        <ele>264</ele>
        <time>2010-08-25T12:13:39Z</time>
      </trkpt>
      <trkpt lat="46.5955" lon="4.25933">
        <ele>266</ele>
        <time>2010-08-25T12:13:47Z</time>
      </trkpt>
      <trkpt lat="46.59502" lon="4.25899">
        <ele>267</ele>
        <time>2010-08-25T12:13:55Z</time>
      </trkpt>
      <trkpt lat="46.59458" lon="4.25857">
        <ele>268</ele>
        <time>2010-08-25T12:14:03Z</time>
      </trkpt>
      <trkpt lat="46.59418" lon="4.25811">
        <ele>268</ele>
        <time>2010-08-25T12:14:11Z</time>
      </trkpt>
      <trkpt lat="46.59382" lon="4.25755">
        <ele>267</ele>
        <time>2010-08-25T12:14:19Z</time>
      </trkpt>
      <trkpt lat="46.59357" lon="4.25689">
        <ele>266</ele>
        <time>2010-08-25T12:14:27Z</time>
      </trkpt>
      <trkpt lat="46.59335" lon="4.25611">
        <ele>265</ele>
        <time>2010-08-25T12:14:36Z</time>
      </trkpt>
      <trkpt lat="46.59324" lon="4.25526">
        <ele>263</ele>
        <time>2010-08-25T12:14:44Z</time>
      </trkpt>
      <trkpt lat="46.59319" lon="4.25448">
        <ele>262</ele>
        <time>2010-08-25T12:14:52Z</time>
      </trkpt>
      <trkpt lat="46.59306" lon="4.25366">
        <ele>261</ele>
        <time>2010-08-25T12:15:01Z</time>
      </trkpt>
      <trkpt lat="46.59274" lon="4.25301">
        <ele>261</ele>
        <time>2010-08-25T12:15:10Z</time>
      </trkpt>
      <trkpt lat="46.59232" lon="4.25256">
        <ele>261</ele>
        <time>2010-08-25T12:15:18Z</time>
      </trkpt>
      <trkpt lat="46.59185" lon="4.25207">
        <ele>263</ele>
        <time>2010-08-25T12:15:27Z</time>
      </trkpt>
      <trkpt lat="46.59139" lon="4.2516">
        <ele>264</ele>
        <time>2010-08-25T12:15:36Z</time>
      </trkpt>
      <trkpt lat="46.59093" lon="4.25113">
        <ele>264</ele>
        <time>2010-08-25T12:15:45Z</time>
      </trkpt>
      <trkpt lat="46.59047" lon="4.25064">
        <ele>266</ele>
        <time>2010-08-25T12:15:54Z</time>
      </trkpt>
      <trkpt lat="46.59003" lon="4.2501">
        <ele>266</ele>
        <time>2010-08-25T12:16:03Z</time>
      </trkpt>
      <trkpt lat="46.58959" lon="4.24956">
        <ele>266</ele>
        <time>2010-08-25T12:16:12Z</time>
      </trkpt>
      <trkpt lat="46.58916" lon="4.24901">
        <ele>266</ele>
        <time>2010-08-25T12:16:21Z</time>
      </trkpt>
      <trkpt lat="46.58876" lon="4.24852">
        <ele>265</ele>
        <time>2010-08-25T12:16:29Z</time>
      </trkpt>
      <trkpt lat="46.58833" lon="4.24796">
        <ele>264</ele>
        <time>2010-08-25T12:16:38Z</time>
      </trkpt>
      <trkpt lat="46.58789" lon="4.24742">
        <ele>264</ele>
        <time>2010-08-25T12:16:47Z</time>
      </trkpt>
      <trkpt lat="46.58751" lon="4.2469">
        <ele>264</ele>
        <time>2010-08-25T12:16:55Z</time>
      </trkpt>
      <trkpt lat="46.58728" lon="4.24623">
        <ele>264</ele>
        <time>2010-08-25T12:17:03Z</time>
      </trkpt>
      <trkpt lat="46.58714" lon="4.24544">
        <ele>265</ele>
        <time>2010-08-25T12:17:12Z</time>
      </trkpt>
      <trkpt lat="46.58704" lon="4.24463">
        <ele>265</ele>
        <time>2010-08-25T12:17:21Z</time>
      </trkpt>
      <trkpt lat="46.58686" lon="4.24387">
        <ele>266</ele>
        <time>2010-08-25T12:17:30Z</time>
      </trkpt>
      <trkpt lat="46.5866" lon="4.24315">
        <ele>266</ele>
        <time>2010-08-25T12:17:39Z</time>
      </trkpt>
      <trkpt lat="46.58632" lon="4.24248">
        <ele>265</ele>
        <time>2010-08-25T12:17:48Z</time>
      </trkpt>
      <trkpt lat="46.5859" lon="4.24196">
        <ele>265</ele>
        <time>2010-08-25T12:17:57Z</time>
      </trkpt>
      <trkpt lat="46.58541" lon="4.24163">
        <ele>265</ele>
        <time>2010-08-25T12:18:06Z</time>
      </trkpt>
      <trkpt lat="46.58486" lon="4.24153">
        <ele>264</ele>
        <time>2010-08-25T12:18:15Z</time>
      </trkpt>
      <trkpt lat="46.58432" lon="4.24163">
        <ele>264</ele>
        <time>2010-08-25T12:18:24Z</time>
      </trkpt>
      <trkpt lat="46.58377" lon="4.24164">
        <ele>264</ele>
        <time>2010-08-25T12:18:33Z</time>
      </trkpt>
      <trkpt lat="46.5833" lon="4.24126">
        <ele>264</ele>
        <time>2010-08-25T12:18:42Z</time>
      </trkpt>
      <trkpt lat="46.58289" lon="4.24074">
        <ele>264</ele>
        <time>2010-08-25T12:18:51Z</time>
      </trkpt>
      <trkpt lat="46.58252" lon="4.24022">
        <ele>265</ele>
        <time>2010-08-25T12:19:00Z</time>
      </trkpt>
      <trkpt lat="46.58216" lon="4.23967">
        <ele>266</ele>
        <time>2010-08-25T12:19:11Z</time>
      </trkpt>
      <trkpt lat="46.58178" lon="4.23915">
        <ele>269</ele>
        <time>2010-08-25T12:19:26Z</time>
      </trkpt>
      <trkpt lat="46.5813" lon="4.23882">
        <ele>270</ele>
        <time>2010-08-25T12:19:37Z</time>
      </trkpt>
      <trkpt lat="46.58079" lon="4.23857">
        <ele>270</ele>
        <time>2010-08-25T12:19:46Z</time>
      </trkpt>
      <trkpt lat="46.5803" lon="4.2384">
        <ele>271</ele>
        <time>2010-08-25T12:19:55Z</time>
      </trkpt>
      <trkpt lat="46.57979" lon="4.23804">
        <ele>272</ele>
        <time>2010-08-25T12:20:05Z</time>
      </trkpt>
      <trkpt lat="46.57937" lon="4.23751">
        <ele>272</ele>
        <time>2010-08-25T12:20:15Z</time>
      </trkpt>
      <trkpt lat="46.57899" lon="4.23695">
        <ele>273</ele>
        <time>2010-08-25T12:20:25Z</time>
      </trkpt>
      <trkpt lat="46.57861" lon="4.23637">
        <ele>273</ele>
        <time>2010-08-25T12:20:35Z</time>
      </trkpt>
      <trkpt lat="46.57826" lon="4.23579">
        <ele>272</ele>
        <time>2010-08-25T12:20:45Z</time>
      </trkpt>
      <trkpt lat="46.57779" lon="4.2349">
        <ele>269</ele>
        <time>2010-08-25T12:40:44Z</time>
      </trkpt>
      <trkpt lat="46.57747" lon="4.23442">
        <ele>267</ele>
        <time>2010-08-25T12:41:06Z</time>
      </trkpt>
      <trkpt lat="46.57694" lon="4.23415">
        <ele>265</ele>
        <time>2010-08-25T12:41:16Z</time>
      </trkpt>
      <trkpt lat="46.5764" lon="4.23395">
        <ele>265</ele>
        <time>2010-08-25T12:41:26Z</time>
      </trkpt>
      <trkpt lat="46.57594" lon="4.23355">
        <ele>266</ele>
        <time>2010-08-25T12:41:36Z</time>
      </trkpt>
      <trkpt lat="46.57547" lon="4.23311">
        <ele>265</ele>
        <time>2010-08-25T12:41:46Z</time>
      </trkpt>
      <trkpt lat="46.575" lon="4.23269">
        <ele>265</ele>
        <time>2010-08-25T12:41:56Z</time>
      </trkpt>
      <trkpt lat="46.57462" lon="4.23217">
        <ele>265</ele>
        <time>2010-08-25T12:42:05Z</time>
      </trkpt>
      <trkpt lat="46.57449" lon="4.23141">
        <ele>263</ele>
        <time>2010-08-25T12:42:15Z</time>
      </trkpt>
      <trkpt lat="46.57438" lon="4.23064">
        <ele>256</ele>
        <time>2010-08-25T12:42:25Z</time>
      </trkpt>
      <trkpt lat="46.57415" lon="4.22998">
        <ele>254</ele>
        <time>2010-08-25T12:42:35Z</time>
      </trkpt>
      <trkpt lat="46.57381" lon="4.22941">
        <ele>255</ele>
        <time>2010-08-25T12:42:45Z</time>
      </trkpt>
      <trkpt lat="46.57337" lon="4.22896">
        <ele>256</ele>
        <time>2010-08-25T12:42:55Z</time>
      </trkpt>
      <trkpt lat="46.57291" lon="4.22864">
        <ele>259</ele>
        <time>2010-08-25T12:43:04Z</time>
      </trkpt>
      <trkpt lat="46.57241" lon="4.22831">
        <ele>263</ele>
        <time>2010-08-25T12:43:14Z</time>
      </trkpt>
      <trkpt lat="46.57192" lon="4.22799">
        <ele>265</ele>
        <time>2010-08-25T12:43:24Z</time>
      </trkpt>
      <trkpt lat="46.57146" lon="4.22754">
        <ele>266</ele>
        <time>2010-08-25T12:43:34Z</time>
      </trkpt>
      <trkpt lat="46.57119" lon="4.2269">
        <ele>266</ele>
        <time>2010-08-25T12:43:42Z</time>
      </trkpt>
      <trkpt lat="46.57098" lon="4.22616">
        <ele>266</ele>
        <time>2010-08-25T12:43:51Z</time>
      </trkpt>
      <trkpt lat="46.57078" lon="4.22544">
        <ele>266</ele>
        <time>2010-08-25T12:44:00Z</time>
      </trkpt>
      <trkpt lat="46.57074" lon="4.22466">
        <ele>265</ele>
        <time>2010-08-25T12:44:09Z</time>
      </trkpt>
      <trkpt lat="46.57076" lon="4.22387">
        <ele>263</ele>
        <time>2010-08-25T12:44:18Z</time>
      </trkpt>
      <trkpt lat="46.57081" lon="4.2231">
        <ele>261</ele>
        <time>2010-08-25T12:44:27Z</time>
      </trkpt>
      <trkpt lat="46.57079" lon="4.22231">
        <ele>258</ele>
        <time>2010-08-25T12:44:37Z</time>
      </trkpt>
      <trkpt lat="46.57042" lon="4.2217">
        <ele>257</ele>
        <time>2010-08-25T12:44:47Z</time>
      </trkpt>
      <trkpt lat="46.56992" lon="4.22153">
        <ele>257</ele>
        <time>2010-08-25T12:44:56Z</time>
      </trkpt>
      <trkpt lat="46.56939" lon="4.22151">
        <ele>258</ele>
        <time>2010-08-25T12:45:05Z</time>
      </trkpt>
      <trkpt lat="46.56886" lon="4.22151">
        <ele>259</ele>
        <time>2010-08-25T12:45:14Z</time>
      </trkpt>
      <trkpt lat="46.56834" lon="4.2215">
        <ele>259</ele>
        <time>2010-08-25T12:45:23Z</time>
      </trkpt>
      <trkpt lat="46.56778" lon="4.22159">
        <ele>259</ele>
        <time>2010-08-25T12:45:33Z</time>
      </trkpt>
      <trkpt lat="46.56733" lon="4.22199">
        <ele>259</ele>
        <time>2010-08-25T12:45:42Z</time>
      </trkpt>
      <trkpt lat="46.56706" lon="4.22263">
        <ele>257</ele>
        <time>2010-08-25T12:45:51Z</time>
      </trkpt>
      <trkpt lat="46.56679" lon="4.22334">
        <ele>259</ele>
        <time>2010-08-25T12:46:02Z</time>
      </trkpt>
      <trkpt lat="46.56688" lon="4.2238">
        <ele>259</ele>
        <time>2010-08-25T12:58:48Z</time>
      </trkpt>
      <trkpt lat="46.56684" lon="4.22455">
        <ele>257</ele>
        <time>2010-08-25T12:59:01Z</time>
      </trkpt>
      <trkpt lat="46.56643" lon="4.22495">
        <ele>260</ele>
        <time>2010-08-25T13:09:39Z</time>
      </trkpt>
      <trkpt lat="46.56594" lon="4.22487">
        <ele>261</ele>
        <time>2010-08-25T13:09:50Z</time>
      </trkpt>
      <trkpt lat="46.56544" lon="4.22464">
        <ele>264</ele>
        <time>2010-08-25T13:10:03Z</time>
      </trkpt>
      <trkpt lat="46.56504" lon="4.22422">
        <ele>265</ele>
        <time>2010-08-25T13:10:14Z</time>
      </trkpt>
      <trkpt lat="46.56462" lon="4.22378">
        <ele>264</ele>
        <time>2010-08-25T13:10:24Z</time>
      </trkpt>
      <trkpt lat="46.56418" lon="4.22331">
        <ele>262</ele>
        <time>2010-08-25T13:10:34Z</time>
      </trkpt>
      <trkpt lat="46.56369" lon="4.22354">
        <ele>262</ele>
        <time>2010-08-25T13:10:46Z</time>
      </trkpt>
      <trkpt lat="46.56347" lon="4.22419">
        <ele>265</ele>
        <time>2010-08-25T13:11:00Z</time>
      </trkpt>
      <trkpt lat="46.56313" lon="4.22473">
        <ele>265</ele>
        <time>2010-08-25T13:11:13Z</time>
      </trkpt>
      <trkpt lat="46.56261" lon="4.22485">
        <ele>261</ele>
        <time>2010-08-25T13:11:24Z</time>
      </trkpt>
      <trkpt lat="46.56211" lon="4.22496">
        <ele>260</ele>
        <time>2010-08-25T13:11:39Z</time>
      </trkpt>
      <trkpt lat="46.56157" lon="4.22511">
        <ele>260</ele>
        <time>2010-08-25T13:11:49Z</time>
      </trkpt>
      <trkpt lat="46.56108" lon="4.22489">
        <ele>260</ele>
        <time>2010-08-25T13:11:59Z</time>
      </trkpt>
      <trkpt lat="46.56098" lon="4.22411">
        <ele>260</ele>
        <time>2010-08-25T13:12:09Z</time>
      </trkpt>
      <trkpt lat="46.56075" lon="4.2234">
        <ele>259</ele>
        <time>2010-08-25T13:12:18Z</time>
      </trkpt>
      <trkpt lat="46.56046" lon="4.22274">
        <ele>259</ele>
        <time>2010-08-25T13:12:28Z</time>
      </trkpt>
      <trkpt lat="46.56011" lon="4.22219">
        <ele>261</ele>
        <time>2010-08-25T13:12:39Z</time>
      </trkpt>
      <trkpt lat="46.55969" lon="4.22173">
        <ele>263</ele>
        <time>2010-08-25T13:12:50Z</time>
      </trkpt>
      <trkpt lat="46.5592" lon="4.22162">
        <ele>264</ele>
        <time>2010-08-25T13:13:00Z</time>
      </trkpt>
      <trkpt lat="46.55865" lon="4.22155">
        <ele>265</ele>
        <time>2010-08-25T13:13:11Z</time>
      </trkpt>
      <trkpt lat="46.55813" lon="4.22144">
        <ele>265</ele>
        <time>2010-08-25T13:13:22Z</time>
      </trkpt>
      <trkpt lat="46.5576" lon="4.22132">
        <ele>265</ele>
        <time>2010-08-25T13:13:33Z</time>
      </trkpt>
      <trkpt lat="46.55709" lon="4.22115">
        <ele>266</ele>
        <time>2010-08-25T13:13:44Z</time>
      </trkpt>
      <trkpt lat="46.55661" lon="4.2209">
        <ele>268</ele>
        <time>2010-08-25T13:13:56Z</time>
      </trkpt>
      <trkpt lat="46.55614" lon="4.22063">
        <ele>270</ele>
        <time>2010-08-25T13:14:08Z</time>
      </trkpt>
      <trkpt lat="46.55563" lon="4.22039">
        <ele>271</ele>
        <time>2010-08-25T13:14:19Z</time>
      </trkpt>
      <trkpt lat="46.55512" lon="4.22016">
        <ele>270</ele>
        <time>2010-08-25T13:14:29Z</time>
      </trkpt>
      <trkpt lat="46.55463" lon="4.21992">
        <ele>269</ele>
        <time>2010-08-25T13:14:39Z</time>
      </trkpt>
      <trkpt lat="46.55412" lon="4.21968">
        <ele>269</ele>
        <time>2010-08-25T13:14:50Z</time>
      </trkpt>
      <trkpt lat="46.55363" lon="4.21946">
        <ele>270</ele>
        <time>2010-08-25T13:15:01Z</time>
      </trkpt>
      <trkpt lat="46.55336" lon="4.21886">
        <ele>268</ele>
        <time>2010-08-25T13:15:48Z</time>
      </trkpt>
      <trkpt lat="46.5531" lon="4.21823">
        <ele>280</ele>
        <time>2010-08-25T13:19:14Z</time>
      </trkpt>
      <trkpt lat="46.55271" lon="4.21769">
        <ele>273</ele>
        <time>2010-08-25T13:19:25Z</time>
      </trkpt>
      <trkpt lat="46.55223" lon="4.2172">
        <ele>268</ele>
        <time>2010-08-25T13:19:33Z</time>
      </trkpt>
      <trkpt lat="46.5517" lon="4.21671">
        <ele>262</ele>
        <time>2010-08-25T13:19:40Z</time>
      </trkpt>
      <trkpt lat="46.55122" lon="4.21625">
        <ele>259</ele>
        <time>2010-08-25T13:19:47Z</time>
      </trkpt>
      <trkpt lat="46.55079" lon="4.21578">
        <ele>259</ele>
        <time>2010-08-25T13:19:55Z</time>
      </trkpt>
      <trkpt lat="46.55038" lon="4.21528">
        <ele>262</ele>
        <time>2010-08-25T13:20:05Z</time>
      </trkpt>
      <trkpt lat="46.55001" lon="4.21475">
        <ele>267</ele>
        <time>2010-08-25T13:20:15Z</time>
      </trkpt>
      <trkpt lat="46.54964" lon="4.21419">
        <ele>268</ele>
        <time>2010-08-25T13:20:26Z</time>
      </trkpt>
      <trkpt lat="46.54935" lon="4.21353">
        <ele>266</ele>
        <time>2010-08-25T13:20:36Z</time>
      </trkpt>
      <trkpt lat="46.54921" lon="4.21278">
        <ele>263</ele>
        <time>2010-08-25T13:20:45Z</time>
      </trkpt>
      <trkpt lat="46.5491" lon="4.21203">
        <ele>261</ele>
        <time>2010-08-25T13:20:53Z</time>
      </trkpt>
      <trkpt lat="46.54881" lon="4.21136">
        <ele>260</ele>
        <time>2010-08-25T13:21:02Z</time>
      </trkpt>
      <trkpt lat="46.5483" lon="4.21154">
        <ele>261</ele>
        <time>2010-08-25T13:21:12Z</time>
      </trkpt>
      <trkpt lat="46.54782" lon="4.21179">
        <ele>261</ele>
        <time>2010-08-25T13:21:21Z</time>
      </trkpt>
      <trkpt lat="46.54733" lon="4.21213">
        <ele>260</ele>
        <time>2010-08-25T13:21:30Z</time>
      </trkpt>
      <trkpt lat="46.54684" lon="4.21239">
        <ele>261</ele>
        <time>2010-08-25T13:21:39Z</time>
      </trkpt>
      <trkpt lat="46.54634" lon="4.21253">
        <ele>261</ele>
        <time>2010-08-25T13:21:49Z</time>
      </trkpt>
      <trkpt lat="46.54583" lon="4.21229">
        <ele>262</ele>
        <time>2010-08-25T13:22:00Z</time>
      </trkpt>
      <trkpt lat="46.54532" lon="4.21212">
        <ele>262</ele>
        <time>2010-08-25T13:22:10Z</time>
      </trkpt>
      <trkpt lat="46.5448" lon="4.21194">
        <ele>261</ele>
        <time>2010-08-25T13:22:20Z</time>
      </trkpt>
      <trkpt lat="46.5443" lon="4.2118">
        <ele>261</ele>
        <time>2010-08-25T13:22:29Z</time>
      </trkpt>
      <trkpt lat="46.54377" lon="4.21169">
        <ele>260</ele>
        <time>2010-08-25T13:22:38Z</time>
      </trkpt>
      <trkpt lat="46.54322" lon="4.21159">
        <ele>260</ele>
        <time>2010-08-25T13:22:48Z</time>
      </trkpt>
      <trkpt lat="46.54272" lon="4.2113">
        <ele>258</ele>
        <time>2010-08-25T13:22:57Z</time>
      </trkpt>
      <trkpt lat="46.54226" lon="4.2109">
        <ele>257</ele>
        <time>2010-08-25T13:23:06Z</time>
      </trkpt>
      <trkpt lat="46.54173" lon="4.21084">
        <ele>258</ele>
        <time>2010-08-25T13:23:17Z</time>
      </trkpt>
      <trkpt lat="46.54123" lon="4.21105">
        <ele>261</ele>
        <time>2010-08-25T13:23:30Z</time>
      </trkpt>
      <trkpt lat="46.54088" lon="4.21159">
        <ele>265</ele>
        <time>2010-08-25T13:23:44Z</time>
      </trkpt>
      <trkpt lat="46.54079" lon="4.21234">
        <ele>267</ele>
        <time>2010-08-25T13:23:58Z</time>
      </trkpt>
      <trkpt lat="46.54067" lon="4.21308">
        <ele>268</ele>
        <time>2010-08-25T13:24:11Z</time>
      </trkpt>
      <trkpt lat="46.54035" lon="4.21364">
        <ele>271</ele>
        <time>2010-08-25T13:24:23Z</time>
      </trkpt>
      <trkpt lat="46.54002" lon="4.21421">
        <ele>272</ele>
        <time>2010-08-25T13:24:35Z</time>
      </trkpt>
      <trkpt lat="46.53952" lon="4.21436">
        <ele>272</ele>
        <time>2010-08-25T13:24:49Z</time>
      </trkpt>
      <trkpt lat="46.53904" lon="4.21407">
        <ele>274</ele>
        <time>2010-08-25T13:25:03Z</time>
      </trkpt>
      <trkpt lat="46.53855" lon="4.21386">
        <ele>276</ele>
        <time>2010-08-25T13:25:16Z</time>
      </trkpt>
      <trkpt lat="46.53803" lon="4.21378">
        <ele>278</ele>
        <time>2010-08-25T13:25:28Z</time>
      </trkpt>
      <trkpt lat="46.53753" lon="4.21374">
        <ele>278</ele>
        <time>2010-08-25T13:25:38Z</time>
      </trkpt>
      <trkpt lat="46.53701" lon="4.21369">
        <ele>278</ele>
        <time>2010-08-25T13:25:48Z</time>
      </trkpt>
      <trkpt lat="46.53647" lon="4.21362">
        <ele>277</ele>
        <time>2010-08-25T13:25:58Z</time>
      </trkpt>
      <trkpt lat="46.53597" lon="4.21343">
        <ele>278</ele>
        <time>2010-08-25T13:26:08Z</time>
      </trkpt>
      <trkpt lat="46.53544" lon="4.21323">
        <ele>280</ele>
        <time>2010-08-25T13:26:19Z</time>
      </trkpt>
      <trkpt lat="46.53493" lon="4.21318">
        <ele>279</ele>
        <time>2010-08-25T13:26:29Z</time>
      </trkpt>
      <trkpt lat="46.53441" lon="4.21314">
        <ele>278</ele>
        <time>2010-08-25T13:26:37Z</time>
      </trkpt>
      <trkpt lat="46.53389" lon="4.2131">
        <ele>276</ele>
        <time>2010-08-25T13:26:44Z</time>
      </trkpt>
      <trkpt lat="46.53333" lon="4.21306">
        <ele>274</ele>
        <time>2010-08-25T13:26:51Z</time>
      </trkpt>
      <trkpt lat="46.53274" lon="4.21301">
        <ele>272</ele>
        <time>2010-08-25T13:26:59Z</time>
      </trkpt>
      <trkpt lat="46.53222" lon="4.21298">
        <ele>274</ele>
        <time>2010-08-25T13:27:07Z</time>
      </trkpt>
      <trkpt lat="46.53168" lon="4.21294">
        <ele>276</ele>
        <time>2010-08-25T13:27:16Z</time>
      </trkpt>
      <trkpt lat="46.53116" lon="4.2129">
        <ele>278</ele>
        <time>2010-08-25T13:27:27Z</time>
      </trkpt>
      <trkpt lat="46.53065" lon="4.21291">
        <ele>276</ele>
        <time>2010-08-25T13:28:23Z</time>
      </trkpt>
      <trkpt lat="46.53014" lon="4.21295">
        <ele>278</ele>
        <time>2010-08-25T13:28:36Z</time>
      </trkpt>
      <trkpt lat="46.52961" lon="4.21301">
        <ele>279</ele>
        <time>2010-08-25T13:28:48Z</time>
      </trkpt>
      <trkpt lat="46.5291" lon="4.21305">
        <ele>279</ele>
        <time>2010-08-25T13:28:59Z</time>
      </trkpt>
      <trkpt lat="46.52857" lon="4.21309">
        <ele>279</ele>
        <time>2010-08-25T13:29:10Z</time>
      </trkpt>
      <trkpt lat="46.52806" lon="4.21313">
        <ele>280</ele>
        <time>2010-08-25T13:29:21Z</time>
      </trkpt>
      <trkpt lat="46.52753" lon="4.21317">
        <ele>279</ele>
        <time>2010-08-25T13:29:31Z</time>
      </trkpt>
      <trkpt lat="46.52699" lon="4.21321">
        <ele>279</ele>
        <time>2010-08-25T13:29:41Z</time>
      </trkpt>
      <trkpt lat="46.52645" lon="4.21327">
        <ele>283</ele>
        <time>2010-08-25T13:29:53Z</time>
      </trkpt>
      <trkpt lat="46.52595" lon="4.21331">
        <ele>281</ele>
        <time>2010-08-25T13:30:02Z</time>
      </trkpt>
      <trkpt lat="46.52542" lon="4.21327">
        <ele>278</ele>
        <time>2010-08-25T13:30:09Z</time>
      </trkpt>
      <trkpt lat="46.52489" lon="4.21307">
        <ele>275</ele>
        <time>2010-08-25T13:30:17Z</time>
      </trkpt>
      <trkpt lat="46.52438" lon="4.2128">
        <ele>275</ele>
        <time>2010-08-25T13:30:26Z</time>
      </trkpt>
      <trkpt lat="46.52392" lon="4.2125">
        <ele>277</ele>
        <time>2010-08-25T13:30:37Z</time>
      </trkpt>
      <trkpt lat="46.52343" lon="4.21228">
        <ele>277</ele>
        <time>2010-08-25T13:30:47Z</time>
      </trkpt>
      <trkpt lat="46.52291" lon="4.21215">
        <ele>276</ele>
        <time>2010-08-25T13:30:57Z</time>
      </trkpt>
      <trkpt lat="46.52239" lon="4.21202">
        <ele>276</ele>
        <time>2010-08-25T13:31:07Z</time>
      </trkpt>
      <trkpt lat="46.52188" lon="4.21189">
        <ele>277</ele>
        <time>2010-08-25T13:31:17Z</time>
      </trkpt>
      <trkpt lat="46.52139" lon="4.21177">
        <ele>278</ele>
        <time>2010-08-25T13:31:27Z</time>
      </trkpt>
      <trkpt lat="46.5209" lon="4.21159">
        <ele>279</ele>
        <time>2010-08-25T13:31:37Z</time>
      </trkpt>
      <trkpt lat="46.5204" lon="4.21133">
        <ele>285</ele>
        <time>2010-08-25T13:31:48Z</time>
      </trkpt>
      <trkpt lat="46.51991" lon="4.21107">
        <ele>293</ele>
        <time>2010-08-25T13:31:57Z</time>
      </trkpt>
      <trkpt lat="46.51939" lon="4.2109">
        <ele>295</ele>
        <time>2010-08-25T13:32:05Z</time>
      </trkpt>
      <trkpt lat="46.51892" lon="4.21058">
        <ele>292</ele>
        <time>2010-08-25T13:32:15Z</time>
      </trkpt>
      <trkpt lat="46.51854" lon="4.21011">
        <ele>287</ele>
        <time>2010-08-25T13:32:27Z</time>
      </trkpt>
      <trkpt lat="46.51821" lon="4.20951">
        <ele>290</ele>
        <time>2010-08-25T13:32:39Z</time>
      </trkpt>
      <trkpt lat="46.51784" lon="4.20898">
        <ele>288</ele>
        <time>2010-08-25T13:32:50Z</time>
      </trkpt>
      <trkpt lat="46.51741" lon="4.20853">
        <ele>289</ele>
        <time>2010-08-25T13:33:00Z</time>
      </trkpt>
      <trkpt lat="46.51691" lon="4.20829">
        <ele>287</ele>
        <time>2010-08-25T13:33:09Z</time>
      </trkpt>
      <trkpt lat="46.51639" lon="4.20809">
        <ele>284</ele>
        <time>2010-08-25T13:33:17Z</time>
      </trkpt>
      <trkpt lat="46.51583" lon="4.20788">
        <ele>280</ele>
        <time>2010-08-25T13:33:25Z</time>
      </trkpt>
      <trkpt lat="46.51527" lon="4.20768">
        <ele>278</ele>
        <time>2010-08-25T13:33:33Z</time>
      </trkpt>
      <trkpt lat="46.51476" lon="4.20749">
        <ele>278</ele>
        <time>2010-08-25T13:33:41Z</time>
      </trkpt>
      <trkpt lat="46.51422" lon="4.20729">
        <ele>280</ele>
        <time>2010-08-25T13:33:51Z</time>
      </trkpt>
      <trkpt lat="46.5137" lon="4.2071">
        <ele>281</ele>
        <time>2010-08-25T13:34:00Z</time>
      </trkpt>
      <trkpt lat="46.51321" lon="4.2069">
        <ele>285</ele>
        <time>2010-08-25T13:34:08Z</time>
      </trkpt>
      <trkpt lat="46.51267" lon="4.20675">
        <ele>282</ele>
        <time>2010-08-25T13:34:15Z</time>
      </trkpt>
      <trkpt lat="46.51215" lon="4.20653">
        <ele>278</ele>
        <time>2010-08-25T13:34:22Z</time>
      </trkpt>
      <trkpt lat="46.51158" lon="4.20641">
        <ele>277</ele>
        <time>2010-08-25T13:34:30Z</time>
      </trkpt>
      <trkpt lat="46.51105" lon="4.20645">
        <ele>279</ele>
        <time>2010-08-25T13:34:41Z</time>
      </trkpt>
      <trkpt lat="46.51057" lon="4.20667">
        <ele>279</ele>
        <time>2010-08-25T13:34:51Z</time>
      </trkpt>
      <trkpt lat="46.51004" lon="4.20682">
        <ele>276</ele>
        <time>2010-08-25T13:34:59Z</time>
      </trkpt>
      <trkpt lat="46.50948" lon="4.20684">
        <ele>274</ele>
        <time>2010-08-25T13:35:07Z</time>
      </trkpt>
      <trkpt lat="46.50901" lon="4.20645">
        <ele>272</ele>
        <time>2010-08-25T13:35:45Z</time>
      </trkpt>
      <trkpt lat="46.50869" lon="4.20573">
        <ele>274</ele>
        <time>2010-08-25T13:37:21Z</time>
      </trkpt>
      <trkpt lat="46.50845" lon="4.2048">
        <ele>274</ele>
        <time>2010-08-25T13:37:30Z</time>
      </trkpt>
      <trkpt lat="46.50828" lon="4.20399">
        <ele>274</ele>
        <time>2010-08-25T13:37:40Z</time>
      </trkpt>
      <trkpt lat="46.50821" lon="4.20318">
        <ele>274</ele>
        <time>2010-08-25T13:37:50Z</time>
      </trkpt>
      <trkpt lat="46.50818" lon="4.20241">
        <ele>273</ele>
        <time>2010-08-25T13:37:59Z</time>
      </trkpt>
      <trkpt lat="46.50814" lon="4.20166">
        <ele>273</ele>
        <time>2010-08-25T13:38:08Z</time>
      </trkpt>
      <trkpt lat="46.50811" lon="4.20086">
        <ele>272</ele>
        <time>2010-08-25T13:38:18Z</time>
      </trkpt>
      <trkpt lat="46.50805" lon="4.20008">
        <ele>272</ele>
        <time>2010-08-25T13:38:28Z</time>
      </trkpt>
      <trkpt lat="46.50776" lon="4.19947">
        <ele>272</ele>
        <time>2010-08-25T13:38:38Z</time>
      </trkpt>
      <trkpt lat="46.50732" lon="4.1991">
        <ele>273</ele>
        <time>2010-08-25T13:38:49Z</time>
      </trkpt>
      <trkpt lat="46.50684" lon="4.19889">
        <ele>274</ele>
        <time>2010-08-25T13:39:00Z</time>
      </trkpt>
      <trkpt lat="46.50638" lon="4.19855">
        <ele>276</ele>
        <time>2010-08-25T13:39:12Z</time>
      </trkpt>
      <trkpt lat="46.50592" lon="4.19819">
        <ele>277</ele>
        <time>2010-08-25T13:39:24Z</time>
      </trkpt>
      <trkpt lat="46.50544" lon="4.19784">
        <ele>278</ele>
        <time>2010-08-25T13:39:36Z</time>
      </trkpt>
      <trkpt lat="46.50499" lon="4.19751">
        <ele>281</ele>
        <time>2010-08-25T13:39:49Z</time>
      </trkpt>
      <trkpt lat="46.50492" lon="4.19681">
        <ele>279</ele>
        <time>2010-08-25T13:40:01Z</time>
      </trkpt>
      <trkpt lat="46.50498" lon="4.19601">
        <ele>279</ele>
        <time>2010-08-25T13:40:12Z</time>
      </trkpt>
      <trkpt lat="46.50505" lon="4.19526">
        <ele>279</ele>
        <time>2010-08-25T13:40:22Z</time>
      </trkpt>
      <trkpt lat="46.50518" lon="4.19451">
        <ele>280</ele>
        <time>2010-08-25T13:40:32Z</time>
      </trkpt>
      <trkpt lat="46.50539" lon="4.19382">
        <ele>280</ele>
        <time>2010-08-25T13:40:42Z</time>
      </trkpt>
      <trkpt lat="46.50562" lon="4.19313">
        <ele>281</ele>
        <time>2010-08-25T13:40:52Z</time>
      </trkpt>
      <trkpt lat="46.5058" lon="4.19238">
        <ele>280</ele>
        <time>2010-08-25T13:41:02Z</time>
      </trkpt>
      <trkpt lat="46.50588" lon="4.19163">
        <ele>279</ele>
        <time>2010-08-25T13:41:11Z</time>
      </trkpt>
      <trkpt lat="46.50595" lon="4.19085">
        <ele>277</ele>
        <time>2010-08-25T13:41:19Z</time>
      </trkpt>
      <trkpt lat="46.50605" lon="4.19003">
        <ele>274</ele>
        <time>2010-08-25T13:41:27Z</time>
      </trkpt>
      <trkpt lat="46.50618" lon="4.18921">
        <ele>271</ele>
        <time>2010-08-25T13:41:34Z</time>
      </trkpt>
      <trkpt lat="46.50627" lon="4.18843">
        <ele>267</ele>
        <time>2010-08-25T13:41:40Z</time>
      </trkpt>
      <trkpt lat="46.50624" lon="4.1876">
        <ele>263</ele>
        <time>2010-08-25T13:41:46Z</time>
      </trkpt>
      <trkpt lat="46.50642" lon="4.18679">
        <ele>259</ele>
        <time>2010-08-25T13:41:54Z</time>
      </trkpt>
      <trkpt lat="46.50677" lon="4.18616">
        <ele>257</ele>
        <time>2010-08-25T13:42:02Z</time>
      </trkpt>
      <trkpt lat="46.50711" lon="4.18553">
        <ele>256</ele>
        <time>2010-08-25T13:42:10Z</time>
      </trkpt>
      <trkpt lat="46.50746" lon="4.18492">
        <ele>256</ele>
        <time>2010-08-25T13:42:18Z</time>
      </trkpt>
      <trkpt lat="46.50783" lon="4.18429">
        <ele>254</ele>
        <time>2010-08-25T13:42:26Z</time>
      </trkpt>
      <trkpt lat="46.50819" lon="4.18365">
        <ele>254</ele>
        <time>2010-08-25T13:42:34Z</time>
      </trkpt>
      <trkpt lat="46.50853" lon="4.18305">
        <ele>254</ele>
        <time>2010-08-25T13:42:42Z</time>
      </trkpt>
      <trkpt lat="46.50887" lon="4.18244">
        <ele>254</ele>
        <time>2010-08-25T13:42:51Z</time>
      </trkpt>
      <trkpt lat="46.50875" lon="4.1817">
        <ele>254</ele>
        <time>2010-08-25T13:43:05Z</time>
      </trkpt>
      <trkpt lat="46.50827" lon="4.18135">
        <ele>254</ele>
        <time>2010-08-25T13:43:14Z</time>
      </trkpt>
      <trkpt lat="46.50778" lon="4.18104">
        <ele>254</ele>
        <time>2010-08-25T13:43:23Z</time>
      </trkpt>
      <trkpt lat="46.50728" lon="4.18079">
        <ele>255</ele>
        <time>2010-08-25T13:43:32Z</time>
      </trkpt>
      <trkpt lat="46.50679" lon="4.18056">
        <ele>255</ele>
        <time>2010-08-25T13:43:41Z</time>
      </trkpt>
      <trkpt lat="46.50624" lon="4.18037">
        <ele>255</ele>
        <time>2010-08-25T13:43:51Z</time>
      </trkpt>
      <trkpt lat="46.5057" lon="4.18023">
        <ele>255</ele>
        <time>2010-08-25T13:44:01Z</time>
      </trkpt>
      <trkpt lat="46.50518" lon="4.18012">
        <ele>255</ele>
        <time>2010-08-25T13:44:11Z</time>
      </trkpt>
      <trkpt lat="46.50465" lon="4.18">
        <ele>256</ele>
        <time>2010-08-25T13:44:22Z</time>
      </trkpt>
      <trkpt lat="46.50415" lon="4.17987">
        <ele>256</ele>
        <time>2010-08-25T13:44:33Z</time>
      </trkpt>
      <trkpt lat="46.50362" lon="4.17973">
        <ele>257</ele>
        <time>2010-08-25T13:44:45Z</time>
      </trkpt>
      <trkpt lat="46.50311" lon="4.17955">
        <ele>259</ele>
        <time>2010-08-25T13:44:58Z</time>
      </trkpt>
      <trkpt lat="46.50262" lon="4.1794">
        <ele>261</ele>
        <time>2010-08-25T13:45:11Z</time>
      </trkpt>
      <trkpt lat="46.50211" lon="4.17931">
        <ele>262</ele>
        <time>2010-08-25T13:45:24Z</time>
      </trkpt>
      <trkpt lat="46.50158" lon="4.17923">
        <ele>261</ele>
        <time>2010-08-25T13:45:35Z</time>
      </trkpt>
      <trkpt lat="46.50103" lon="4.1791">
        <ele>258</ele>
        <time>2010-08-25T13:45:44Z</time>
      </trkpt>
      <trkpt lat="46.50057" lon="4.17861">
        <ele>257</ele>
        <time>2010-08-25T13:45:53Z</time>
      </trkpt>
      <trkpt lat="46.5002" lon="4.17806">
        <ele>260</ele>
        <time>2010-08-25T13:46:04Z</time>
      </trkpt>
      <trkpt lat="46.49976" lon="4.17761">
        <ele>262</ele>
        <time>2010-08-25T13:46:15Z</time>
      </trkpt>
      <trkpt lat="46.49928" lon="4.1773">
        <ele>261</ele>
        <time>2010-08-25T13:46:24Z</time>
      </trkpt>
      <trkpt lat="46.49883" lon="4.17695">
        <ele>261</ele>
        <time>2010-08-25T13:46:33Z</time>
      </trkpt>
      <trkpt lat="46.49838" lon="4.17648">
        <ele>260</ele>
        <time>2010-08-25T13:46:43Z</time>
      </trkpt>
      <trkpt lat="46.49796" lon="4.17599">
        <ele>260</ele>
        <time>2010-08-25T13:46:53Z</time>
      </trkpt>
      <trkpt lat="46.49782" lon="4.17528">
        <ele>262</ele>
        <time>2010-08-25T13:47:04Z</time>
      </trkpt>
      <trkpt lat="46.49784" lon="4.17455">
        <ele>264</ele>
        <time>2010-08-25T13:47:16Z</time>
      </trkpt>
      <trkpt lat="46.4979" lon="4.17383">
        <ele>267</ele>
        <time>2010-08-25T13:47:30Z</time>
      </trkpt>
      <trkpt lat="46.49802" lon="4.17314">
        <ele>270</ele>
        <time>2010-08-25T13:47:46Z</time>
      </trkpt>
      <trkpt lat="46.49812" lon="4.17247">
        <ele>272</ele>
        <time>2010-08-25T13:48:01Z</time>
      </trkpt>
      <trkpt lat="46.49812" lon="4.17175">
        <ele>274</ele>
        <time>2010-08-25T13:48:17Z</time>
      </trkpt>
      <trkpt lat="46.49811" lon="4.17103">
        <ele>277</ele>
        <time>2010-08-25T13:48:34Z</time>
      </trkpt>
      <trkpt lat="46.4981" lon="4.1703">
        <ele>279</ele>
        <time>2010-08-25T13:48:52Z</time>
      </trkpt>
      <trkpt lat="46.49809" lon="4.16958">
        <ele>282</ele>
        <time>2010-08-25T13:49:09Z</time>
      </trkpt>
      <trkpt lat="46.49807" lon="4.16888">
        <ele>284</ele>
        <time>2010-08-25T13:49:25Z</time>
      </trkpt>
      <trkpt lat="46.49807" lon="4.16815">
        <ele>287</ele>
        <time>2010-08-25T13:49:41Z</time>
      </trkpt>
      <trkpt lat="46.498" lon="4.16745">
        <ele>290</ele>
        <time>2010-08-25T13:49:59Z</time>
      </trkpt>
      <trkpt lat="46.49759" lon="4.16716">
        <ele>292</ele>
        <time>2010-08-25T13:52:06Z</time>
      </trkpt>
      <trkpt lat="46.49715" lon="4.16677">
        <ele>293</ele>
        <time>2010-08-25T13:52:15Z</time>
      </trkpt>
      <trkpt lat="46.49668" lon="4.16638">
        <ele>293</ele>
        <time>2010-08-25T13:52:25Z</time>
      </trkpt>
      <trkpt lat="46.49614" lon="4.16618">
        <ele>294</ele>
        <time>2010-08-25T13:52:35Z</time>
      </trkpt>
      <trkpt lat="46.49557" lon="4.1661">
        <ele>295</ele>
        <time>2010-08-25T13:52:45Z</time>
      </trkpt>
      <trkpt lat="46.49507" lon="4.16603">
        <ele>296</ele>
        <time>2010-08-25T13:52:54Z</time>
      </trkpt>
      <trkpt lat="46.49455" lon="4.16597">
        <ele>295</ele>
        <time>2010-08-25T13:53:03Z</time>
      </trkpt>
      <trkpt lat="46.49404" lon="4.16595">
        <ele>295</ele>
        <time>2010-08-25T13:53:12Z</time>
      </trkpt>
      <trkpt lat="46.4935" lon="4.16587">
        <ele>295</ele>
        <time>2010-08-25T13:53:21Z</time>
      </trkpt>
      <trkpt lat="46.49297" lon="4.16592">
        <ele>294</ele>
        <time>2010-08-25T13:53:30Z</time>
      </trkpt>
      <trkpt lat="46.49245" lon="4.16582">
        <ele>294</ele>
        <time>2010-08-25T13:53:39Z</time>
      </trkpt>
      <trkpt lat="46.49196" lon="4.16563">
        <ele>293</ele>
        <time>2010-08-25T13:53:48Z</time>
      </trkpt>
      <trkpt lat="46.49147" lon="4.16535">
        <ele>293</ele>
        <time>2010-08-25T13:53:57Z</time>
      </trkpt>
      <trkpt lat="46.49098" lon="4.16509">
        <ele>292</ele>
        <time>2010-08-25T13:54:06Z</time>
      </trkpt>
      <trkpt lat="46.49042" lon="4.16504">
        <ele>291</ele>
        <time>2010-08-25T13:54:15Z</time>
      </trkpt>
      <trkpt lat="46.4899" lon="4.16509">
        <ele>290</ele>
        <time>2010-08-25T13:54:23Z</time>
      </trkpt>
      <trkpt lat="46.48933" lon="4.16515">
        <ele>290</ele>
        <time>2010-08-25T13:54:32Z</time>
      </trkpt>
      <trkpt lat="46.48878" lon="4.16519">
        <ele>290</ele>
        <time>2010-08-25T13:54:41Z</time>
      </trkpt>
      <trkpt lat="46.48827" lon="4.16518">
        <ele>289</ele>
        <time>2010-08-25T13:54:49Z</time>
      </trkpt>
      <trkpt lat="46.48773" lon="4.16522">
        <ele>288</ele>
        <time>2010-08-25T13:54:57Z</time>
      </trkpt>
      <trkpt lat="46.48716" lon="4.1653">
        <ele>286</ele>
        <time>2010-08-25T13:55:05Z</time>
      </trkpt>
      <trkpt lat="46.48659" lon="4.16536">
        <ele>286</ele>
        <time>2010-08-25T13:55:13Z</time>
      </trkpt>
      <trkpt lat="46.48604" lon="4.16521">
        <ele>284</ele>
        <time>2010-08-25T13:55:21Z</time>
      </trkpt>
      <trkpt lat="46.48547" lon="4.16518">
        <ele>283</ele>
        <time>2010-08-25T13:55:29Z</time>
      </trkpt>
      <trkpt lat="46.48489" lon="4.16537">
        <ele>280</ele>
        <time>2010-08-25T13:55:37Z</time>
      </trkpt>
      <trkpt lat="46.48437" lon="4.1657">
        <ele>276</ele>
        <time>2010-08-25T13:55:43Z</time>
      </trkpt>
      <trkpt lat="46.48388" lon="4.16618">
        <ele>274</ele>
        <time>2010-08-25T13:55:49Z</time>
      </trkpt>
      <trkpt lat="46.48343" lon="4.16668">
        <ele>272</ele>
        <time>2010-08-25T13:55:55Z</time>
      </trkpt>
      <trkpt lat="46.48293" lon="4.16709">
        <ele>269</ele>
        <time>2010-08-25T13:56:01Z</time>
      </trkpt>
      <trkpt lat="46.48243" lon="4.16747">
        <ele>267</ele>
        <time>2010-08-25T13:56:07Z</time>
      </trkpt>
      <trkpt lat="46.48194" lon="4.16784">
        <ele>264</ele>
        <time>2010-08-25T13:56:13Z</time>
      </trkpt>
      <trkpt lat="46.48137" lon="4.16821">
        <ele>261</ele>
        <time>2010-08-25T13:56:20Z</time>
      </trkpt>
      <trkpt lat="46.4808" lon="4.16802">
        <ele>259</ele>
        <time>2010-08-25T13:56:27Z</time>
      </trkpt>
      <trkpt lat="46.48027" lon="4.1677">
        <ele>260</ele>
        <time>2010-08-25T13:56:35Z</time>
      </trkpt>
      <trkpt lat="46.4798" lon="4.16735">
        <ele>264</ele>
        <time>2010-08-25T13:56:45Z</time>
      </trkpt>
      <trkpt lat="46.47937" lon="4.16698">
        <ele>265</ele>
        <time>2010-08-25T13:56:56Z</time>
      </trkpt>
      <trkpt lat="46.47889" lon="4.16672">
        <ele>264</ele>
        <time>2010-08-25T13:57:07Z</time>
      </trkpt>
      <trkpt lat="46.47842" lon="4.16646">
        <ele>263</ele>
        <time>2010-08-25T13:57:16Z</time>
      </trkpt>
      <trkpt lat="46.47793" lon="4.1662">
        <ele>262</ele>
        <time>2010-08-25T13:57:24Z</time>
      </trkpt>
      <trkpt lat="46.47741" lon="4.16592">
        <ele>261</ele>
        <time>2010-08-25T13:57:33Z</time>
      </trkpt>
      <trkpt lat="46.47689" lon="4.16564">
        <ele>263</ele>
        <time>2010-08-25T13:57:43Z</time>
      </trkpt>
      <trkpt lat="46.47643" lon="4.16535">
        <ele>264</ele>
        <time>2010-08-25T13:57:53Z</time>
      </trkpt>
      <trkpt lat="46.47601" lon="4.16493">
        <ele>265</ele>
        <time>2010-08-25T13:58:04Z</time>
      </trkpt>
      <trkpt lat="46.47559" lon="4.16451">
        <ele>266</ele>
        <time>2010-08-25T13:58:15Z</time>
      </trkpt>
      <trkpt lat="46.47519" lon="4.16408">
        <ele>267</ele>
        <time>2010-08-25T13:58:26Z</time>
      </trkpt>
      <trkpt lat="46.4748" lon="4.16358">
        <ele>268</ele>
        <time>2010-08-25T13:58:37Z</time>
      </trkpt>
      <trkpt lat="46.47433" lon="4.16315">
        <ele>264</ele>
        <time>2010-08-25T13:58:45Z</time>
      </trkpt>
      <trkpt lat="46.47388" lon="4.16271">
        <ele>259</ele>
        <time>2010-08-25T13:58:51Z</time>
      </trkpt>
      <trkpt lat="46.47346" lon="4.16216">
        <ele>259</ele>
        <time>2010-08-25T13:58:58Z</time>
      </trkpt>
      <trkpt lat="46.4731" lon="4.16159">
        <ele>264</ele>
        <time>2010-08-25T13:59:08Z</time>
      </trkpt>
      <trkpt lat="46.47273" lon="4.16106">
        <ele>270</ele>
        <time>2010-08-25T13:59:23Z</time>
      </trkpt>
      <trkpt lat="46.47238" lon="4.16055">
        <ele>272</ele>
        <time>2010-08-25T13:59:43Z</time>
      </trkpt>
      <trkpt lat="46.47198" lon="4.16008">
        <ele>273</ele>
        <time>2010-08-25T14:00:01Z</time>
      </trkpt>
      <trkpt lat="46.47154" lon="4.1598">
        <ele>274</ele>
        <time>2010-08-25T14:00:14Z</time>
      </trkpt>
      <trkpt lat="46.47105" lon="4.15949">
        <ele>274</ele>
        <time>2010-08-25T14:00:26Z</time>
      </trkpt>
      <trkpt lat="46.47054" lon="4.15918">
        <ele>272</ele>
        <time>2010-08-25T14:00:37Z</time>
      </trkpt>
      <trkpt lat="46.47004" lon="4.15887">
        <ele>270</ele>
        <time>2010-08-25T14:00:45Z</time>
      </trkpt>
      <trkpt lat="46.46948" lon="4.15849">
        <ele>265</ele>
        <time>2010-08-25T14:00:52Z</time>
      </trkpt>
      <trkpt lat="46.46903" lon="4.15793">
        <ele>262</ele>
        <time>2010-08-25T14:00:58Z</time>
      </trkpt>
      <trkpt lat="46.46864" lon="4.15733">
        <ele>262</ele>
        <time>2010-08-25T14:01:05Z</time>
      </trkpt>
      <trkpt lat="46.46837" lon="4.15664">
        <ele>267</ele>
        <time>2010-08-25T14:01:17Z</time>
      </trkpt>
      <trkpt lat="46.46829" lon="4.15593">
        <ele>271</ele>
        <time>2010-08-25T14:01:35Z</time>
      </trkpt>
      <trkpt lat="46.46827" lon="4.15521">
        <ele>273</ele>
        <time>2010-08-25T14:01:51Z</time>
      </trkpt>
      <trkpt lat="46.46823" lon="4.15451">
        <ele>275</ele>
        <time>2010-08-25T14:02:06Z</time>
      </trkpt>
      <trkpt lat="46.46812" lon="4.15381">
        <ele>274</ele>
        <time>2010-08-25T14:02:20Z</time>
      </trkpt>
      <trkpt lat="46.46794" lon="4.15311">
        <ele>273</ele>
        <time>2010-08-25T14:02:34Z</time>
      </trkpt>
      <trkpt lat="46.46774" lon="4.15242">
        <ele>275</ele>
        <time>2010-08-25T14:02:48Z</time>
      </trkpt>
      <trkpt lat="46.4675" lon="4.15174">
        <ele>275</ele>
        <time>2010-08-25T14:03:00Z</time>
      </trkpt>
      <trkpt lat="46.46722" lon="4.15115">
        <ele>275</ele>
        <time>2010-08-25T14:03:11Z</time>
      </trkpt>
      <trkpt lat="46.46694" lon="4.15053">
        <ele>274</ele>
        <time>2010-08-25T14:03:21Z</time>
      </trkpt>
      <trkpt lat="46.46669" lon="4.14982">
        <ele>273</ele>
        <time>2010-08-25T14:03:31Z</time>
      </trkpt>
      <trkpt lat="46.46657" lon="4.14905">
        <ele>273</ele>
        <time>2010-08-25T14:03:42Z</time>
      </trkpt>
      <trkpt lat="46.46643" lon="4.14835">
        <ele>272</ele>
        <time>2010-08-25T14:03:54Z</time>
      </trkpt>
      <trkpt lat="46.46611" lon="4.14777">
        <ele>273</ele>
        <time>2010-08-25T14:04:06Z</time>
      </trkpt>
      <trkpt lat="46.46576" lon="4.1472">
        <ele>274</ele>
        <time>2010-08-25T14:04:17Z</time>
      </trkpt>
      <trkpt lat="46.46527" lon="4.14704">
        <ele>276</ele>
        <time>2010-08-25T14:04:31Z</time>
      </trkpt>
      <trkpt lat="46.46502" lon="4.1477">
        <ele>280</ele>
        <time>2010-08-25T14:04:42Z</time>
      </trkpt>
      <trkpt lat="46.4646" lon="4.14817">
        <ele>282</ele>
        <time>2010-08-25T14:04:52Z</time>
      </trkpt>
      <trkpt lat="46.46412" lon="4.14854">
        <ele>283</ele>
        <time>2010-08-25T14:05:02Z</time>
      </trkpt>
      <trkpt lat="46.46371" lon="4.14905">
        <ele>283</ele>
        <time>2010-08-25T14:05:11Z</time>
      </trkpt>
      <trkpt lat="46.46338" lon="4.14964">
        <ele>283</ele>
        <time>2010-08-25T14:05:20Z</time>
      </trkpt>
      <trkpt lat="46.46308" lon="4.15023">
        <ele>282</ele>
        <time>2010-08-25T14:05:29Z</time>
      </trkpt>
      <trkpt lat="46.46265" lon="4.15063">
        <ele>282</ele>
        <time>2010-08-25T14:05:38Z</time>
      </trkpt>
      <trkpt lat="46.46209" lon="4.15081">
        <ele>280</ele>
        <time>2010-08-25T14:05:47Z</time>
      </trkpt>
      <trkpt lat="46.46156" lon="4.15094">
        <ele>278</ele>
        <time>2010-08-25T14:05:55Z</time>
      </trkpt>
      <trkpt lat="46.46104" lon="4.15069">
        <ele>276</ele>
        <time>2010-08-25T14:06:03Z</time>
      </trkpt>
      <trkpt lat="46.46049" lon="4.15044">
        <ele>274</ele>
        <time>2010-08-25T14:06:11Z</time>
      </trkpt>
      <trkpt lat="46.46" lon="4.15074">
        <ele>271</ele>
        <time>2010-08-25T14:06:18Z</time>
      </trkpt>
      <trkpt lat="46.45955" lon="4.15128">
        <ele>268</ele>
        <time>2010-08-25T14:06:25Z</time>
      </trkpt>
      <trkpt lat="46.45898" lon="4.15142">
        <ele>265</ele>
        <time>2010-08-25T14:06:32Z</time>
      </trkpt>
      <trkpt lat="46.4584" lon="4.15118">
        <ele>263</ele>
        <time>2010-08-25T14:06:40Z</time>
      </trkpt>
      <trkpt lat="46.45785" lon="4.15097">
        <ele>264</ele>
        <time>2010-08-25T14:06:49Z</time>
      </trkpt>
      <trkpt lat="46.45735" lon="4.15082">
        <ele>266</ele>
        <time>2010-08-25T14:06:58Z</time>
      </trkpt>
      <trkpt lat="46.45683" lon="4.15074">
        <ele>266</ele>
        <time>2010-08-25T14:07:07Z</time>
      </trkpt>
      <trkpt lat="46.45631" lon="4.15102">
        <ele>265</ele>
        <time>2010-08-25T14:07:15Z</time>
      </trkpt>
      <trkpt lat="46.45579" lon="4.15132">
        <ele>262</ele>
        <time>2010-08-25T14:07:22Z</time>
      </trkpt>
      <trkpt lat="46.45525" lon="4.15164">
        <ele>260</ele>
        <time>2010-08-25T14:07:29Z</time>
      </trkpt>
      <trkpt lat="46.4547" lon="4.15194">
        <ele>259</ele>
        <time>2010-08-25T14:07:36Z</time>
      </trkpt>
      <trkpt lat="46.45414" lon="4.15209">
        <ele>259</ele>
        <time>2010-08-25T14:07:43Z</time>
      </trkpt>
      <trkpt lat="46.4536" lon="4.15219">
        <ele>258</ele>
        <time>2010-08-25T14:07:50Z</time>
      </trkpt>
      <trkpt lat="46.45301" lon="4.15232">
        <ele>258</ele>
        <time>2010-08-25T14:07:58Z</time>
      </trkpt>
      <trkpt lat="46.45247" lon="4.15246">
        <ele>258</ele>
        <time>2010-08-25T14:08:06Z</time>
      </trkpt>
      <trkpt lat="46.45193" lon="4.15262">
        <ele>256</ele>
        <time>2010-08-25T14:08:14Z</time>
      </trkpt>
      <trkpt lat="46.4517" lon="4.15324">
        <ele>256</ele>
        <time>2010-08-25T14:08:32Z</time>
      </trkpt>
      <trkpt lat="46.4516" lon="4.15406">
        <ele>256</ele>
        <time>2010-08-25T14:08:41Z</time>
      </trkpt>
      <trkpt lat="46.45145" lon="4.15489">
        <ele>254</ele>
        <time>2010-08-25T14:08:49Z</time>
      </trkpt>
      <trkpt lat="46.45143" lon="4.15568">
        <ele>253</ele>
        <time>2010-08-25T14:08:57Z</time>
      </trkpt>
      <trkpt lat="46.45144" lon="4.15643">
        <ele>253</ele>
        <time>2010-08-25T14:09:05Z</time>
      </trkpt>
      <trkpt lat="46.4514" lon="4.15717">
        <ele>254</ele>
        <time>2010-08-25T14:09:19Z</time>
      </trkpt>
      <trkpt lat="46.45094" lon="4.15708">
        <ele>250</ele>
        <time>2010-08-25T14:09:36Z</time>
      </trkpt>
      <trkpt lat="46.45047" lon="4.1568">
        <ele>249</ele>
        <time>2010-08-25T14:09:56Z</time>
      </trkpt>
      <trkpt lat="46.45" lon="4.15663">
        <ele>249</ele>
        <time>2010-08-25T14:10:08Z</time>
      </trkpt>
      <trkpt lat="46.44952" lon="4.15645">
        <ele>249</ele>
        <time>2010-08-25T14:10:20Z</time>
      </trkpt>
      <trkpt lat="46.44899" lon="4.15628">
        <ele>249</ele>
        <time>2010-08-25T14:10:31Z</time>
      </trkpt>
      <trkpt lat="46.44847" lon="4.15626">
        <ele>248</ele>
        <time>2010-08-25T14:10:42Z</time>
      </trkpt>
      <trkpt lat="46.44795" lon="4.15613">
        <ele>249</ele>
        <time>2010-08-25T14:10:52Z</time>
      </trkpt>
      <trkpt lat="46.4474" lon="4.15597">
        <ele>250</ele>
        <time>2010-08-25T14:11:02Z</time>
      </trkpt>
      <trkpt lat="46.44685" lon="4.15578">
        <ele>250</ele>
        <time>2010-08-25T14:11:12Z</time>
      </trkpt>
      <trkpt lat="46.44635" lon="4.15557">
        <ele>250</ele>
        <time>2010-08-25T14:11:21Z</time>
      </trkpt>
      <trkpt lat="46.44584" lon="4.15525">
        <ele>249</ele>
        <time>2010-08-25T14:11:30Z</time>
      </trkpt>
      <trkpt lat="46.44534" lon="4.15491">
        <ele>250</ele>
        <time>2010-08-25T14:11:39Z</time>
      </trkpt>
      <trkpt lat="46.44482" lon="4.15456">
        <ele>250</ele>
        <time>2010-08-25T14:11:48Z</time>
      </trkpt>
      <trkpt lat="46.44432" lon="4.15422">
        <ele>250</ele>
        <time>2010-08-25T14:11:57Z</time>
      </trkpt>
      <trkpt lat="46.44383" lon="4.15388">
        <ele>250</ele>
        <time>2010-08-25T14:12:06Z</time>
      </trkpt>
      <trkpt lat="46.44337" lon="4.15343">
        <ele>250</ele>
        <time>2010-08-25T14:12:15Z</time>
      </trkpt>
      <trkpt lat="46.44299" lon="4.15288">
        <ele>251</ele>
        <time>2010-08-25T14:12:24Z</time>
      </trkpt>
      <trkpt lat="46.44265" lon="4.15227">
        <ele>251</ele>
        <time>2010-08-25T14:12:33Z</time>
      </trkpt>
      <trkpt lat="46.44237" lon="4.15159">
        <ele>250</ele>
        <time>2010-08-25T14:12:42Z</time>
      </trkpt>
      <trkpt lat="46.44237" lon="4.15081">
        <ele>249</ele>
        <time>2010-08-25T14:12:51Z</time>
      </trkpt>
      <trkpt lat="46.44257" lon="4.15008">
        <ele>248</ele>
        <time>2010-08-25T14:13:00Z</time>
      </trkpt>
      <trkpt lat="46.44273" lon="4.14934">
        <ele>248</ele>
        <time>2010-08-25T14:13:09Z</time>
      </trkpt>
      <trkpt lat="46.44277" lon="4.1486">
        <ele>248</ele>
        <time>2010-08-25T14:13:18Z</time>
      </trkpt>
      <trkpt lat="46.44285" lon="4.14782">
        <ele>249</ele>
        <time>2010-08-25T14:13:27Z</time>
      </trkpt>
      <trkpt lat="46.44293" lon="4.14703">
        <ele>250</ele>
        <time>2010-08-25T14:13:36Z</time>
      </trkpt>
      <trkpt lat="46.44302" lon="4.14626">
        <ele>250</ele>
        <time>2010-08-25T14:13:45Z</time>
      </trkpt>
      <trkpt lat="46.4431" lon="4.14551">
        <ele>249</ele>
        <time>2010-08-25T14:13:54Z</time>
      </trkpt>
      <trkpt lat="46.44318" lon="4.14477">
        <ele>249</ele>
        <time>2010-08-25T14:14:03Z</time>
      </trkpt>
      <trkpt lat="46.44323" lon="4.14397">
        <ele>248</ele>
        <time>2010-08-25T14:14:13Z</time>
      </trkpt>
      <trkpt lat="46.44324" lon="4.14324">
        <ele>249</ele>
        <time>2010-08-25T14:14:22Z</time>
      </trkpt>
      <trkpt lat="46.4432" lon="4.14248">
        <ele>249</ele>
        <time>2010-08-25T14:14:33Z</time>
      </trkpt>
      <trkpt lat="46.44321" lon="4.14171">
        <ele>248</ele>
        <time>2010-08-25T14:14:44Z</time>
      </trkpt>
      <trkpt lat="46.44324" lon="4.14091">
        <ele>249</ele>
        <time>2010-08-25T14:14:54Z</time>
      </trkpt>
      <trkpt lat="46.44324" lon="4.14016">
        <ele>248</ele>
        <time>2010-08-25T14:15:03Z</time>
      </trkpt>
      <trkpt lat="46.44324" lon="4.1394">
        <ele>248</ele>
        <time>2010-08-25T14:15:12Z</time>
      </trkpt>
      <trkpt lat="46.44324" lon="4.13867">
        <ele>248</ele>
        <time>2010-08-25T14:15:21Z</time>
      </trkpt>
      <trkpt lat="46.44323" lon="4.1379">
        <ele>249</ele>
        <time>2010-08-25T14:15:30Z</time>
      </trkpt>
      <trkpt lat="46.44322" lon="4.13711">
        <ele>249</ele>
        <time>2010-08-25T14:15:39Z</time>
      </trkpt>
      <trkpt lat="46.44322" lon="4.1363">
        <ele>250</ele>
        <time>2010-08-25T14:15:48Z</time>
      </trkpt>
      <trkpt lat="46.44321" lon="4.13552">
        <ele>251</ele>
        <time>2010-08-25T14:15:57Z</time>
      </trkpt>
      <trkpt lat="46.44321" lon="4.13473">
        <ele>252</ele>
        <time>2010-08-25T14:16:06Z</time>
      </trkpt>
      <trkpt lat="46.4432" lon="4.13396">
        <ele>253</ele>
        <time>2010-08-25T14:16:15Z</time>
      </trkpt>
      <trkpt lat="46.44319" lon="4.13318">
        <ele>253</ele>
        <time>2010-08-25T14:16:24Z</time>
      </trkpt>
      <trkpt lat="46.44319" lon="4.13243">
        <ele>254</ele>
        <time>2010-08-25T14:16:33Z</time>
      </trkpt>
      <trkpt lat="46.44319" lon="4.13166">
        <ele>254</ele>
        <time>2010-08-25T14:16:42Z</time>
      </trkpt>
      <trkpt lat="46.44319" lon="4.13087">
        <ele>253</ele>
        <time>2010-08-25T14:16:51Z</time>
      </trkpt>
      <trkpt lat="46.44318" lon="4.13008">
        <ele>253</ele>
        <time>2010-08-25T14:17:00Z</time>
      </trkpt>
      <trkpt lat="46.44318" lon="4.12933">
        <ele>252</ele>
        <time>2010-08-25T14:17:09Z</time>
      </trkpt>
      <trkpt lat="46.44321" lon="4.12856">
        <ele>253</ele>
        <time>2010-08-25T14:17:18Z</time>
      </trkpt>
      <trkpt lat="46.44335" lon="4.12784">
        <ele>254</ele>
        <time>2010-08-25T14:17:27Z</time>
      </trkpt>
      <trkpt lat="46.44356" lon="4.12715">
        <ele>255</ele>
        <time>2010-08-25T14:17:36Z</time>
      </trkpt>
      <trkpt lat="46.44379" lon="4.12645">
        <ele>254</ele>
        <time>2010-08-25T14:17:45Z</time>
      </trkpt>
      <trkpt lat="46.444" lon="4.12574">
        <ele>254</ele>
        <time>2010-08-25T14:17:54Z</time>
      </trkpt>
      <trkpt lat="46.44425" lon="4.12502">
        <ele>252</ele>
        <time>2010-08-25T14:18:02Z</time>
      </trkpt>
      <trkpt lat="46.44449" lon="4.12432">
        <ele>251</ele>
        <time>2010-08-25T14:18:10Z</time>
      </trkpt>
      <trkpt lat="46.44471" lon="4.12363">
        <ele>251</ele>
        <time>2010-08-25T14:18:18Z</time>
      </trkpt>
      <trkpt lat="46.44492" lon="4.12294">
        <ele>251</ele>
        <time>2010-08-25T14:18:26Z</time>
      </trkpt>
      <trkpt lat="46.44514" lon="4.12226">
        <ele>251</ele>
        <time>2010-08-25T14:18:34Z</time>
      </trkpt>
      <trkpt lat="46.44537" lon="4.12157">
        <ele>251</ele>
        <time>2010-08-25T14:18:42Z</time>
      </trkpt>
      <trkpt lat="46.4456" lon="4.12082">
        <ele>252</ele>
        <time>2010-08-25T14:18:51Z</time>
      </trkpt>
      <trkpt lat="46.44594" lon="4.12022">
        <ele>252</ele>
        <time>2010-08-25T14:19:00Z</time>
      </trkpt>
      <trkpt lat="46.44627" lon="4.11962">
        <ele>253</ele>
        <time>2010-08-25T14:19:10Z</time>
      </trkpt>
      <trkpt lat="46.44645" lon="4.11893">
        <ele>252</ele>
        <time>2010-08-25T14:19:21Z</time>
      </trkpt>
      <trkpt lat="46.44672" lon="4.11832">
        <ele>252</ele>
        <time>2010-08-25T14:19:32Z</time>
      </trkpt>
      <trkpt lat="46.44706" lon="4.11781">
        <ele>255</ele>
        <time>2010-08-25T14:19:46Z</time>
      </trkpt>
      <trkpt lat="46.44736" lon="4.11762">
        <ele>251</ele>
        <time>2010-08-26T06:27:53Z</time>
      </trkpt>
      <trkpt lat="46.44753" lon="4.11701">
        <ele>244</ele>
        <time>2010-08-26T06:28:34Z</time>
      </trkpt>
      <trkpt lat="46.44788" lon="4.11651">
        <ele>244</ele>
        <time>2010-08-26T06:28:46Z</time>
      </trkpt>
      <trkpt lat="46.44825" lon="4.11597">
        <ele>243</ele>
        <time>2010-08-26T06:28:58Z</time>
      </trkpt>
      <trkpt lat="46.44863" lon="4.11543">
        <ele>242</ele>
        <time>2010-08-26T06:29:10Z</time>
      </trkpt>
      <trkpt lat="46.44896" lon="4.11483">
        <ele>242</ele>
        <time>2010-08-26T06:29:22Z</time>
      </trkpt>
      <trkpt lat="46.44928" lon="4.11427">
        <ele>242</ele>
        <time>2010-08-26T06:29:33Z</time>
      </trkpt>
      <trkpt lat="46.44958" lon="4.11364">
        <ele>242</ele>
        <time>2010-08-26T06:29:44Z</time>
      </trkpt>
      <trkpt lat="46.44987" lon="4.11299">
        <ele>243</ele>
        <time>2010-08-26T06:29:55Z</time>
      </trkpt>
      <trkpt lat="46.45015" lon="4.11238">
        <ele>243</ele>
        <time>2010-08-26T06:30:05Z</time>
      </trkpt>
      <trkpt lat="46.45044" lon="4.11173">
        <ele>244</ele>
        <time>2010-08-26T06:30:16Z</time>
      </trkpt>
      <trkpt lat="46.45072" lon="4.11112">
        <ele>245</ele>
        <time>2010-08-26T06:30:29Z</time>
      </trkpt>
      <trkpt lat="46.45101" lon="4.11049">
        <ele>245</ele>
        <time>2010-08-26T06:30:41Z</time>
      </trkpt>
      <trkpt lat="46.45129" lon="4.10988">
        <ele>245</ele>
        <time>2010-08-26T06:30:51Z</time>
      </trkpt>
      <trkpt lat="46.45159" lon="4.10924">
        <ele>246</ele>
        <time>2010-08-26T06:31:01Z</time>
      </trkpt>
      <trkpt lat="46.45187" lon="4.10862">
        <ele>247</ele>
        <time>2010-08-26T06:31:11Z</time>
      </trkpt>
      <trkpt lat="46.45216" lon="4.10799">
        <ele>248</ele>
        <time>2010-08-26T06:31:21Z</time>
      </trkpt>
      <trkpt lat="46.45245" lon="4.10734">
        <ele>248</ele>
        <time>2010-08-26T06:31:31Z</time>
      </trkpt>
      <trkpt lat="46.45275" lon="4.10672">
        <ele>248</ele>
        <time>2010-08-26T06:31:41Z</time>
      </trkpt>
      <trkpt lat="46.45304" lon="4.10609">
        <ele>249</ele>
        <time>2010-08-26T06:31:51Z</time>
      </trkpt>
      <trkpt lat="46.45332" lon="4.10546">
        <ele>248</ele>
        <time>2010-08-26T06:32:01Z</time>
      </trkpt>
      <trkpt lat="46.45359" lon="4.10485">
        <ele>247</ele>
        <time>2010-08-26T06:32:11Z</time>
      </trkpt>
      <trkpt lat="46.45387" lon="4.10423">
        <ele>248</ele>
        <time>2010-08-26T06:32:21Z</time>
      </trkpt>
      <trkpt lat="46.45415" lon="4.10362">
        <ele>248</ele>
        <time>2010-08-26T06:32:31Z</time>
      </trkpt>
      <trkpt lat="46.45443" lon="4.10302">
        <ele>247</ele>
        <time>2010-08-26T06:32:41Z</time>
      </trkpt>
      <trkpt lat="46.45472" lon="4.10241">
        <ele>248</ele>
        <time>2010-08-26T06:32:51Z</time>
      </trkpt>
      <trkpt lat="46.45506" lon="4.10185">
        <ele>247</ele>
        <time>2010-08-26T06:33:01Z</time>
      </trkpt>
      <trkpt lat="46.45538" lon="4.10125">
        <ele>245</ele>
        <time>2010-08-26T06:33:13Z</time>
      </trkpt>
      <trkpt lat="46.45577" lon="4.10084">
        <ele>245</ele>
        <time>2010-08-26T06:33:25Z</time>
      </trkpt>
      <trkpt lat="46.45615" lon="4.10032">
        <ele>245</ele>
        <time>2010-08-26T06:33:35Z</time>
      </trkpt>
      <trkpt lat="46.45652" lon="4.0998">
        <ele>245</ele>
        <time>2010-08-26T06:33:45Z</time>
      </trkpt>
      <trkpt lat="46.45689" lon="4.09928">
        <ele>244</ele>
        <time>2010-08-26T06:33:55Z</time>
      </trkpt>
      <trkpt lat="46.45726" lon="4.09872">
        <ele>244</ele>
        <time>2010-08-26T06:34:05Z</time>
      </trkpt>
      <trkpt lat="46.45773" lon="4.09828">
        <ele>243</ele>
        <time>2010-08-26T06:34:15Z</time>
      </trkpt>
      <trkpt lat="46.4582" lon="4.09797">
        <ele>243</ele>
        <time>2010-08-26T06:34:25Z</time>
      </trkpt>
      <trkpt lat="46.45869" lon="4.09769">
        <ele>242</ele>
        <time>2010-08-26T06:34:35Z</time>
      </trkpt>
      <trkpt lat="46.45919" lon="4.09744">
        <ele>241</ele>
        <time>2010-08-26T06:34:44Z</time>
      </trkpt>
      <trkpt lat="46.45966" lon="4.09706">
        <ele>240</ele>
        <time>2010-08-26T06:34:53Z</time>
      </trkpt>
      <trkpt lat="46.46004" lon="4.09654">
        <ele>240</ele>
        <time>2010-08-26T06:35:02Z</time>
      </trkpt>
      <trkpt lat="46.4604" lon="4.09601">
        <ele>240</ele>
        <time>2010-08-26T06:35:11Z</time>
      </trkpt>
      <trkpt lat="46.46078" lon="4.09543">
        <ele>240</ele>
        <time>2010-08-26T06:35:21Z</time>
      </trkpt>
      <trkpt lat="46.46114" lon="4.0949">
        <ele>239</ele>
        <time>2010-08-26T06:35:30Z</time>
      </trkpt>
      <trkpt lat="46.4615" lon="4.09439">
        <ele>239</ele>
        <time>2010-08-26T06:35:39Z</time>
      </trkpt>
      <trkpt lat="46.46193" lon="4.09387">
        <ele>240</ele>
        <time>2010-08-26T06:35:49Z</time>
      </trkpt>
      <trkpt lat="46.46238" lon="4.09342">
        <ele>240</ele>
        <time>2010-08-26T06:35:59Z</time>
      </trkpt>
      <trkpt lat="46.4628" lon="4.09301">
        <ele>239</ele>
        <time>2010-08-26T06:36:08Z</time>
      </trkpt>
      <trkpt lat="46.46321" lon="4.09258">
        <ele>239</ele>
        <time>2010-08-26T06:36:17Z</time>
      </trkpt>
      <trkpt lat="46.46363" lon="4.09215">
        <ele>239</ele>
        <time>2010-08-26T06:36:26Z</time>
      </trkpt>
      <trkpt lat="46.46406" lon="4.09175">
        <ele>238</ele>
        <time>2010-08-26T06:36:34Z</time>
      </trkpt>
      <trkpt lat="46.46448" lon="4.09128">
        <ele>237</ele>
        <time>2010-08-26T06:36:43Z</time>
      </trkpt>
      <trkpt lat="46.46485" lon="4.09075">
        <ele>237</ele>
        <time>2010-08-26T06:36:52Z</time>
      </trkpt>
      <trkpt lat="46.46521" lon="4.09018">
        <ele>237</ele>
        <time>2010-08-26T06:37:02Z</time>
      </trkpt>
      <trkpt lat="46.46558" lon="4.0896">
        <ele>236</ele>
        <time>2010-08-26T06:37:12Z</time>
      </trkpt>
      <trkpt lat="46.46594" lon="4.08904">
        <ele>237</ele>
        <time>2010-08-26T06:37:22Z</time>
      </trkpt>
      <trkpt lat="46.46629" lon="4.08848">
        <ele>238</ele>
        <time>2010-08-26T06:37:32Z</time>
      </trkpt>
      <trkpt lat="46.4667" lon="4.08792">
        <ele>236</ele>
        <time>2010-08-26T06:37:42Z</time>
      </trkpt>
      <trkpt lat="46.4671" lon="4.08738">
        <ele>235</ele>
        <time>2010-08-26T06:37:52Z</time>
      </trkpt>
      <trkpt lat="46.46746" lon="4.08687">
        <ele>235</ele>
        <time>2010-08-26T06:38:01Z</time>
      </trkpt>
      <trkpt lat="46.46786" lon="4.0863">
        <ele>236</ele>
        <time>2010-08-26T06:38:11Z</time>
      </trkpt>
      <trkpt lat="46.46825" lon="4.08575">
        <ele>236</ele>
        <time>2010-08-26T06:38:21Z</time>
      </trkpt>
      <trkpt lat="46.46863" lon="4.08519">
        <ele>237</ele>
        <time>2010-08-26T06:38:31Z</time>
      </trkpt>
      <trkpt lat="46.46901" lon="4.08464">
        <ele>237</ele>
        <time>2010-08-26T06:38:40Z</time>
      </trkpt>
      <trkpt lat="46.46938" lon="4.08411">
        <ele>237</ele>
        <time>2010-08-26T06:38:49Z</time>
      </trkpt>
      <trkpt lat="46.46974" lon="4.08358">
        <ele>237</ele>
        <time>2010-08-26T06:38:58Z</time>
      </trkpt>
      <trkpt lat="46.47003" lon="4.08291">
        <ele>238</ele>
        <time>2010-08-26T06:39:08Z</time>
      </trkpt>
      <trkpt lat="46.47015" lon="4.08213">
        <ele>238</ele>
        <time>2010-08-26T06:39:18Z</time>
      </trkpt>
      <trkpt lat="46.47044" lon="4.08148">
        <ele>239</ele>
        <time>2010-08-26T06:39:28Z</time>
      </trkpt>
      <trkpt lat="46.47068" lon="4.08079">
        <ele>240</ele>
        <time>2010-08-26T06:39:38Z</time>
      </trkpt>
      <trkpt lat="46.47063" lon="4.08002">
        <ele>240</ele>
        <time>2010-08-26T06:39:48Z</time>
      </trkpt>
      <trkpt lat="46.47047" lon="4.07927">
        <ele>242</ele>
        <time>2010-08-26T06:39:58Z</time>
      </trkpt>
      <trkpt lat="46.47042" lon="4.07849">
        <ele>242</ele>
        <time>2010-08-26T06:40:08Z</time>
      </trkpt>
      <trkpt lat="46.47055" lon="4.07774">
        <ele>242</ele>
        <time>2010-08-26T06:40:19Z</time>
      </trkpt>
      <trkpt lat="46.47083" lon="4.07711">
        <ele>240</ele>
        <time>2010-08-26T06:40:30Z</time>
      </trkpt>
      <trkpt lat="46.47115" lon="4.07649">
        <ele>239</ele>
        <time>2010-08-26T06:40:40Z</time>
      </trkpt>
      <trkpt lat="46.47143" lon="4.07587">
        <ele>238</ele>
        <time>2010-08-26T06:40:49Z</time>
      </trkpt>
      <trkpt lat="46.47172" lon="4.07519">
        <ele>238</ele>
        <time>2010-08-26T06:40:59Z</time>
      </trkpt>
      <trkpt lat="46.47193" lon="4.07448">
        <ele>238</ele>
        <time>2010-08-26T06:41:09Z</time>
      </trkpt>
      <trkpt lat="46.47213" lon="4.07381">
        <ele>238</ele>
        <time>2010-08-26T06:41:18Z</time>
      </trkpt>
      <trkpt lat="46.47236" lon="4.07317">
        <ele>238</ele>
        <time>2010-08-26T06:41:28Z</time>
      </trkpt>
      <trkpt lat="46.4726" lon="4.07254">
        <ele>237</ele>
        <time>2010-08-26T06:41:42Z</time>
      </trkpt>
      <trkpt lat="46.47283" lon="4.07193">
        <ele>233</ele>
        <time>2010-08-26T06:45:01Z</time>
      </trkpt>
      <trkpt lat="46.47302" lon="4.07122">
        <ele>234</ele>
        <time>2010-08-26T06:45:12Z</time>
      </trkpt>
      <trkpt lat="46.47324" lon="4.0705">
        <ele>234</ele>
        <time>2010-08-26T06:45:22Z</time>
      </trkpt>
      <trkpt lat="46.4735" lon="4.06983">
        <ele>233</ele>
        <time>2010-08-26T06:45:32Z</time>
      </trkpt>
      <trkpt lat="46.47382" lon="4.0692">
        <ele>234</ele>
        <time>2010-08-26T06:45:42Z</time>
      </trkpt>
      <trkpt lat="46.47423" lon="4.06872">
        <ele>236</ele>
        <time>2010-08-26T06:45:52Z</time>
      </trkpt>
      <trkpt lat="46.47467" lon="4.06832">
        <ele>237</ele>
        <time>2010-08-26T06:46:02Z</time>
      </trkpt>
      <trkpt lat="46.47512" lon="4.06792">
        <ele>238</ele>
        <time>2010-08-26T06:46:12Z</time>
      </trkpt>
      <trkpt lat="46.47557" lon="4.06753">
        <ele>237</ele>
        <time>2010-08-26T06:46:22Z</time>
      </trkpt>
      <trkpt lat="46.47602" lon="4.06715">
        <ele>236</ele>
        <time>2010-08-26T06:46:32Z</time>
      </trkpt>
      <trkpt lat="46.47647" lon="4.06679">
        <ele>236</ele>
        <time>2010-08-26T06:46:42Z</time>
      </trkpt>
      <trkpt lat="46.47697" lon="4.06657">
        <ele>236</ele>
        <time>2010-08-26T06:46:52Z</time>
      </trkpt>
      <trkpt lat="46.4775" lon="4.06648">
        <ele>236</ele>
        <time>2010-08-26T06:47:02Z</time>
      </trkpt>
      <trkpt lat="46.47802" lon="4.06642">
        <ele>236</ele>
        <time>2010-08-26T06:47:12Z</time>
      </trkpt>
      <trkpt lat="46.47853" lon="4.06622">
        <ele>237</ele>
        <time>2010-08-26T06:47:22Z</time>
      </trkpt>
      <trkpt lat="46.47895" lon="4.06578">
        <ele>236</ele>
        <time>2010-08-26T06:47:32Z</time>
      </trkpt>
      <trkpt lat="46.47927" lon="4.06518">
        <ele>237</ele>
        <time>2010-08-26T06:47:46Z</time>
      </trkpt>
      <trkpt lat="46.47943" lon="4.0645">
        <ele>238</ele>
        <time>2010-08-26T06:47:57Z</time>
      </trkpt>
      <trkpt lat="46.47948" lon="4.06375">
        <ele>239</ele>
        <time>2010-08-26T06:48:07Z</time>
      </trkpt>
      <trkpt lat="46.47936" lon="4.06298">
        <ele>239</ele>
        <time>2010-08-26T06:48:17Z</time>
      </trkpt>
      <trkpt lat="46.47924" lon="4.06227">
        <ele>240</ele>
        <time>2010-08-26T06:48:26Z</time>
      </trkpt>
      <trkpt lat="46.47916" lon="4.06149">
        <ele>239</ele>
        <time>2010-08-26T06:48:35Z</time>
      </trkpt>
      <trkpt lat="46.47907" lon="4.06068">
        <ele>237</ele>
        <time>2010-08-26T06:48:44Z</time>
      </trkpt>
      <trkpt lat="46.47898" lon="4.05991">
        <ele>235</ele>
        <time>2010-08-26T06:48:53Z</time>
      </trkpt>
      <trkpt lat="46.47897" lon="4.05914">
        <ele>236</ele>
        <time>2010-08-26T06:49:02Z</time>
      </trkpt>
      <trkpt lat="46.47916" lon="4.05843">
        <ele>237</ele>
        <time>2010-08-26T06:49:11Z</time>
      </trkpt>
      <trkpt lat="46.47952" lon="4.05788">
        <ele>237</ele>
        <time>2010-08-26T06:49:20Z</time>
      </trkpt>
      <trkpt lat="46.47991" lon="4.05737">
        <ele>237</ele>
        <time>2010-08-26T06:49:29Z</time>
      </trkpt>
      <trkpt lat="46.48026" lon="4.0568">
        <ele>236</ele>
        <time>2010-08-26T06:49:38Z</time>
      </trkpt>
      <trkpt lat="46.48059" lon="4.05622">
        <ele>236</ele>
        <time>2010-08-26T06:49:47Z</time>
      </trkpt>
      <trkpt lat="46.48093" lon="4.05564">
        <ele>237</ele>
        <time>2010-08-26T06:49:56Z</time>
      </trkpt>
      <trkpt lat="46.48128" lon="4.05504">
        <ele>236</ele>
        <time>2010-08-26T06:50:06Z</time>
      </trkpt>
      <trkpt lat="46.48154" lon="4.05442">
        <ele>237</ele>
        <time>2010-08-26T06:50:15Z</time>
      </trkpt>
      <trkpt lat="46.48178" lon="4.0537">
        <ele>238</ele>
        <time>2010-08-26T06:50:24Z</time>
      </trkpt>
      <trkpt lat="46.48208" lon="4.05307">
        <ele>238</ele>
        <time>2010-08-26T06:50:33Z</time>
      </trkpt>
      <trkpt lat="46.48254" lon="4.05274">
        <ele>238</ele>
        <time>2010-08-26T06:50:42Z</time>
      </trkpt>
      <trkpt lat="46.483" lon="4.05239">
        <ele>238</ele>
        <time>2010-08-26T06:50:51Z</time>
      </trkpt>
      <trkpt lat="46.48343" lon="4.05195">
        <ele>238</ele>
        <time>2010-08-26T06:51:00Z</time>
      </trkpt>
      <trkpt lat="46.48386" lon="4.05151">
        <ele>236</ele>
        <time>2010-08-26T06:51:09Z</time>
      </trkpt>
      <trkpt lat="46.48426" lon="4.05102">
        <ele>237</ele>
        <time>2010-08-26T06:51:18Z</time>
      </trkpt>
      <trkpt lat="46.48449" lon="4.05035">
        <ele>238</ele>
        <time>2010-08-26T06:51:27Z</time>
      </trkpt>
      <trkpt lat="46.48467" lon="4.04964">
        <ele>237</ele>
        <time>2010-08-26T06:51:36Z</time>
      </trkpt>
      <trkpt lat="46.48501" lon="4.04907">
        <ele>237</ele>
        <time>2010-08-26T06:51:45Z</time>
      </trkpt>
      <trkpt lat="46.48544" lon="4.04864">
        <ele>237</ele>
        <time>2010-08-26T06:51:54Z</time>
      </trkpt>
      <trkpt lat="46.48581" lon="4.04814">
        <ele>237</ele>
        <time>2010-08-26T06:52:03Z</time>
      </trkpt>
      <trkpt lat="46.48595" lon="4.04742">
        <ele>236</ele>
        <time>2010-08-26T06:52:12Z</time>
      </trkpt>
      <trkpt lat="46.48602" lon="4.04666">
        <ele>237</ele>
        <time>2010-08-26T06:52:21Z</time>
      </trkpt>
      <trkpt lat="46.48608" lon="4.04592">
        <ele>238</ele>
        <time>2010-08-26T06:52:30Z</time>
      </trkpt>
      <trkpt lat="46.48615" lon="4.04519">
        <ele>239</ele>
        <time>2010-08-26T06:52:39Z</time>
      </trkpt>
      <trkpt lat="46.48621" lon="4.04445">
        <ele>237</ele>
        <time>2010-08-26T06:52:48Z</time>
      </trkpt>
      <trkpt lat="46.48626" lon="4.04372">
        <ele>237</ele>
        <time>2010-08-26T06:52:57Z</time>
      </trkpt>
      <trkpt lat="46.48633" lon="4.04297">
        <ele>237</ele>
        <time>2010-08-26T06:53:06Z</time>
      </trkpt>
      <trkpt lat="46.48639" lon="4.04222">
        <ele>237</ele>
        <time>2010-08-26T06:53:15Z</time>
      </trkpt>
      <trkpt lat="46.48646" lon="4.04146">
        <ele>236</ele>
        <time>2010-08-26T06:53:24Z</time>
      </trkpt>
      <trkpt lat="46.48652" lon="4.04072">
        <ele>237</ele>
        <time>2010-08-26T06:53:33Z</time>
      </trkpt>
      <trkpt lat="46.48658" lon="4.03998">
        <ele>237</ele>
        <time>2010-08-26T06:53:42Z</time>
      </trkpt>
      <trkpt lat="46.48669" lon="4.03924">
        <ele>237</ele>
        <time>2010-08-26T06:53:51Z</time>
      </trkpt>
      <trkpt lat="46.48682" lon="4.03852">
        <ele>236</ele>
        <time>2010-08-26T06:54:00Z</time>
      </trkpt>
      <trkpt lat="46.48693" lon="4.0378">
        <ele>236</ele>
        <time>2010-08-26T06:54:09Z</time>
      </trkpt>
      <trkpt lat="46.48699" lon="4.03706">
        <ele>236</ele>
        <time>2010-08-26T06:54:18Z</time>
      </trkpt>
      <trkpt lat="46.4869" lon="4.03627">
        <ele>238</ele>
        <time>2010-08-26T06:54:28Z</time>
      </trkpt>
      <trkpt lat="46.4868" lon="4.03554">
        <ele>240</ele>
        <time>2010-08-26T06:54:37Z</time>
      </trkpt>
      <trkpt lat="46.48678" lon="4.03479">
        <ele>241</ele>
        <time>2010-08-26T06:54:46Z</time>
      </trkpt>
      <trkpt lat="46.48676" lon="4.03401">
        <ele>240</ele>
        <time>2010-08-26T06:54:57Z</time>
      </trkpt>
      <trkpt lat="46.48692" lon="4.03329">
        <ele>241</ele>
        <time>2010-08-26T06:55:07Z</time>
      </trkpt>
      <trkpt lat="46.48703" lon="4.03256">
        <ele>241</ele>
        <time>2010-08-26T06:55:16Z</time>
      </trkpt>
      <trkpt lat="46.48716" lon="4.03182">
        <ele>240</ele>
        <time>2010-08-26T06:55:25Z</time>
      </trkpt>
      <trkpt lat="46.48742" lon="4.03118">
        <ele>237</ele>
        <time>2010-08-26T06:55:34Z</time>
      </trkpt>
      <trkpt lat="46.48775" lon="4.03059">
        <ele>235</ele>
        <time>2010-08-26T06:55:43Z</time>
      </trkpt>
      <trkpt lat="46.48799" lon="4.0299">
        <ele>236</ele>
        <time>2010-08-26T06:55:52Z</time>
      </trkpt>
      <trkpt lat="46.48806" lon="4.02913">
        <ele>238</ele>
        <time>2010-08-26T06:56:01Z</time>
      </trkpt>
      <trkpt lat="46.48811" lon="4.02839">
        <ele>239</ele>
        <time>2010-08-26T06:56:10Z</time>
      </trkpt>
      <trkpt lat="46.48804" lon="4.02763">
        <ele>241</ele>
        <time>2010-08-26T06:56:19Z</time>
      </trkpt>
      <trkpt lat="46.48796" lon="4.02688">
        <ele>242</ele>
        <time>2010-08-26T06:56:28Z</time>
      </trkpt>
      <trkpt lat="46.48788" lon="4.0261">
        <ele>242</ele>
        <time>2010-08-26T06:56:37Z</time>
      </trkpt>
      <trkpt lat="46.48778" lon="4.02532">
        <ele>243</ele>
        <time>2010-08-26T06:56:46Z</time>
      </trkpt>
      <trkpt lat="46.48764" lon="4.02458">
        <ele>243</ele>
        <time>2010-08-26T06:56:55Z</time>
      </trkpt>
      <trkpt lat="46.48755" lon="4.02382">
        <ele>242</ele>
        <time>2010-08-26T06:57:04Z</time>
      </trkpt>
      <trkpt lat="46.48751" lon="4.02305">
        <ele>240</ele>
        <time>2010-08-26T06:57:13Z</time>
      </trkpt>
      <trkpt lat="46.48738" lon="4.0223">
        <ele>240</ele>
        <time>2010-08-26T06:57:22Z</time>
      </trkpt>
      <trkpt lat="46.48718" lon="4.0216">
        <ele>245</ele>
        <time>2010-08-26T06:57:31Z</time>
      </trkpt>
      <trkpt lat="46.48698" lon="4.02087">
        <ele>249</ele>
        <time>2010-08-26T06:57:40Z</time>
      </trkpt>
      <trkpt lat="46.48693" lon="4.02008">
        <ele>248</ele>
        <time>2010-08-26T06:57:49Z</time>
      </trkpt>
      <trkpt lat="46.48698" lon="4.01931">
        <ele>246</ele>
        <time>2010-08-26T06:57:58Z</time>
      </trkpt>
      <trkpt lat="46.48705" lon="4.01855">
        <ele>246</ele>
        <time>2010-08-26T06:58:07Z</time>
      </trkpt>
      <trkpt lat="46.48712" lon="4.01779">
        <ele>245</ele>
        <time>2010-08-26T06:58:16Z</time>
      </trkpt>
      <trkpt lat="46.48721" lon="4.01704">
        <ele>244</ele>
        <time>2010-08-26T06:58:25Z</time>
      </trkpt>
      <trkpt lat="46.48737" lon="4.01634">
        <ele>244</ele>
        <time>2010-08-26T06:58:34Z</time>
      </trkpt>
      <trkpt lat="46.48765" lon="4.01573">
        <ele>241</ele>
        <time>2010-08-26T07:01:11Z</time>
      </trkpt>
      <trkpt lat="46.48783" lon="4.01509">
        <ele>243</ele>
        <time>2010-08-26T07:01:24Z</time>
      </trkpt>
      <trkpt lat="46.48806" lon="4.01441">
        <ele>243</ele>
        <time>2010-08-26T07:01:34Z</time>
      </trkpt>
      <trkpt lat="46.48819" lon="4.01365">
        <ele>243</ele>
        <time>2010-08-26T07:01:44Z</time>
      </trkpt>
      <trkpt lat="46.48819" lon="4.01287">
        <ele>244</ele>
        <time>2010-08-26T07:01:54Z</time>
      </trkpt>
      <trkpt lat="46.48807" lon="4.0121">
        <ele>244</ele>
        <time>2010-08-26T07:02:04Z</time>
      </trkpt>
      <trkpt lat="46.4879" lon="4.01141">
        <ele>244</ele>
        <time>2010-08-26T07:02:13Z</time>
      </trkpt>
      <trkpt lat="46.48772" lon="4.0107">
        <ele>245</ele>
        <time>2010-08-26T07:02:22Z</time>
      </trkpt>
      <trkpt lat="46.48763" lon="4.00998">
        <ele>245</ele>
        <time>2010-08-26T07:02:31Z</time>
      </trkpt>
      <trkpt lat="46.48768" lon="4.00919">
        <ele>245</ele>
        <time>2010-08-26T07:02:41Z</time>
      </trkpt>
      <trkpt lat="46.4878" lon="4.00844">
        <ele>244</ele>
        <time>2010-08-26T07:02:51Z</time>
      </trkpt>
      <trkpt lat="46.48792" lon="4.0077">
        <ele>244</ele>
        <time>2010-08-26T07:03:01Z</time>
      </trkpt>
      <trkpt lat="46.48802" lon="4.00697">
        <ele>243</ele>
        <time>2010-08-26T07:03:12Z</time>
      </trkpt>
      <trkpt lat="46.48814" lon="4.00627">
        <ele>243</ele>
        <time>2010-08-26T07:03:24Z</time>
      </trkpt>
      <trkpt lat="46.48826" lon="4.00556">
        <ele>241</ele>
        <time>2010-08-26T07:04:10Z</time>
      </trkpt>
      <trkpt lat="46.48827" lon="4.00482">
        <ele>241</ele>
        <time>2010-08-26T07:04:21Z</time>
      </trkpt>
      <trkpt lat="46.48817" lon="4.0041">
        <ele>241</ele>
        <time>2010-08-26T07:04:31Z</time>
      </trkpt>
      <trkpt lat="46.48798" lon="4.00342">
        <ele>241</ele>
        <time>2010-08-26T07:04:41Z</time>
      </trkpt>
      <trkpt lat="46.4877" lon="4.00277">
        <ele>241</ele>
        <time>2010-08-26T07:04:51Z</time>
      </trkpt>
      <trkpt lat="46.48741" lon="4.00213">
        <ele>241</ele>
        <time>2010-08-26T07:05:01Z</time>
      </trkpt>
      <trkpt lat="46.48712" lon="4.00148">
        <ele>241</ele>
        <time>2010-08-26T07:05:11Z</time>
      </trkpt>
      <trkpt lat="46.48681" lon="4.00082">
        <ele>242</ele>
        <time>2010-08-26T07:05:21Z</time>
      </trkpt>
      <trkpt lat="46.48652" lon="4.00018">
        <ele>242</ele>
        <time>2010-08-26T07:05:31Z</time>
      </trkpt>
      <trkpt lat="46.48622" lon="3.99953">
        <ele>242</ele>
        <time>2010-08-26T07:05:41Z</time>
      </trkpt>
      <trkpt lat="46.48591" lon="3.99892">
        <ele>241</ele>
        <time>2010-08-26T07:05:51Z</time>
      </trkpt>
      <trkpt lat="46.48559" lon="3.99832">
        <ele>241</ele>
        <time>2010-08-26T07:06:02Z</time>
      </trkpt>
      <trkpt lat="46.48542" lon="3.99762">
        <ele>241</ele>
        <time>2010-08-26T07:06:11Z</time>
      </trkpt>
      <trkpt lat="46.48534" lon="3.99689">
        <ele>241</ele>
        <time>2010-08-26T07:06:20Z</time>
      </trkpt>
      <trkpt lat="46.48534" lon="3.99609">
        <ele>241</ele>
        <time>2010-08-26T07:06:30Z</time>
      </trkpt>
      <trkpt lat="46.48535" lon="3.99532">
        <ele>241</ele>
        <time>2010-08-26T07:06:40Z</time>
      </trkpt>
      <trkpt lat="46.48532" lon="3.99456">
        <ele>241</ele>
        <time>2010-08-26T07:06:50Z</time>
      </trkpt>
      <trkpt lat="46.48516" lon="3.99382">
        <ele>242</ele>
        <time>2010-08-26T07:07:00Z</time>
      </trkpt>
      <trkpt lat="46.48486" lon="3.99319">
        <ele>242</ele>
        <time>2010-08-26T07:07:10Z</time>
      </trkpt>
      <trkpt lat="46.4845" lon="3.99262">
        <ele>243</ele>
        <time>2010-08-26T07:07:20Z</time>
      </trkpt>
      <trkpt lat="46.48416" lon="3.992">
        <ele>243</ele>
        <time>2010-08-26T07:07:30Z</time>
      </trkpt>
      <trkpt lat="46.48392" lon="3.99131">
        <ele>243</ele>
        <time>2010-08-26T07:07:40Z</time>
      </trkpt>
      <trkpt lat="46.48377" lon="3.99056">
        <ele>243</ele>
        <time>2010-08-26T07:07:50Z</time>
      </trkpt>
      <trkpt lat="46.48363" lon="3.98984">
        <ele>244</ele>
        <time>2010-08-26T07:08:00Z</time>
      </trkpt>
      <trkpt lat="46.48349" lon="3.98915">
        <ele>244</ele>
        <time>2010-08-26T07:08:10Z</time>
      </trkpt>
      <trkpt lat="46.4832" lon="3.9885">
        <ele>244</ele>
        <time>2010-08-26T07:08:21Z</time>
      </trkpt>
      <trkpt lat="46.48303" lon="3.98779">
        <ele>245</ele>
        <time>2010-08-26T07:08:36Z</time>
      </trkpt>
      <trkpt lat="46.48275" lon="3.9872">
        <ele>251</ele>
        <time>2010-08-26T07:09:34Z</time>
      </trkpt>
      <trkpt lat="46.48302" lon="3.98773">
        <ele>248</ele>
        <time>2010-08-26T07:09:49Z</time>
      </trkpt>
      <trkpt lat="46.48288" lon="3.98716">
        <ele>243</ele>
        <time>2010-08-26T07:10:15Z</time>
      </trkpt>
      <trkpt lat="46.48244" lon="3.98679">
        <ele>245</ele>
        <time>2010-08-26T07:13:35Z</time>
      </trkpt>
      <trkpt lat="46.48215" lon="3.98622">
        <ele>244</ele>
        <time>2010-08-26T07:13:46Z</time>
      </trkpt>
      <trkpt lat="46.48185" lon="3.98561">
        <ele>244</ele>
        <time>2010-08-26T07:13:57Z</time>
      </trkpt>
      <trkpt lat="46.48156" lon="3.98501">
        <ele>243</ele>
        <time>2010-08-26T07:14:07Z</time>
      </trkpt>
      <trkpt lat="46.48127" lon="3.98441">
        <ele>243</ele>
        <time>2010-08-26T07:14:17Z</time>
      </trkpt>
      <trkpt lat="46.48096" lon="3.9838">
        <ele>243</ele>
        <time>2010-08-26T07:14:27Z</time>
      </trkpt>
      <trkpt lat="46.48066" lon="3.98318">
        <ele>244</ele>
        <time>2010-08-26T07:14:37Z</time>
      </trkpt>
      <trkpt lat="46.48034" lon="3.98253">
        <ele>243</ele>
        <time>2010-08-26T07:14:48Z</time>
      </trkpt>
      <trkpt lat="46.47988" lon="3.98215">
        <ele>242</ele>
        <time>2010-08-26T07:14:59Z</time>
      </trkpt>
      <trkpt lat="46.4794" lon="3.98182">
        <ele>240</ele>
        <time>2010-08-26T07:15:09Z</time>
      </trkpt>
      <trkpt lat="46.47893" lon="3.98151">
        <ele>241</ele>
        <time>2010-08-26T07:15:19Z</time>
      </trkpt>
      <trkpt lat="46.47844" lon="3.98122">
        <ele>241</ele>
        <time>2010-08-26T07:15:31Z</time>
      </trkpt>
      <trkpt lat="46.47798" lon="3.98097">
        <ele>244</ele>
        <time>2010-08-26T07:23:11Z</time>
      </trkpt>
      <trkpt lat="46.47756" lon="3.98074">
        <ele>247</ele>
        <time>2010-08-26T07:23:52Z</time>
      </trkpt>
      <trkpt lat="46.47714" lon="3.98046">
        <ele>246</ele>
        <time>2010-08-26T07:24:32Z</time>
      </trkpt>
      <trkpt lat="46.47672" lon="3.98018">
        <ele>244</ele>
        <time>2010-08-26T07:25:10Z</time>
      </trkpt>
      <trkpt lat="46.4763" lon="3.9799">
        <ele>243</ele>
        <time>2010-08-26T07:25:47Z</time>
      </trkpt>
      <trkpt lat="46.47588" lon="3.97957">
        <ele>240</ele>
        <time>2010-08-26T07:26:23Z</time>
      </trkpt>
      <trkpt lat="46.4754" lon="3.97929">
        <ele>240</ele>
        <time>2010-08-26T07:26:37Z</time>
      </trkpt>
      <trkpt lat="46.47495" lon="3.97896">
        <ele>239</ele>
        <time>2010-08-26T07:26:55Z</time>
      </trkpt>
      <trkpt lat="46.47449" lon="3.97864">
        <ele>236</ele>
        <time>2010-08-26T07:27:07Z</time>
      </trkpt>
      <trkpt lat="46.47403" lon="3.97836">
        <ele>235</ele>
        <time>2010-08-26T07:27:23Z</time>
      </trkpt>
      <trkpt lat="46.4736" lon="3.97803">
        <ele>236</ele>
        <time>2010-08-26T07:27:35Z</time>
      </trkpt>
      <trkpt lat="46.47319" lon="3.97754">
        <ele>235</ele>
        <time>2010-08-26T07:27:46Z</time>
      </trkpt>
      <trkpt lat="46.47297" lon="3.97686">
        <ele>233</ele>
        <time>2010-08-26T07:27:56Z</time>
      </trkpt>
      <trkpt lat="46.47292" lon="3.97608">
        <ele>233</ele>
        <time>2010-08-26T07:28:06Z</time>
      </trkpt>
      <trkpt lat="46.47287" lon="3.97529">
        <ele>233</ele>
        <time>2010-08-26T07:28:16Z</time>
      </trkpt>
      <trkpt lat="46.47282" lon="3.97451">
        <ele>234</ele>
        <time>2010-08-26T07:28:26Z</time>
      </trkpt>
      <trkpt lat="46.47277" lon="3.97372">
        <ele>235</ele>
        <time>2010-08-26T07:28:36Z</time>
      </trkpt>
      <trkpt lat="46.47272" lon="3.97295">
        <ele>236</ele>
        <time>2010-08-26T07:28:46Z</time>
      </trkpt>
      <trkpt lat="46.47267" lon="3.97215">
        <ele>235</ele>
        <time>2010-08-26T07:28:56Z</time>
      </trkpt>
      <trkpt lat="46.47262" lon="3.97136">
        <ele>236</ele>
        <time>2010-08-26T07:29:06Z</time>
      </trkpt>
      <trkpt lat="46.47257" lon="3.97057">
        <ele>236</ele>
        <time>2010-08-26T07:29:16Z</time>
      </trkpt>
      <trkpt lat="46.47252" lon="3.96979">
        <ele>236</ele>
        <time>2010-08-26T07:29:26Z</time>
      </trkpt>
      <trkpt lat="46.47247" lon="3.96899">
        <ele>236</ele>
        <time>2010-08-26T07:29:36Z</time>
      </trkpt>
      <trkpt lat="46.47241" lon="3.96821">
        <ele>237</ele>
        <time>2010-08-26T07:29:46Z</time>
      </trkpt>
      <trkpt lat="46.47237" lon="3.96743">
        <ele>238</ele>
        <time>2010-08-26T07:29:56Z</time>
      </trkpt>
      <trkpt lat="46.47233" lon="3.9667">
        <ele>238</ele>
        <time>2010-08-26T07:30:06Z</time>
      </trkpt>
      <trkpt lat="46.47215" lon="3.96599">
        <ele>238</ele>
        <time>2010-08-26T07:30:17Z</time>
      </trkpt>
      <trkpt lat="46.47208" lon="3.96527">
        <ele>237</ele>
        <time>2010-08-26T07:30:29Z</time>
      </trkpt>
      <trkpt lat="46.47207" lon="3.96452">
        <ele>237</ele>
        <time>2010-08-26T07:30:40Z</time>
      </trkpt>
      <trkpt lat="46.47203" lon="3.96376">
        <ele>235</ele>
        <time>2010-08-26T07:32:16Z</time>
      </trkpt>
      <trkpt lat="46.47198" lon="3.96301">
        <ele>235</ele>
        <time>2010-08-26T07:32:27Z</time>
      </trkpt>
      <trkpt lat="46.47194" lon="3.96228">
        <ele>235</ele>
        <time>2010-08-26T07:32:37Z</time>
      </trkpt>
      <trkpt lat="46.4719" lon="3.96149">
        <ele>236</ele>
        <time>2010-08-26T07:32:48Z</time>
      </trkpt>
      <trkpt lat="46.47184" lon="3.96075">
        <ele>235</ele>
        <time>2010-08-26T07:32:58Z</time>
      </trkpt>
      <trkpt lat="46.4718" lon="3.96002">
        <ele>235</ele>
        <time>2010-08-26T07:33:08Z</time>
      </trkpt>
      <trkpt lat="46.47177" lon="3.95927">
        <ele>235</ele>
        <time>2010-08-26T07:33:19Z</time>
      </trkpt>
      <trkpt lat="46.47174" lon="3.95854">
        <ele>235</ele>
        <time>2010-08-26T07:33:29Z</time>
      </trkpt>
      <trkpt lat="46.47187" lon="3.95783">
        <ele>234</ele>
        <time>2010-08-26T07:33:39Z</time>
      </trkpt>
      <trkpt lat="46.47182" lon="3.95708">
        <ele>234</ele>
        <time>2010-08-26T07:33:49Z</time>
      </trkpt>
      <trkpt lat="46.47163" lon="3.9564">
        <ele>233</ele>
        <time>2010-08-26T07:33:58Z</time>
      </trkpt>
      <trkpt lat="46.47153" lon="3.95567">
        <ele>234</ele>
        <time>2010-08-26T07:34:07Z</time>
      </trkpt>
      <trkpt lat="46.47148" lon="3.95487">
        <ele>232</ele>
        <time>2010-08-26T07:34:17Z</time>
      </trkpt>
      <trkpt lat="46.47144" lon="3.95412">
        <ele>232</ele>
        <time>2010-08-26T07:34:26Z</time>
      </trkpt>
      <trkpt lat="46.47139" lon="3.95336">
        <ele>233</ele>
        <time>2010-08-26T07:34:35Z</time>
      </trkpt>
      <trkpt lat="46.47133" lon="3.9526">
        <ele>234</ele>
        <time>2010-08-26T07:34:44Z</time>
      </trkpt>
      <trkpt lat="46.47128" lon="3.95184">
        <ele>236</ele>
        <time>2010-08-26T07:34:53Z</time>
      </trkpt>
      <trkpt lat="46.47123" lon="3.95107">
        <ele>237</ele>
        <time>2010-08-26T07:35:02Z</time>
      </trkpt>
      <trkpt lat="46.47119" lon="3.95033">
        <ele>236</ele>
        <time>2010-08-26T07:35:11Z</time>
      </trkpt>
      <trkpt lat="46.47115" lon="3.94953">
        <ele>235</ele>
        <time>2010-08-26T07:35:21Z</time>
      </trkpt>
      <trkpt lat="46.47112" lon="3.94872">
        <ele>232</ele>
        <time>2010-08-26T07:35:31Z</time>
      </trkpt>
      <trkpt lat="46.47107" lon="3.94793">
        <ele>230</ele>
        <time>2010-08-26T07:35:41Z</time>
      </trkpt>
      <trkpt lat="46.47104" lon="3.94712">
        <ele>228</ele>
        <time>2010-08-26T07:35:51Z</time>
      </trkpt>
      <trkpt lat="46.47097" lon="3.94639">
        <ele>227</ele>
        <time>2010-08-26T07:36:00Z</time>
      </trkpt>
      <trkpt lat="46.47089" lon="3.94567">
        <ele>228</ele>
        <time>2010-08-26T07:36:09Z</time>
      </trkpt>
      <trkpt lat="46.47087" lon="3.94488">
        <ele>232</ele>
        <time>2010-08-26T07:36:18Z</time>
      </trkpt>
      <trkpt lat="46.47087" lon="3.9441">
        <ele>234</ele>
        <time>2010-08-26T07:36:27Z</time>
      </trkpt>
      <trkpt lat="46.47095" lon="3.94331">
        <ele>234</ele>
        <time>2010-08-26T07:36:36Z</time>
      </trkpt>
      <trkpt lat="46.47111" lon="3.94258">
        <ele>234</ele>
        <time>2010-08-26T07:36:45Z</time>
      </trkpt>
      <trkpt lat="46.47134" lon="3.94188">
        <ele>234</ele>
        <time>2010-08-26T07:36:54Z</time>
      </trkpt>
      <trkpt lat="46.47162" lon="3.94125">
        <ele>234</ele>
        <time>2010-08-26T07:37:03Z</time>
      </trkpt>
      <trkpt lat="46.47192" lon="3.94062">
        <ele>235</ele>
        <time>2010-08-26T07:37:12Z</time>
      </trkpt>
      <trkpt lat="46.47221" lon="3.94002">
        <ele>235</ele>
        <time>2010-08-26T07:37:21Z</time>
      </trkpt>
      <trkpt lat="46.4725" lon="3.93938">
        <ele>235</ele>
        <time>2010-08-26T07:37:30Z</time>
      </trkpt>
      <trkpt lat="46.47278" lon="3.93876">
        <ele>235</ele>
        <time>2010-08-26T07:37:39Z</time>
      </trkpt>
      <trkpt lat="46.47307" lon="3.93813">
        <ele>235</ele>
        <time>2010-08-26T07:37:48Z</time>
      </trkpt>
      <trkpt lat="46.47337" lon="3.93751">
        <ele>236</ele>
        <time>2010-08-26T07:37:57Z</time>
      </trkpt>
      <trkpt lat="46.47366" lon="3.93688">
        <ele>236</ele>
        <time>2010-08-26T07:38:06Z</time>
      </trkpt>
      <trkpt lat="46.47397" lon="3.93623">
        <ele>236</ele>
        <time>2010-08-26T07:38:15Z</time>
      </trkpt>
      <trkpt lat="46.47427" lon="3.93559">
        <ele>236</ele>
        <time>2010-08-26T07:38:25Z</time>
      </trkpt>
      <trkpt lat="46.47456" lon="3.93496">
        <ele>236</ele>
        <time>2010-08-26T07:38:34Z</time>
      </trkpt>
      <trkpt lat="46.47485" lon="3.93429">
        <ele>237</ele>
        <time>2010-08-26T07:38:43Z</time>
      </trkpt>
      <trkpt lat="46.47508" lon="3.9336">
        <ele>237</ele>
        <time>2010-08-26T07:38:52Z</time>
      </trkpt>
      <trkpt lat="46.47528" lon="3.9329">
        <ele>236</ele>
        <time>2010-08-26T07:39:01Z</time>
      </trkpt>
      <trkpt lat="46.47543" lon="3.93212">
        <ele>236</ele>
        <time>2010-08-26T07:39:11Z</time>
      </trkpt>
      <trkpt lat="46.47554" lon="3.93137">
        <ele>236</ele>
        <time>2010-08-26T07:39:20Z</time>
      </trkpt>
      <trkpt lat="46.47561" lon="3.93058">
        <ele>236</ele>
        <time>2010-08-26T07:39:29Z</time>
      </trkpt>
      <trkpt lat="46.47563" lon="3.92976">
        <ele>234</ele>
        <time>2010-08-26T07:39:39Z</time>
      </trkpt>
      <trkpt lat="46.47575" lon="3.92897">
        <ele>234</ele>
        <time>2010-08-26T07:39:49Z</time>
      </trkpt>
      <trkpt lat="46.47581" lon="3.92822">
        <ele>234</ele>
        <time>2010-08-26T07:39:58Z</time>
      </trkpt>
      <trkpt lat="46.47587" lon="3.92747">
        <ele>234</ele>
        <time>2010-08-26T07:40:07Z</time>
      </trkpt>
      <trkpt lat="46.47594" lon="3.92673">
        <ele>235</ele>
        <time>2010-08-26T07:40:16Z</time>
      </trkpt>
      <trkpt lat="46.476" lon="3.92599">
        <ele>235</ele>
        <time>2010-08-26T07:40:25Z</time>
      </trkpt>
      <trkpt lat="46.47607" lon="3.92519">
        <ele>234</ele>
        <time>2010-08-26T07:40:35Z</time>
      </trkpt>
      <trkpt lat="46.47615" lon="3.92446">
        <ele>234</ele>
        <time>2010-08-26T07:40:45Z</time>
      </trkpt>
      <trkpt lat="46.47626" lon="3.9237">
        <ele>237</ele>
        <time>2010-08-26T07:40:58Z</time>
      </trkpt>
      <trkpt lat="46.47628" lon="3.9229">
        <ele>234</ele>
        <time>2010-08-26T07:41:07Z</time>
      </trkpt>
      <trkpt lat="46.47634" lon="3.92211">
        <ele>233</ele>
        <time>2010-08-26T07:41:16Z</time>
      </trkpt>
      <trkpt lat="46.47643" lon="3.92135">
        <ele>233</ele>
        <time>2010-08-26T07:41:25Z</time>
      </trkpt>
      <trkpt lat="46.47655" lon="3.92061">
        <ele>234</ele>
        <time>2010-08-26T07:41:34Z</time>
      </trkpt>
      <trkpt lat="46.47674" lon="3.91989">
        <ele>234</ele>
        <time>2010-08-26T07:41:43Z</time>
      </trkpt>
      <trkpt lat="46.47695" lon="3.9192">
        <ele>235</ele>
        <time>2010-08-26T07:41:52Z</time>
      </trkpt>
      <trkpt lat="46.4772" lon="3.91853">
        <ele>235</ele>
        <time>2010-08-26T07:42:01Z</time>
      </trkpt>
      <trkpt lat="46.47746" lon="3.91787">
        <ele>235</ele>
        <time>2010-08-26T07:42:10Z</time>
      </trkpt>
      <trkpt lat="46.47771" lon="3.91721">
        <ele>234</ele>
        <time>2010-08-26T07:42:19Z</time>
      </trkpt>
      <trkpt lat="46.47789" lon="3.91649">
        <ele>234</ele>
        <time>2010-08-26T07:42:28Z</time>
      </trkpt>
      <trkpt lat="46.47804" lon="3.91574">
        <ele>234</ele>
        <time>2010-08-26T07:42:37Z</time>
      </trkpt>
      <trkpt lat="46.47811" lon="3.91498">
        <ele>233</ele>
        <time>2010-08-26T07:42:46Z</time>
      </trkpt>
      <trkpt lat="46.47812" lon="3.91423">
        <ele>234</ele>
        <time>2010-08-26T07:42:55Z</time>
      </trkpt>
      <trkpt lat="46.47811" lon="3.91349">
        <ele>235</ele>
        <time>2010-08-26T07:43:04Z</time>
      </trkpt>
      <trkpt lat="46.47807" lon="3.91276">
        <ele>237</ele>
        <time>2010-08-26T07:43:16Z</time>
      </trkpt>
      <trkpt lat="46.47793" lon="3.91203">
        <ele>235</ele>
        <time>2010-08-26T07:43:24Z</time>
      </trkpt>
      <trkpt lat="46.47791" lon="3.91126">
        <ele>235</ele>
        <time>2010-08-26T07:43:32Z</time>
      </trkpt>
      <trkpt lat="46.47797" lon="3.91046">
        <ele>234</ele>
        <time>2010-08-26T07:43:41Z</time>
      </trkpt>
      <trkpt lat="46.47979" lon="3.89611">
        <ele>236</ele>
        <time>2010-08-26T07:49:22Z</time>
      </trkpt>
      <trkpt lat="46.47984" lon="3.89676">
        <ele>240</ele>
        <time>2010-08-26T07:51:09Z</time>
      </trkpt>
      <trkpt lat="46.47986" lon="3.89755">
        <ele>239</ele>
        <time>2010-08-26T07:51:20Z</time>
      </trkpt>
      <trkpt lat="46.47984" lon="3.89833">
        <ele>238</ele>
        <time>2010-08-26T07:51:30Z</time>
      </trkpt>
      <trkpt lat="46.47978" lon="3.89906">
        <ele>237</ele>
        <time>2010-08-26T07:51:39Z</time>
      </trkpt>
      <trkpt lat="46.47967" lon="3.89981">
        <ele>237</ele>
        <time>2010-08-26T07:51:48Z</time>
      </trkpt>
      <trkpt lat="46.47955" lon="3.90054">
        <ele>237</ele>
        <time>2010-08-26T07:51:57Z</time>
      </trkpt>
      <trkpt lat="46.47944" lon="3.90129">
        <ele>237</ele>
        <time>2010-08-26T07:52:06Z</time>
      </trkpt>
      <trkpt lat="46.47932" lon="3.90204">
        <ele>237</ele>
        <time>2010-08-26T07:52:15Z</time>
      </trkpt>
      <trkpt lat="46.47921" lon="3.9028">
        <ele>236</ele>
        <time>2010-08-26T07:52:24Z</time>
      </trkpt>
      <trkpt lat="46.47908" lon="3.90355">
        <ele>236</ele>
        <time>2010-08-26T07:52:33Z</time>
      </trkpt>
      <trkpt lat="46.47897" lon="3.90431">
        <ele>234</ele>
        <time>2010-08-26T07:52:42Z</time>
      </trkpt>
      <trkpt lat="46.47885" lon="3.90507">
        <ele>234</ele>
        <time>2010-08-26T07:52:51Z</time>
      </trkpt>
      <trkpt lat="46.47874" lon="3.90582">
        <ele>233</ele>
        <time>2010-08-26T07:53:00Z</time>
      </trkpt>
      <trkpt lat="46.47861" lon="3.90659">
        <ele>232</ele>
        <time>2010-08-26T07:53:09Z</time>
      </trkpt>
      <trkpt lat="46.47848" lon="3.90737">
        <ele>233</ele>
        <time>2010-08-26T07:53:18Z</time>
      </trkpt>
      <trkpt lat="46.47836" lon="3.90814">
        <ele>233</ele>
        <time>2010-08-26T07:53:27Z</time>
      </trkpt>
      <trkpt lat="46.47824" lon="3.90893">
        <ele>234</ele>
        <time>2010-08-26T07:53:36Z</time>
      </trkpt>
      <trkpt lat="46.47812" lon="3.90972">
        <ele>234</ele>
        <time>2010-08-26T07:53:44Z</time>
      </trkpt>
      <trkpt lat="46.478" lon="3.91051">
        <ele>236</ele>
        <time>2010-08-26T07:53:53Z</time>
      </trkpt>
      <trkpt lat="46.47795" lon="3.91128">
        <ele>236</ele>
        <time>2010-08-26T07:54:02Z</time>
      </trkpt>
      <trkpt lat="46.47796" lon="3.91203">
        <ele>237</ele>
        <time>2010-08-26T07:54:11Z</time>
      </trkpt>
      <trkpt lat="46.4781" lon="3.91274">
        <ele>239</ele>
        <time>2010-08-26T07:54:21Z</time>
      </trkpt>
      <trkpt lat="46.47795" lon="3.9121">
        <ele>236</ele>
        <time>2010-08-26T07:55:58Z</time>
      </trkpt>
      <trkpt lat="46.47793" lon="3.91134">
        <ele>235</ele>
        <time>2010-08-26T07:56:07Z</time>
      </trkpt>
      <trkpt lat="46.47797" lon="3.91057">
        <ele>235</ele>
        <time>2010-08-26T07:56:16Z</time>
      </trkpt>
      <trkpt lat="46.47809" lon="3.90977">
        <ele>234</ele>
        <time>2010-08-26T07:56:25Z</time>
      </trkpt>
      <trkpt lat="46.47821" lon="3.90901">
        <ele>233</ele>
        <time>2010-08-26T07:56:34Z</time>
      </trkpt>
      <trkpt lat="46.47832" lon="3.90825">
        <ele>233</ele>
        <time>2010-08-26T07:56:43Z</time>
      </trkpt>
      <trkpt lat="46.47844" lon="3.90747">
        <ele>233</ele>
        <time>2010-08-26T07:56:52Z</time>
      </trkpt>
      <trkpt lat="46.47857" lon="3.90671">
        <ele>233</ele>
        <time>2010-08-26T07:57:01Z</time>
      </trkpt>
      <trkpt lat="46.47868" lon="3.90596">
        <ele>233</ele>
        <time>2010-08-26T07:57:10Z</time>
      </trkpt>
      <trkpt lat="46.4788" lon="3.90521">
        <ele>233</ele>
        <time>2010-08-26T07:57:19Z</time>
      </trkpt>
      <trkpt lat="46.47892" lon="3.90443">
        <ele>232</ele>
        <time>2010-08-26T07:57:28Z</time>
      </trkpt>
      <trkpt lat="46.47904" lon="3.90367">
        <ele>232</ele>
        <time>2010-08-26T07:57:37Z</time>
      </trkpt>
      <trkpt lat="46.47916" lon="3.9029">
        <ele>231</ele>
        <time>2010-08-26T07:57:46Z</time>
      </trkpt>
      <trkpt lat="46.47928" lon="3.90214">
        <ele>231</ele>
        <time>2010-08-26T07:57:55Z</time>
      </trkpt>
      <trkpt lat="46.4794" lon="3.90137">
        <ele>232</ele>
        <time>2010-08-26T07:58:04Z</time>
      </trkpt>
      <trkpt lat="46.47953" lon="3.9006">
        <ele>232</ele>
        <time>2010-08-26T07:58:13Z</time>
      </trkpt>
      <trkpt lat="46.47965" lon="3.89983">
        <ele>233</ele>
        <time>2010-08-26T07:58:22Z</time>
      </trkpt>
      <trkpt lat="46.47977" lon="3.89904">
        <ele>233</ele>
        <time>2010-08-26T07:58:31Z</time>
      </trkpt>
      <trkpt lat="46.47983" lon="3.89826">
        <ele>233</ele>
        <time>2010-08-26T07:58:40Z</time>
      </trkpt>
      <trkpt lat="46.47985" lon="3.8975">
        <ele>233</ele>
        <time>2010-08-26T07:58:49Z</time>
      </trkpt>
      <trkpt lat="46.47983" lon="3.89676">
        <ele>233</ele>
        <time>2010-08-26T07:58:58Z</time>
      </trkpt>
      <trkpt lat="46.47977" lon="3.896">
        <ele>234</ele>
        <time>2010-08-26T07:59:07Z</time>
      </trkpt>
      <trkpt lat="46.47966" lon="3.89524">
        <ele>234</ele>
        <time>2010-08-26T07:59:16Z</time>
      </trkpt>
      <trkpt lat="46.47954" lon="3.8945">
        <ele>234</ele>
        <time>2010-08-26T07:59:25Z</time>
      </trkpt>
      <trkpt lat="46.4794" lon="3.89373">
        <ele>234</ele>
        <time>2010-08-26T07:59:34Z</time>
      </trkpt>
      <trkpt lat="46.47929" lon="3.893">
        <ele>234</ele>
        <time>2010-08-26T07:59:43Z</time>
      </trkpt>
      <trkpt lat="46.47912" lon="3.89224">
        <ele>234</ele>
        <time>2010-08-26T07:59:53Z</time>
      </trkpt>
      <trkpt lat="46.47915" lon="3.89144">
        <ele>235</ele>
        <time>2010-08-26T08:00:07Z</time>
      </trkpt>
      <trkpt lat="46.47918" lon="3.89073">
        <ele>235</ele>
        <time>2010-08-26T08:00:20Z</time>
      </trkpt>
      <trkpt lat="46.47921" lon="3.89001">
        <ele>235</ele>
        <time>2010-08-26T08:00:30Z</time>
      </trkpt>
      <trkpt lat="46.47931" lon="3.88923">
        <ele>234</ele>
        <time>2010-08-26T08:00:40Z</time>
      </trkpt>
      <trkpt lat="46.47946" lon="3.88851">
        <ele>234</ele>
        <time>2010-08-26T08:00:49Z</time>
      </trkpt>
      <trkpt lat="46.47966" lon="3.88782">
        <ele>234</ele>
        <time>2010-08-26T08:00:58Z</time>
      </trkpt>
      <trkpt lat="46.47987" lon="3.88709">
        <ele>234</ele>
        <time>2010-08-26T08:01:07Z</time>
      </trkpt>
      <trkpt lat="46.48012" lon="3.88643">
        <ele>233</ele>
        <time>2010-08-26T08:01:15Z</time>
      </trkpt>
      <trkpt lat="46.48034" lon="3.88572">
        <ele>232</ele>
        <time>2010-08-26T08:01:23Z</time>
      </trkpt>
      <trkpt lat="46.4805" lon="3.88495">
        <ele>233</ele>
        <time>2010-08-26T08:01:32Z</time>
      </trkpt>
      <trkpt lat="46.48061" lon="3.88419">
        <ele>233</ele>
        <time>2010-08-26T08:01:41Z</time>
      </trkpt>
      <trkpt lat="46.48069" lon="3.88343">
        <ele>232</ele>
        <time>2010-08-26T08:01:50Z</time>
      </trkpt>
      <trkpt lat="46.48069" lon="3.88265">
        <ele>232</ele>
        <time>2010-08-26T08:01:59Z</time>
      </trkpt>
      <trkpt lat="46.48068" lon="3.88188">
        <ele>232</ele>
        <time>2010-08-26T08:02:08Z</time>
      </trkpt>
      <trkpt lat="46.48067" lon="3.88107">
        <ele>233</ele>
        <time>2010-08-26T08:02:17Z</time>
      </trkpt>
      <trkpt lat="46.48067" lon="3.88025">
        <ele>234</ele>
        <time>2010-08-26T08:02:26Z</time>
      </trkpt>
      <trkpt lat="46.48067" lon="3.87946">
        <ele>234</ele>
        <time>2010-08-26T08:02:35Z</time>
      </trkpt>
      <trkpt lat="46.48066" lon="3.87867">
        <ele>234</ele>
        <time>2010-08-26T08:02:44Z</time>
      </trkpt>
      <trkpt lat="46.48066" lon="3.87789">
        <ele>234</ele>
        <time>2010-08-26T08:02:53Z</time>
      </trkpt>
      <trkpt lat="46.48066" lon="3.87713">
        <ele>234</ele>
        <time>2010-08-26T08:03:02Z</time>
      </trkpt>
      <trkpt lat="46.48065" lon="3.87637">
        <ele>235</ele>
        <time>2010-08-26T08:03:11Z</time>
      </trkpt>
      <trkpt lat="46.48065" lon="3.87561">
        <ele>235</ele>
        <time>2010-08-26T08:03:20Z</time>
      </trkpt>
      <trkpt lat="46.48065" lon="3.87482">
        <ele>234</ele>
        <time>2010-08-26T08:03:30Z</time>
      </trkpt>
      <trkpt lat="46.48064" lon="3.87408">
        <ele>234</ele>
        <time>2010-08-26T08:03:43Z</time>
      </trkpt>
      <trkpt lat="46.48063" lon="3.87338">
        <ele>234</ele>
        <time>2010-08-26T08:03:58Z</time>
      </trkpt>
      <trkpt lat="46.48064" lon="3.87266">
        <ele>232</ele>
        <time>2010-08-26T08:04:10Z</time>
      </trkpt>
      <trkpt lat="46.48064" lon="3.87187">
        <ele>231</ele>
        <time>2010-08-26T08:04:21Z</time>
      </trkpt>
      <trkpt lat="46.48066" lon="3.8711">
        <ele>231</ele>
        <time>2010-08-26T08:04:36Z</time>
      </trkpt>
      <trkpt lat="46.48071" lon="3.87033">
        <ele>232</ele>
        <time>2010-08-26T08:04:47Z</time>
      </trkpt>
      <trkpt lat="46.48081" lon="3.86956">
        <ele>232</ele>
        <time>2010-08-26T08:04:57Z</time>
      </trkpt>
      <trkpt lat="46.48098" lon="3.86881">
        <ele>231</ele>
        <time>2010-08-26T08:05:07Z</time>
      </trkpt>
      <trkpt lat="46.48117" lon="3.86811">
        <ele>230</ele>
        <time>2010-08-26T08:05:16Z</time>
      </trkpt>
      <trkpt lat="46.4814" lon="3.86741">
        <ele>229</ele>
        <time>2010-08-26T08:05:25Z</time>
      </trkpt>
      <trkpt lat="46.48166" lon="3.86673">
        <ele>228</ele>
        <time>2010-08-26T08:05:34Z</time>
      </trkpt>
      <trkpt lat="46.48193" lon="3.86604">
        <ele>228</ele>
        <time>2010-08-26T08:05:43Z</time>
      </trkpt>
      <trkpt lat="46.48221" lon="3.86533">
        <ele>227</ele>
        <time>2010-08-26T08:05:52Z</time>
      </trkpt>
      <trkpt lat="46.4825" lon="3.86463">
        <ele>226</ele>
        <time>2010-08-26T08:06:01Z</time>
      </trkpt>
      <trkpt lat="46.48277" lon="3.86393">
        <ele>227</ele>
        <time>2010-08-26T08:06:10Z</time>
      </trkpt>
      <trkpt lat="46.48304" lon="3.86325">
        <ele>227</ele>
        <time>2010-08-26T08:06:19Z</time>
      </trkpt>
      <trkpt lat="46.48333" lon="3.86258">
        <ele>227</ele>
        <time>2010-08-26T08:06:28Z</time>
      </trkpt>
      <trkpt lat="46.48362" lon="3.86189">
        <ele>227</ele>
        <time>2010-08-26T08:06:37Z</time>
      </trkpt>
      <trkpt lat="46.4839" lon="3.86119">
        <ele>228</ele>
        <time>2010-08-26T08:06:46Z</time>
      </trkpt>
      <trkpt lat="46.48418" lon="3.8605">
        <ele>229</ele>
        <time>2010-08-26T08:06:55Z</time>
      </trkpt>
      <trkpt lat="46.48445" lon="3.8598">
        <ele>228</ele>
        <time>2010-08-26T08:07:04Z</time>
      </trkpt>
      <trkpt lat="46.48469" lon="3.85907">
        <ele>229</ele>
        <time>2010-08-26T08:07:13Z</time>
      </trkpt>
      <trkpt lat="46.48484" lon="3.85836">
        <ele>229</ele>
        <time>2010-08-26T08:07:22Z</time>
      </trkpt>
      <trkpt lat="46.48502" lon="3.85765">
        <ele>230</ele>
        <time>2010-08-26T08:07:32Z</time>
      </trkpt>
      <trkpt lat="46.48519" lon="3.85695">
        <ele>229</ele>
        <time>2010-08-26T08:12:53Z</time>
      </trkpt>
      <trkpt lat="46.48538" lon="3.85626">
        <ele>227</ele>
        <time>2010-08-26T08:13:08Z</time>
      </trkpt>
      <trkpt lat="46.48561" lon="3.85555">
        <ele>226</ele>
        <time>2010-08-26T08:13:19Z</time>
      </trkpt>
      <trkpt lat="46.48587" lon="3.8549">
        <ele>225</ele>
        <time>2010-08-26T08:13:29Z</time>
      </trkpt>
      <trkpt lat="46.48616" lon="3.85427">
        <ele>225</ele>
        <time>2010-08-26T08:13:39Z</time>
      </trkpt>
      <trkpt lat="46.48648" lon="3.85366">
        <ele>225</ele>
        <time>2010-08-26T08:13:49Z</time>
      </trkpt>
      <trkpt lat="46.48684" lon="3.85308">
        <ele>225</ele>
        <time>2010-08-26T08:13:59Z</time>
      </trkpt>
      <trkpt lat="46.48721" lon="3.85258">
        <ele>226</ele>
        <time>2010-08-26T08:14:08Z</time>
      </trkpt>
      <trkpt lat="46.48764" lon="3.85211">
        <ele>227</ele>
        <time>2010-08-26T08:14:17Z</time>
      </trkpt>
      <trkpt lat="46.48808" lon="3.85167">
        <ele>227</ele>
        <time>2010-08-26T08:14:26Z</time>
      </trkpt>
      <trkpt lat="46.48852" lon="3.85123">
        <ele>227</ele>
        <time>2010-08-26T08:14:35Z</time>
      </trkpt>
      <trkpt lat="46.48895" lon="3.85081">
        <ele>226</ele>
        <time>2010-08-26T08:14:44Z</time>
      </trkpt>
      <trkpt lat="46.48936" lon="3.85038">
        <ele>225</ele>
        <time>2010-08-26T08:14:53Z</time>
      </trkpt>
      <trkpt lat="46.48979" lon="3.84983">
        <ele>223</ele>
        <time>2010-08-26T08:15:03Z</time>
      </trkpt>
      <trkpt lat="46.49016" lon="3.84928">
        <ele>224</ele>
        <time>2010-08-26T08:15:12Z</time>
      </trkpt>
      <trkpt lat="46.4905" lon="3.84868">
        <ele>224</ele>
        <time>2010-08-26T08:15:21Z</time>
      </trkpt>
      <trkpt lat="46.49082" lon="3.84805">
        <ele>225</ele>
        <time>2010-08-26T08:15:30Z</time>
      </trkpt>
      <trkpt lat="46.4911" lon="3.8474">
        <ele>227</ele>
        <time>2010-08-26T08:15:39Z</time>
      </trkpt>
      <trkpt lat="46.49138" lon="3.84675">
        <ele>226</ele>
        <time>2010-08-26T08:15:48Z</time>
      </trkpt>
      <trkpt lat="46.49166" lon="3.84609">
        <ele>226</ele>
        <time>2010-08-26T08:15:57Z</time>
      </trkpt>
      <trkpt lat="46.49194" lon="3.84542">
        <ele>225</ele>
        <time>2010-08-26T08:16:06Z</time>
      </trkpt>
      <trkpt lat="46.49224" lon="3.84475">
        <ele>224</ele>
        <time>2010-08-26T08:16:15Z</time>
      </trkpt>
      <trkpt lat="46.49254" lon="3.84409">
        <ele>225</ele>
        <time>2010-08-26T08:16:24Z</time>
      </trkpt>
      <trkpt lat="46.49284" lon="3.84343">
        <ele>225</ele>
        <time>2010-08-26T08:16:33Z</time>
      </trkpt>
      <trkpt lat="46.49315" lon="3.84278">
        <ele>226</ele>
        <time>2010-08-26T08:16:42Z</time>
      </trkpt>
      <trkpt lat="46.49346" lon="3.84215">
        <ele>226</ele>
        <time>2010-08-26T08:16:51Z</time>
      </trkpt>
      <trkpt lat="46.49379" lon="3.84159">
        <ele>229</ele>
        <time>2010-08-26T08:17:06Z</time>
      </trkpt>
      <trkpt lat="46.49407" lon="3.84101">
        <ele>228</ele>
        <time>2010-08-26T08:17:24Z</time>
      </trkpt>
      <trkpt lat="46.49436" lon="3.84038">
        <ele>228</ele>
        <time>2010-08-26T08:17:34Z</time>
      </trkpt>
      <trkpt lat="46.49467" lon="3.83977">
        <ele>229</ele>
        <time>2010-08-26T08:17:46Z</time>
      </trkpt>
      <trkpt lat="46.49494" lon="3.83916">
        <ele>229</ele>
        <time>2010-08-26T08:17:59Z</time>
      </trkpt>
      <trkpt lat="46.49528" lon="3.83861">
        <ele>228</ele>
        <time>2010-08-26T08:18:11Z</time>
      </trkpt>
      <trkpt lat="46.49562" lon="3.83798">
        <ele>227</ele>
        <time>2010-08-26T08:18:21Z</time>
      </trkpt>
      <trkpt lat="46.49593" lon="3.83737">
        <ele>227</ele>
        <time>2010-08-26T08:18:33Z</time>
      </trkpt>
      <trkpt lat="46.49623" lon="3.83682">
        <ele>226</ele>
        <time>2010-08-26T08:18:46Z</time>
      </trkpt>
      <trkpt lat="46.49658" lon="3.83619">
        <ele>226</ele>
        <time>2010-08-26T08:18:56Z</time>
      </trkpt>
      <trkpt lat="46.49691" lon="3.83558">
        <ele>225</ele>
        <time>2010-08-26T08:19:05Z</time>
      </trkpt>
      <trkpt lat="46.49725" lon="3.83495">
        <ele>225</ele>
        <time>2010-08-26T08:19:14Z</time>
      </trkpt>
      <trkpt lat="46.49758" lon="3.83431">
        <ele>226</ele>
        <time>2010-08-26T08:19:23Z</time>
      </trkpt>
      <trkpt lat="46.49792" lon="3.83367">
        <ele>226</ele>
        <time>2010-08-26T08:19:32Z</time>
      </trkpt>
      <trkpt lat="46.49826" lon="3.83304">
        <ele>226</ele>
        <time>2010-08-26T08:19:41Z</time>
      </trkpt>
      <trkpt lat="46.4986" lon="3.83239">
        <ele>226</ele>
        <time>2010-08-26T08:19:50Z</time>
      </trkpt>
      <trkpt lat="46.49893" lon="3.83174">
        <ele>226</ele>
        <time>2010-08-26T08:19:59Z</time>
      </trkpt>
      <trkpt lat="46.49928" lon="3.83108">
        <ele>226</ele>
        <time>2010-08-26T08:20:08Z</time>
      </trkpt>
      <trkpt lat="46.49959" lon="3.83048">
        <ele>226</ele>
        <time>2010-08-26T08:20:16Z</time>
      </trkpt>
      <trkpt lat="46.49989" lon="3.82989">
        <ele>226</ele>
        <time>2010-08-26T08:20:24Z</time>
      </trkpt>
      <trkpt lat="46.50021" lon="3.82919">
        <ele>225</ele>
        <time>2010-08-26T08:20:33Z</time>
      </trkpt>
      <trkpt lat="46.50051" lon="3.82846">
        <ele>224</ele>
        <time>2010-08-26T08:20:42Z</time>
      </trkpt>
      <trkpt lat="46.5008" lon="3.82775">
        <ele>224</ele>
        <time>2010-08-26T08:20:51Z</time>
      </trkpt>
      <trkpt lat="46.50107" lon="3.82706">
        <ele>225</ele>
        <time>2010-08-26T08:21:00Z</time>
      </trkpt>
      <trkpt lat="46.50134" lon="3.8264">
        <ele>225</ele>
        <time>2010-08-26T08:21:09Z</time>
      </trkpt>
      <trkpt lat="46.50158" lon="3.82574">
        <ele>225</ele>
        <time>2010-08-26T08:21:18Z</time>
      </trkpt>
      <trkpt lat="46.50187" lon="3.82511">
        <ele>237</ele>
        <time>2010-08-26T08:28:43Z</time>
      </trkpt>
      <trkpt lat="46.50214" lon="3.82444">
        <ele>235</ele>
        <time>2010-08-26T08:28:55Z</time>
      </trkpt>
      <trkpt lat="46.50239" lon="3.82377">
        <ele>234</ele>
        <time>2010-08-26T08:29:05Z</time>
      </trkpt>
      <trkpt lat="46.50266" lon="3.82309">
        <ele>233</ele>
        <time>2010-08-26T08:29:15Z</time>
      </trkpt>
      <trkpt lat="46.50294" lon="3.82238">
        <ele>231</ele>
        <time>2010-08-26T08:29:25Z</time>
      </trkpt>
      <trkpt lat="46.50319" lon="3.82173">
        <ele>230</ele>
        <time>2010-08-26T08:29:34Z</time>
      </trkpt>
      <trkpt lat="46.50344" lon="3.82107">
        <ele>228</ele>
        <time>2010-08-26T08:29:43Z</time>
      </trkpt>
      <trkpt lat="46.5037" lon="3.82041">
        <ele>227</ele>
        <time>2010-08-26T08:29:52Z</time>
      </trkpt>
      <trkpt lat="46.50395" lon="3.81977">
        <ele>226</ele>
        <time>2010-08-26T08:30:01Z</time>
      </trkpt>
      <trkpt lat="46.5042" lon="3.81912">
        <ele>226</ele>
        <time>2010-08-26T08:30:10Z</time>
      </trkpt>
      <trkpt lat="46.50447" lon="3.81841">
        <ele>225</ele>
        <time>2010-08-26T08:30:20Z</time>
      </trkpt>
      <trkpt lat="46.50472" lon="3.81775">
        <ele>223</ele>
        <time>2010-08-26T08:30:29Z</time>
      </trkpt>
      <trkpt lat="46.50498" lon="3.81709">
        <ele>223</ele>
        <time>2010-08-26T08:30:38Z</time>
      </trkpt>
      <trkpt lat="46.50527" lon="3.81639">
        <ele>224</ele>
        <time>2010-08-26T08:30:48Z</time>
      </trkpt>
      <trkpt lat="46.50552" lon="3.81573">
        <ele>224</ele>
        <time>2010-08-26T08:30:57Z</time>
      </trkpt>
      <trkpt lat="46.50581" lon="3.81504">
        <ele>225</ele>
        <time>2010-08-26T08:31:07Z</time>
      </trkpt>
      <trkpt lat="46.50607" lon="3.81435">
        <ele>225</ele>
        <time>2010-08-26T08:31:16Z</time>
      </trkpt>
      <trkpt lat="46.50632" lon="3.81369">
        <ele>225</ele>
        <time>2010-08-26T08:31:25Z</time>
      </trkpt>
      <trkpt lat="46.50659" lon="3.81297">
        <ele>226</ele>
        <time>2010-08-26T08:31:35Z</time>
      </trkpt>
      <trkpt lat="46.50687" lon="3.8123">
        <ele>226</ele>
        <time>2010-08-26T08:31:44Z</time>
      </trkpt>
      <trkpt lat="46.50715" lon="3.81162">
        <ele>226</ele>
        <time>2010-08-26T08:31:53Z</time>
      </trkpt>
      <trkpt lat="46.50742" lon="3.81096">
        <ele>227</ele>
        <time>2010-08-26T08:32:02Z</time>
      </trkpt>
      <trkpt lat="46.50769" lon="3.8103">
        <ele>226</ele>
        <time>2010-08-26T08:32:11Z</time>
      </trkpt>
      <trkpt lat="46.50797" lon="3.80963">
        <ele>225</ele>
        <time>2010-08-26T08:32:20Z</time>
      </trkpt>
      <trkpt lat="46.50824" lon="3.80895">
        <ele>225</ele>
        <time>2010-08-26T08:32:29Z</time>
      </trkpt>
      <trkpt lat="46.50851" lon="3.80827">
        <ele>225</ele>
        <time>2010-08-26T08:32:38Z</time>
      </trkpt>
      <trkpt lat="46.50877" lon="3.80761">
        <ele>225</ele>
        <time>2010-08-26T08:32:47Z</time>
      </trkpt>
      <trkpt lat="46.50904" lon="3.80696">
        <ele>225</ele>
        <time>2010-08-26T08:32:56Z</time>
      </trkpt>
      <trkpt lat="46.50933" lon="3.80629">
        <ele>226</ele>
        <time>2010-08-26T08:33:05Z</time>
      </trkpt>
      <trkpt lat="46.50967" lon="3.80573">
        <ele>227</ele>
        <time>2010-08-26T08:33:14Z</time>
      </trkpt>
      <trkpt lat="46.51006" lon="3.8052">
        <ele>227</ele>
        <time>2010-08-26T08:33:23Z</time>
      </trkpt>
      <trkpt lat="46.51052" lon="3.80475">
        <ele>226</ele>
        <time>2010-08-26T08:33:32Z</time>
      </trkpt>
      <trkpt lat="46.51096" lon="3.80429">
        <ele>226</ele>
        <time>2010-08-26T08:33:41Z</time>
      </trkpt>
      <trkpt lat="46.51138" lon="3.8038">
        <ele>227</ele>
        <time>2010-08-26T08:33:50Z</time>
      </trkpt>
      <trkpt lat="46.51142" lon="3.80376">
        <ele>227</ele>
        <time>2010-08-26T08:33:51Z</time>
      </trkpt>
      <trkpt lat="46.5118" lon="3.80328">
        <ele>228</ele>
        <time>2010-08-26T08:34:01Z</time>
      </trkpt>
      <trkpt lat="46.51212" lon="3.80258">
        <ele>227</ele>
        <time>2010-08-26T08:34:10Z</time>
      </trkpt>
      <trkpt lat="46.51239" lon="3.8019">
        <ele>227</ele>
        <time>2010-08-26T08:34:19Z</time>
      </trkpt>
      <trkpt lat="46.51262" lon="3.80116">
        <ele>228</ele>
        <time>2010-08-26T08:34:29Z</time>
      </trkpt>
      <trkpt lat="46.51292" lon="3.80046">
        <ele>228</ele>
        <time>2010-08-26T08:34:38Z</time>
      </trkpt>
      <trkpt lat="46.5132" lon="3.79978">
        <ele>228</ele>
        <time>2010-08-26T08:34:47Z</time>
      </trkpt>
      <trkpt lat="46.51349" lon="3.7991">
        <ele>228</ele>
        <time>2010-08-26T08:34:56Z</time>
      </trkpt>
      <trkpt lat="46.51377" lon="3.7984">
        <ele>228</ele>
        <time>2010-08-26T08:35:05Z</time>
      </trkpt>
      <trkpt lat="46.51407" lon="3.7977">
        <ele>227</ele>
        <time>2010-08-26T08:35:14Z</time>
      </trkpt>
      <trkpt lat="46.51435" lon="3.79704">
        <ele>226</ele>
        <time>2010-08-26T08:35:23Z</time>
      </trkpt>
      <trkpt lat="46.5146" lon="3.79635">
        <ele>226</ele>
        <time>2010-08-26T08:35:36Z</time>
      </trkpt>
      <trkpt lat="46.5149" lon="3.79571">
        <ele>224</ele>
        <time>2010-08-26T08:35:46Z</time>
      </trkpt>
      <trkpt lat="46.5152" lon="3.795">
        <ele>223</ele>
        <time>2010-08-26T08:35:55Z</time>
      </trkpt>
      <trkpt lat="46.51547" lon="3.79433">
        <ele>222</ele>
        <time>2010-08-26T08:36:04Z</time>
      </trkpt>
      <trkpt lat="46.51573" lon="3.79364">
        <ele>222</ele>
        <time>2010-08-26T08:36:13Z</time>
      </trkpt>
      <trkpt lat="46.516" lon="3.79296">
        <ele>222</ele>
        <time>2010-08-26T08:36:22Z</time>
      </trkpt>
      <trkpt lat="46.51626" lon="3.79229">
        <ele>222</ele>
        <time>2010-08-26T08:36:31Z</time>
      </trkpt>
      <trkpt lat="46.51653" lon="3.79162">
        <ele>221</ele>
        <time>2010-08-26T08:36:40Z</time>
      </trkpt>
      <trkpt lat="46.51679" lon="3.79096">
        <ele>221</ele>
        <time>2010-08-26T08:36:49Z</time>
      </trkpt>
      <trkpt lat="46.51708" lon="3.79031">
        <ele>221</ele>
        <time>2010-08-26T08:36:59Z</time>
      </trkpt>
      <trkpt lat="46.51735" lon="3.7897">
        <ele>226</ele>
        <time>2010-08-26T08:37:16Z</time>
      </trkpt>
      <trkpt lat="46.51757" lon="3.78902">
        <ele>223</ele>
        <time>2010-08-26T08:37:27Z</time>
      </trkpt>
      <trkpt lat="46.51783" lon="3.78833">
        <ele>222</ele>
        <time>2010-08-26T08:37:36Z</time>
      </trkpt>
      <trkpt lat="46.51808" lon="3.78765">
        <ele>222</ele>
        <time>2010-08-26T08:37:45Z</time>
      </trkpt>
      <trkpt lat="46.51833" lon="3.78697">
        <ele>222</ele>
        <time>2010-08-26T08:37:54Z</time>
      </trkpt>
      <trkpt lat="46.51859" lon="3.78628">
        <ele>221</ele>
        <time>2010-08-26T08:38:03Z</time>
      </trkpt>
      <trkpt lat="46.51885" lon="3.78558">
        <ele>220</ele>
        <time>2010-08-26T08:38:12Z</time>
      </trkpt>
      <trkpt lat="46.51911" lon="3.78486">
        <ele>220</ele>
        <time>2010-08-26T08:38:21Z</time>
      </trkpt>
      <trkpt lat="46.51936" lon="3.78419">
        <ele>221</ele>
        <time>2010-08-26T08:38:30Z</time>
      </trkpt>
      <trkpt lat="46.5196" lon="3.78348">
        <ele>222</ele>
        <time>2010-08-26T08:38:39Z</time>
      </trkpt>
      <trkpt lat="46.51985" lon="3.78275">
        <ele>222</ele>
        <time>2010-08-26T08:38:48Z</time>
      </trkpt>
      <trkpt lat="46.5201" lon="3.78205">
        <ele>222</ele>
        <time>2010-08-26T08:38:57Z</time>
      </trkpt>
      <trkpt lat="46.52039" lon="3.78137">
        <ele>223</ele>
        <time>2010-08-26T08:39:06Z</time>
      </trkpt>
      <trkpt lat="46.52069" lon="3.78074">
        <ele>224</ele>
        <time>2010-08-26T08:39:15Z</time>
      </trkpt>
      <trkpt lat="46.52103" lon="3.78017">
        <ele>224</ele>
        <time>2010-08-26T08:39:24Z</time>
      </trkpt>
      <trkpt lat="46.52142" lon="3.77963">
        <ele>224</ele>
        <time>2010-08-26T08:39:33Z</time>
      </trkpt>
      <trkpt lat="46.52184" lon="3.77915">
        <ele>222</ele>
        <time>2010-08-26T08:39:42Z</time>
      </trkpt>
      <trkpt lat="46.52227" lon="3.77869">
        <ele>221</ele>
        <time>2010-08-26T08:39:51Z</time>
      </trkpt>
      <trkpt lat="46.52272" lon="3.77822">
        <ele>221</ele>
        <time>2010-08-26T08:40:00Z</time>
      </trkpt>
      <trkpt lat="46.52316" lon="3.77775">
        <ele>222</ele>
        <time>2010-08-26T08:40:09Z</time>
      </trkpt>
      <trkpt lat="46.5236" lon="3.77728">
        <ele>221</ele>
        <time>2010-08-26T08:40:18Z</time>
      </trkpt>
      <trkpt lat="46.52401" lon="3.77683">
        <ele>221</ele>
        <time>2010-08-26T08:40:27Z</time>
      </trkpt>
      <trkpt lat="46.52446" lon="3.77636">
        <ele>222</ele>
        <time>2010-08-26T08:40:37Z</time>
      </trkpt>
      <trkpt lat="46.52487" lon="3.7759">
        <ele>222</ele>
        <time>2010-08-26T08:40:49Z</time>
      </trkpt>
      <trkpt lat="46.52527" lon="3.77551">
        <ele>223</ele>
        <time>2010-08-26T08:41:06Z</time>
      </trkpt>
      <trkpt lat="46.52576" lon="3.77524">
        <ele>221</ele>
        <time>2010-08-26T08:41:17Z</time>
      </trkpt>
      <trkpt lat="46.52622" lon="3.77476">
        <ele>218</ele>
        <time>2010-08-26T08:41:25Z</time>
      </trkpt>
      <trkpt lat="46.52665" lon="3.77429">
        <ele>218</ele>
        <time>2010-08-26T08:41:33Z</time>
      </trkpt>
      <trkpt lat="46.52707" lon="3.77384">
        <ele>218</ele>
        <time>2010-08-26T08:41:41Z</time>
      </trkpt>
      <trkpt lat="46.52754" lon="3.77335">
        <ele>218</ele>
        <time>2010-08-26T08:41:50Z</time>
      </trkpt>
      <trkpt lat="46.528" lon="3.77286">
        <ele>219</ele>
        <time>2010-08-26T08:41:59Z</time>
      </trkpt>
      <trkpt lat="46.52843" lon="3.77241">
        <ele>221</ele>
        <time>2010-08-26T08:42:08Z</time>
      </trkpt>
      <trkpt lat="46.52887" lon="3.77193">
        <ele>221</ele>
        <time>2010-08-26T08:42:17Z</time>
      </trkpt>
      <trkpt lat="46.52931" lon="3.77143">
        <ele>219</ele>
        <time>2010-08-26T08:42:26Z</time>
      </trkpt>
      <trkpt lat="46.52975" lon="3.77099">
        <ele>220</ele>
        <time>2010-08-26T08:42:35Z</time>
      </trkpt>
      <trkpt lat="46.5302" lon="3.77052">
        <ele>220</ele>
        <time>2010-08-26T08:42:44Z</time>
      </trkpt>
      <trkpt lat="46.53065" lon="3.77004">
        <ele>220</ele>
        <time>2010-08-26T08:42:53Z</time>
      </trkpt>
      <trkpt lat="46.5311" lon="3.76953">
        <ele>219</ele>
        <time>2010-08-26T08:43:02Z</time>
      </trkpt>
      <trkpt lat="46.53148" lon="3.769">
        <ele>220</ele>
        <time>2010-08-26T08:43:12Z</time>
      </trkpt>
      <trkpt lat="46.5319" lon="3.76856">
        <ele>221</ele>
        <time>2010-08-26T08:43:26Z</time>
      </trkpt>
      <trkpt lat="46.53231" lon="3.76808">
        <ele>217</ele>
        <time>2010-08-26T08:43:41Z</time>
      </trkpt>
      <trkpt lat="46.53276" lon="3.76778">
        <ele>218</ele>
        <time>2010-08-26T08:43:59Z</time>
      </trkpt>
      <trkpt lat="46.53323" lon="3.76749">
        <ele>217</ele>
        <time>2010-08-26T08:44:12Z</time>
      </trkpt>
      <trkpt lat="46.53368" lon="3.76719">
        <ele>216</ele>
        <time>2010-08-26T08:44:23Z</time>
      </trkpt>
      <trkpt lat="46.53415" lon="3.76682">
        <ele>217</ele>
        <time>2010-08-26T08:44:34Z</time>
      </trkpt>
      <trkpt lat="46.53459" lon="3.7664">
        <ele>218</ele>
        <time>2010-08-26T08:44:44Z</time>
      </trkpt>
      <trkpt lat="46.53502" lon="3.76589">
        <ele>218</ele>
        <time>2010-08-26T08:44:54Z</time>
      </trkpt>
      <trkpt lat="46.53539" lon="3.76539">
        <ele>218</ele>
        <time>2010-08-26T08:45:03Z</time>
      </trkpt>
      <trkpt lat="46.53579" lon="3.76483">
        <ele>218</ele>
        <time>2010-08-26T08:45:13Z</time>
      </trkpt>
      <trkpt lat="46.53617" lon="3.76427">
        <ele>217</ele>
        <time>2010-08-26T08:45:23Z</time>
      </trkpt>
      <trkpt lat="46.5364" lon="3.76357">
        <ele>218</ele>
        <time>2010-08-26T08:45:33Z</time>
      </trkpt>
      <trkpt lat="46.53647" lon="3.76278">
        <ele>219</ele>
        <time>2010-08-26T08:45:43Z</time>
      </trkpt>
      <trkpt lat="46.53656" lon="3.76203">
        <ele>221</ele>
        <time>2010-08-26T08:45:53Z</time>
      </trkpt>
      <trkpt lat="46.53646" lon="3.76131">
        <ele>223</ele>
        <time>2010-08-26T08:46:06Z</time>
      </trkpt>
      <trkpt lat="46.53675" lon="3.76075">
        <ele>222</ele>
        <time>2010-08-26T08:50:07Z</time>
      </trkpt>
      <trkpt lat="46.53726" lon="3.76066">
        <ele>223</ele>
        <time>2010-08-26T08:50:22Z</time>
      </trkpt>
      <trkpt lat="46.53775" lon="3.7606">
        <ele>223</ele>
        <time>2010-08-26T08:50:37Z</time>
      </trkpt>
      <trkpt lat="46.53825" lon="3.76054">
        <ele>225</ele>
        <time>2010-08-26T08:56:00Z</time>
      </trkpt>
      <trkpt lat="46.53877" lon="3.76046">
        <ele>225</ele>
        <time>2010-08-26T08:56:13Z</time>
      </trkpt>
      <trkpt lat="46.53926" lon="3.76046">
        <ele>221</ele>
        <time>2010-08-26T08:56:32Z</time>
      </trkpt>
      <trkpt lat="46.53967" lon="3.76001">
        <ele>220</ele>
        <time>2010-08-26T08:56:43Z</time>
      </trkpt>
      <trkpt lat="46.53938" lon="3.75947">
        <ele>222</ele>
        <time>2010-08-26T08:57:14Z</time>
      </trkpt>
      <trkpt lat="46.53938" lon="3.75874">
        <ele>220</ele>
        <time>2010-08-26T09:22:23Z</time>
      </trkpt>
      <trkpt lat="46.53934" lon="3.75796">
        <ele>216</ele>
        <time>2010-08-26T09:22:34Z</time>
      </trkpt>
      <trkpt lat="46.53931" lon="3.75721">
        <ele>214</ele>
        <time>2010-08-26T09:22:44Z</time>
      </trkpt>
      <trkpt lat="46.53928" lon="3.75642">
        <ele>213</ele>
        <time>2010-08-26T09:22:54Z</time>
      </trkpt>
      <trkpt lat="46.53924" lon="3.75568">
        <ele>215</ele>
        <time>2010-08-26T09:23:03Z</time>
      </trkpt>
      <trkpt lat="46.53921" lon="3.7549">
        <ele>215</ele>
        <time>2010-08-26T09:23:12Z</time>
      </trkpt>
      <trkpt lat="46.53917" lon="3.75411">
        <ele>215</ele>
        <time>2010-08-26T09:23:21Z</time>
      </trkpt>
      <trkpt lat="46.5392" lon="3.75329">
        <ele>217</ele>
        <time>2010-08-26T09:23:30Z</time>
      </trkpt>
      <trkpt lat="46.5393" lon="3.75255">
        <ele>218</ele>
        <time>2010-08-26T09:23:38Z</time>
      </trkpt>
      <trkpt lat="46.53948" lon="3.75175">
        <ele>218</ele>
        <time>2010-08-26T09:23:47Z</time>
      </trkpt>
      <trkpt lat="46.53976" lon="3.75103">
        <ele>218</ele>
        <time>2010-08-26T09:23:56Z</time>
      </trkpt>
      <trkpt lat="46.54011" lon="3.75039">
        <ele>219</ele>
        <time>2010-08-26T09:24:05Z</time>
      </trkpt>
      <trkpt lat="46.5405" lon="3.74984">
        <ele>218</ele>
        <time>2010-08-26T09:24:14Z</time>
      </trkpt>
      <trkpt lat="46.54089" lon="3.74935">
        <ele>218</ele>
        <time>2010-08-26T09:24:24Z</time>
      </trkpt>
      <trkpt lat="46.54127" lon="3.74884">
        <ele>216</ele>
        <time>2010-08-26T09:24:37Z</time>
      </trkpt>
      <trkpt lat="46.54163" lon="3.74836">
        <ele>216</ele>
        <time>2010-08-26T09:24:54Z</time>
      </trkpt>
      <trkpt lat="46.54202" lon="3.74785">
        <ele>217</ele>
        <time>2010-08-26T09:25:05Z</time>
      </trkpt>
      <trkpt lat="46.5424" lon="3.74738">
        <ele>218</ele>
        <time>2010-08-26T09:25:14Z</time>
      </trkpt>
      <trkpt lat="46.54282" lon="3.74691">
        <ele>218</ele>
        <time>2010-08-26T09:25:23Z</time>
      </trkpt>
      <trkpt lat="46.54325" lon="3.74645">
        <ele>218</ele>
        <time>2010-08-26T09:25:32Z</time>
      </trkpt>
      <trkpt lat="46.5437" lon="3.74596">
        <ele>221</ele>
        <time>2010-08-26T09:25:42Z</time>
      </trkpt>
      <trkpt lat="46.54411" lon="3.74553">
        <ele>223</ele>
        <time>2010-08-26T09:25:54Z</time>
      </trkpt>
      <trkpt lat="46.54451" lon="3.7451">
        <ele>221</ele>
        <time>2010-08-26T09:26:07Z</time>
      </trkpt>
      <trkpt lat="46.54494" lon="3.74465">
        <ele>220</ele>
        <time>2010-08-26T09:26:16Z</time>
      </trkpt>
      <trkpt lat="46.5454" lon="3.74417">
        <ele>219</ele>
        <time>2010-08-26T09:26:25Z</time>
      </trkpt>
      <trkpt lat="46.54587" lon="3.74369">
        <ele>218</ele>
        <time>2010-08-26T09:26:34Z</time>
      </trkpt>
      <trkpt lat="46.54633" lon="3.74321">
        <ele>217</ele>
        <time>2010-08-26T09:26:43Z</time>
      </trkpt>
      <trkpt lat="46.54678" lon="3.74275">
        <ele>216</ele>
        <time>2010-08-26T09:26:52Z</time>
      </trkpt>
      <trkpt lat="46.54724" lon="3.74231">
        <ele>217</ele>
        <time>2010-08-26T09:27:01Z</time>
      </trkpt>
      <trkpt lat="46.54772" lon="3.74195">
        <ele>218</ele>
        <time>2010-08-26T09:27:12Z</time>
      </trkpt>
      <trkpt lat="46.54818" lon="3.74172">
        <ele>219</ele>
        <time>2010-08-26T09:27:26Z</time>
      </trkpt>
      <trkpt lat="46.54868" lon="3.74154">
        <ele>219</ele>
        <time>2010-08-26T09:27:37Z</time>
      </trkpt>
      <trkpt lat="46.54921" lon="3.74145">
        <ele>220</ele>
        <time>2010-08-26T09:27:48Z</time>
      </trkpt>
      <trkpt lat="46.54974" lon="3.74147">
        <ele>220</ele>
        <time>2010-08-26T09:27:58Z</time>
      </trkpt>
      <trkpt lat="46.55027" lon="3.74155">
        <ele>220</ele>
        <time>2010-08-26T09:28:08Z</time>
      </trkpt>
      <trkpt lat="46.5508" lon="3.74174">
        <ele>219</ele>
        <time>2010-08-26T09:28:19Z</time>
      </trkpt>
      <trkpt lat="46.55128" lon="3.74198">
        <ele>220</ele>
        <time>2010-08-26T09:28:30Z</time>
      </trkpt>
      <trkpt lat="46.55178" lon="3.74226">
        <ele>221</ele>
        <time>2010-08-26T09:28:43Z</time>
      </trkpt>
      <trkpt lat="46.55228" lon="3.74254">
        <ele>220</ele>
        <time>2010-08-26T09:28:53Z</time>
      </trkpt>
      <trkpt lat="46.55281" lon="3.74282">
        <ele>220</ele>
        <time>2010-08-26T09:29:03Z</time>
      </trkpt>
      <trkpt lat="46.5533" lon="3.74309">
        <ele>219</ele>
        <time>2010-08-26T09:29:13Z</time>
      </trkpt>
      <trkpt lat="46.55379" lon="3.74332">
        <ele>216</ele>
        <time>2010-08-26T09:29:22Z</time>
      </trkpt>
      <trkpt lat="46.5543" lon="3.7436">
        <ele>218</ele>
        <time>2010-08-26T09:29:32Z</time>
      </trkpt>
      <trkpt lat="46.55482" lon="3.74389">
        <ele>221</ele>
        <time>2010-08-26T09:29:42Z</time>
      </trkpt>
      <trkpt lat="46.5553" lon="3.74417">
        <ele>223</ele>
        <time>2010-08-26T09:29:52Z</time>
      </trkpt>
      <trkpt lat="46.55577" lon="3.74444">
        <ele>224</ele>
        <time>2010-08-26T09:30:02Z</time>
      </trkpt>
      <trkpt lat="46.55627" lon="3.74472">
        <ele>223</ele>
        <time>2010-08-26T09:30:13Z</time>
      </trkpt>
      <trkpt lat="46.55674" lon="3.74498">
        <ele>226</ele>
        <time>2010-08-26T09:30:24Z</time>
      </trkpt>
      <trkpt lat="46.55723" lon="3.74523">
        <ele>227</ele>
        <time>2010-08-26T09:30:36Z</time>
      </trkpt>
      <trkpt lat="46.55771" lon="3.74549">
        <ele>227</ele>
        <time>2010-08-26T09:30:53Z</time>
      </trkpt>
      <trkpt lat="46.55819" lon="3.74576">
        <ele>228</ele>
        <time>2010-08-26T09:31:25Z</time>
      </trkpt>
      <trkpt lat="46.55867" lon="3.74601">
        <ele>227</ele>
        <time>2010-08-26T09:31:34Z</time>
      </trkpt>
      <trkpt lat="46.55915" lon="3.74624">
        <ele>227</ele>
        <time>2010-08-26T09:31:44Z</time>
      </trkpt>
      <trkpt lat="46.55964" lon="3.7465">
        <ele>227</ele>
        <time>2010-08-26T09:31:53Z</time>
      </trkpt>
      <trkpt lat="46.56015" lon="3.74679">
        <ele>228</ele>
        <time>2010-08-26T09:32:03Z</time>
      </trkpt>
      <trkpt lat="46.56062" lon="3.74706">
        <ele>227</ele>
        <time>2010-08-26T09:32:12Z</time>
      </trkpt>
      <trkpt lat="46.56113" lon="3.74734">
        <ele>227</ele>
        <time>2010-08-26T09:32:23Z</time>
      </trkpt>
      <trkpt lat="46.56161" lon="3.74759">
        <ele>227</ele>
        <time>2010-08-26T09:32:37Z</time>
      </trkpt>
      <trkpt lat="46.56211" lon="3.74786">
        <ele>227</ele>
        <time>2010-08-26T09:32:47Z</time>
      </trkpt>
      <trkpt lat="46.56261" lon="3.74814">
        <ele>228</ele>
        <time>2010-08-26T09:32:57Z</time>
      </trkpt>
      <trkpt lat="46.56313" lon="3.74842">
        <ele>228</ele>
        <time>2010-08-26T09:33:07Z</time>
      </trkpt>
      <trkpt lat="46.56363" lon="3.74869">
        <ele>229</ele>
        <time>2010-08-26T09:33:17Z</time>
      </trkpt>
      <trkpt lat="46.56413" lon="3.74897">
        <ele>228</ele>
        <time>2010-08-26T09:33:26Z</time>
      </trkpt>
      <trkpt lat="46.56466" lon="3.74927">
        <ele>228</ele>
        <time>2010-08-26T09:33:35Z</time>
      </trkpt>
      <trkpt lat="46.56518" lon="3.74954">
        <ele>228</ele>
        <time>2010-08-26T09:33:44Z</time>
      </trkpt>
      <trkpt lat="46.56567" lon="3.74974">
        <ele>228</ele>
        <time>2010-08-26T09:33:53Z</time>
      </trkpt>
      <trkpt lat="46.56617" lon="3.7499">
        <ele>228</ele>
        <time>2010-08-26T09:34:07Z</time>
      </trkpt>
      <trkpt lat="46.56668" lon="3.74999">
        <ele>227</ele>
        <time>2010-08-26T09:34:17Z</time>
      </trkpt>
      <trkpt lat="46.56723" lon="3.75">
        <ele>227</ele>
        <time>2010-08-26T09:34:26Z</time>
      </trkpt>
      <trkpt lat="46.56779" lon="3.74992">
        <ele>226</ele>
        <time>2010-08-26T09:34:35Z</time>
      </trkpt>
      <trkpt lat="46.56835" lon="3.74973">
        <ele>227</ele>
        <time>2010-08-26T09:34:44Z</time>
      </trkpt>
      <trkpt lat="46.56885" lon="3.74945">
        <ele>227</ele>
        <time>2010-08-26T09:34:54Z</time>
      </trkpt>
      <trkpt lat="46.5693" lon="3.74918">
        <ele>227</ele>
        <time>2010-08-26T09:35:14Z</time>
      </trkpt>
      <trkpt lat="46.56974" lon="3.74887">
        <ele>227</ele>
        <time>2010-08-26T09:35:37Z</time>
      </trkpt>
      <trkpt lat="46.5702" lon="3.74845">
        <ele>227</ele>
        <time>2010-08-26T09:35:48Z</time>
      </trkpt>
      <trkpt lat="46.57062" lon="3.74804">
        <ele>226</ele>
        <time>2010-08-26T09:35:57Z</time>
      </trkpt>
      <trkpt lat="46.57104" lon="3.7476">
        <ele>225</ele>
        <time>2010-08-26T09:36:06Z</time>
      </trkpt>
      <trkpt lat="46.57149" lon="3.7471">
        <ele>227</ele>
        <time>2010-08-26T09:36:16Z</time>
      </trkpt>
      <trkpt lat="46.57193" lon="3.74667">
        <ele>230</ele>
        <time>2010-08-26T09:36:25Z</time>
      </trkpt>
      <trkpt lat="46.57242" lon="3.74627">
        <ele>231</ele>
        <time>2010-08-26T09:36:34Z</time>
      </trkpt>
      <trkpt lat="46.57291" lon="3.746">
        <ele>231</ele>
        <time>2010-08-26T09:36:43Z</time>
      </trkpt>
      <trkpt lat="46.5734" lon="3.74577">
        <ele>233</ele>
        <time>2010-08-26T09:36:52Z</time>
      </trkpt>
      <trkpt lat="46.57393" lon="3.74564">
        <ele>234</ele>
        <time>2010-08-26T09:37:01Z</time>
      </trkpt>
      <trkpt lat="46.57447" lon="3.74559">
        <ele>231</ele>
        <time>2010-08-26T09:37:11Z</time>
      </trkpt>
      <trkpt lat="46.57501" lon="3.74555">
        <ele>228</ele>
        <time>2010-08-26T09:37:22Z</time>
      </trkpt>
      <trkpt lat="46.57553" lon="3.7455">
        <ele>227</ele>
        <time>2010-08-26T09:37:32Z</time>
      </trkpt>
      <trkpt lat="46.5761" lon="3.74544">
        <ele>225</ele>
        <time>2010-08-26T09:37:42Z</time>
      </trkpt>
      <trkpt lat="46.57663" lon="3.74539">
        <ele>225</ele>
        <time>2010-08-26T09:37:51Z</time>
      </trkpt>
      <trkpt lat="46.57719" lon="3.74534">
        <ele>222</ele>
        <time>2010-08-26T09:38:01Z</time>
      </trkpt>
      <trkpt lat="46.57771" lon="3.74528">
        <ele>221</ele>
        <time>2010-08-26T09:38:09Z</time>
      </trkpt>
      <trkpt lat="46.57827" lon="3.74522">
        <ele>222</ele>
        <time>2010-08-26T09:38:17Z</time>
      </trkpt>
      <trkpt lat="46.57883" lon="3.74518">
        <ele>223</ele>
        <time>2010-08-26T09:38:25Z</time>
      </trkpt>
      <trkpt lat="46.57936" lon="3.74519">
        <ele>223</ele>
        <time>2010-08-26T09:38:32Z</time>
      </trkpt>
      <trkpt lat="46.57995" lon="3.74522">
        <ele>221</ele>
        <time>2010-08-26T09:38:40Z</time>
      </trkpt>
      <trkpt lat="46.58049" lon="3.74524">
        <ele>220</ele>
        <time>2010-08-26T09:38:48Z</time>
      </trkpt>
      <trkpt lat="46.58105" lon="3.74527">
        <ele>220</ele>
        <time>2010-08-26T09:38:57Z</time>
      </trkpt>
      <trkpt lat="46.58159" lon="3.7453">
        <ele>219</ele>
        <time>2010-08-26T09:39:07Z</time>
      </trkpt>
      <trkpt lat="46.5821" lon="3.7453">
        <ele>219</ele>
        <time>2010-08-26T09:39:19Z</time>
      </trkpt>
      <trkpt lat="46.5826" lon="3.74531">
        <ele>220</ele>
        <time>2010-08-26T09:39:30Z</time>
      </trkpt>
      <trkpt lat="46.58316" lon="3.74533">
        <ele>219</ele>
        <time>2010-08-26T09:39:40Z</time>
      </trkpt>
      <trkpt lat="46.5837" lon="3.74534">
        <ele>217</ele>
        <time>2010-08-26T09:39:50Z</time>
      </trkpt>
      <trkpt lat="46.58424" lon="3.74537">
        <ele>216</ele>
        <time>2010-08-26T09:40:00Z</time>
      </trkpt>
      <trkpt lat="46.58478" lon="3.74541">
        <ele>219</ele>
        <time>2010-08-26T09:40:13Z</time>
      </trkpt>
      <trkpt lat="46.58531" lon="3.74541">
        <ele>218</ele>
        <time>2010-08-26T09:40:26Z</time>
      </trkpt>
      <trkpt lat="46.58584" lon="3.74541">
        <ele>219</ele>
        <time>2010-08-26T09:40:37Z</time>
      </trkpt>
      <trkpt lat="46.58636" lon="3.74542">
        <ele>218</ele>
        <time>2010-08-26T09:40:47Z</time>
      </trkpt>
      <trkpt lat="46.58689" lon="3.74543">
        <ele>219</ele>
        <time>2010-08-26T09:40:57Z</time>
      </trkpt>
      <trkpt lat="46.58746" lon="3.74546">
        <ele>221</ele>
        <time>2010-08-26T09:41:07Z</time>
      </trkpt>
      <trkpt lat="46.58798" lon="3.74549">
        <ele>222</ele>
        <time>2010-08-26T09:41:16Z</time>
      </trkpt>
      <trkpt lat="46.58851" lon="3.74552">
        <ele>223</ele>
        <time>2010-08-26T09:41:25Z</time>
      </trkpt>
      <trkpt lat="46.58905" lon="3.74555">
        <ele>223</ele>
        <time>2010-08-26T09:41:34Z</time>
      </trkpt>
      <trkpt lat="46.5896" lon="3.74557">
        <ele>223</ele>
        <time>2010-08-26T09:41:43Z</time>
      </trkpt>
      <trkpt lat="46.59015" lon="3.7456">
        <ele>223</ele>
        <time>2010-08-26T09:41:53Z</time>
      </trkpt>
      <trkpt lat="46.59069" lon="3.74561">
        <ele>222</ele>
        <time>2010-08-26T09:42:02Z</time>
      </trkpt>
      <trkpt lat="46.59121" lon="3.74563">
        <ele>223</ele>
        <time>2010-08-26T09:42:11Z</time>
      </trkpt>
      <trkpt lat="46.59175" lon="3.74567">
        <ele>223</ele>
        <time>2010-08-26T09:42:20Z</time>
      </trkpt>
      <trkpt lat="46.59227" lon="3.7457">
        <ele>223</ele>
        <time>2010-08-26T09:42:29Z</time>
      </trkpt>
      <trkpt lat="46.59279" lon="3.74588">
        <ele>223</ele>
        <time>2010-08-26T09:42:39Z</time>
      </trkpt>
      <trkpt lat="46.59331" lon="3.74607">
        <ele>223</ele>
        <time>2010-08-26T09:42:49Z</time>
      </trkpt>
      <trkpt lat="46.59376" lon="3.74573">
        <ele>222</ele>
        <time>2010-08-26T09:43:06Z</time>
      </trkpt>
      <trkpt lat="46.59429" lon="3.74575">
        <ele>222</ele>
        <time>2010-08-26T09:43:19Z</time>
      </trkpt>
      <trkpt lat="46.5948" lon="3.74577">
        <ele>220</ele>
        <time>2010-08-26T09:43:29Z</time>
      </trkpt>
      <trkpt lat="46.59532" lon="3.74578">
        <ele>219</ele>
        <time>2010-08-26T09:43:38Z</time>
      </trkpt>
      <trkpt lat="46.59589" lon="3.74581">
        <ele>219</ele>
        <time>2010-08-26T09:43:47Z</time>
      </trkpt>
      <trkpt lat="46.59646" lon="3.74583">
        <ele>219</ele>
        <time>2010-08-26T09:43:56Z</time>
      </trkpt>
      <trkpt lat="46.59697" lon="3.74586">
        <ele>219</ele>
        <time>2010-08-26T09:44:04Z</time>
      </trkpt>
      <trkpt lat="46.5975" lon="3.74588">
        <ele>219</ele>
        <time>2010-08-26T09:44:12Z</time>
      </trkpt>
      <trkpt lat="46.59802" lon="3.7459">
        <ele>219</ele>
        <time>2010-08-26T09:44:22Z</time>
      </trkpt>
      <trkpt lat="46.59851" lon="3.74591">
        <ele>220</ele>
        <time>2010-08-26T09:44:34Z</time>
      </trkpt>
      <trkpt lat="46.59903" lon="3.74592">
        <ele>221</ele>
        <time>2010-08-26T09:44:43Z</time>
      </trkpt>
      <trkpt lat="46.59958" lon="3.74595">
        <ele>222</ele>
        <time>2010-08-26T09:44:52Z</time>
      </trkpt>
      <trkpt lat="46.60011" lon="3.74597">
        <ele>222</ele>
        <time>2010-08-26T09:45:01Z</time>
      </trkpt>
      <trkpt lat="46.60067" lon="3.74599">
        <ele>222</ele>
        <time>2010-08-26T09:45:10Z</time>
      </trkpt>
      <trkpt lat="46.60119" lon="3.74602">
        <ele>221</ele>
        <time>2010-08-26T09:45:19Z</time>
      </trkpt>
      <trkpt lat="46.60173" lon="3.74604">
        <ele>221</ele>
        <time>2010-08-26T09:45:28Z</time>
      </trkpt>
      <trkpt lat="46.60225" lon="3.74606">
        <ele>222</ele>
        <time>2010-08-26T09:45:37Z</time>
      </trkpt>
      <trkpt lat="46.60278" lon="3.74608">
        <ele>221</ele>
        <time>2010-08-26T09:45:45Z</time>
      </trkpt>
      <trkpt lat="46.60329" lon="3.7461">
        <ele>220</ele>
        <time>2010-08-26T09:45:53Z</time>
      </trkpt>
      <trkpt lat="46.60381" lon="3.74609">
        <ele>219</ele>
        <time>2010-08-26T09:46:01Z</time>
      </trkpt>
      <trkpt lat="46.60437" lon="3.74603">
        <ele>219</ele>
        <time>2010-08-26T09:46:09Z</time>
      </trkpt>
      <trkpt lat="46.60493" lon="3.74589">
        <ele>219</ele>
        <time>2010-08-26T09:46:17Z</time>
      </trkpt>
      <trkpt lat="46.60549" lon="3.74567">
        <ele>219</ele>
        <time>2010-08-26T09:46:25Z</time>
      </trkpt>
      <trkpt lat="46.60602" lon="3.74547">
        <ele>219</ele>
        <time>2010-08-26T09:46:32Z</time>
      </trkpt>
      <trkpt lat="46.60655" lon="3.74526">
        <ele>219</ele>
        <time>2010-08-26T09:46:39Z</time>
      </trkpt>
      <trkpt lat="46.60708" lon="3.74506">
        <ele>218</ele>
        <time>2010-08-26T09:46:46Z</time>
      </trkpt>
      <trkpt lat="46.60759" lon="3.74486">
        <ele>218</ele>
        <time>2010-08-26T09:46:53Z</time>
      </trkpt>
      <trkpt lat="46.60812" lon="3.74465">
        <ele>220</ele>
        <time>2010-08-26T09:47:01Z</time>
      </trkpt>
      <trkpt lat="46.60867" lon="3.74445">
        <ele>221</ele>
        <time>2010-08-26T09:47:09Z</time>
      </trkpt>
      <trkpt lat="46.60925" lon="3.74422">
        <ele>222</ele>
        <time>2010-08-26T09:47:17Z</time>
      </trkpt>
      <trkpt lat="46.60983" lon="3.744">
        <ele>222</ele>
        <time>2010-08-26T09:47:25Z</time>
      </trkpt>
      <trkpt lat="46.61034" lon="3.74382">
        <ele>222</ele>
        <time>2010-08-26T09:47:32Z</time>
      </trkpt>
      <trkpt lat="46.61089" lon="3.7436">
        <ele>222</ele>
        <time>2010-08-26T09:47:40Z</time>
      </trkpt>
      <trkpt lat="46.61141" lon="3.74341">
        <ele>222</ele>
        <time>2010-08-26T09:47:49Z</time>
      </trkpt>
      <trkpt lat="46.61192" lon="3.74343">
        <ele>222</ele>
        <time>2010-08-26T09:48:01Z</time>
      </trkpt>
      <trkpt lat="46.61235" lon="3.74303">
        <ele>221</ele>
        <time>2010-08-26T09:48:19Z</time>
      </trkpt>
      <trkpt lat="46.61284" lon="3.74284">
        <ele>221</ele>
        <time>2010-08-26T09:48:31Z</time>
      </trkpt>
      <trkpt lat="46.61338" lon="3.74262">
        <ele>220</ele>
        <time>2010-08-26T09:48:41Z</time>
      </trkpt>
      <trkpt lat="46.61391" lon="3.74242">
        <ele>220</ele>
        <time>2010-08-26T09:48:50Z</time>
      </trkpt>
      <trkpt lat="46.61444" lon="3.74222">
        <ele>220</ele>
        <time>2010-08-26T09:48:59Z</time>
      </trkpt>
      <trkpt lat="46.61498" lon="3.74201">
        <ele>222</ele>
        <time>2010-08-26T09:49:08Z</time>
      </trkpt>
      <trkpt lat="46.61549" lon="3.74181">
        <ele>223</ele>
        <time>2010-08-26T09:49:17Z</time>
      </trkpt>
      <trkpt lat="46.61601" lon="3.7416">
        <ele>224</ele>
        <time>2010-08-26T09:49:26Z</time>
      </trkpt>
      <trkpt lat="46.61654" lon="3.74139">
        <ele>224</ele>
        <time>2010-08-26T09:49:36Z</time>
      </trkpt>
      <trkpt lat="46.61701" lon="3.74121">
        <ele>223</ele>
        <time>2010-08-26T09:49:50Z</time>
      </trkpt>
      <trkpt lat="46.6175" lon="3.74103">
        <ele>221</ele>
        <time>2010-08-26T09:49:59Z</time>
      </trkpt>
      <trkpt lat="46.61801" lon="3.74083">
        <ele>219</ele>
        <time>2010-08-26T09:50:07Z</time>
      </trkpt>
      <trkpt lat="46.61854" lon="3.74061">
        <ele>219</ele>
        <time>2010-08-26T09:50:15Z</time>
      </trkpt>
      <trkpt lat="46.61905" lon="3.74042">
        <ele>218</ele>
        <time>2010-08-26T09:50:23Z</time>
      </trkpt>
      <trkpt lat="46.61956" lon="3.74019">
        <ele>219</ele>
        <time>2010-08-26T09:50:32Z</time>
      </trkpt>
      <trkpt lat="46.62006" lon="3.73986">
        <ele>221</ele>
        <time>2010-08-26T09:50:42Z</time>
      </trkpt>
      <trkpt lat="46.62048" lon="3.73947">
        <ele>223</ele>
        <time>2010-08-26T09:50:56Z</time>
      </trkpt>
      <trkpt lat="46.62088" lon="3.73905">
        <ele>223</ele>
        <time>2010-08-26T09:51:10Z</time>
      </trkpt>
      <trkpt lat="46.62128" lon="3.73858">
        <ele>224</ele>
        <time>2010-08-26T09:51:21Z</time>
      </trkpt>
      <trkpt lat="46.62169" lon="3.73812">
        <ele>224</ele>
        <time>2010-08-26T09:51:31Z</time>
      </trkpt>
      <trkpt lat="46.62209" lon="3.73768">
        <ele>224</ele>
        <time>2010-08-26T09:51:43Z</time>
      </trkpt>
      <trkpt lat="46.62247" lon="3.73724">
        <ele>224</ele>
        <time>2010-08-26T09:51:55Z</time>
      </trkpt>
      <trkpt lat="46.62288" lon="3.73677">
        <ele>224</ele>
        <time>2010-08-26T09:52:05Z</time>
      </trkpt>
      <trkpt lat="46.62333" lon="3.73626">
        <ele>225</ele>
        <time>2010-08-26T09:52:14Z</time>
      </trkpt>
      <trkpt lat="46.62377" lon="3.73576">
        <ele>223</ele>
        <time>2010-08-26T09:52:22Z</time>
      </trkpt>
      <trkpt lat="46.62421" lon="3.73525">
        <ele>223</ele>
        <time>2010-08-26T09:52:30Z</time>
      </trkpt>
      <trkpt lat="46.62467" lon="3.73474">
        <ele>224</ele>
        <time>2010-08-26T09:52:38Z</time>
      </trkpt>
      <trkpt lat="46.6251" lon="3.73425">
        <ele>223</ele>
        <time>2010-08-26T09:52:46Z</time>
      </trkpt>
      <trkpt lat="46.62552" lon="3.73375">
        <ele>223</ele>
        <time>2010-08-26T09:52:55Z</time>
      </trkpt>
      <trkpt lat="46.62595" lon="3.73323">
        <ele>223</ele>
        <time>2010-08-26T09:53:04Z</time>
      </trkpt>
      <trkpt lat="46.62638" lon="3.73272">
        <ele>224</ele>
        <time>2010-08-26T09:53:13Z</time>
      </trkpt>
      <trkpt lat="46.6268" lon="3.73224">
        <ele>224</ele>
        <time>2010-08-26T09:53:23Z</time>
      </trkpt>
      <trkpt lat="46.62676" lon="3.73285">
        <ele>221</ele>
        <time>2010-08-26T09:55:01Z</time>
      </trkpt>
      <trkpt lat="46.62659" lon="3.73354">
        <ele>222</ele>
        <time>2010-08-26T09:55:13Z</time>
      </trkpt>
      <trkpt lat="46.6266" lon="3.73432">
        <ele>223</ele>
        <time>2010-08-26T09:55:25Z</time>
      </trkpt>
      <trkpt lat="46.62671" lon="3.73507">
        <ele>224</ele>
        <time>2010-08-26T09:55:37Z</time>
      </trkpt>
      <trkpt lat="46.62682" lon="3.7358">
        <ele>224</ele>
        <time>2010-08-26T09:55:49Z</time>
      </trkpt>
      <trkpt lat="46.62695" lon="3.73654">
        <ele>225</ele>
        <time>2010-08-26T09:56:02Z</time>
      </trkpt>
      <trkpt lat="46.62706" lon="3.73727">
        <ele>227</ele>
        <time>2010-08-26T09:56:21Z</time>
      </trkpt>
      <trkpt lat="46.62719" lon="3.73801">
        <ele>228</ele>
        <time>2010-08-26T09:56:35Z</time>
      </trkpt>
      <trkpt lat="46.62731" lon="3.73874">
        <ele>230</ele>
        <time>2010-08-26T09:56:47Z</time>
      </trkpt>
      <trkpt lat="46.62742" lon="3.73948">
        <ele>231</ele>
        <time>2010-08-26T09:56:58Z</time>
      </trkpt>
      <trkpt lat="46.62753" lon="3.74021">
        <ele>232</ele>
        <time>2010-08-26T09:57:09Z</time>
      </trkpt>
      <trkpt lat="46.62759" lon="3.74098">
        <ele>234</ele>
        <time>2010-08-26T09:57:21Z</time>
      </trkpt>
      <trkpt lat="46.62769" lon="3.74174">
        <ele>233</ele>
        <time>2010-08-26T09:57:32Z</time>
      </trkpt>
      <trkpt lat="46.62774" lon="3.74251">
        <ele>234</ele>
        <time>2010-08-26T09:57:43Z</time>
      </trkpt>
      <trkpt lat="46.62759" lon="3.74321">
        <ele>236</ele>
        <time>2010-08-26T09:57:56Z</time>
      </trkpt>
      <trkpt lat="46.62746" lon="3.74393">
        <ele>236</ele>
        <time>2010-08-26T09:58:09Z</time>
      </trkpt>
      <trkpt lat="46.62731" lon="3.74462">
        <ele>236</ele>
        <time>2010-08-26T09:58:20Z</time>
      </trkpt>
      <trkpt lat="46.62714" lon="3.74535">
        <ele>235</ele>
        <time>2010-08-26T09:58:30Z</time>
      </trkpt>
      <trkpt lat="46.62696" lon="3.7461">
        <ele>235</ele>
        <time>2010-08-26T09:58:40Z</time>
      </trkpt>
      <trkpt lat="46.62679" lon="3.74684">
        <ele>236</ele>
        <time>2010-08-26T09:58:50Z</time>
      </trkpt>
      <trkpt lat="46.62662" lon="3.74754">
        <ele>237</ele>
        <time>2010-08-26T09:59:00Z</time>
      </trkpt>
      <trkpt lat="46.62644" lon="3.74825">
        <ele>238</ele>
        <time>2010-08-26T09:59:11Z</time>
      </trkpt>
      <trkpt lat="46.62627" lon="3.74894">
        <ele>240</ele>
        <time>2010-08-26T09:59:25Z</time>
      </trkpt>
      <trkpt lat="46.62612" lon="3.74962">
        <ele>241</ele>
        <time>2010-08-26T09:59:39Z</time>
      </trkpt>
      <trkpt lat="46.62563" lon="3.74957">
        <ele>241</ele>
        <time>2010-08-26T09:59:55Z</time>
      </trkpt>
      <trkpt lat="46.62514" lon="3.74965">
        <ele>241</ele>
        <time>2010-08-26T10:00:08Z</time>
      </trkpt>
      <trkpt lat="46.62467" lon="3.74986">
        <ele>239</ele>
        <time>2010-08-26T10:00:27Z</time>
      </trkpt>
      <trkpt lat="46.62418" lon="3.7499">
        <ele>236</ele>
        <time>2010-08-26T10:00:43Z</time>
      </trkpt>
      <trkpt lat="46.62366" lon="3.74976">
        <ele>236</ele>
        <time>2010-08-26T10:03:16Z</time>
      </trkpt>
      <trkpt lat="46.62314" lon="3.74974">
        <ele>232</ele>
        <time>2010-08-26T10:03:25Z</time>
      </trkpt>
      <trkpt lat="46.62263" lon="3.74995">
        <ele>230</ele>
        <time>2010-08-26T10:03:34Z</time>
      </trkpt>
      <trkpt lat="46.62217" lon="3.75026">
        <ele>228</ele>
        <time>2010-08-26T10:03:44Z</time>
      </trkpt>
      <trkpt lat="46.62187" lon="3.75089">
        <ele>226</ele>
        <time>2010-08-26T10:03:52Z</time>
      </trkpt>
      <trkpt lat="46.62154" lon="3.75156">
        <ele>224</ele>
        <time>2010-08-26T10:04:00Z</time>
      </trkpt>
      <trkpt lat="46.62181" lon="3.75215">
        <ele>226</ele>
        <time>2010-08-26T10:04:20Z</time>
      </trkpt>
      <trkpt lat="46.622" lon="3.75282">
        <ele>226</ele>
        <time>2010-08-26T10:04:45Z</time>
      </trkpt>
      <trkpt lat="46.62228" lon="3.75341">
        <ele>226</ele>
        <time>2010-08-26T10:04:59Z</time>
      </trkpt>
      <trkpt lat="46.62259" lon="3.75402">
        <ele>225</ele>
        <time>2010-08-26T10:05:11Z</time>
      </trkpt>
      <trkpt lat="46.62273" lon="3.75472">
        <ele>225</ele>
        <time>2010-08-26T10:05:28Z</time>
      </trkpt>
      <trkpt lat="46.62275" lon="3.75542">
        <ele>225</ele>
        <time>2010-08-26T10:05:52Z</time>
      </trkpt>
      <trkpt lat="46.62286" lon="3.75615">
        <ele>224</ele>
        <time>2010-08-26T10:06:06Z</time>
      </trkpt>
      <trkpt lat="46.62277" lon="3.75687">
        <ele>227</ele>
        <time>2010-08-26T10:08:10Z</time>
      </trkpt>
      <trkpt lat="46.62273" lon="3.7576">
        <ele>226</ele>
        <time>2010-08-26T10:08:23Z</time>
      </trkpt>
      <trkpt lat="46.62258" lon="3.75827">
        <ele>227</ele>
        <time>2010-08-26T10:08:37Z</time>
      </trkpt>
      <trkpt lat="46.62249" lon="3.75902">
        <ele>227</ele>
        <time>2010-08-26T10:08:50Z</time>
      </trkpt>
      <trkpt lat="46.6224" lon="3.75974">
        <ele>228</ele>
        <time>2010-08-26T10:09:04Z</time>
      </trkpt>
      <trkpt lat="46.62237" lon="3.76048">
        <ele>227</ele>
        <time>2010-08-26T10:09:18Z</time>
      </trkpt>
      <trkpt lat="46.62217" lon="3.76117">
        <ele>228</ele>
        <time>2010-08-26T10:09:33Z</time>
      </trkpt>
      <trkpt lat="46.62202" lon="3.76189">
        <ele>228</ele>
        <time>2010-08-26T10:09:48Z</time>
      </trkpt>
      <trkpt lat="46.62187" lon="3.76261">
        <ele>228</ele>
        <time>2010-08-26T10:10:02Z</time>
      </trkpt>
      <trkpt lat="46.62161" lon="3.76325">
        <ele>228</ele>
        <time>2010-08-26T10:10:16Z</time>
      </trkpt>
      <trkpt lat="46.62131" lon="3.76381">
        <ele>229</ele>
        <time>2010-08-26T10:10:39Z</time>
      </trkpt>
      <trkpt lat="46.62115" lon="3.7642">
        <ele>227</ele>
        <time>2010-08-26T10:17:13Z</time>
      </trkpt>
      <trkpt lat="46.62112" lon="3.76491">
        <ele>229</ele>
        <time>2010-08-26T10:17:29Z</time>
      </trkpt>
      <trkpt lat="46.62106" lon="3.76563">
        <ele>233</ele>
        <time>2010-08-26T10:17:46Z</time>
      </trkpt>
      <trkpt lat="46.62109" lon="3.76634">
        <ele>239</ele>
        <time>2010-08-26T10:18:10Z</time>
      </trkpt>
      <trkpt lat="46.62136" lon="3.76694">
        <ele>242</ele>
        <time>2010-08-26T10:18:34Z</time>
      </trkpt>
      <trkpt lat="46.62136" lon="3.76763">
        <ele>245</ele>
        <time>2010-08-26T10:19:08Z</time>
      </trkpt>
      <trkpt lat="46.62112" lon="3.76822">
        <ele>251</ele>
        <time>2010-08-26T10:19:31Z</time>
      </trkpt>
      <trkpt lat="46.62078" lon="3.76875">
        <ele>253</ele>
        <time>2010-08-26T10:19:52Z</time>
      </trkpt>
      <trkpt lat="46.62049" lon="3.76933">
        <ele>259</ele>
        <time>2010-08-26T10:20:13Z</time>
      </trkpt>
      <trkpt lat="46.62015" lon="3.76983">
        <ele>259</ele>
        <time>2010-08-26T10:20:31Z</time>
      </trkpt>
      <trkpt lat="46.61983" lon="3.77039">
        <ele>263</ele>
        <time>2010-08-26T10:20:48Z</time>
      </trkpt>
      <trkpt lat="46.61958" lon="3.77104">
        <ele>266</ele>
        <time>2010-08-26T10:21:04Z</time>
      </trkpt>
      <trkpt lat="46.61933" lon="3.77167">
        <ele>271</ele>
        <time>2010-08-26T10:21:25Z</time>
      </trkpt>
      <trkpt lat="46.61916" lon="3.77231">
        <ele>279</ele>
        <time>2010-08-26T10:22:02Z</time>
      </trkpt>
      <trkpt lat="46.61908" lon="3.77297">
        <ele>276</ele>
        <time>2010-08-26T12:53:36Z</time>
      </trkpt>
      <trkpt lat="46.61939" lon="3.77334">
        <ele>278</ele>
        <time>2010-08-26T12:53:50Z</time>
      </trkpt>
      <trkpt lat="46.61971" lon="3.77305">
        <ele>276</ele>
        <time>2010-08-26T12:54:09Z</time>
      </trkpt>
      <trkpt lat="46.62005" lon="3.77286">
        <ele>276</ele>
        <time>2010-08-26T12:54:23Z</time>
      </trkpt>
      <trkpt lat="46.62032" lon="3.77225">
        <ele>276</ele>
        <time>2010-08-26T12:54:36Z</time>
      </trkpt>
      <trkpt lat="46.62058" lon="3.77157">
        <ele>273</ele>
        <time>2010-08-26T12:54:49Z</time>
      </trkpt>
      <trkpt lat="46.62105" lon="3.77132">
        <ele>270</ele>
        <time>2010-08-26T12:55:02Z</time>
      </trkpt>
      <trkpt lat="46.62157" lon="3.77144">
        <ele>268</ele>
        <time>2010-08-26T12:55:15Z</time>
      </trkpt>
      <trkpt lat="46.62209" lon="3.77138">
        <ele>265</ele>
        <time>2010-08-26T12:55:28Z</time>
      </trkpt>
      <trkpt lat="46.62256" lon="3.77143">
        <ele>265</ele>
        <time>2010-08-26T12:55:41Z</time>
      </trkpt>
      <trkpt lat="46.62306" lon="3.77108">
        <ele>263</ele>
        <time>2010-08-26T12:55:54Z</time>
      </trkpt>
      <trkpt lat="46.62327" lon="3.77037">
        <ele>261</ele>
        <time>2010-08-26T12:56:07Z</time>
      </trkpt>
      <trkpt lat="46.62366" lon="3.76989">
        <ele>263</ele>
        <time>2010-08-26T12:56:19Z</time>
      </trkpt>
      <trkpt lat="46.62358" lon="3.76933">
        <ele>263</ele>
        <time>2010-08-26T12:56:31Z</time>
      </trkpt>
      <trkpt lat="46.6235" lon="3.76845">
        <ele>262</ele>
        <time>2010-08-26T12:56:43Z</time>
      </trkpt>
      <trkpt lat="46.62344" lon="3.7677">
        <ele>260</ele>
        <time>2010-08-26T12:56:55Z</time>
      </trkpt>
      <trkpt lat="46.62338" lon="3.76698">
        <ele>258</ele>
        <time>2010-08-26T12:57:06Z</time>
      </trkpt>
      <trkpt lat="46.62335" lon="3.76626">
        <ele>256</ele>
        <time>2010-08-26T12:57:17Z</time>
      </trkpt>
      <trkpt lat="46.62329" lon="3.7656">
        <ele>255</ele>
        <time>2010-08-26T12:57:29Z</time>
      </trkpt>
      <trkpt lat="46.62369" lon="3.76545">
        <ele>256</ele>
        <time>2010-08-26T12:57:41Z</time>
      </trkpt>
      <trkpt lat="46.62412" lon="3.76523">
        <ele>257</ele>
        <time>2010-08-26T12:57:54Z</time>
      </trkpt>
      <trkpt lat="46.62451" lon="3.76502">
        <ele>256</ele>
        <time>2010-08-26T12:58:09Z</time>
      </trkpt>
      <trkpt lat="46.62492" lon="3.76467">
        <ele>254</ele>
        <time>2010-08-26T12:58:40Z</time>
      </trkpt>
      <trkpt lat="46.62528" lon="3.76422">
        <ele>252</ele>
        <time>2010-08-26T12:58:54Z</time>
      </trkpt>
      <trkpt lat="46.62556" lon="3.76348">
        <ele>249</ele>
        <time>2010-08-26T12:59:07Z</time>
      </trkpt>
      <trkpt lat="46.62595" lon="3.76287">
        <ele>245</ele>
        <time>2010-08-26T12:59:18Z</time>
      </trkpt>
      <trkpt lat="46.62632" lon="3.76235">
        <ele>241</ele>
        <time>2010-08-26T12:59:31Z</time>
      </trkpt>
      <trkpt lat="46.62635" lon="3.76154">
        <ele>239</ele>
        <time>2010-08-26T12:59:44Z</time>
      </trkpt>
      <trkpt lat="46.6264" lon="3.76095">
        <ele>237</ele>
        <time>2010-08-26T12:59:58Z</time>
      </trkpt>
      <trkpt lat="46.62666" lon="3.7604">
        <ele>238</ele>
        <time>2010-08-26T13:00:11Z</time>
      </trkpt>
      <trkpt lat="46.62709" lon="3.75996">
        <ele>241</ele>
        <time>2010-08-26T13:00:24Z</time>
      </trkpt>
      <trkpt lat="46.62737" lon="3.75951">
        <ele>245</ele>
        <time>2010-08-26T13:00:36Z</time>
      </trkpt>
      <trkpt lat="46.62769" lon="3.7589">
        <ele>250</ele>
        <time>2010-08-26T13:00:48Z</time>
      </trkpt>
      <trkpt lat="46.62812" lon="3.75852">
        <ele>252</ele>
        <time>2010-08-26T13:01:00Z</time>
      </trkpt>
      <trkpt lat="46.62851" lon="3.7582">
        <ele>254</ele>
        <time>2010-08-26T13:01:13Z</time>
      </trkpt>
      <trkpt lat="46.62892" lon="3.75775">
        <ele>255</ele>
        <time>2010-08-26T13:01:28Z</time>
      </trkpt>
      <trkpt lat="46.62937" lon="3.75726">
        <ele>253</ele>
        <time>2010-08-26T13:01:43Z</time>
      </trkpt>
      <trkpt lat="46.62975" lon="3.75684">
        <ele>254</ele>
        <time>2010-08-26T13:01:57Z</time>
      </trkpt>
      <trkpt lat="46.63016" lon="3.75635">
        <ele>255</ele>
        <time>2010-08-26T13:02:10Z</time>
      </trkpt>
      <trkpt lat="46.63047" lon="3.75574">
        <ele>255</ele>
        <time>2010-08-26T13:02:23Z</time>
      </trkpt>
      <trkpt lat="46.63074" lon="3.75508">
        <ele>254</ele>
        <time>2010-08-26T13:02:35Z</time>
      </trkpt>
      <trkpt lat="46.63103" lon="3.75441">
        <ele>253</ele>
        <time>2010-08-26T13:02:45Z</time>
      </trkpt>
      <trkpt lat="46.63131" lon="3.75376">
        <ele>252</ele>
        <time>2010-08-26T13:02:54Z</time>
      </trkpt>
      <trkpt lat="46.63166" lon="3.75318">
        <ele>251</ele>
        <time>2010-08-26T13:03:03Z</time>
      </trkpt>
      <trkpt lat="46.63208" lon="3.75268">
        <ele>249</ele>
        <time>2010-08-26T13:03:11Z</time>
      </trkpt>
      <trkpt lat="46.6325" lon="3.75222">
        <ele>247</ele>
        <time>2010-08-26T13:03:18Z</time>
      </trkpt>
      <trkpt lat="46.633" lon="3.75196">
        <ele>246</ele>
        <time>2010-08-26T13:03:25Z</time>
      </trkpt>
      <trkpt lat="46.63358" lon="3.75182">
        <ele>245</ele>
        <time>2010-08-26T13:03:33Z</time>
      </trkpt>
      <trkpt lat="46.63413" lon="3.75173">
        <ele>244</ele>
        <time>2010-08-26T13:03:41Z</time>
      </trkpt>
      <trkpt lat="46.63465" lon="3.75165">
        <ele>242</ele>
        <time>2010-08-26T13:03:49Z</time>
      </trkpt>
      <trkpt lat="46.63522" lon="3.75161">
        <ele>242</ele>
        <time>2010-08-26T13:03:58Z</time>
      </trkpt>
      <trkpt lat="46.63574" lon="3.7517">
        <ele>241</ele>
        <time>2010-08-26T13:04:06Z</time>
      </trkpt>
      <trkpt lat="46.63624" lon="3.75188">
        <ele>238</ele>
        <time>2010-08-26T13:04:13Z</time>
      </trkpt>
      <trkpt lat="46.63681" lon="3.75222">
        <ele>234</ele>
        <time>2010-08-26T13:04:20Z</time>
      </trkpt>
      <trkpt lat="46.63733" lon="3.75261">
        <ele>230</ele>
        <time>2010-08-26T13:04:26Z</time>
      </trkpt>
      <trkpt lat="46.63791" lon="3.75306">
        <ele>225</ele>
        <time>2010-08-26T13:04:32Z</time>
      </trkpt>
      <trkpt lat="46.63849" lon="3.75347">
        <ele>221</ele>
        <time>2010-08-26T13:04:38Z</time>
      </trkpt>
      <trkpt lat="46.63913" lon="3.75341">
        <ele>217</ele>
        <time>2010-08-26T13:04:44Z</time>
      </trkpt>
      <trkpt lat="46.6397" lon="3.75305">
        <ele>215</ele>
        <time>2010-08-26T13:04:50Z</time>
      </trkpt>
      <trkpt lat="46.64023" lon="3.75262">
        <ele>213</ele>
        <time>2010-08-26T13:04:56Z</time>
      </trkpt>
      <trkpt lat="46.64077" lon="3.75218">
        <ele>212</ele>
        <time>2010-08-26T13:05:03Z</time>
      </trkpt>
      <trkpt lat="46.64125" lon="3.75182">
        <ele>214</ele>
        <time>2010-08-26T13:05:11Z</time>
      </trkpt>
      <trkpt lat="46.6417" lon="3.75146">
        <ele>215</ele>
        <time>2010-08-26T13:05:22Z</time>
      </trkpt>
      <trkpt lat="46.64217" lon="3.75119">
        <ele>217</ele>
        <time>2010-08-26T13:05:39Z</time>
      </trkpt>
      <trkpt lat="46.64241" lon="3.75184">
        <ele>217</ele>
        <time>2010-08-26T13:05:54Z</time>
      </trkpt>
      <trkpt lat="46.64267" lon="3.75249">
        <ele>217</ele>
        <time>2010-08-26T13:06:06Z</time>
      </trkpt>
      <trkpt lat="46.64296" lon="3.75315">
        <ele>216</ele>
        <time>2010-08-26T13:06:17Z</time>
      </trkpt>
      <trkpt lat="46.64317" lon="3.75382">
        <ele>216</ele>
        <time>2010-08-26T13:06:27Z</time>
      </trkpt>
      <trkpt lat="46.64325" lon="3.75459">
        <ele>215</ele>
        <time>2010-08-26T13:06:38Z</time>
      </trkpt>
      <trkpt lat="46.64347" lon="3.75529">
        <ele>215</ele>
        <time>2010-08-26T13:06:49Z</time>
      </trkpt>
      <trkpt lat="46.64379" lon="3.75591">
        <ele>215</ele>
        <time>2010-08-26T13:07:00Z</time>
      </trkpt>
      <trkpt lat="46.64401" lon="3.75662">
        <ele>215</ele>
        <time>2010-08-26T13:07:11Z</time>
      </trkpt>
      <trkpt lat="46.6442" lon="3.75738">
        <ele>216</ele>
        <time>2010-08-26T13:07:22Z</time>
      </trkpt>
      <trkpt lat="46.64435" lon="3.75808">
        <ele>216</ele>
        <time>2010-08-26T13:07:32Z</time>
      </trkpt>
      <trkpt lat="46.64454" lon="3.75883">
        <ele>217</ele>
        <time>2010-08-26T13:07:43Z</time>
      </trkpt>
      <trkpt lat="46.64476" lon="3.75956">
        <ele>217</ele>
        <time>2010-08-26T13:07:54Z</time>
      </trkpt>
      <trkpt lat="46.64502" lon="3.76026">
        <ele>217</ele>
        <time>2010-08-26T13:08:05Z</time>
      </trkpt>
      <trkpt lat="46.64524" lon="3.761">
        <ele>217</ele>
        <time>2010-08-26T13:08:16Z</time>
      </trkpt>
      <trkpt lat="46.64545" lon="3.7617">
        <ele>217</ele>
        <time>2010-08-26T13:08:26Z</time>
      </trkpt>
      <trkpt lat="46.64566" lon="3.76241">
        <ele>217</ele>
        <time>2010-08-26T13:08:36Z</time>
      </trkpt>
      <trkpt lat="46.64588" lon="3.76311">
        <ele>217</ele>
        <time>2010-08-26T13:08:46Z</time>
      </trkpt>
      <trkpt lat="46.64608" lon="3.76381">
        <ele>218</ele>
        <time>2010-08-26T13:08:56Z</time>
      </trkpt>
      <trkpt lat="46.64627" lon="3.76453">
        <ele>219</ele>
        <time>2010-08-26T13:09:06Z</time>
      </trkpt>
      <trkpt lat="46.64646" lon="3.76526">
        <ele>220</ele>
        <time>2010-08-26T13:09:16Z</time>
      </trkpt>
      <trkpt lat="46.64671" lon="3.76594">
        <ele>220</ele>
        <time>2010-08-26T13:09:26Z</time>
      </trkpt>
      <trkpt lat="46.64704" lon="3.76654">
        <ele>220</ele>
        <time>2010-08-26T13:09:36Z</time>
      </trkpt>
      <trkpt lat="46.64738" lon="3.76713">
        <ele>219</ele>
        <time>2010-08-26T13:09:46Z</time>
      </trkpt>
      <trkpt lat="46.64773" lon="3.76774">
        <ele>218</ele>
        <time>2010-08-26T13:09:56Z</time>
      </trkpt>
      <trkpt lat="46.6481" lon="3.76834">
        <ele>217</ele>
        <time>2010-08-26T13:10:06Z</time>
      </trkpt>
      <trkpt lat="46.64846" lon="3.76891">
        <ele>216</ele>
        <time>2010-08-26T13:10:16Z</time>
      </trkpt>
      <trkpt lat="46.64889" lon="3.76941">
        <ele>216</ele>
        <time>2010-08-26T13:10:27Z</time>
      </trkpt>
      <trkpt lat="46.64938" lon="3.76947">
        <ele>217</ele>
        <time>2010-08-26T13:10:38Z</time>
      </trkpt>
      <trkpt lat="46.64989" lon="3.76949">
        <ele>218</ele>
        <time>2010-08-26T13:10:49Z</time>
      </trkpt>
      <trkpt lat="46.65043" lon="3.76953">
        <ele>219</ele>
        <time>2010-08-26T13:11:00Z</time>
      </trkpt>
      <trkpt lat="46.65094" lon="3.76956">
        <ele>220</ele>
        <time>2010-08-26T13:11:11Z</time>
      </trkpt>
      <trkpt lat="46.65146" lon="3.76946">
        <ele>222</ele>
        <time>2010-08-26T13:11:23Z</time>
      </trkpt>
      <trkpt lat="46.65198" lon="3.76947">
        <ele>223</ele>
        <time>2010-08-26T13:11:36Z</time>
      </trkpt>
      <trkpt lat="46.65248" lon="3.76958">
        <ele>225</ele>
        <time>2010-08-26T13:11:50Z</time>
      </trkpt>
      <trkpt lat="46.65298" lon="3.76968">
        <ele>227</ele>
        <time>2010-08-26T13:12:05Z</time>
      </trkpt>
      <trkpt lat="46.65349" lon="3.76967">
        <ele>230</ele>
        <time>2010-08-26T13:12:22Z</time>
      </trkpt>
      <trkpt lat="46.65398" lon="3.76954">
        <ele>233</ele>
        <time>2010-08-26T13:12:39Z</time>
      </trkpt>
      <trkpt lat="46.65429" lon="3.76897">
        <ele>237</ele>
        <time>2010-08-26T13:12:56Z</time>
      </trkpt>
      <trkpt lat="46.65454" lon="3.76834">
        <ele>241</ele>
        <time>2010-08-26T13:13:13Z</time>
      </trkpt>
      <trkpt lat="46.65477" lon="3.76772">
        <ele>245</ele>
        <time>2010-08-26T13:13:29Z</time>
      </trkpt>
      <trkpt lat="46.65506" lon="3.76713">
        <ele>249</ele>
        <time>2010-08-26T13:13:45Z</time>
      </trkpt>
      <trkpt lat="46.65548" lon="3.76674">
        <ele>252</ele>
        <time>2010-08-26T13:14:01Z</time>
      </trkpt>
      <trkpt lat="46.65587" lon="3.76631">
        <ele>256</ele>
        <time>2010-08-26T13:14:17Z</time>
      </trkpt>
      <trkpt lat="46.65623" lon="3.76578">
        <ele>258</ele>
        <time>2010-08-26T13:14:32Z</time>
      </trkpt>
      <trkpt lat="46.65668" lon="3.76546">
        <ele>260</ele>
        <time>2010-08-26T13:14:46Z</time>
      </trkpt>
      <trkpt lat="46.65717" lon="3.76549">
        <ele>263</ele>
        <time>2010-08-26T13:15:02Z</time>
      </trkpt>
      <trkpt lat="46.65769" lon="3.76556">
        <ele>266</ele>
        <time>2010-08-26T13:15:18Z</time>
      </trkpt>
      <trkpt lat="46.65821" lon="3.76556">
        <ele>264</ele>
        <time>2010-08-26T13:15:31Z</time>
      </trkpt>
      <trkpt lat="46.65879" lon="3.7655">
        <ele>259</ele>
        <time>2010-08-26T13:15:39Z</time>
      </trkpt>
      <trkpt lat="46.65934" lon="3.76543">
        <ele>254</ele>
        <time>2010-08-26T13:15:45Z</time>
      </trkpt>
      <trkpt lat="46.6599" lon="3.76537">
        <ele>250</ele>
        <time>2010-08-26T13:15:51Z</time>
      </trkpt>
      <trkpt lat="46.66046" lon="3.76512">
        <ele>245</ele>
        <time>2010-08-26T13:15:57Z</time>
      </trkpt>
      <trkpt lat="46.66089" lon="3.76448">
        <ele>240</ele>
        <time>2010-08-26T13:16:03Z</time>
      </trkpt>
      <trkpt lat="46.66129" lon="3.76375">
        <ele>236</ele>
        <time>2010-08-26T13:16:09Z</time>
      </trkpt>
      <trkpt lat="46.6617" lon="3.76307">
        <ele>232</ele>
        <time>2010-08-26T13:16:15Z</time>
      </trkpt>
      <trkpt lat="46.66222" lon="3.76266">
        <ele>230</ele>
        <time>2010-08-26T13:16:21Z</time>
      </trkpt>
      <trkpt lat="46.66279" lon="3.76232">
        <ele>230</ele>
        <time>2010-08-26T13:16:28Z</time>
      </trkpt>
      <trkpt lat="46.66329" lon="3.76202">
        <ele>234</ele>
        <time>2010-08-26T13:16:37Z</time>
      </trkpt>
      <trkpt lat="46.66377" lon="3.76173">
        <ele>238</ele>
        <time>2010-08-26T13:16:51Z</time>
      </trkpt>
      <trkpt lat="46.66422" lon="3.76146">
        <ele>242</ele>
        <time>2010-08-26T13:17:07Z</time>
      </trkpt>
      <trkpt lat="46.66469" lon="3.76116">
        <ele>245</ele>
        <time>2010-08-26T13:17:24Z</time>
      </trkpt>
      <trkpt lat="46.66514" lon="3.76089">
        <ele>248</ele>
        <time>2010-08-26T13:17:40Z</time>
      </trkpt>
      <trkpt lat="46.66561" lon="3.76064">
        <ele>251</ele>
        <time>2010-08-26T13:17:56Z</time>
      </trkpt>
      <trkpt lat="46.66609" lon="3.76052">
        <ele>253</ele>
        <time>2010-08-26T13:18:10Z</time>
      </trkpt>
      <trkpt lat="46.66657" lon="3.76038">
        <ele>253</ele>
        <time>2010-08-26T13:18:22Z</time>
      </trkpt>
      <trkpt lat="46.66706" lon="3.76026">
        <ele>254</ele>
        <time>2010-08-26T13:18:33Z</time>
      </trkpt>
      <trkpt lat="46.66757" lon="3.76016">
        <ele>254</ele>
        <time>2010-08-26T13:18:43Z</time>
      </trkpt>
      <trkpt lat="46.66809" lon="3.7601">
        <ele>253</ele>
        <time>2010-08-26T13:18:51Z</time>
      </trkpt>
      <trkpt lat="46.66865" lon="3.7602">
        <ele>252</ele>
        <time>2010-08-26T13:19:00Z</time>
      </trkpt>
      <trkpt lat="46.66918" lon="3.7603">
        <ele>252</ele>
        <time>2010-08-26T13:19:09Z</time>
      </trkpt>
      <trkpt lat="46.66975" lon="3.76038">
        <ele>252</ele>
        <time>2010-08-26T13:19:19Z</time>
      </trkpt>
      <trkpt lat="46.6703" lon="3.76038">
        <ele>249</ele>
        <time>2010-08-26T13:19:28Z</time>
      </trkpt>
      <trkpt lat="46.67087" lon="3.76037">
        <ele>248</ele>
        <time>2010-08-26T13:19:37Z</time>
      </trkpt>
      <trkpt lat="46.67142" lon="3.76034">
        <ele>248</ele>
        <time>2010-08-26T13:19:46Z</time>
      </trkpt>
      <trkpt lat="46.67197" lon="3.76019">
        <ele>248</ele>
        <time>2010-08-26T13:19:56Z</time>
      </trkpt>
      <trkpt lat="46.67248" lon="3.75998">
        <ele>250</ele>
        <time>2010-08-26T13:20:08Z</time>
      </trkpt>
      <trkpt lat="46.67297" lon="3.75979">
        <ele>251</ele>
        <time>2010-08-26T13:20:20Z</time>
      </trkpt>
      <trkpt lat="46.67345" lon="3.75965">
        <ele>251</ele>
        <time>2010-08-26T13:20:32Z</time>
      </trkpt>
      <trkpt lat="46.67396" lon="3.75959">
        <ele>250</ele>
        <time>2010-08-26T13:20:43Z</time>
      </trkpt>
      <trkpt lat="46.67449" lon="3.75955">
        <ele>248</ele>
        <time>2010-08-26T13:20:51Z</time>
      </trkpt>
      <trkpt lat="46.67506" lon="3.75949">
        <ele>246</ele>
        <time>2010-08-26T13:20:59Z</time>
      </trkpt>
      <trkpt lat="46.67556" lon="3.75926">
        <ele>248</ele>
        <time>2010-08-26T13:21:09Z</time>
      </trkpt>
      <trkpt lat="46.67603" lon="3.75896">
        <ele>252</ele>
        <time>2010-08-26T13:21:22Z</time>
      </trkpt>
      <trkpt lat="46.6765" lon="3.75864">
        <ele>255</ele>
        <time>2010-08-26T13:21:36Z</time>
      </trkpt>
      <trkpt lat="46.67696" lon="3.75834">
        <ele>258</ele>
        <time>2010-08-26T13:21:50Z</time>
      </trkpt>
      <trkpt lat="46.67743" lon="3.75802">
        <ele>261</ele>
        <time>2010-08-26T13:22:05Z</time>
      </trkpt>
      <trkpt lat="46.67788" lon="3.75772">
        <ele>263</ele>
        <time>2010-08-26T13:22:19Z</time>
      </trkpt>
      <trkpt lat="46.67836" lon="3.7574">
        <ele>266</ele>
        <time>2010-08-26T13:22:33Z</time>
      </trkpt>
      <trkpt lat="46.67882" lon="3.7571">
        <ele>266</ele>
        <time>2010-08-26T13:22:45Z</time>
      </trkpt>
      <trkpt lat="46.67926" lon="3.75675">
        <ele>266</ele>
        <time>2010-08-26T13:22:56Z</time>
      </trkpt>
      <trkpt lat="46.67965" lon="3.7562">
        <ele>267</ele>
        <time>2010-08-26T13:23:08Z</time>
      </trkpt>
      <trkpt lat="46.68003" lon="3.75567">
        <ele>268</ele>
        <time>2010-08-26T13:23:20Z</time>
      </trkpt>
      <trkpt lat="46.68039" lon="3.75513">
        <ele>269</ele>
        <time>2010-08-26T13:23:34Z</time>
      </trkpt>
      <trkpt lat="46.68068" lon="3.7545">
        <ele>265</ele>
        <time>2010-08-26T13:23:41Z</time>
      </trkpt>
      <trkpt lat="46.68093" lon="3.75377">
        <ele>262</ele>
        <time>2010-08-26T13:23:47Z</time>
      </trkpt>
      <trkpt lat="46.68119" lon="3.75301">
        <ele>259</ele>
        <time>2010-08-26T13:23:53Z</time>
      </trkpt>
      <trkpt lat="46.68162" lon="3.75234">
        <ele>258</ele>
        <time>2010-08-26T13:24:00Z</time>
      </trkpt>
      <trkpt lat="46.68204" lon="3.75173">
        <ele>259</ele>
        <time>2010-08-26T13:24:08Z</time>
      </trkpt>
      <trkpt lat="46.68234" lon="3.75113">
        <ele>262</ele>
        <time>2010-08-26T13:24:17Z</time>
      </trkpt>
      <trkpt lat="46.68264" lon="3.75048">
        <ele>262</ele>
        <time>2010-08-26T13:24:26Z</time>
      </trkpt>
      <trkpt lat="46.68299" lon="3.7499">
        <ele>260</ele>
        <time>2010-08-26T13:24:34Z</time>
      </trkpt>
      <trkpt lat="46.6832" lon="3.74921">
        <ele>259</ele>
        <time>2010-08-26T13:24:42Z</time>
      </trkpt>
      <trkpt lat="46.68338" lon="3.74846">
        <ele>257</ele>
        <time>2010-08-26T13:24:50Z</time>
      </trkpt>
      <trkpt lat="46.68356" lon="3.7477">
        <ele>255</ele>
        <time>2010-08-26T13:24:59Z</time>
      </trkpt>
      <trkpt lat="46.68383" lon="3.74704">
        <ele>254</ele>
        <time>2010-08-26T13:25:08Z</time>
      </trkpt>
      <trkpt lat="46.6841" lon="3.74641">
        <ele>256</ele>
        <time>2010-08-26T13:25:18Z</time>
      </trkpt>
      <trkpt lat="46.68439" lon="3.74577">
        <ele>260</ele>
        <time>2010-08-26T13:25:30Z</time>
      </trkpt>
      <trkpt lat="46.68467" lon="3.74516">
        <ele>263</ele>
        <time>2010-08-26T13:25:43Z</time>
      </trkpt>
      <trkpt lat="46.68493" lon="3.74455">
        <ele>264</ele>
        <time>2010-08-26T13:26:00Z</time>
      </trkpt>
      <trkpt lat="46.68521" lon="3.74388">
        <ele>264</ele>
        <time>2010-08-26T13:26:13Z</time>
      </trkpt>
      <trkpt lat="46.68551" lon="3.74324">
        <ele>261</ele>
        <time>2010-08-26T13:26:22Z</time>
      </trkpt>
      <trkpt lat="46.68581" lon="3.7426">
        <ele>257</ele>
        <time>2010-08-26T13:26:30Z</time>
      </trkpt>
      <trkpt lat="46.68869" lon="3.73723">
        <ele>260</ele>
        <time>2010-08-26T13:31:27Z</time>
      </trkpt>
      <trkpt lat="46.68877" lon="3.73662">
        <ele>255</ele>
        <time>2010-08-26T13:32:23Z</time>
      </trkpt>
      <trkpt lat="46.68889" lon="3.73585">
        <ele>254</ele>
        <time>2010-08-26T13:32:33Z</time>
      </trkpt>
      <trkpt lat="46.68899" lon="3.73511">
        <ele>256</ele>
        <time>2010-08-26T13:32:43Z</time>
      </trkpt>
      <trkpt lat="46.68908" lon="3.73436">
        <ele>258</ele>
        <time>2010-08-26T13:32:56Z</time>
      </trkpt>
      <trkpt lat="46.68909" lon="3.73362">
        <ele>262</ele>
        <time>2010-08-26T13:33:15Z</time>
      </trkpt>
      <trkpt lat="46.68903" lon="3.73289">
        <ele>264</ele>
        <time>2010-08-26T13:33:31Z</time>
      </trkpt>
      <trkpt lat="46.68896" lon="3.73213">
        <ele>264</ele>
        <time>2010-08-26T13:33:45Z</time>
      </trkpt>
      <trkpt lat="46.68889" lon="3.73135">
        <ele>264</ele>
        <time>2010-08-26T13:33:57Z</time>
      </trkpt>
      <trkpt lat="46.68885" lon="3.7306">
        <ele>262</ele>
        <time>2010-08-26T13:34:06Z</time>
      </trkpt>
      <trkpt lat="46.68885" lon="3.72977">
        <ele>262</ele>
        <time>2010-08-26T13:34:16Z</time>
      </trkpt>
      <trkpt lat="46.68904" lon="3.72902">
        <ele>262</ele>
        <time>2010-08-26T13:34:26Z</time>
      </trkpt>
      <trkpt lat="46.68929" lon="3.72831">
        <ele>261</ele>
        <time>2010-08-26T13:34:36Z</time>
      </trkpt>
      <trkpt lat="46.68951" lon="3.7276">
        <ele>261</ele>
        <time>2010-08-26T13:34:45Z</time>
      </trkpt>
      <trkpt lat="46.68972" lon="3.72683">
        <ele>260</ele>
        <time>2010-08-26T13:34:54Z</time>
      </trkpt>
      <trkpt lat="46.68993" lon="3.72602">
        <ele>259</ele>
        <time>2010-08-26T13:35:02Z</time>
      </trkpt>
      <trkpt lat="46.6901" lon="3.72526">
        <ele>258</ele>
        <time>2010-08-26T13:35:09Z</time>
      </trkpt>
      <trkpt lat="46.69024" lon="3.72448">
        <ele>257</ele>
        <time>2010-08-26T13:35:16Z</time>
      </trkpt>
      <trkpt lat="46.6904" lon="3.72365">
        <ele>257</ele>
        <time>2010-08-26T13:35:24Z</time>
      </trkpt>
      <trkpt lat="46.69069" lon="3.7229">
        <ele>257</ele>
        <time>2010-08-26T13:35:32Z</time>
      </trkpt>
      <trkpt lat="46.69108" lon="3.72237">
        <ele>258</ele>
        <time>2010-08-26T13:35:40Z</time>
      </trkpt>
      <trkpt lat="46.69152" lon="3.72195">
        <ele>260</ele>
        <time>2010-08-26T13:35:49Z</time>
      </trkpt>
      <trkpt lat="46.69193" lon="3.72143">
        <ele>262</ele>
        <time>2010-08-26T13:36:00Z</time>
      </trkpt>
      <trkpt lat="46.69234" lon="3.72101">
        <ele>262</ele>
        <time>2010-08-26T13:36:10Z</time>
      </trkpt>
      <trkpt lat="46.69278" lon="3.72058">
        <ele>262</ele>
        <time>2010-08-26T13:36:19Z</time>
      </trkpt>
      <trkpt lat="46.69325" lon="3.72013">
        <ele>261</ele>
        <time>2010-08-26T13:36:29Z</time>
      </trkpt>
      <trkpt lat="46.69371" lon="3.71976">
        <ele>260</ele>
        <time>2010-08-26T13:36:42Z</time>
      </trkpt>
      <trkpt lat="46.69418" lon="3.7194">
        <ele>260</ele>
        <time>2010-08-26T13:36:52Z</time>
      </trkpt>
      <trkpt lat="46.6946" lon="3.71894">
        <ele>260</ele>
        <time>2010-08-26T13:37:01Z</time>
      </trkpt>
      <trkpt lat="46.69498" lon="3.71843">
        <ele>259</ele>
        <time>2010-08-26T13:37:09Z</time>
      </trkpt>
      <trkpt lat="46.6953" lon="3.71776">
        <ele>255</ele>
        <time>2010-08-26T13:37:16Z</time>
      </trkpt>
      <trkpt lat="46.6956" lon="3.71709">
        <ele>252</ele>
        <time>2010-08-26T13:37:22Z</time>
      </trkpt>
      <trkpt lat="46.69589" lon="3.71638">
        <ele>249</ele>
        <time>2010-08-26T13:37:28Z</time>
      </trkpt>
      <trkpt lat="46.6962" lon="3.7157">
        <ele>248</ele>
        <time>2010-08-26T13:37:34Z</time>
      </trkpt>
      <trkpt lat="46.69658" lon="3.71505">
        <ele>248</ele>
        <time>2010-08-26T13:37:41Z</time>
      </trkpt>
      <trkpt lat="46.697" lon="3.71446">
        <ele>248</ele>
        <time>2010-08-26T13:37:49Z</time>
      </trkpt>
      <trkpt lat="46.6973" lon="3.71381">
        <ele>250</ele>
        <time>2010-08-26T13:37:58Z</time>
      </trkpt>
      <trkpt lat="46.69754" lon="3.71314">
        <ele>254</ele>
        <time>2010-08-26T13:38:11Z</time>
      </trkpt>
      <trkpt lat="46.69781" lon="3.71252">
        <ele>256</ele>
        <time>2010-08-26T13:38:26Z</time>
      </trkpt>
      <trkpt lat="46.69814" lon="3.71192">
        <ele>257</ele>
        <time>2010-08-26T13:38:39Z</time>
      </trkpt>
      <trkpt lat="46.69848" lon="3.71131">
        <ele>257</ele>
        <time>2010-08-26T13:38:51Z</time>
      </trkpt>
      <trkpt lat="46.69886" lon="3.71077">
        <ele>255</ele>
        <time>2010-08-26T13:38:59Z</time>
      </trkpt>
      <trkpt lat="46.69926" lon="3.71022">
        <ele>253</ele>
        <time>2010-08-26T13:39:06Z</time>
      </trkpt>
      <trkpt lat="46.69955" lon="3.70956">
        <ele>252</ele>
        <time>2010-08-26T13:39:13Z</time>
      </trkpt>
      <trkpt lat="46.69983" lon="3.70886">
        <ele>252</ele>
        <time>2010-08-26T13:39:21Z</time>
      </trkpt>
      <trkpt lat="46.70001" lon="3.70814">
        <ele>253</ele>
        <time>2010-08-26T13:39:30Z</time>
      </trkpt>
      <trkpt lat="46.70017" lon="3.70741">
        <ele>255</ele>
        <time>2010-08-26T13:39:40Z</time>
      </trkpt>
      <trkpt lat="46.7003" lon="3.70666">
        <ele>257</ele>
        <time>2010-08-26T13:39:49Z</time>
      </trkpt>
      <trkpt lat="46.70039" lon="3.70592">
        <ele>255</ele>
        <time>2010-08-26T13:39:57Z</time>
      </trkpt>
      <trkpt lat="46.70047" lon="3.70516">
        <ele>252</ele>
        <time>2010-08-26T13:40:04Z</time>
      </trkpt>
      <trkpt lat="46.70058" lon="3.70431">
        <ele>249</ele>
        <time>2010-08-26T13:40:11Z</time>
      </trkpt>
      <trkpt lat="46.7009" lon="3.70358">
        <ele>246</ele>
        <time>2010-08-26T13:40:17Z</time>
      </trkpt>
      <trkpt lat="46.70132" lon="3.70296">
        <ele>245</ele>
        <time>2010-08-26T13:40:23Z</time>
      </trkpt>
      <trkpt lat="46.70174" lon="3.70244">
        <ele>245</ele>
        <time>2010-08-26T13:40:29Z</time>
      </trkpt>
      <trkpt lat="46.7022" lon="3.70191">
        <ele>245</ele>
        <time>2010-08-26T13:40:37Z</time>
      </trkpt>
      <trkpt lat="46.70266" lon="3.70145">
        <ele>246</ele>
        <time>2010-08-26T13:40:46Z</time>
      </trkpt>
      <trkpt lat="46.70314" lon="3.70101">
        <ele>246</ele>
        <time>2010-08-26T13:40:55Z</time>
      </trkpt>
      <trkpt lat="46.70362" lon="3.70059">
        <ele>246</ele>
        <time>2010-08-26T13:41:04Z</time>
      </trkpt>
      <trkpt lat="46.70409" lon="3.70017">
        <ele>246</ele>
        <time>2010-08-26T13:41:13Z</time>
      </trkpt>
      <trkpt lat="46.70454" lon="3.69974">
        <ele>246</ele>
        <time>2010-08-26T13:41:22Z</time>
      </trkpt>
      <trkpt lat="46.70501" lon="3.69937">
        <ele>249</ele>
        <time>2010-08-26T13:41:32Z</time>
      </trkpt>
      <trkpt lat="46.70546" lon="3.69903">
        <ele>250</ele>
        <time>2010-08-26T13:41:42Z</time>
      </trkpt>
      <trkpt lat="46.70594" lon="3.69866">
        <ele>250</ele>
        <time>2010-08-26T13:41:52Z</time>
      </trkpt>
      <trkpt lat="46.7064" lon="3.6982">
        <ele>249</ele>
        <time>2010-08-26T13:42:01Z</time>
      </trkpt>
      <trkpt lat="46.70684" lon="3.69778">
        <ele>247</ele>
        <time>2010-08-26T13:42:09Z</time>
      </trkpt>
      <trkpt lat="46.70728" lon="3.69736">
        <ele>245</ele>
        <time>2010-08-26T13:42:16Z</time>
      </trkpt>
      <trkpt lat="46.70778" lon="3.69687">
        <ele>242</ele>
        <time>2010-08-26T13:42:23Z</time>
      </trkpt>
      <trkpt lat="46.70821" lon="3.69639">
        <ele>240</ele>
        <time>2010-08-26T13:42:29Z</time>
      </trkpt>
      <trkpt lat="46.70858" lon="3.69578">
        <ele>238</ele>
        <time>2010-08-26T13:42:35Z</time>
      </trkpt>
      <trkpt lat="46.70897" lon="3.69509">
        <ele>235</ele>
        <time>2010-08-26T13:42:41Z</time>
      </trkpt>
      <trkpt lat="46.70939" lon="3.69435">
        <ele>231</ele>
        <time>2010-08-26T13:42:47Z</time>
      </trkpt>
      <trkpt lat="46.70977" lon="3.69372">
        <ele>228</ele>
        <time>2010-08-26T13:42:52Z</time>
      </trkpt>
      <trkpt lat="46.71016" lon="3.69301">
        <ele>228</ele>
        <time>2010-08-26T13:42:58Z</time>
      </trkpt>
      <trkpt lat="46.7105" lon="3.6924">
        <ele>230</ele>
        <time>2010-08-26T13:43:05Z</time>
      </trkpt>
      <trkpt lat="46.71098" lon="3.69217">
        <ele>234</ele>
        <time>2010-08-26T13:43:16Z</time>
      </trkpt>
      <trkpt lat="46.71145" lon="3.69192">
        <ele>236</ele>
        <time>2010-08-26T13:43:28Z</time>
      </trkpt>
      <trkpt lat="46.71186" lon="3.69147">
        <ele>239</ele>
        <time>2010-08-26T13:43:42Z</time>
      </trkpt>
      <trkpt lat="46.71233" lon="3.69109">
        <ele>237</ele>
        <time>2010-08-26T13:43:53Z</time>
      </trkpt>
      <trkpt lat="46.7128" lon="3.69063">
        <ele>236</ele>
        <time>2010-08-26T13:44:03Z</time>
      </trkpt>
      <trkpt lat="46.71322" lon="3.69014">
        <ele>236</ele>
        <time>2010-08-26T13:44:13Z</time>
      </trkpt>
      <trkpt lat="46.71368" lon="3.68981">
        <ele>239</ele>
        <time>2010-08-26T13:44:24Z</time>
      </trkpt>
      <trkpt lat="46.71408" lon="3.6893">
        <ele>239</ele>
        <time>2010-08-26T13:44:35Z</time>
      </trkpt>
      <trkpt lat="46.71445" lon="3.68876">
        <ele>239</ele>
        <time>2010-08-26T13:44:45Z</time>
      </trkpt>
      <trkpt lat="46.71488" lon="3.68825">
        <ele>240</ele>
        <time>2010-08-26T13:44:56Z</time>
      </trkpt>
      <trkpt lat="46.7154" lon="3.68816">
        <ele>240</ele>
        <time>2010-08-26T13:45:06Z</time>
      </trkpt>
      <trkpt lat="46.7159" lon="3.68796">
        <ele>241</ele>
        <time>2010-08-26T13:45:16Z</time>
      </trkpt>
      <trkpt lat="46.71638" lon="3.68765">
        <ele>242</ele>
        <time>2010-08-26T13:45:27Z</time>
      </trkpt>
      <trkpt lat="46.71689" lon="3.6875">
        <ele>243</ele>
        <time>2010-08-26T13:45:38Z</time>
      </trkpt>
      <trkpt lat="46.71738" lon="3.68741">
        <ele>244</ele>
        <time>2010-08-26T13:45:48Z</time>
      </trkpt>
      <trkpt lat="46.71791" lon="3.68732">
        <ele>243</ele>
        <time>2010-08-26T13:45:57Z</time>
      </trkpt>
      <trkpt lat="46.71844" lon="3.68726">
        <ele>241</ele>
        <time>2010-08-26T13:46:05Z</time>
      </trkpt>
      <trkpt lat="46.71898" lon="3.68724">
        <ele>240</ele>
        <time>2010-08-26T13:46:13Z</time>
      </trkpt>
      <trkpt lat="46.71954" lon="3.68736">
        <ele>238</ele>
        <time>2010-08-26T13:46:22Z</time>
      </trkpt>
      <trkpt lat="46.72006" lon="3.68728">
        <ele>237</ele>
        <time>2010-08-26T13:46:30Z</time>
      </trkpt>
      <trkpt lat="46.72059" lon="3.68715">
        <ele>237</ele>
        <time>2010-08-26T13:46:38Z</time>
      </trkpt>
      <trkpt lat="46.72114" lon="3.68701">
        <ele>236</ele>
        <time>2010-08-26T13:46:47Z</time>
      </trkpt>
      <trkpt lat="46.72149" lon="3.68652">
        <ele>234</ele>
        <time>2010-08-26T13:47:23Z</time>
      </trkpt>
      <trkpt lat="46.7216" lon="3.6858">
        <ele>234</ele>
        <time>2010-08-26T13:47:37Z</time>
      </trkpt>
      <trkpt lat="46.72168" lon="3.68503">
        <ele>235</ele>
        <time>2010-08-26T13:47:49Z</time>
      </trkpt>
      <trkpt lat="46.72168" lon="3.68496">
        <ele>235</ele>
        <time>2010-08-26T13:47:50Z</time>
      </trkpt>
      <trkpt lat="46.72161" lon="3.68431">
        <ele>234</ele>
        <time>2010-08-26T13:48:19Z</time>
      </trkpt>
      <trkpt lat="46.72158" lon="3.6836">
        <ele>241</ele>
        <time>2010-08-26T14:07:50Z</time>
      </trkpt>
      <trkpt lat="46.72167" lon="3.6829">
        <ele>237</ele>
        <time>2010-08-26T14:08:02Z</time>
      </trkpt>
      <trkpt lat="46.72181" lon="3.68215">
        <ele>232</ele>
        <time>2010-08-26T14:08:15Z</time>
      </trkpt>
      <trkpt lat="46.72189" lon="3.6814">
        <ele>229</ele>
        <time>2010-08-26T14:08:23Z</time>
      </trkpt>
      <trkpt lat="46.72221" lon="3.68078">
        <ele>227</ele>
        <time>2010-08-26T14:08:31Z</time>
      </trkpt>
      <trkpt lat="46.7227" lon="3.68044">
        <ele>224</ele>
        <time>2010-08-26T14:08:38Z</time>
      </trkpt>
      <trkpt lat="46.72321" lon="3.67994">
        <ele>221</ele>
        <time>2010-08-26T14:08:45Z</time>
      </trkpt>
      <trkpt lat="46.72367" lon="3.67947">
        <ele>218</ele>
        <time>2010-08-26T14:08:51Z</time>
      </trkpt>
      <trkpt lat="46.72413" lon="3.67895">
        <ele>215</ele>
        <time>2010-08-26T14:08:57Z</time>
      </trkpt>
      <trkpt lat="46.72454" lon="3.67832">
        <ele>211</ele>
        <time>2010-08-26T14:09:03Z</time>
      </trkpt>
      <trkpt lat="46.7249" lon="3.67763">
        <ele>209</ele>
        <time>2010-08-26T14:09:09Z</time>
      </trkpt>
      <trkpt lat="46.72483" lon="3.67676">
        <ele>207</ele>
        <time>2010-08-26T14:09:16Z</time>
      </trkpt>
      <trkpt lat="46.72472" lon="3.67593">
        <ele>205</ele>
        <time>2010-08-26T14:09:24Z</time>
      </trkpt>
      <trkpt lat="46.72469" lon="3.67515">
        <ele>204</ele>
        <time>2010-08-26T14:09:55Z</time>
      </trkpt>
      <trkpt lat="46.72466" lon="3.67448">
        <ele>204</ele>
        <time>2010-08-26T14:10:57Z</time>
      </trkpt>
      <trkpt lat="46.72464" lon="3.67374">
        <ele>205</ele>
        <time>2010-08-26T14:11:07Z</time>
      </trkpt>
      <trkpt lat="46.72462" lon="3.67298">
        <ele>205</ele>
        <time>2010-08-26T14:11:17Z</time>
      </trkpt>
      <trkpt lat="46.72461" lon="3.67217">
        <ele>204</ele>
        <time>2010-08-26T14:11:27Z</time>
      </trkpt>
      <trkpt lat="46.72461" lon="3.67143">
        <ele>203</ele>
        <time>2010-08-26T14:11:36Z</time>
      </trkpt>
      <trkpt lat="46.72459" lon="3.67067">
        <ele>202</ele>
        <time>2010-08-26T14:11:45Z</time>
      </trkpt>
      <trkpt lat="46.72457" lon="3.66986">
        <ele>202</ele>
        <time>2010-08-26T14:11:54Z</time>
      </trkpt>
      <trkpt lat="46.72454" lon="3.66906">
        <ele>203</ele>
        <time>2010-08-26T14:12:03Z</time>
      </trkpt>
      <trkpt lat="46.7245" lon="3.66827">
        <ele>204</ele>
        <time>2010-08-26T14:12:12Z</time>
      </trkpt>
      <trkpt lat="46.72446" lon="3.66747">
        <ele>205</ele>
        <time>2010-08-26T14:12:21Z</time>
      </trkpt>
      <trkpt lat="46.72443" lon="3.66669">
        <ele>206</ele>
        <time>2010-08-26T14:12:30Z</time>
      </trkpt>
      <trkpt lat="46.72439" lon="3.66589">
        <ele>206</ele>
        <time>2010-08-26T14:12:39Z</time>
      </trkpt>
      <trkpt lat="46.72435" lon="3.66508">
        <ele>206</ele>
        <time>2010-08-26T14:12:48Z</time>
      </trkpt>
      <trkpt lat="46.72433" lon="3.66428">
        <ele>205</ele>
        <time>2010-08-26T14:12:57Z</time>
      </trkpt>
      <trkpt lat="46.72431" lon="3.66352">
        <ele>205</ele>
        <time>2010-08-26T14:13:05Z</time>
      </trkpt>
      <trkpt lat="46.72437" lon="3.66275">
        <ele>205</ele>
        <time>2010-08-26T14:13:13Z</time>
      </trkpt>
      <trkpt lat="46.72444" lon="3.66198">
        <ele>205</ele>
        <time>2010-08-26T14:13:21Z</time>
      </trkpt>
      <trkpt lat="46.72452" lon="3.6612">
        <ele>205</ele>
        <time>2010-08-26T14:13:29Z</time>
      </trkpt>
      <trkpt lat="46.72464" lon="3.66045">
        <ele>205</ele>
        <time>2010-08-26T14:13:37Z</time>
      </trkpt>
      <trkpt lat="46.72479" lon="3.65971">
        <ele>205</ele>
        <time>2010-08-26T14:13:45Z</time>
      </trkpt>
      <trkpt lat="46.72493" lon="3.65896">
        <ele>206</ele>
        <time>2010-08-26T14:13:53Z</time>
      </trkpt>
      <trkpt lat="46.72508" lon="3.65823">
        <ele>206</ele>
        <time>2010-08-26T14:14:01Z</time>
      </trkpt>
      <trkpt lat="46.72535" lon="3.65749">
        <ele>206</ele>
        <time>2010-08-26T14:14:10Z</time>
      </trkpt>
      <trkpt lat="46.7257" lon="3.65683">
        <ele>207</ele>
        <time>2010-08-26T14:14:19Z</time>
      </trkpt>
      <trkpt lat="46.72604" lon="3.6562">
        <ele>208</ele>
        <time>2010-08-26T14:14:27Z</time>
      </trkpt>
      <trkpt lat="46.72638" lon="3.65557">
        <ele>209</ele>
        <time>2010-08-26T14:14:35Z</time>
      </trkpt>
      <trkpt lat="46.72672" lon="3.65495">
        <ele>209</ele>
        <time>2010-08-26T14:14:43Z</time>
      </trkpt>
      <trkpt lat="46.72705" lon="3.65433">
        <ele>207</ele>
        <time>2010-08-26T14:14:51Z</time>
      </trkpt>
      <trkpt lat="46.72742" lon="3.65371">
        <ele>206</ele>
        <time>2010-08-26T14:14:59Z</time>
      </trkpt>
      <trkpt lat="46.72776" lon="3.65309">
        <ele>205</ele>
        <time>2010-08-26T14:15:07Z</time>
      </trkpt>
      <trkpt lat="46.72805" lon="3.65242">
        <ele>204</ele>
        <time>2010-08-26T14:15:15Z</time>
      </trkpt>
      <trkpt lat="46.72832" lon="3.65173">
        <ele>204</ele>
        <time>2010-08-26T14:15:23Z</time>
      </trkpt>
      <trkpt lat="46.72858" lon="3.65105">
        <ele>204</ele>
        <time>2010-08-26T14:15:31Z</time>
      </trkpt>
      <trkpt lat="46.72883" lon="3.65036">
        <ele>205</ele>
        <time>2010-08-26T14:15:39Z</time>
      </trkpt>
      <trkpt lat="46.72909" lon="3.64968">
        <ele>205</ele>
        <time>2010-08-26T14:15:47Z</time>
      </trkpt>
      <trkpt lat="46.72935" lon="3.649">
        <ele>205</ele>
        <time>2010-08-26T14:15:55Z</time>
      </trkpt>
      <trkpt lat="46.72961" lon="3.64831">
        <ele>205</ele>
        <time>2010-08-26T14:16:03Z</time>
      </trkpt>
      <trkpt lat="46.72988" lon="3.64761">
        <ele>205</ele>
        <time>2010-08-26T14:16:11Z</time>
      </trkpt>
      <trkpt lat="46.73014" lon="3.64689">
        <ele>205</ele>
        <time>2010-08-26T14:16:19Z</time>
      </trkpt>
      <trkpt lat="46.73041" lon="3.64618">
        <ele>205</ele>
        <time>2010-08-26T14:16:27Z</time>
      </trkpt>
      <trkpt lat="46.73068" lon="3.64547">
        <ele>205</ele>
        <time>2010-08-26T14:16:35Z</time>
      </trkpt>
      <trkpt lat="46.73094" lon="3.64475">
        <ele>205</ele>
        <time>2010-08-26T14:16:43Z</time>
      </trkpt>
      <trkpt lat="46.73121" lon="3.64404">
        <ele>205</ele>
        <time>2010-08-26T14:16:51Z</time>
      </trkpt>
      <trkpt lat="46.73147" lon="3.64333">
        <ele>205</ele>
        <time>2010-08-26T14:16:59Z</time>
      </trkpt>
      <trkpt lat="46.73174" lon="3.64262">
        <ele>205</ele>
        <time>2010-08-26T14:17:07Z</time>
      </trkpt>
      <trkpt lat="46.73188" lon="3.64187">
        <ele>205</ele>
        <time>2010-08-26T14:17:15Z</time>
      </trkpt>
      <trkpt lat="46.73233" lon="3.64156">
        <ele>203</ele>
        <time>2010-08-26T14:17:33Z</time>
      </trkpt>
      <trkpt lat="46.7328" lon="3.64192">
        <ele>203</ele>
        <time>2010-08-26T14:17:42Z</time>
      </trkpt>
      <trkpt lat="46.7333" lon="3.64229">
        <ele>203</ele>
        <time>2010-08-26T14:17:51Z</time>
      </trkpt>
      <trkpt lat="46.73378" lon="3.64265">
        <ele>203</ele>
        <time>2010-08-26T14:18:00Z</time>
      </trkpt>
      <trkpt lat="46.73426" lon="3.64302">
        <ele>203</ele>
        <time>2010-08-26T14:18:09Z</time>
      </trkpt>
      <trkpt lat="46.73476" lon="3.64339">
        <ele>204</ele>
        <time>2010-08-26T14:18:18Z</time>
      </trkpt>
      <trkpt lat="46.73525" lon="3.64375">
        <ele>204</ele>
        <time>2010-08-26T14:18:27Z</time>
      </trkpt>
      <trkpt lat="46.73573" lon="3.64412">
        <ele>203</ele>
        <time>2010-08-26T14:18:36Z</time>
      </trkpt>
      <trkpt lat="46.73623" lon="3.64449">
        <ele>203</ele>
        <time>2010-08-26T14:18:45Z</time>
      </trkpt>
      <trkpt lat="46.73673" lon="3.64488">
        <ele>202</ele>
        <time>2010-08-26T14:18:54Z</time>
      </trkpt>
      <trkpt lat="46.73722" lon="3.64524">
        <ele>202</ele>
        <time>2010-08-26T14:19:03Z</time>
      </trkpt>
      <trkpt lat="46.73771" lon="3.64561">
        <ele>202</ele>
        <time>2010-08-26T14:19:12Z</time>
      </trkpt>
      <trkpt lat="46.73819" lon="3.64597">
        <ele>202</ele>
        <time>2010-08-26T14:19:21Z</time>
      </trkpt>
      <trkpt lat="46.73869" lon="3.64635">
        <ele>203</ele>
        <time>2010-08-26T14:19:30Z</time>
      </trkpt>
      <trkpt lat="46.73917" lon="3.64672">
        <ele>203</ele>
        <time>2010-08-26T14:19:39Z</time>
      </trkpt>
      <trkpt lat="46.73967" lon="3.64709">
        <ele>203</ele>
        <time>2010-08-26T14:19:48Z</time>
      </trkpt>
      <trkpt lat="46.74016" lon="3.64746">
        <ele>203</ele>
        <time>2010-08-26T14:19:57Z</time>
      </trkpt>
      <trkpt lat="46.74066" lon="3.64784">
        <ele>202</ele>
        <time>2010-08-26T14:20:06Z</time>
      </trkpt>
      <trkpt lat="46.74117" lon="3.64822">
        <ele>202</ele>
        <time>2010-08-26T14:20:15Z</time>
      </trkpt>
      <trkpt lat="46.74166" lon="3.6486">
        <ele>202</ele>
        <time>2010-08-26T14:20:24Z</time>
      </trkpt>
      <trkpt lat="46.74216" lon="3.64897">
        <ele>202</ele>
        <time>2010-08-26T14:20:33Z</time>
      </trkpt>
      <trkpt lat="46.74264" lon="3.64933">
        <ele>203</ele>
        <time>2010-08-26T14:20:42Z</time>
      </trkpt>
      <trkpt lat="46.74314" lon="3.6497">
        <ele>203</ele>
        <time>2010-08-26T14:20:51Z</time>
      </trkpt>
      <trkpt lat="46.74363" lon="3.65004">
        <ele>203</ele>
        <time>2010-08-26T14:21:01Z</time>
      </trkpt>
      <trkpt lat="46.74361" lon="3.64935">
        <ele>203</ele>
        <time>2010-08-26T14:21:12Z</time>
      </trkpt>
      <trkpt lat="46.74337" lon="3.64868">
        <ele>202</ele>
        <time>2010-08-26T14:21:21Z</time>
      </trkpt>
      <trkpt lat="46.74307" lon="3.64802">
        <ele>202</ele>
        <time>2010-08-26T14:21:30Z</time>
      </trkpt>
      <trkpt lat="46.74297" lon="3.64722">
        <ele>201</ele>
        <time>2010-08-26T14:21:39Z</time>
      </trkpt>
      <trkpt lat="46.74289" lon="3.64642">
        <ele>202</ele>
        <time>2010-08-26T14:21:48Z</time>
      </trkpt>
      <trkpt lat="46.74247" lon="3.64589">
        <ele>202</ele>
        <time>2010-08-26T14:21:57Z</time>
      </trkpt>
      <trkpt lat="46.74213" lon="3.64528">
        <ele>202</ele>
        <time>2010-08-26T14:22:06Z</time>
      </trkpt>
      <trkpt lat="46.74179" lon="3.64462">
        <ele>201</ele>
        <time>2010-08-26T14:22:15Z</time>
      </trkpt>
      <trkpt lat="46.74166" lon="3.64381">
        <ele>202</ele>
        <time>2010-08-26T14:22:24Z</time>
      </trkpt>
      <trkpt lat="46.74167" lon="3.64305">
        <ele>202</ele>
        <time>2010-08-26T14:22:32Z</time>
      </trkpt>
      <trkpt lat="46.74163" lon="3.6423">
        <ele>202</ele>
        <time>2010-08-26T14:22:40Z</time>
      </trkpt>
      <trkpt lat="46.74141" lon="3.64153">
        <ele>203</ele>
        <time>2010-08-26T14:22:49Z</time>
      </trkpt>
      <trkpt lat="46.7412" lon="3.64076">
        <ele>203</ele>
        <time>2010-08-26T14:22:58Z</time>
      </trkpt>
      <trkpt lat="46.74108" lon="3.63994">
        <ele>203</ele>
        <time>2010-08-26T14:23:07Z</time>
      </trkpt>
      <trkpt lat="46.74146" lon="3.63935">
        <ele>203</ele>
        <time>2010-08-26T14:23:16Z</time>
      </trkpt>
      <trkpt lat="46.74187" lon="3.63879">
        <ele>203</ele>
        <time>2010-08-26T14:23:25Z</time>
      </trkpt>
      <trkpt lat="46.74233" lon="3.63832">
        <ele>204</ele>
        <time>2010-08-26T14:23:34Z</time>
      </trkpt>
      <trkpt lat="46.7428" lon="3.63787">
        <ele>204</ele>
        <time>2010-08-26T14:23:43Z</time>
      </trkpt>
      <trkpt lat="46.74323" lon="3.63733">
        <ele>204</ele>
        <time>2010-08-26T14:23:52Z</time>
      </trkpt>
      <trkpt lat="46.74364" lon="3.63675">
        <ele>203</ele>
        <time>2010-08-26T14:24:01Z</time>
      </trkpt>
      <trkpt lat="46.74387" lon="3.63603">
        <ele>203</ele>
        <time>2010-08-26T14:24:10Z</time>
      </trkpt>
      <trkpt lat="46.74407" lon="3.63527">
        <ele>203</ele>
        <time>2010-08-26T14:24:19Z</time>
      </trkpt>
      <trkpt lat="46.74434" lon="3.63455">
        <ele>203</ele>
        <time>2010-08-26T14:24:28Z</time>
      </trkpt>
      <trkpt lat="46.74483" lon="3.63423">
        <ele>203</ele>
        <time>2010-08-26T14:24:37Z</time>
      </trkpt>
      <trkpt lat="46.74533" lon="3.63392">
        <ele>204</ele>
        <time>2010-08-26T14:24:46Z</time>
      </trkpt>
      <trkpt lat="46.74583" lon="3.63356">
        <ele>204</ele>
        <time>2010-08-26T14:24:55Z</time>
      </trkpt>
      <trkpt lat="46.74622" lon="3.63307">
        <ele>204</ele>
        <time>2010-08-26T14:25:04Z</time>
      </trkpt>
      <trkpt lat="46.74673" lon="3.63273">
        <ele>204</ele>
        <time>2010-08-26T14:25:13Z</time>
      </trkpt>
      <trkpt lat="46.74719" lon="3.63228">
        <ele>203</ele>
        <time>2010-08-26T14:25:22Z</time>
      </trkpt>
      <trkpt lat="46.74765" lon="3.63255">
        <ele>202</ele>
        <time>2010-08-26T14:25:32Z</time>
      </trkpt>
      <trkpt lat="46.74812" lon="3.63287">
        <ele>202</ele>
        <time>2010-08-26T14:25:41Z</time>
      </trkpt>
      <trkpt lat="46.74863" lon="3.63312">
        <ele>201</ele>
        <time>2010-08-26T14:25:50Z</time>
      </trkpt>
      <trkpt lat="46.74918" lon="3.63311">
        <ele>202</ele>
        <time>2010-08-26T14:25:59Z</time>
      </trkpt>
      <trkpt lat="46.74974" lon="3.63297">
        <ele>203</ele>
        <time>2010-08-26T14:26:08Z</time>
      </trkpt>
      <trkpt lat="46.75028" lon="3.63277">
        <ele>203</ele>
        <time>2010-08-26T14:26:17Z</time>
      </trkpt>
      <trkpt lat="46.75079" lon="3.63256">
        <ele>203</ele>
        <time>2010-08-26T14:26:26Z</time>
      </trkpt>
      <trkpt lat="46.75114" lon="3.63199">
        <ele>204</ele>
        <time>2010-08-26T14:26:35Z</time>
      </trkpt>
      <trkpt lat="46.75154" lon="3.63147">
        <ele>203</ele>
        <time>2010-08-26T14:26:44Z</time>
      </trkpt>
      <trkpt lat="46.75178" lon="3.63078">
        <ele>204</ele>
        <time>2010-08-26T14:26:53Z</time>
      </trkpt>
      <trkpt lat="46.75208" lon="3.63018">
        <ele>207</ele>
        <time>2010-08-26T14:27:07Z</time>
      </trkpt>
      <trkpt lat="46.75237" lon="3.62957">
        <ele>211</ele>
        <time>2010-08-26T14:27:49Z</time>
      </trkpt>
      <trkpt lat="46.75276" lon="3.62916">
        <ele>210</ele>
        <time>2010-08-26T14:28:03Z</time>
      </trkpt>
      <trkpt lat="46.75317" lon="3.62872">
        <ele>206</ele>
        <time>2010-08-26T14:33:21Z</time>
      </trkpt>
      <trkpt lat="46.75357" lon="3.6283">
        <ele>205</ele>
        <time>2010-08-26T14:33:36Z</time>
      </trkpt>
      <trkpt lat="46.75391" lon="3.62776">
        <ele>204</ele>
        <time>2010-08-26T14:33:50Z</time>
      </trkpt>
      <trkpt lat="46.75424" lon="3.6272">
        <ele>203</ele>
        <time>2010-08-26T14:34:04Z</time>
      </trkpt>
      <trkpt lat="46.75456" lon="3.62666">
        <ele>197</ele>
        <time>2010-08-26T14:36:05Z</time>
      </trkpt>
      <trkpt lat="46.75452" lon="3.62669">
        <ele>210</ele>
        <time>2010-08-26T14:43:01Z</time>
      </trkpt>
      <trkpt lat="46.755" lon="3.62674">
        <ele>204</ele>
        <time>2010-08-26T14:43:18Z</time>
      </trkpt>
      <trkpt lat="46.75552" lon="3.6268">
        <ele>202</ele>
        <time>2010-08-26T14:43:27Z</time>
      </trkpt>
      <trkpt lat="46.75601" lon="3.62701">
        <ele>203</ele>
        <time>2010-08-26T14:43:36Z</time>
      </trkpt>
      <trkpt lat="46.75651" lon="3.62723">
        <ele>205</ele>
        <time>2010-08-26T14:43:46Z</time>
      </trkpt>
      <trkpt lat="46.75702" lon="3.62746">
        <ele>205</ele>
        <time>2010-08-26T14:43:56Z</time>
      </trkpt>
      <trkpt lat="46.7575" lon="3.62768">
        <ele>205</ele>
        <time>2010-08-26T14:44:05Z</time>
      </trkpt>
      <trkpt lat="46.75801" lon="3.62791">
        <ele>205</ele>
        <time>2010-08-26T14:44:14Z</time>
      </trkpt>
      <trkpt lat="46.75853" lon="3.62815">
        <ele>204</ele>
        <time>2010-08-26T14:44:23Z</time>
      </trkpt>
      <trkpt lat="46.75904" lon="3.62839">
        <ele>204</ele>
        <time>2010-08-26T14:44:32Z</time>
      </trkpt>
      <trkpt lat="46.75955" lon="3.62863">
        <ele>203</ele>
        <time>2010-08-26T14:44:41Z</time>
      </trkpt>
      <trkpt lat="46.76007" lon="3.62886">
        <ele>203</ele>
        <time>2010-08-26T14:44:50Z</time>
      </trkpt>
      <trkpt lat="46.7606" lon="3.629">
        <ele>203</ele>
        <time>2010-08-26T14:44:59Z</time>
      </trkpt>
      <trkpt lat="46.76113" lon="3.6291">
        <ele>203</ele>
        <time>2010-08-26T14:45:08Z</time>
      </trkpt>
      <trkpt lat="46.76162" lon="3.6293">
        <ele>203</ele>
        <time>2010-08-26T14:45:17Z</time>
      </trkpt>
      <trkpt lat="46.76209" lon="3.62972">
        <ele>204</ele>
        <time>2010-08-26T14:45:27Z</time>
      </trkpt>
      <trkpt lat="46.76259" lon="3.62983">
        <ele>206</ele>
        <time>2010-08-26T14:45:38Z</time>
      </trkpt>
      <trkpt lat="46.763" lon="3.62937">
        <ele>206</ele>
        <time>2010-08-26T14:45:48Z</time>
      </trkpt>
      <trkpt lat="46.76337" lon="3.62877">
        <ele>206</ele>
        <time>2010-08-26T14:45:58Z</time>
      </trkpt>
      <trkpt lat="46.76371" lon="3.62822">
        <ele>206</ele>
        <time>2010-08-26T14:46:07Z</time>
      </trkpt>
      <trkpt lat="46.76405" lon="3.62764">
        <ele>205</ele>
        <time>2010-08-26T14:46:16Z</time>
      </trkpt>
      <trkpt lat="46.76442" lon="3.62702">
        <ele>205</ele>
        <time>2010-08-26T14:46:26Z</time>
      </trkpt>
      <trkpt lat="46.7648" lon="3.62652">
        <ele>205</ele>
        <time>2010-08-26T14:46:36Z</time>
      </trkpt>
      <trkpt lat="46.7653" lon="3.62643">
        <ele>204</ele>
        <time>2010-08-26T14:46:47Z</time>
      </trkpt>
      <trkpt lat="46.76566" lon="3.62589">
        <ele>204</ele>
        <time>2010-08-26T14:46:57Z</time>
      </trkpt>
      <trkpt lat="46.76585" lon="3.62516">
        <ele>204</ele>
        <time>2010-08-26T14:47:07Z</time>
      </trkpt>
      <trkpt lat="46.76591" lon="3.62439">
        <ele>202</ele>
        <time>2010-08-26T14:47:17Z</time>
      </trkpt>
      <trkpt lat="46.76603" lon="3.6236">
        <ele>203</ele>
        <time>2010-08-26T14:47:27Z</time>
      </trkpt>
      <trkpt lat="46.76622" lon="3.62288">
        <ele>204</ele>
        <time>2010-08-26T14:47:36Z</time>
      </trkpt>
      <trkpt lat="46.76651" lon="3.62222">
        <ele>205</ele>
        <time>2010-08-26T14:47:45Z</time>
      </trkpt>
      <trkpt lat="46.76694" lon="3.62169">
        <ele>204</ele>
        <time>2010-08-26T14:47:54Z</time>
      </trkpt>
      <trkpt lat="46.76743" lon="3.62139">
        <ele>202</ele>
        <time>2010-08-26T14:48:02Z</time>
      </trkpt>
      <trkpt lat="46.76791" lon="3.62095">
        <ele>202</ele>
        <time>2010-08-26T14:48:11Z</time>
      </trkpt>
      <trkpt lat="46.7683" lon="3.62046">
        <ele>203</ele>
        <time>2010-08-26T14:48:19Z</time>
      </trkpt>
      <trkpt lat="46.76867" lon="3.61981">
        <ele>203</ele>
        <time>2010-08-26T14:48:28Z</time>
      </trkpt>
      <trkpt lat="46.76899" lon="3.61921">
        <ele>202</ele>
        <time>2010-08-26T14:48:36Z</time>
      </trkpt>
      <trkpt lat="46.76928" lon="3.61848">
        <ele>202</ele>
        <time>2010-08-26T14:48:45Z</time>
      </trkpt>
      <trkpt lat="46.76952" lon="3.61779">
        <ele>201</ele>
        <time>2010-08-26T14:48:53Z</time>
      </trkpt>
      <trkpt lat="46.76978" lon="3.61709">
        <ele>201</ele>
        <time>2010-08-26T14:49:01Z</time>
      </trkpt>
      <trkpt lat="46.77005" lon="3.61639">
        <ele>201</ele>
        <time>2010-08-26T14:49:09Z</time>
      </trkpt>
      <trkpt lat="46.77041" lon="3.61582">
        <ele>200</ele>
        <time>2010-08-26T14:49:17Z</time>
      </trkpt>
      <trkpt lat="46.77074" lon="3.61521">
        <ele>199</ele>
        <time>2010-08-26T14:49:25Z</time>
      </trkpt>
      <trkpt lat="46.77118" lon="3.61467">
        <ele>200</ele>
        <time>2010-08-26T14:49:34Z</time>
      </trkpt>
      <trkpt lat="46.77168" lon="3.61435">
        <ele>201</ele>
        <time>2010-08-26T14:49:43Z</time>
      </trkpt>
      <trkpt lat="46.77209" lon="3.61376">
        <ele>201</ele>
        <time>2010-08-26T14:49:52Z</time>
      </trkpt>
      <trkpt lat="46.77245" lon="3.61319">
        <ele>201</ele>
        <time>2010-08-26T14:50:00Z</time>
      </trkpt>
      <trkpt lat="46.77297" lon="3.61288">
        <ele>202</ele>
        <time>2010-08-26T14:50:09Z</time>
      </trkpt>
      <trkpt lat="46.77349" lon="3.61267">
        <ele>202</ele>
        <time>2010-08-26T14:50:18Z</time>
      </trkpt>
      <trkpt lat="46.77403" lon="3.61258">
        <ele>203</ele>
        <time>2010-08-26T14:50:27Z</time>
      </trkpt>
      <trkpt lat="46.77458" lon="3.61251">
        <ele>203</ele>
        <time>2010-08-26T14:50:36Z</time>
      </trkpt>
      <trkpt lat="46.77509" lon="3.61215">
        <ele>203</ele>
        <time>2010-08-26T14:50:45Z</time>
      </trkpt>
      <trkpt lat="46.77553" lon="3.61176">
        <ele>203</ele>
        <time>2010-08-26T14:50:53Z</time>
      </trkpt>
      <trkpt lat="46.77601" lon="3.61132">
        <ele>204</ele>
        <time>2010-08-26T14:51:02Z</time>
      </trkpt>
      <trkpt lat="46.77641" lon="3.61084">
        <ele>203</ele>
        <time>2010-08-26T14:51:10Z</time>
      </trkpt>
      <trkpt lat="46.77678" lon="3.61029">
        <ele>203</ele>
        <time>2010-08-26T14:51:18Z</time>
      </trkpt>
      <trkpt lat="46.7771" lon="3.60969">
        <ele>202</ele>
        <time>2010-08-26T14:51:26Z</time>
      </trkpt>
      <trkpt lat="46.77737" lon="3.60901">
        <ele>201</ele>
        <time>2010-08-26T14:51:34Z</time>
      </trkpt>
      <trkpt lat="46.77782" lon="3.60861">
        <ele>201</ele>
        <time>2010-08-26T14:51:42Z</time>
      </trkpt>
      <trkpt lat="46.77834" lon="3.60839">
        <ele>201</ele>
        <time>2010-08-26T14:51:50Z</time>
      </trkpt>
      <trkpt lat="46.77887" lon="3.60827">
        <ele>202</ele>
        <time>2010-08-26T14:51:59Z</time>
      </trkpt>
      <trkpt lat="46.77938" lon="3.60795">
        <ele>203</ele>
        <time>2010-08-26T14:52:08Z</time>
      </trkpt>
      <trkpt lat="46.77982" lon="3.60741">
        <ele>202</ele>
        <time>2010-08-26T14:52:17Z</time>
      </trkpt>
      <trkpt lat="46.78025" lon="3.60686">
        <ele>202</ele>
        <time>2010-08-26T14:52:26Z</time>
      </trkpt>
      <trkpt lat="46.78067" lon="3.60629">
        <ele>202</ele>
        <time>2010-08-26T14:52:35Z</time>
      </trkpt>
      <trkpt lat="46.78104" lon="3.60576">
        <ele>202</ele>
        <time>2010-08-26T14:52:43Z</time>
      </trkpt>
      <trkpt lat="46.78145" lon="3.60518">
        <ele>202</ele>
        <time>2010-08-26T14:52:52Z</time>
      </trkpt>
      <trkpt lat="46.78182" lon="3.60457">
        <ele>202</ele>
        <time>2010-08-26T14:53:01Z</time>
      </trkpt>
      <trkpt lat="46.7822" lon="3.60393">
        <ele>203</ele>
        <time>2010-08-26T14:53:10Z</time>
      </trkpt>
      <trkpt lat="46.78261" lon="3.60336">
        <ele>203</ele>
        <time>2010-08-26T14:53:19Z</time>
      </trkpt>
      <trkpt lat="46.78309" lon="3.6029">
        <ele>202</ele>
        <time>2010-08-26T14:53:28Z</time>
      </trkpt>
      <trkpt lat="46.78355" lon="3.60255">
        <ele>202</ele>
        <time>2010-08-26T14:53:36Z</time>
      </trkpt>
      <trkpt lat="46.78401" lon="3.60222">
        <ele>202</ele>
        <time>2010-08-26T14:53:44Z</time>
      </trkpt>
      <trkpt lat="46.78452" lon="3.60185">
        <ele>202</ele>
        <time>2010-08-26T14:53:53Z</time>
      </trkpt>
      <trkpt lat="46.78497" lon="3.60147">
        <ele>201</ele>
        <time>2010-08-26T14:54:01Z</time>
      </trkpt>
      <trkpt lat="46.78547" lon="3.60107">
        <ele>202</ele>
        <time>2010-08-26T14:54:10Z</time>
      </trkpt>
      <trkpt lat="46.78597" lon="3.60069">
        <ele>202</ele>
        <time>2010-08-26T14:54:19Z</time>
      </trkpt>
      <trkpt lat="46.78643" lon="3.60023">
        <ele>202</ele>
        <time>2010-08-26T14:54:28Z</time>
      </trkpt>
      <trkpt lat="46.78685" lon="3.59967">
        <ele>202</ele>
        <time>2010-08-26T14:54:37Z</time>
      </trkpt>
      <trkpt lat="46.78716" lon="3.59897">
        <ele>202</ele>
        <time>2010-08-26T14:54:46Z</time>
      </trkpt>
      <trkpt lat="46.78745" lon="3.5983">
        <ele>201</ele>
        <time>2010-08-26T14:54:55Z</time>
      </trkpt>
      <trkpt lat="46.78796" lon="3.59818">
        <ele>201</ele>
        <time>2010-08-26T14:55:04Z</time>
      </trkpt>
      <trkpt lat="46.78819" lon="3.59756">
        <ele>201</ele>
        <time>2010-08-26T14:55:18Z</time>
      </trkpt>
      <trkpt lat="46.78821" lon="3.59676">
        <ele>199</ele>
        <time>2010-08-26T14:55:27Z</time>
      </trkpt>
      <trkpt lat="46.78828" lon="3.59592">
        <ele>197</ele>
        <time>2010-08-26T14:55:36Z</time>
      </trkpt>
      <trkpt lat="46.7883" lon="3.59516">
        <ele>196</ele>
        <time>2010-08-26T14:55:44Z</time>
      </trkpt>
      <trkpt lat="46.78821" lon="3.59436">
        <ele>196</ele>
        <time>2010-08-26T14:55:53Z</time>
      </trkpt>
      <trkpt lat="46.788" lon="3.59362">
        <ele>197</ele>
        <time>2010-08-26T14:56:02Z</time>
      </trkpt>
      <trkpt lat="46.78801" lon="3.59284">
        <ele>196</ele>
        <time>2010-08-26T14:56:13Z</time>
      </trkpt>
      <trkpt lat="46.78848" lon="3.59251">
        <ele>196</ele>
        <time>2010-08-26T14:56:22Z</time>
      </trkpt>
      <trkpt lat="46.78868" lon="3.59178">
        <ele>196</ele>
        <time>2010-08-26T14:56:31Z</time>
      </trkpt>
      <trkpt lat="46.78882" lon="3.59099">
        <ele>195</ele>
        <time>2010-08-26T14:56:40Z</time>
      </trkpt>
      <trkpt lat="46.78908" lon="3.59031">
        <ele>194</ele>
        <time>2010-08-26T14:56:48Z</time>
      </trkpt>
      <trkpt lat="46.78932" lon="3.58961">
        <ele>193</ele>
        <time>2010-08-26T14:56:56Z</time>
      </trkpt>
      <trkpt lat="46.78947" lon="3.58886">
        <ele>193</ele>
        <time>2010-08-26T14:57:04Z</time>
      </trkpt>
      <trkpt lat="46.78956" lon="3.58809">
        <ele>193</ele>
        <time>2010-08-26T14:57:12Z</time>
      </trkpt>
      <trkpt lat="46.78957" lon="3.58732">
        <ele>194</ele>
        <time>2010-08-26T14:57:20Z</time>
      </trkpt>
      <trkpt lat="46.7896" lon="3.58647">
        <ele>195</ele>
        <time>2010-08-26T14:57:29Z</time>
      </trkpt>
      <trkpt lat="46.78965" lon="3.58571">
        <ele>193</ele>
        <time>2010-08-26T14:57:37Z</time>
      </trkpt>
      <trkpt lat="46.78976" lon="3.58497">
        <ele>191</ele>
        <time>2010-08-26T14:57:45Z</time>
      </trkpt>
      <trkpt lat="46.79004" lon="3.58432">
        <ele>190</ele>
        <time>2010-08-26T14:57:53Z</time>
      </trkpt>
      <trkpt lat="46.79036" lon="3.58373">
        <ele>192</ele>
        <time>2010-08-26T14:58:01Z</time>
      </trkpt>
      <trkpt lat="46.79055" lon="3.58301">
        <ele>193</ele>
        <time>2010-08-26T14:58:09Z</time>
      </trkpt>
      <trkpt lat="46.79035" lon="3.58223">
        <ele>193</ele>
        <time>2010-08-26T14:58:18Z</time>
      </trkpt>
      <trkpt lat="46.79036" lon="3.58139">
        <ele>195</ele>
        <time>2010-08-26T14:58:27Z</time>
      </trkpt>
      <trkpt lat="46.7905" lon="3.58066">
        <ele>196</ele>
        <time>2010-08-26T14:58:36Z</time>
      </trkpt>
      <trkpt lat="46.79058" lon="3.5799">
        <ele>196</ele>
        <time>2010-08-26T14:58:45Z</time>
      </trkpt>
      <trkpt lat="46.79036" lon="3.57921">
        <ele>196</ele>
        <time>2010-08-26T14:58:54Z</time>
      </trkpt>
      <trkpt lat="46.78999" lon="3.57868">
        <ele>196</ele>
        <time>2010-08-26T14:59:02Z</time>
      </trkpt>
      <trkpt lat="46.78965" lon="3.578">
        <ele>195</ele>
        <time>2010-08-26T14:59:11Z</time>
      </trkpt>
      <trkpt lat="46.78934" lon="3.57737">
        <ele>194</ele>
        <time>2010-08-26T14:59:19Z</time>
      </trkpt>
      <trkpt lat="46.78905" lon="3.57672">
        <ele>194</ele>
        <time>2010-08-26T14:59:27Z</time>
      </trkpt>
      <trkpt lat="46.78886" lon="3.57597">
        <ele>193</ele>
        <time>2010-08-26T14:59:35Z</time>
      </trkpt>
      <trkpt lat="46.78867" lon="3.57523">
        <ele>194</ele>
        <time>2010-08-26T14:59:43Z</time>
      </trkpt>
      <trkpt lat="46.78838" lon="3.57458">
        <ele>194</ele>
        <time>2010-08-26T14:59:51Z</time>
      </trkpt>
      <trkpt lat="46.78807" lon="3.57396">
        <ele>194</ele>
        <time>2010-08-26T14:59:59Z</time>
      </trkpt>
      <trkpt lat="46.78778" lon="3.57331">
        <ele>195</ele>
        <time>2010-08-26T15:00:07Z</time>
      </trkpt>
      <trkpt lat="46.78764" lon="3.57257">
        <ele>195</ele>
        <time>2010-08-26T15:00:15Z</time>
      </trkpt>
      <trkpt lat="46.78754" lon="3.57182">
        <ele>196</ele>
        <time>2010-08-26T15:00:23Z</time>
      </trkpt>
      <trkpt lat="46.78744" lon="3.57107">
        <ele>196</ele>
        <time>2010-08-26T15:00:31Z</time>
      </trkpt>
      <trkpt lat="46.7874" lon="3.57031">
        <ele>197</ele>
        <time>2010-08-26T15:00:39Z</time>
      </trkpt>
      <trkpt lat="46.78769" lon="3.56969">
        <ele>197</ele>
        <time>2010-08-26T15:00:53Z</time>
      </trkpt>
      <trkpt lat="46.7882" lon="3.56954">
        <ele>196</ele>
        <time>2010-08-26T15:01:03Z</time>
      </trkpt>
      <trkpt lat="46.78844" lon="3.56887">
        <ele>196</ele>
        <time>2010-08-26T15:01:12Z</time>
      </trkpt>
      <trkpt lat="46.78891" lon="3.56901">
        <ele>196</ele>
        <time>2010-08-26T15:01:21Z</time>
      </trkpt>
      <trkpt lat="46.78944" lon="3.56926">
        <ele>196</ele>
        <time>2010-08-26T15:01:30Z</time>
      </trkpt>
      <trkpt lat="46.78997" lon="3.56921">
        <ele>197</ele>
        <time>2010-08-26T15:01:39Z</time>
      </trkpt>
      <trkpt lat="46.79049" lon="3.56948">
        <ele>197</ele>
        <time>2010-08-26T15:01:48Z</time>
      </trkpt>
      <trkpt lat="46.79082" lon="3.57006">
        <ele>196</ele>
        <time>2010-08-26T15:01:57Z</time>
      </trkpt>
      <trkpt lat="46.79096" lon="3.57084">
        <ele>196</ele>
        <time>2010-08-26T15:02:06Z</time>
      </trkpt>
      <trkpt lat="46.7913" lon="3.57151">
        <ele>195</ele>
        <time>2010-08-26T15:02:15Z</time>
      </trkpt>
      <trkpt lat="46.79163" lon="3.57209">
        <ele>194</ele>
        <time>2010-08-26T15:02:24Z</time>
      </trkpt>
      <trkpt lat="46.79173" lon="3.57283">
        <ele>194</ele>
        <time>2010-08-26T15:02:32Z</time>
      </trkpt>
      <trkpt lat="46.79183" lon="3.57367">
        <ele>193</ele>
        <time>2010-08-26T15:02:41Z</time>
      </trkpt>
      <trkpt lat="46.7919" lon="3.57449">
        <ele>193</ele>
        <time>2010-08-26T15:02:50Z</time>
      </trkpt>
      <trkpt lat="46.79208" lon="3.57526">
        <ele>192</ele>
        <time>2010-08-26T15:02:59Z</time>
      </trkpt>
      <trkpt lat="46.7923" lon="3.57604">
        <ele>192</ele>
        <time>2010-08-26T15:03:08Z</time>
      </trkpt>
      <trkpt lat="46.79251" lon="3.5768">
        <ele>192</ele>
        <time>2010-08-26T15:03:17Z</time>
      </trkpt>
      <trkpt lat="46.79296" lon="3.57718">
        <ele>193</ele>
        <time>2010-08-26T15:03:26Z</time>
      </trkpt>
      <trkpt lat="46.7935" lon="3.5774">
        <ele>195</ele>
        <time>2010-08-26T15:03:35Z</time>
      </trkpt>
      <trkpt lat="46.79405" lon="3.57761">
        <ele>198</ele>
        <time>2010-08-26T15:03:44Z</time>
      </trkpt>
      <trkpt lat="46.79459" lon="3.57749">
        <ele>198</ele>
        <time>2010-08-26T15:03:53Z</time>
      </trkpt>
      <trkpt lat="46.79506" lon="3.57702">
        <ele>198</ele>
        <time>2010-08-26T15:04:02Z</time>
      </trkpt>
      <trkpt lat="46.79557" lon="3.57663">
        <ele>198</ele>
        <time>2010-08-26T15:04:11Z</time>
      </trkpt>
      <trkpt lat="46.79608" lon="3.57622">
        <ele>199</ele>
        <time>2010-08-26T15:04:20Z</time>
      </trkpt>
      <trkpt lat="46.79659" lon="3.57593">
        <ele>199</ele>
        <time>2010-08-26T15:04:29Z</time>
      </trkpt>
      <trkpt lat="46.79711" lon="3.5757">
        <ele>199</ele>
        <time>2010-08-26T15:04:38Z</time>
      </trkpt>
      <trkpt lat="46.79765" lon="3.5756">
        <ele>200</ele>
        <time>2010-08-26T15:04:48Z</time>
      </trkpt>
      <trkpt lat="46.7981" lon="3.57595">
        <ele>200</ele>
        <time>2010-08-26T15:04:57Z</time>
      </trkpt>
      <trkpt lat="46.79854" lon="3.57635">
        <ele>200</ele>
        <time>2010-08-26T15:05:06Z</time>
      </trkpt>
      <trkpt lat="46.79898" lon="3.57679">
        <ele>199</ele>
        <time>2010-08-26T15:05:15Z</time>
      </trkpt>
      <trkpt lat="46.79934" lon="3.57737">
        <ele>199</ele>
        <time>2010-08-26T15:05:24Z</time>
      </trkpt>
      <trkpt lat="46.79987" lon="3.57758">
        <ele>199</ele>
        <time>2010-08-26T15:05:34Z</time>
      </trkpt>
      <trkpt lat="46.80036" lon="3.5777">
        <ele>200</ele>
        <time>2010-08-26T15:05:48Z</time>
      </trkpt>
      <trkpt lat="46.80081" lon="3.57804">
        <ele>203</ele>
        <time>2010-08-26T15:06:05Z</time>
      </trkpt>
      <trkpt lat="46.80124" lon="3.57842">
        <ele>203</ele>
        <time>2010-08-26T15:06:20Z</time>
      </trkpt>
      <trkpt lat="46.80165" lon="3.57881">
        <ele>203</ele>
        <time>2010-08-26T15:06:33Z</time>
      </trkpt>
      <trkpt lat="46.80207" lon="3.57919">
        <ele>206</ele>
        <time>2010-08-26T15:06:48Z</time>
      </trkpt>
      <trkpt lat="46.80247" lon="3.57957">
        <ele>214</ele>
        <time>2010-08-26T15:07:07Z</time>
      </trkpt>
      <trkpt lat="46.80273" lon="3.58018">
        <ele>219</ele>
        <time>2010-08-26T15:07:29Z</time>
      </trkpt>
      <trkpt lat="46.80295" lon="3.58085">
        <ele>220</ele>
        <time>2010-08-26T15:07:48Z</time>
      </trkpt>
      <trkpt lat="46.80328" lon="3.5814">
        <ele>219</ele>
        <time>2010-08-26T15:08:00Z</time>
      </trkpt>
      <trkpt lat="46.80364" lon="3.58197">
        <ele>218</ele>
        <time>2010-08-26T15:08:13Z</time>
      </trkpt>
      <trkpt lat="46.80373" lon="3.58273">
        <ele>219</ele>
        <time>2010-08-26T15:08:26Z</time>
      </trkpt>
      <trkpt lat="46.80415" lon="3.58311">
        <ele>220</ele>
        <time>2010-08-26T15:08:39Z</time>
      </trkpt>
      <trkpt lat="46.80463" lon="3.58331">
        <ele>225</ele>
        <time>2010-08-26T15:08:52Z</time>
      </trkpt>
      <trkpt lat="46.8051" lon="3.58351">
        <ele>230</ele>
        <time>2010-08-26T15:09:08Z</time>
      </trkpt>
      <trkpt lat="46.80549" lon="3.58392">
        <ele>236</ele>
        <time>2010-08-26T15:09:32Z</time>
      </trkpt>
      <trkpt lat="46.80544" lon="3.58465">
        <ele>236</ele>
        <time>2010-08-26T15:09:47Z</time>
      </trkpt>
      <trkpt lat="46.80574" lon="3.58523">
        <ele>236</ele>
        <time>2010-08-26T15:10:03Z</time>
      </trkpt>
      <trkpt lat="46.80619" lon="3.58556">
        <ele>235</ele>
        <time>2010-08-26T15:10:16Z</time>
      </trkpt>
      <trkpt lat="46.80669" lon="3.58553">
        <ele>235</ele>
        <time>2010-08-26T15:10:27Z</time>
      </trkpt>
      <trkpt lat="46.80721" lon="3.58529">
        <ele>236</ele>
        <time>2010-08-26T15:10:38Z</time>
      </trkpt>
      <trkpt lat="46.80767" lon="3.58484">
        <ele>236</ele>
        <time>2010-08-26T15:10:48Z</time>
      </trkpt>
      <trkpt lat="46.80811" lon="3.58439">
        <ele>235</ele>
        <time>2010-08-26T15:10:57Z</time>
      </trkpt>
      <trkpt lat="46.80857" lon="3.58395">
        <ele>235</ele>
        <time>2010-08-26T15:11:06Z</time>
      </trkpt>
      <trkpt lat="46.80901" lon="3.58352">
        <ele>234</ele>
        <time>2010-08-26T15:11:14Z</time>
      </trkpt>
      <trkpt lat="46.80945" lon="3.58308">
        <ele>234</ele>
        <time>2010-08-26T15:11:22Z</time>
      </trkpt>
      <trkpt lat="46.80991" lon="3.58264">
        <ele>234</ele>
        <time>2010-08-26T15:11:30Z</time>
      </trkpt>
      <trkpt lat="46.8104" lon="3.5823">
        <ele>232</ele>
        <time>2010-08-26T15:11:37Z</time>
      </trkpt>
      <trkpt lat="46.811" lon="3.5821">
        <ele>229</ele>
        <time>2010-08-26T15:11:44Z</time>
      </trkpt>
      <trkpt lat="46.81158" lon="3.58193">
        <ele>229</ele>
        <time>2010-08-26T15:11:51Z</time>
      </trkpt>
      <trkpt lat="46.81213" lon="3.58176">
        <ele>231</ele>
        <time>2010-08-26T15:11:59Z</time>
      </trkpt>
      <trkpt lat="46.81265" lon="3.5816">
        <ele>233</ele>
        <time>2010-08-26T15:12:08Z</time>
      </trkpt>
      <trkpt lat="46.81316" lon="3.58143">
        <ele>235</ele>
        <time>2010-08-26T15:12:18Z</time>
      </trkpt>
      <trkpt lat="46.81365" lon="3.58119">
        <ele>236</ele>
        <time>2010-08-26T15:12:28Z</time>
      </trkpt>
      <trkpt lat="46.81414" lon="3.58092">
        <ele>236</ele>
        <time>2010-08-26T15:12:38Z</time>
      </trkpt>
      <trkpt lat="46.81467" lon="3.58066">
        <ele>236</ele>
        <time>2010-08-26T15:12:48Z</time>
      </trkpt>
      <trkpt lat="46.81515" lon="3.5804">
        <ele>235</ele>
        <time>2010-08-26T15:12:57Z</time>
      </trkpt>
      <trkpt lat="46.81567" lon="3.58013">
        <ele>235</ele>
        <time>2010-08-26T15:13:07Z</time>
      </trkpt>
      <trkpt lat="46.81617" lon="3.57987">
        <ele>234</ele>
        <time>2010-08-26T15:13:18Z</time>
      </trkpt>
      <trkpt lat="46.81666" lon="3.5797">
        <ele>234</ele>
        <time>2010-08-26T15:13:27Z</time>
      </trkpt>
      <trkpt lat="46.8172" lon="3.57969">
        <ele>233</ele>
        <time>2010-08-26T15:13:36Z</time>
      </trkpt>
      <trkpt lat="46.81776" lon="3.57976">
        <ele>232</ele>
        <time>2010-08-26T15:13:45Z</time>
      </trkpt>
      <trkpt lat="46.81826" lon="3.57994">
        <ele>231</ele>
        <time>2010-08-26T15:13:53Z</time>
      </trkpt>
      <trkpt lat="46.8188" lon="3.58013">
        <ele>229</ele>
        <time>2010-08-26T15:14:01Z</time>
      </trkpt>
      <trkpt lat="46.81935" lon="3.58015">
        <ele>226</ele>
        <time>2010-08-26T15:14:08Z</time>
      </trkpt>
      <trkpt lat="46.81993" lon="3.57987">
        <ele>223</ele>
        <time>2010-08-26T15:14:15Z</time>
      </trkpt>
      <trkpt lat="46.82047" lon="3.57964">
        <ele>221</ele>
        <time>2010-08-26T15:14:21Z</time>
      </trkpt>
      <trkpt lat="46.82106" lon="3.57968">
        <ele>220</ele>
        <time>2010-08-26T15:14:28Z</time>
      </trkpt>
      <trkpt lat="46.8216" lon="3.57978">
        <ele>220</ele>
        <time>2010-08-26T15:14:35Z</time>
      </trkpt>
      <trkpt lat="46.82218" lon="3.57988">
        <ele>220</ele>
        <time>2010-08-26T15:14:43Z</time>
      </trkpt>
      <trkpt lat="46.82273" lon="3.57998">
        <ele>220</ele>
        <time>2010-08-26T15:14:51Z</time>
      </trkpt>
      <trkpt lat="46.82328" lon="3.58007">
        <ele>220</ele>
        <time>2010-08-26T15:14:59Z</time>
      </trkpt>
      <trkpt lat="46.82384" lon="3.58018">
        <ele>221</ele>
        <time>2010-08-26T15:15:08Z</time>
      </trkpt>
      <trkpt lat="46.82438" lon="3.58027">
        <ele>221</ele>
        <time>2010-08-26T15:15:18Z</time>
      </trkpt>
      <trkpt lat="46.82491" lon="3.58036">
        <ele>221</ele>
        <time>2010-08-26T15:15:28Z</time>
      </trkpt>
      <trkpt lat="46.82544" lon="3.58045">
        <ele>222</ele>
        <time>2010-08-26T15:15:37Z</time>
      </trkpt>
      <trkpt lat="46.82599" lon="3.58055">
        <ele>226</ele>
        <time>2010-08-26T15:15:46Z</time>
      </trkpt>
      <trkpt lat="46.82656" lon="3.58059">
        <ele>229</ele>
        <time>2010-08-26T15:15:55Z</time>
      </trkpt>
      <trkpt lat="46.82713" lon="3.58069">
        <ele>233</ele>
        <time>2010-08-26T15:16:03Z</time>
      </trkpt>
      <trkpt lat="46.82771" lon="3.5808">
        <ele>234</ele>
        <time>2010-08-26T15:16:11Z</time>
      </trkpt>
      <trkpt lat="46.82822" lon="3.58098">
        <ele>230</ele>
        <time>2010-08-26T15:16:18Z</time>
      </trkpt>
      <trkpt lat="46.82867" lon="3.58139">
        <ele>227</ele>
        <time>2010-08-26T15:16:25Z</time>
      </trkpt>
      <trkpt lat="46.82905" lon="3.58193">
        <ele>224</ele>
        <time>2010-08-26T15:16:32Z</time>
      </trkpt>
      <trkpt lat="46.82943" lon="3.58249">
        <ele>222</ele>
        <time>2010-08-26T15:16:39Z</time>
      </trkpt>
      <trkpt lat="46.82984" lon="3.58312">
        <ele>218</ele>
        <time>2010-08-26T15:16:46Z</time>
      </trkpt>
      <trkpt lat="46.83022" lon="3.58368">
        <ele>215</ele>
        <time>2010-08-26T15:16:52Z</time>
      </trkpt>
      <trkpt lat="46.8306" lon="3.58427">
        <ele>212</ele>
        <time>2010-08-26T15:16:58Z</time>
      </trkpt>
      <trkpt lat="46.83097" lon="3.58486">
        <ele>208</ele>
        <time>2010-08-26T15:17:04Z</time>
      </trkpt>
      <trkpt lat="46.83138" lon="3.58551">
        <ele>206</ele>
        <time>2010-08-26T15:17:11Z</time>
      </trkpt>
      <trkpt lat="46.83176" lon="3.5861">
        <ele>204</ele>
        <time>2010-08-26T15:17:18Z</time>
      </trkpt>
      <trkpt lat="46.83215" lon="3.58672">
        <ele>201</ele>
        <time>2010-08-26T15:17:25Z</time>
      </trkpt>
      <trkpt lat="46.83257" lon="3.58738">
        <ele>198</ele>
        <time>2010-08-26T15:17:32Z</time>
      </trkpt>
      <trkpt lat="46.83295" lon="3.58796">
        <ele>197</ele>
        <time>2010-08-26T15:17:39Z</time>
      </trkpt>
      <trkpt lat="46.83334" lon="3.58853">
        <ele>197</ele>
        <time>2010-08-26T15:17:48Z</time>
      </trkpt>
      <trkpt lat="46.83369" lon="3.5891">
        <ele>199</ele>
        <time>2010-08-26T15:18:00Z</time>
      </trkpt>
      <trkpt lat="46.83404" lon="3.58963">
        <ele>203</ele>
        <time>2010-08-26T15:18:15Z</time>
      </trkpt>
      <trkpt lat="46.83439" lon="3.59018">
        <ele>206</ele>
        <time>2010-08-26T15:18:31Z</time>
      </trkpt>
      <trkpt lat="46.83473" lon="3.59073">
        <ele>208</ele>
        <time>2010-08-26T15:18:47Z</time>
      </trkpt>
      <trkpt lat="46.83508" lon="3.59127">
        <ele>211</ele>
        <time>2010-08-26T15:19:03Z</time>
      </trkpt>
      <trkpt lat="46.83541" lon="3.59179">
        <ele>214</ele>
        <time>2010-08-26T15:19:18Z</time>
      </trkpt>
      <trkpt lat="46.83575" lon="3.59231">
        <ele>218</ele>
        <time>2010-08-26T15:19:33Z</time>
      </trkpt>
      <trkpt lat="46.8361" lon="3.59286">
        <ele>223</ele>
        <time>2010-08-26T15:19:48Z</time>
      </trkpt>
      <trkpt lat="46.83647" lon="3.59341">
        <ele>225</ele>
        <time>2010-08-26T15:20:01Z</time>
      </trkpt>
      <trkpt lat="46.8369" lon="3.59388">
        <ele>224</ele>
        <time>2010-08-26T15:20:13Z</time>
      </trkpt>
      <trkpt lat="46.83741" lon="3.59391">
        <ele>224</ele>
        <time>2010-08-26T15:20:24Z</time>
      </trkpt>
      <trkpt lat="46.83794" lon="3.59382">
        <ele>224</ele>
        <time>2010-08-26T15:20:35Z</time>
      </trkpt>
      <trkpt lat="46.83847" lon="3.59372">
        <ele>225</ele>
        <time>2010-08-26T15:20:46Z</time>
      </trkpt>
      <trkpt lat="46.83857" lon="3.59295">
        <ele>223</ele>
        <time>2010-08-26T15:20:57Z</time>
      </trkpt>
      <trkpt lat="46.83859" lon="3.59215">
        <ele>223</ele>
        <time>2010-08-26T15:21:07Z</time>
      </trkpt>
      <trkpt lat="46.83865" lon="3.59138">
        <ele>223</ele>
        <time>2010-08-26T15:21:16Z</time>
      </trkpt>
      <trkpt lat="46.839" lon="3.59084">
        <ele>226</ele>
        <time>2010-08-26T15:21:26Z</time>
      </trkpt>
      <trkpt lat="46.8394" lon="3.59032">
        <ele>233</ele>
        <time>2010-08-26T15:21:34Z</time>
      </trkpt>
      <trkpt lat="46.83984" lon="3.58979">
        <ele>237</ele>
        <time>2010-08-26T15:21:42Z</time>
      </trkpt>
      <trkpt lat="46.84029" lon="3.58921">
        <ele>238</ele>
        <time>2010-08-26T15:21:50Z</time>
      </trkpt>
      <trkpt lat="46.84069" lon="3.58867">
        <ele>238</ele>
        <time>2010-08-26T15:21:57Z</time>
      </trkpt>
      <trkpt lat="46.84109" lon="3.58814">
        <ele>237</ele>
        <time>2010-08-26T15:22:04Z</time>
      </trkpt>
      <trkpt lat="46.84149" lon="3.58761">
        <ele>236</ele>
        <time>2010-08-26T15:22:11Z</time>
      </trkpt>
      <trkpt lat="46.84182" lon="3.58699">
        <ele>232</ele>
        <time>2010-08-26T15:22:18Z</time>
      </trkpt>
      <trkpt lat="46.84195" lon="3.58614">
        <ele>229</ele>
        <time>2010-08-26T15:22:26Z</time>
      </trkpt>
      <trkpt lat="46.84204" lon="3.58536">
        <ele>226</ele>
        <time>2010-08-26T15:22:34Z</time>
      </trkpt>
      <trkpt lat="46.84225" lon="3.58467">
        <ele>223</ele>
        <time>2010-08-26T15:22:43Z</time>
      </trkpt>
      <trkpt lat="46.84275" lon="3.58443">
        <ele>219</ele>
        <time>2010-08-26T15:22:59Z</time>
      </trkpt>
      <trkpt lat="46.84328" lon="3.58465">
        <ele>216</ele>
        <time>2010-08-26T15:23:08Z</time>
      </trkpt>
      <trkpt lat="46.84385" lon="3.58459">
        <ele>212</ele>
        <time>2010-08-26T15:23:16Z</time>
      </trkpt>
      <trkpt lat="46.84433" lon="3.58413">
        <ele>209</ele>
        <time>2010-08-26T15:23:23Z</time>
      </trkpt>
      <trkpt lat="46.84478" lon="3.58361">
        <ele>206</ele>
        <time>2010-08-26T15:23:29Z</time>
      </trkpt>
      <trkpt lat="46.84529" lon="3.58303">
        <ele>202</ele>
        <time>2010-08-26T15:23:35Z</time>
      </trkpt>
      <trkpt lat="46.84575" lon="3.58251">
        <ele>199</ele>
        <time>2010-08-26T15:23:41Z</time>
      </trkpt>
      <trkpt lat="46.84621" lon="3.58198">
        <ele>199</ele>
        <time>2010-08-26T15:23:48Z</time>
      </trkpt>
      <trkpt lat="46.84665" lon="3.58148">
        <ele>198</ele>
        <time>2010-08-26T15:23:55Z</time>
      </trkpt>
      <trkpt lat="46.84711" lon="3.58096">
        <ele>198</ele>
        <time>2010-08-26T15:24:03Z</time>
      </trkpt>
      <trkpt lat="46.84756" lon="3.58043">
        <ele>198</ele>
        <time>2010-08-26T15:24:11Z</time>
      </trkpt>
      <trkpt lat="46.848" lon="3.57991">
        <ele>198</ele>
        <time>2010-08-26T15:24:19Z</time>
      </trkpt>
      <trkpt lat="46.84842" lon="3.57942">
        <ele>199</ele>
        <time>2010-08-26T15:24:27Z</time>
      </trkpt>
      <trkpt lat="46.84884" lon="3.57894">
        <ele>199</ele>
        <time>2010-08-26T15:24:35Z</time>
      </trkpt>
      <trkpt lat="46.84928" lon="3.57843">
        <ele>201</ele>
        <time>2010-08-26T15:24:44Z</time>
      </trkpt>
      <trkpt lat="46.84974" lon="3.57792">
        <ele>201</ele>
        <time>2010-08-26T15:24:53Z</time>
      </trkpt>
      <trkpt lat="46.85018" lon="3.57741">
        <ele>202</ele>
        <time>2010-08-26T15:25:02Z</time>
      </trkpt>
      <trkpt lat="46.85058" lon="3.57695">
        <ele>202</ele>
        <time>2010-08-26T15:25:10Z</time>
      </trkpt>
      <trkpt lat="46.85101" lon="3.57646">
        <ele>202</ele>
        <time>2010-08-26T15:25:19Z</time>
      </trkpt>
      <trkpt lat="46.85144" lon="3.576">
        <ele>201</ele>
        <time>2010-08-26T15:25:28Z</time>
      </trkpt>
      <trkpt lat="46.85186" lon="3.57553">
        <ele>202</ele>
        <time>2010-08-26T15:25:39Z</time>
      </trkpt>
      <trkpt lat="46.85228" lon="3.57505">
        <ele>200</ele>
        <time>2010-08-26T15:25:48Z</time>
      </trkpt>
      <trkpt lat="46.8527" lon="3.57457">
        <ele>198</ele>
        <time>2010-08-26T15:25:57Z</time>
      </trkpt>
      <trkpt lat="46.85313" lon="3.5741">
        <ele>199</ele>
        <time>2010-08-26T15:26:06Z</time>
      </trkpt>
      <trkpt lat="46.85355" lon="3.57363">
        <ele>203</ele>
        <time>2010-08-26T15:26:20Z</time>
      </trkpt>
      <trkpt lat="46.85355" lon="3.57293">
        <ele>195</ele>
        <time>2010-08-26T15:39:22Z</time>
      </trkpt>
      <trkpt lat="46.85325" lon="3.57237">
        <ele>194</ele>
        <time>2010-08-26T15:39:35Z</time>
      </trkpt>
      <trkpt lat="46.85294" lon="3.57179">
        <ele>193</ele>
        <time>2010-08-26T15:39:46Z</time>
      </trkpt>
      <trkpt lat="46.85259" lon="3.57119">
        <ele>189</ele>
        <time>2010-08-26T15:39:57Z</time>
      </trkpt>
      <trkpt lat="46.85225" lon="3.57056">
        <ele>189</ele>
        <time>2010-08-26T15:40:07Z</time>
      </trkpt>
      <trkpt lat="46.85191" lon="3.56991">
        <ele>190</ele>
        <time>2010-08-26T15:40:17Z</time>
      </trkpt>
      <trkpt lat="46.85157" lon="3.56928">
        <ele>188</ele>
        <time>2010-08-26T15:40:27Z</time>
      </trkpt>
      <trkpt lat="46.85123" lon="3.56864">
        <ele>187</ele>
        <time>2010-08-26T15:40:37Z</time>
      </trkpt>
      <trkpt lat="46.85093" lon="3.56802">
        <ele>189</ele>
        <time>2010-08-26T15:40:46Z</time>
      </trkpt>
      <trkpt lat="46.85066" lon="3.56737">
        <ele>189</ele>
        <time>2010-08-26T15:40:55Z</time>
      </trkpt>
      <trkpt lat="46.85042" lon="3.5667">
        <ele>189</ele>
        <time>2010-08-26T15:41:04Z</time>
      </trkpt>
      <trkpt lat="46.85019" lon="3.566">
        <ele>189</ele>
        <time>2010-08-26T15:41:13Z</time>
      </trkpt>
      <trkpt lat="46.84999" lon="3.56531">
        <ele>187</ele>
        <time>2010-08-26T15:41:22Z</time>
      </trkpt>
      <trkpt lat="46.8498" lon="3.56459">
        <ele>188</ele>
        <time>2010-08-26T15:41:31Z</time>
      </trkpt>
      <trkpt lat="46.8496" lon="3.56388">
        <ele>189</ele>
        <time>2010-08-26T15:41:40Z</time>
      </trkpt>
      <trkpt lat="46.8494" lon="3.5631">
        <ele>186</ele>
        <time>2010-08-26T15:41:50Z</time>
      </trkpt>
      <trkpt lat="46.84923" lon="3.56237">
        <ele>187</ele>
        <time>2010-08-26T15:41:59Z</time>
      </trkpt>
      <trkpt lat="46.84905" lon="3.56167">
        <ele>188</ele>
        <time>2010-08-26T15:42:08Z</time>
      </trkpt>
      <trkpt lat="46.84885" lon="3.56091">
        <ele>186</ele>
        <time>2010-08-26T15:42:18Z</time>
      </trkpt>
      <trkpt lat="46.84867" lon="3.56013">
        <ele>185</ele>
        <time>2010-08-26T15:42:28Z</time>
      </trkpt>
      <trkpt lat="46.84847" lon="3.5594">
        <ele>189</ele>
        <time>2010-08-26T15:42:38Z</time>
      </trkpt>
      <trkpt lat="46.84831" lon="3.55866">
        <ele>193</ele>
        <time>2010-08-26T15:42:50Z</time>
      </trkpt>
      <trkpt lat="46.84815" lon="3.55791">
        <ele>192</ele>
        <time>2010-08-26T15:43:00Z</time>
      </trkpt>
      <trkpt lat="46.84811" lon="3.55717">
        <ele>192</ele>
        <time>2010-08-26T15:43:10Z</time>
      </trkpt>
      <trkpt lat="46.84812" lon="3.55638">
        <ele>191</ele>
        <time>2010-08-26T15:43:20Z</time>
      </trkpt>
      <trkpt lat="46.84816" lon="3.55558">
        <ele>191</ele>
        <time>2010-08-26T15:43:30Z</time>
      </trkpt>
      <trkpt lat="46.84819" lon="3.55483">
        <ele>192</ele>
        <time>2010-08-26T15:43:39Z</time>
      </trkpt>
      <trkpt lat="46.84822" lon="3.55405">
        <ele>192</ele>
        <time>2010-08-26T15:43:49Z</time>
      </trkpt>
      <trkpt lat="46.84822" lon="3.55331">
        <ele>192</ele>
        <time>2010-08-26T15:44:03Z</time>
      </trkpt>
      <trkpt lat="46.84829" lon="3.55253">
        <ele>190</ele>
        <time>2010-08-26T15:44:13Z</time>
      </trkpt>
      <trkpt lat="46.84832" lon="3.55171">
        <ele>189</ele>
        <time>2010-08-26T15:44:22Z</time>
      </trkpt>
      <trkpt lat="46.84829" lon="3.55091">
        <ele>189</ele>
        <time>2010-08-26T15:44:31Z</time>
      </trkpt>
      <trkpt lat="46.84822" lon="3.55012">
        <ele>189</ele>
        <time>2010-08-26T15:44:40Z</time>
      </trkpt>
      <trkpt lat="46.84809" lon="3.54935">
        <ele>190</ele>
        <time>2010-08-26T15:44:49Z</time>
      </trkpt>
      <trkpt lat="46.84792" lon="3.54859">
        <ele>190</ele>
        <time>2010-08-26T15:44:58Z</time>
      </trkpt>
      <trkpt lat="46.8477" lon="3.54786">
        <ele>190</ele>
        <time>2010-08-26T15:45:07Z</time>
      </trkpt>
      <trkpt lat="46.84747" lon="3.54712">
        <ele>190</ele>
        <time>2010-08-26T15:45:16Z</time>
      </trkpt>
      <trkpt lat="46.84725" lon="3.54639">
        <ele>189</ele>
        <time>2010-08-26T15:45:25Z</time>
      </trkpt>
      <trkpt lat="46.84703" lon="3.54565">
        <ele>189</ele>
        <time>2010-08-26T15:45:34Z</time>
      </trkpt>
      <trkpt lat="46.84681" lon="3.54492">
        <ele>189</ele>
        <time>2010-08-26T15:45:43Z</time>
      </trkpt>
      <trkpt lat="46.8466" lon="3.54416">
        <ele>189</ele>
        <time>2010-08-26T15:45:53Z</time>
      </trkpt>
      <trkpt lat="46.84641" lon="3.54346">
        <ele>192</ele>
        <time>2010-08-26T15:46:05Z</time>
      </trkpt>
      <trkpt lat="46.84618" lon="3.54278">
        <ele>190</ele>
        <time>2010-08-26T15:46:14Z</time>
      </trkpt>
      <trkpt lat="46.84595" lon="3.54205">
        <ele>191</ele>
        <time>2010-08-26T15:46:24Z</time>
      </trkpt>
      <trkpt lat="46.84573" lon="3.54133">
        <ele>191</ele>
        <time>2010-08-26T15:46:34Z</time>
      </trkpt>
      <trkpt lat="46.84552" lon="3.54062">
        <ele>191</ele>
        <time>2010-08-26T15:46:43Z</time>
      </trkpt>
      <trkpt lat="46.84531" lon="3.53989">
        <ele>191</ele>
        <time>2010-08-26T15:46:52Z</time>
      </trkpt>
      <trkpt lat="46.84509" lon="3.53914">
        <ele>191</ele>
        <time>2010-08-26T15:47:01Z</time>
      </trkpt>
      <trkpt lat="46.84486" lon="3.5384">
        <ele>190</ele>
        <time>2010-08-26T15:47:10Z</time>
      </trkpt>
      <trkpt lat="46.84463" lon="3.53765">
        <ele>190</ele>
        <time>2010-08-26T15:47:19Z</time>
      </trkpt>
      <trkpt lat="46.84441" lon="3.53689">
        <ele>190</ele>
        <time>2010-08-26T15:47:28Z</time>
      </trkpt>
      <trkpt lat="46.84418" lon="3.53614">
        <ele>190</ele>
        <time>2010-08-26T15:47:37Z</time>
      </trkpt>
      <trkpt lat="46.84396" lon="3.53538">
        <ele>190</ele>
        <time>2010-08-26T15:47:46Z</time>
      </trkpt>
      <trkpt lat="46.84373" lon="3.53463">
        <ele>190</ele>
        <time>2010-08-26T15:47:55Z</time>
      </trkpt>
      <trkpt lat="46.8435" lon="3.53387">
        <ele>190</ele>
        <time>2010-08-26T15:48:04Z</time>
      </trkpt>
      <trkpt lat="46.84328" lon="3.53312">
        <ele>190</ele>
        <time>2010-08-26T15:48:13Z</time>
      </trkpt>
      <trkpt lat="46.84305" lon="3.53237">
        <ele>190</ele>
        <time>2010-08-26T15:48:22Z</time>
      </trkpt>
      <trkpt lat="46.84284" lon="3.53163">
        <ele>190</ele>
        <time>2010-08-26T15:48:31Z</time>
      </trkpt>
      <trkpt lat="46.84262" lon="3.53088">
        <ele>190</ele>
        <time>2010-08-26T15:48:40Z</time>
      </trkpt>
      <trkpt lat="46.8424" lon="3.53014">
        <ele>188</ele>
        <time>2010-08-26T15:48:49Z</time>
      </trkpt>
      <trkpt lat="46.84222" lon="3.5294">
        <ele>187</ele>
        <time>2010-08-26T15:48:58Z</time>
      </trkpt>
      <trkpt lat="46.84206" lon="3.52865">
        <ele>186</ele>
        <time>2010-08-26T15:49:07Z</time>
      </trkpt>
      <trkpt lat="46.84192" lon="3.5279">
        <ele>186</ele>
        <time>2010-08-26T15:49:16Z</time>
      </trkpt>
      <trkpt lat="46.84179" lon="3.52714">
        <ele>187</ele>
        <time>2010-08-26T15:49:25Z</time>
      </trkpt>
      <trkpt lat="46.84168" lon="3.52636">
        <ele>188</ele>
        <time>2010-08-26T15:49:34Z</time>
      </trkpt>
      <trkpt lat="46.84156" lon="3.52558">
        <ele>188</ele>
        <time>2010-08-26T15:49:43Z</time>
      </trkpt>
      <trkpt lat="46.84145" lon="3.52482">
        <ele>188</ele>
        <time>2010-08-26T15:49:52Z</time>
      </trkpt>
      <trkpt lat="46.84133" lon="3.52404">
        <ele>187</ele>
        <time>2010-08-26T15:50:01Z</time>
      </trkpt>
      <trkpt lat="46.84121" lon="3.52324">
        <ele>187</ele>
        <time>2010-08-26T15:50:10Z</time>
      </trkpt>
      <trkpt lat="46.84109" lon="3.52246">
        <ele>187</ele>
        <time>2010-08-26T15:50:19Z</time>
      </trkpt>
      <trkpt lat="46.84098" lon="3.52166">
        <ele>187</ele>
        <time>2010-08-26T15:50:28Z</time>
      </trkpt>
      <trkpt lat="46.84086" lon="3.52087">
        <ele>187</ele>
        <time>2010-08-26T15:50:37Z</time>
      </trkpt>
      <trkpt lat="46.84074" lon="3.52006">
        <ele>188</ele>
        <time>2010-08-26T15:50:46Z</time>
      </trkpt>
      <trkpt lat="46.84062" lon="3.51923">
        <ele>188</ele>
        <time>2010-08-26T15:50:55Z</time>
      </trkpt>
      <trkpt lat="46.8405" lon="3.51842">
        <ele>189</ele>
        <time>2010-08-26T15:51:04Z</time>
      </trkpt>
      <trkpt lat="46.84038" lon="3.5176">
        <ele>189</ele>
        <time>2010-08-26T15:51:13Z</time>
      </trkpt>
      <trkpt lat="46.84026" lon="3.51678">
        <ele>189</ele>
        <time>2010-08-26T15:51:22Z</time>
      </trkpt>
      <trkpt lat="46.84014" lon="3.51597">
        <ele>190</ele>
        <time>2010-08-26T15:51:31Z</time>
      </trkpt>
      <trkpt lat="46.84001" lon="3.51518">
        <ele>190</ele>
        <time>2010-08-26T15:51:40Z</time>
      </trkpt>
      <trkpt lat="46.83989" lon="3.51437">
        <ele>191</ele>
        <time>2010-08-26T15:51:49Z</time>
      </trkpt>
      <trkpt lat="46.83978" lon="3.5136">
        <ele>192</ele>
        <time>2010-08-26T15:51:58Z</time>
      </trkpt>
      <trkpt lat="46.83968" lon="3.51284">
        <ele>192</ele>
        <time>2010-08-26T15:52:09Z</time>
      </trkpt>
      <trkpt lat="46.83958" lon="3.51213">
        <ele>192</ele>
        <time>2010-08-26T15:52:23Z</time>
      </trkpt>
      <trkpt lat="46.83966" lon="3.51208">
        <ele>191</ele>
        <time>2010-08-26T15:57:44Z</time>
      </trkpt>
      <trkpt lat="46.84014" lon="3.51195">
        <ele>192</ele>
        <time>2010-08-26T15:57:54Z</time>
      </trkpt>
      <trkpt lat="46.84063" lon="3.51175">
        <ele>193</ele>
        <time>2010-08-26T15:58:04Z</time>
      </trkpt>
      <trkpt lat="46.84108" lon="3.51142">
        <ele>194</ele>
        <time>2010-08-26T15:58:17Z</time>
      </trkpt>
      <trkpt lat="46.84093" lon="3.51075">
        <ele>197</ele>
        <time>2010-08-26T15:58:48Z</time>
      </trkpt>
      <trkpt lat="46.84073" lon="3.51004">
        <ele>197</ele>
        <time>2010-08-26T15:59:00Z</time>
      </trkpt>
      <trkpt lat="46.84049" lon="3.50934">
        <ele>199</ele>
        <time>2010-08-26T15:59:12Z</time>
      </trkpt>
      <trkpt lat="46.84026" lon="3.50863">
        <ele>200</ele>
        <time>2010-08-26T15:59:24Z</time>
      </trkpt>
      <trkpt lat="46.84015" lon="3.50786">
        <ele>200</ele>
        <time>2010-08-26T15:59:36Z</time>
      </trkpt>
      <trkpt lat="46.84009" lon="3.50711">
        <ele>199</ele>
        <time>2010-08-26T15:59:48Z</time>
      </trkpt>
      <trkpt lat="46.83998" lon="3.50633">
        <ele>198</ele>
        <time>2010-08-26T15:59:58Z</time>
      </trkpt>
      <trkpt lat="46.83984" lon="3.50556">
        <ele>195</ele>
        <time>2010-08-26T16:00:07Z</time>
      </trkpt>
      <trkpt lat="46.83984" lon="3.50478">
        <ele>193</ele>
        <time>2010-08-26T16:00:16Z</time>
      </trkpt>
      <trkpt lat="46.83961" lon="3.50411">
        <ele>191</ele>
        <time>2010-08-26T16:00:31Z</time>
      </trkpt>
      <trkpt lat="46.83978" lon="3.50339">
        <ele>191</ele>
        <time>2010-08-26T16:00:42Z</time>
      </trkpt>
      <trkpt lat="46.83989" lon="3.50263">
        <ele>191</ele>
        <time>2010-08-26T16:00:52Z</time>
      </trkpt>
      <trkpt lat="46.83994" lon="3.50188">
        <ele>191</ele>
        <time>2010-08-26T16:01:01Z</time>
      </trkpt>
      <trkpt lat="46.83991" lon="3.50113">
        <ele>192</ele>
        <time>2010-08-26T16:01:10Z</time>
      </trkpt>
      <trkpt lat="46.83983" lon="3.50038">
        <ele>192</ele>
        <time>2010-08-26T16:01:19Z</time>
      </trkpt>
      <trkpt lat="46.83975" lon="3.49962">
        <ele>191</ele>
        <time>2010-08-26T16:01:28Z</time>
      </trkpt>
      <trkpt lat="46.83973" lon="3.4988">
        <ele>191</ele>
        <time>2010-08-26T16:01:38Z</time>
      </trkpt>
      <trkpt lat="46.83976" lon="3.49803">
        <ele>191</ele>
        <time>2010-08-26T16:01:47Z</time>
      </trkpt>
      <trkpt lat="46.83986" lon="3.49722">
        <ele>190</ele>
        <time>2010-08-26T16:01:57Z</time>
      </trkpt>
      <trkpt lat="46.84004" lon="3.49651">
        <ele>192</ele>
        <time>2010-08-26T16:02:08Z</time>
      </trkpt>
      <trkpt lat="46.84019" lon="3.4962">
        <ele>194</ele>
        <time>2010-08-26T16:08:00Z</time>
      </trkpt>
      <trkpt lat="46.84007" lon="3.49552">
        <ele>194</ele>
        <time>2010-08-26T16:14:27Z</time>
      </trkpt>
      <trkpt lat="46.84022" lon="3.49478">
        <ele>193</ele>
        <time>2010-08-26T16:14:35Z</time>
      </trkpt>
      <trkpt lat="46.84034" lon="3.49398">
        <ele>193</ele>
        <time>2010-08-26T16:14:45Z</time>
      </trkpt>
      <trkpt lat="46.8404" lon="3.49321">
        <ele>193</ele>
        <time>2010-08-26T16:14:55Z</time>
      </trkpt>
      <trkpt lat="46.84043" lon="3.49245">
        <ele>193</ele>
        <time>2010-08-26T16:15:05Z</time>
      </trkpt>
      <trkpt lat="46.84039" lon="3.49171">
        <ele>193</ele>
        <time>2010-08-26T16:15:15Z</time>
      </trkpt>
      <trkpt lat="46.84033" lon="3.49098">
        <ele>193</ele>
        <time>2010-08-26T16:15:25Z</time>
      </trkpt>
      <trkpt lat="46.8402" lon="3.49021">
        <ele>193</ele>
        <time>2010-08-26T16:15:35Z</time>
      </trkpt>
      <trkpt lat="46.84005" lon="3.48945">
        <ele>194</ele>
        <time>2010-08-26T16:15:45Z</time>
      </trkpt>
      <trkpt lat="46.83992" lon="3.48867">
        <ele>193</ele>
        <time>2010-08-26T16:15:55Z</time>
      </trkpt>
      <trkpt lat="46.83979" lon="3.48794">
        <ele>193</ele>
        <time>2010-08-26T16:16:04Z</time>
      </trkpt>
      <trkpt lat="46.83972" lon="3.48717">
        <ele>194</ele>
        <time>2010-08-26T16:16:14Z</time>
      </trkpt>
      <trkpt lat="46.83961" lon="3.48646">
        <ele>194</ele>
        <time>2010-08-26T16:16:25Z</time>
      </trkpt>
      <trkpt lat="46.83944" lon="3.48572">
        <ele>194</ele>
        <time>2010-08-26T16:16:39Z</time>
      </trkpt>
      <trkpt lat="46.8393" lon="3.48498">
        <ele>194</ele>
        <time>2010-08-26T16:16:50Z</time>
      </trkpt>
      <trkpt lat="46.83916" lon="3.4842">
        <ele>194</ele>
        <time>2010-08-26T16:17:01Z</time>
      </trkpt>
      <trkpt lat="46.83903" lon="3.48343">
        <ele>193</ele>
        <time>2010-08-26T16:17:11Z</time>
      </trkpt>
      <trkpt lat="46.8389" lon="3.48268">
        <ele>194</ele>
        <time>2010-08-26T16:17:21Z</time>
      </trkpt>
      <trkpt lat="46.83877" lon="3.48192">
        <ele>194</ele>
        <time>2010-08-26T16:17:30Z</time>
      </trkpt>
      <trkpt lat="46.83864" lon="3.4812">
        <ele>195</ele>
        <time>2010-08-26T16:17:39Z</time>
      </trkpt>
      <trkpt lat="46.83852" lon="3.48048">
        <ele>195</ele>
        <time>2010-08-26T16:17:48Z</time>
      </trkpt>
      <trkpt lat="46.83838" lon="3.47968">
        <ele>195</ele>
        <time>2010-08-26T16:17:58Z</time>
      </trkpt>
      <trkpt lat="46.83825" lon="3.47889">
        <ele>195</ele>
        <time>2010-08-26T16:18:08Z</time>
      </trkpt>
      <trkpt lat="46.83812" lon="3.47814">
        <ele>195</ele>
        <time>2010-08-26T16:18:17Z</time>
      </trkpt>
      <trkpt lat="46.83799" lon="3.47742">
        <ele>195</ele>
        <time>2010-08-26T16:18:26Z</time>
      </trkpt>
      <trkpt lat="46.83786" lon="3.47663">
        <ele>194</ele>
        <time>2010-08-26T16:18:36Z</time>
      </trkpt>
      <trkpt lat="46.83773" lon="3.47585">
        <ele>194</ele>
        <time>2010-08-26T16:18:46Z</time>
      </trkpt>
      <trkpt lat="46.83761" lon="3.4751">
        <ele>194</ele>
        <time>2010-08-26T16:18:56Z</time>
      </trkpt>
      <trkpt lat="46.83749" lon="3.47436">
        <ele>194</ele>
        <time>2010-08-26T16:19:08Z</time>
      </trkpt>
      <trkpt lat="46.8376" lon="3.47362">
        <ele>195</ele>
        <time>2010-08-26T16:19:30Z</time>
      </trkpt>
      <trkpt lat="46.83749" lon="3.47292">
        <ele>193</ele>
        <time>2010-08-26T16:19:39Z</time>
      </trkpt>
      <trkpt lat="46.83736" lon="3.47218">
        <ele>192</ele>
        <time>2010-08-26T16:19:48Z</time>
      </trkpt>
      <trkpt lat="46.83723" lon="3.47144">
        <ele>192</ele>
        <time>2010-08-26T16:19:57Z</time>
      </trkpt>
      <trkpt lat="46.83709" lon="3.47066">
        <ele>192</ele>
        <time>2010-08-26T16:20:07Z</time>
      </trkpt>
      <trkpt lat="46.83696" lon="3.46989">
        <ele>193</ele>
        <time>2010-08-26T16:20:17Z</time>
      </trkpt>
      <trkpt lat="46.83683" lon="3.46908">
        <ele>195</ele>
        <time>2010-08-26T16:20:27Z</time>
      </trkpt>
      <trkpt lat="46.83671" lon="3.46836">
        <ele>196</ele>
        <time>2010-08-26T16:20:37Z</time>
      </trkpt>
      <trkpt lat="46.8366" lon="3.46766">
        <ele>195</ele>
        <time>2010-08-26T16:20:49Z</time>
      </trkpt>
      <trkpt lat="46.83651" lon="3.46693">
        <ele>196</ele>
        <time>2010-08-26T16:21:05Z</time>
      </trkpt>
      <trkpt lat="46.83675" lon="3.46631">
        <ele>197</ele>
        <time>2010-08-26T16:22:03Z</time>
      </trkpt>
      <trkpt lat="46.8363" lon="3.4664">
        <ele>197</ele>
        <time>2010-08-26T16:22:16Z</time>
      </trkpt>
      <trkpt lat="46.83581" lon="3.46657">
        <ele>196</ele>
        <time>2010-08-26T16:22:27Z</time>
      </trkpt>
      <trkpt lat="46.83528" lon="3.46663">
        <ele>196</ele>
        <time>2010-08-26T16:22:36Z</time>
      </trkpt>
      <trkpt lat="46.83476" lon="3.46645">
        <ele>196</ele>
        <time>2010-08-26T16:22:45Z</time>
      </trkpt>
      <trkpt lat="46.83432" lon="3.46609">
        <ele>196</ele>
        <time>2010-08-26T16:22:55Z</time>
      </trkpt>
      <trkpt lat="46.83388" lon="3.46571">
        <ele>196</ele>
        <time>2010-08-26T16:23:05Z</time>
      </trkpt>
      <trkpt lat="46.83339" lon="3.46535">
        <ele>195</ele>
        <time>2010-08-26T16:23:15Z</time>
      </trkpt>
      <trkpt lat="46.83283" lon="3.46525">
        <ele>195</ele>
        <time>2010-08-26T16:23:25Z</time>
      </trkpt>
      <trkpt lat="46.83231" lon="3.46538">
        <ele>199</ele>
        <time>2010-08-26T16:23:35Z</time>
      </trkpt>
      <trkpt lat="46.83182" lon="3.46556">
        <ele>193</ele>
        <time>2010-08-26T16:24:57Z</time>
      </trkpt>
      <trkpt lat="46.8313" lon="3.46577">
        <ele>194</ele>
        <time>2010-08-26T16:25:09Z</time>
      </trkpt>
      <trkpt lat="46.83087" lon="3.46615">
        <ele>195</ele>
        <time>2010-08-26T16:25:19Z</time>
      </trkpt>
      <trkpt lat="46.83044" lon="3.46659">
        <ele>196</ele>
        <time>2010-08-26T16:25:30Z</time>
      </trkpt>
      <trkpt lat="46.8301" lon="3.46602">
        <ele>197</ele>
        <time>2010-08-26T16:25:42Z</time>
      </trkpt>
      <trkpt lat="46.82981" lon="3.46539">
        <ele>198</ele>
        <time>2010-08-26T16:25:53Z</time>
      </trkpt>
      <trkpt lat="46.82953" lon="3.46477">
        <ele>199</ele>
        <time>2010-08-26T16:26:04Z</time>
      </trkpt>
      <trkpt lat="46.82925" lon="3.46415">
        <ele>200</ele>
        <time>2010-08-26T16:26:16Z</time>
      </trkpt>
      <trkpt lat="46.82963" lon="3.46364">
        <ele>198</ele>
        <time>2010-08-26T16:26:45Z</time>
      </trkpt>
      <trkpt lat="46.83" lon="3.4631">
        <ele>197</ele>
        <time>2010-08-26T16:26:54Z</time>
      </trkpt>
      <trkpt lat="46.83013" lon="3.46241">
        <ele>195</ele>
        <time>2010-08-26T16:27:06Z</time>
      </trkpt>
      <trkpt lat="46.83035" lon="3.46174">
        <ele>195</ele>
        <time>2010-08-26T16:27:17Z</time>
      </trkpt>
      <trkpt lat="46.83039" lon="3.46098">
        <ele>193</ele>
        <time>2010-08-26T16:27:29Z</time>
      </trkpt>
      <trkpt lat="46.83031" lon="3.46024">
        <ele>194</ele>
        <time>2010-08-26T16:27:40Z</time>
      </trkpt>
      <trkpt lat="46.83015" lon="3.45952">
        <ele>195</ele>
        <time>2010-08-26T16:27:51Z</time>
      </trkpt>
      <trkpt lat="46.82986" lon="3.45891">
        <ele>196</ele>
        <time>2010-08-26T16:29:03Z</time>
      </trkpt>
      <trkpt lat="46.82942" lon="3.45862">
        <ele>196</ele>
        <time>2010-08-26T16:29:17Z</time>
      </trkpt>
      <trkpt lat="46.82893" lon="3.45855">
        <ele>197</ele>
        <time>2010-08-26T16:29:31Z</time>
      </trkpt>
      <trkpt lat="46.82846" lon="3.45874">
        <ele>200</ele>
        <time>2010-08-26T16:29:47Z</time>
      </trkpt>
    </trkseg>
  </trk>
</gpx>